<?xml version="1.0" encoding="utf-8"?>
<gpx xmlns:xsi="http://www.w3.org/2001/XMLSchema-instance" xmlns:xsd="http://www.w3.org/2001/XMLSchema" version="1.1" creator="Shapelink.com" xmlns="http://www.topografix.com/GPX/1/1" xmlns:gpxtpx="http://www.garmin.com/xmlschemas/TrackPointExtension/v1">
  <metadata>
    <name>Löpning 10.44 km, 2017-12-17</name>
    <desc></desc>
    <author><name>Bengt-Åke Forslund</name></author> 
    <time>2017-12-17T12:36:02Z</time>
  </metadata>
  <trk>
    <name>Löpning 10.44 km, 2017-12-17</name>
    <trkseg>
      <trkpt lat="62.636033242673" lon="17.96839302384">
        <ele>86.2</ele>
        <time>2017-12-17T12:36:02Z</time>
      </trkpt>
      <trkpt lat="62.636033158854" lon="17.968396795695">
        <ele>84.2</ele>
        <time>2017-12-17T12:36:03Z</time>
      </trkpt>
      <trkpt lat="62.636214124075" lon="17.968521769824">
        <ele>83.2</ele>
        <time>2017-12-17T12:36:13Z</time>
      </trkpt>
      <trkpt lat="62.636255698299" lon="17.968572312681">
        <ele>83.4</ele>
        <time>2017-12-17T12:36:14Z</time>
      </trkpt>
      <trkpt lat="62.636290986098" lon="17.968618161674">
        <ele>83.4</ele>
        <time>2017-12-17T12:36:15Z</time>
      </trkpt>
      <trkpt lat="62.6363209933" lon="17.968642133908">
        <ele>83.4</ele>
        <time>2017-12-17T12:36:16Z</time>
      </trkpt>
      <trkpt lat="62.636348988846" lon="17.968668201617">
        <ele>83.2</ele>
        <time>2017-12-17T12:36:17Z</time>
      </trkpt>
      <trkpt lat="62.636381929713" lon="17.968718073922">
        <ele>83.2</ele>
        <time>2017-12-17T12:36:18Z</time>
      </trkpt>
      <trkpt lat="62.636407662146" lon="17.968770125521">
        <ele>83.2</ele>
        <time>2017-12-17T12:36:19Z</time>
      </trkpt>
      <trkpt lat="62.636431802018" lon="17.968826200432">
        <ele>83.4</ele>
        <time>2017-12-17T12:36:20Z</time>
      </trkpt>
      <trkpt lat="62.636454600786" lon="17.968866433552">
        <ele>83.4</ele>
        <time>2017-12-17T12:36:21Z</time>
      </trkpt>
      <trkpt lat="62.636476645183" lon="17.968916305857">
        <ele>83.4</ele>
        <time>2017-12-17T12:36:22Z</time>
      </trkpt>
      <trkpt lat="62.636505227462" lon="17.968964082687">
        <ele>83.4</ele>
        <time>2017-12-17T12:36:23Z</time>
      </trkpt>
      <trkpt lat="62.636531211352" lon="17.969017810666">
        <ele>83.4</ele>
        <time>2017-12-17T12:36:24Z</time>
      </trkpt>
      <trkpt lat="62.636551830826" lon="17.969073215025">
        <ele>83.4</ele>
        <time>2017-12-17T12:36:25Z</time>
      </trkpt>
      <trkpt lat="62.636573707585" lon="17.969123674063">
        <ele>83.4</ele>
        <time>2017-12-17T12:36:26Z</time>
      </trkpt>
      <trkpt lat="62.636591896308" lon="17.969186454494">
        <ele>83.2</ele>
        <time>2017-12-17T12:36:27Z</time>
      </trkpt>
      <trkpt lat="62.636610587945" lon="17.96925719773">
        <ele>83.4</ele>
        <time>2017-12-17T12:36:28Z</time>
      </trkpt>
      <trkpt lat="62.636627603202" lon="17.96932090017">
        <ele>83.4</ele>
        <time>2017-12-17T12:36:29Z</time>
      </trkpt>
      <trkpt lat="62.636648055038" lon="17.969387452456">
        <ele>83.2</ele>
        <time>2017-12-17T12:36:30Z</time>
      </trkpt>
      <trkpt lat="62.636665992304" lon="17.969443024453">
        <ele>83.4</ele>
        <time>2017-12-17T12:36:31Z</time>
      </trkpt>
      <trkpt lat="62.63668057681" lon="17.969501781572">
        <ele>83.4</ele>
        <time>2017-12-17T12:36:32Z</time>
      </trkpt>
      <trkpt lat="62.636699352266" lon="17.969556850655">
        <ele>83.4</ele>
        <time>2017-12-17T12:36:33Z</time>
      </trkpt>
      <trkpt lat="62.636712260392" lon="17.969614685765">
        <ele>83.6</ele>
        <time>2017-12-17T12:36:34Z</time>
      </trkpt>
      <trkpt lat="62.636722905405" lon="17.969664306613">
        <ele>83.6</ele>
        <time>2017-12-17T12:36:35Z</time>
      </trkpt>
      <trkpt lat="62.636737322273" lon="17.969706132294">
        <ele>83.8</ele>
        <time>2017-12-17T12:36:36Z</time>
      </trkpt>
      <trkpt lat="62.63675098477" lon="17.96974753888">
        <ele>83.8</ele>
        <time>2017-12-17T12:36:37Z</time>
      </trkpt>
      <trkpt lat="62.636769676407" lon="17.969792130588">
        <ele>83.8</ele>
        <time>2017-12-17T12:36:38Z</time>
      </trkpt>
      <trkpt lat="62.636786607845" lon="17.969838231038">
        <ele>84</ele>
        <time>2017-12-17T12:36:39Z</time>
      </trkpt>
      <trkpt lat="62.636805634758" lon="17.969883158022">
        <ele>84</ele>
        <time>2017-12-17T12:36:40Z</time>
      </trkpt>
      <trkpt lat="62.636827343879" lon="17.969912243215">
        <ele>84.2</ele>
        <time>2017-12-17T12:36:41Z</time>
      </trkpt>
      <trkpt lat="62.636850813199" lon="17.96995541">
        <ele>84.2</ele>
        <time>2017-12-17T12:36:42Z</time>
      </trkpt>
      <trkpt lat="62.636875958899" lon="17.969994385835">
        <ele>84.2</ele>
        <time>2017-12-17T12:36:43Z</time>
      </trkpt>
      <trkpt lat="62.636904038264" lon="17.970038223172">
        <ele>84.4</ele>
        <time>2017-12-17T12:36:44Z</time>
      </trkpt>
      <trkpt lat="62.636931949991" lon="17.970074600618">
        <ele>84.2</ele>
        <time>2017-12-17T12:36:45Z</time>
      </trkpt>
      <trkpt lat="62.636965729048" lon="17.97010125506">
        <ele>84.2</ele>
        <time>2017-12-17T12:36:46Z</time>
      </trkpt>
      <trkpt lat="62.636993054042" lon="17.970125394932">
        <ele>84.2</ele>
        <time>2017-12-17T12:36:47Z</time>
      </trkpt>
      <trkpt lat="62.637031946058" lon="17.970151295003">
        <ele>84.2</ele>
        <time>2017-12-17T12:36:48Z</time>
      </trkpt>
      <trkpt lat="62.637069329332" lon="17.970167220613">
        <ele>84.2</ele>
        <time>2017-12-17T12:36:49Z</time>
      </trkpt>
      <trkpt lat="62.637108472805" lon="17.970173758495">
        <ele>84.2</ele>
        <time>2017-12-17T12:36:50Z</time>
      </trkpt>
      <trkpt lat="62.637145436984" lon="17.970176105427">
        <ele>84.2</ele>
        <time>2017-12-17T12:36:51Z</time>
      </trkpt>
      <trkpt lat="62.637184077543" lon="17.970165628052">
        <ele>84</ele>
        <time>2017-12-17T12:36:52Z</time>
      </trkpt>
      <trkpt lat="62.63722707669" lon="17.970149367166">
        <ele>83.8</ele>
        <time>2017-12-17T12:36:53Z</time>
      </trkpt>
      <trkpt lat="62.637274266787" lon="17.970129502063">
        <ele>83.2</ele>
        <time>2017-12-17T12:36:54Z</time>
      </trkpt>
      <trkpt lat="62.63732095397" lon="17.970104104906">
        <ele>83</ele>
        <time>2017-12-17T12:36:55Z</time>
      </trkpt>
      <trkpt lat="62.637368814619" lon="17.970081222319">
        <ele>82.8</ele>
        <time>2017-12-17T12:36:56Z</time>
      </trkpt>
      <trkpt lat="62.637415501802" lon="17.970063452691">
        <ele>82.6</ele>
        <time>2017-12-17T12:36:57Z</time>
      </trkpt>
      <trkpt lat="62.63746596084" lon="17.970055825162">
        <ele>82.4</ele>
        <time>2017-12-17T12:36:58Z</time>
      </trkpt>
      <trkpt lat="62.637515581688" lon="17.97006856565">
        <ele>82.2</ele>
        <time>2017-12-17T12:36:59Z</time>
      </trkpt>
      <trkpt lat="62.637565286355" lon="17.970105613648">
        <ele>82.2</ele>
        <time>2017-12-17T12:37:00Z</time>
      </trkpt>
      <trkpt lat="62.637605854751" lon="17.970156743238">
        <ele>82</ele>
        <time>2017-12-17T12:37:01Z</time>
      </trkpt>
      <trkpt lat="62.637637705971" lon="17.970214829805">
        <ele>81.8</ele>
        <time>2017-12-17T12:37:02Z</time>
      </trkpt>
      <trkpt lat="62.637669473372" lon="17.970285908317">
        <ele>81.6</ele>
        <time>2017-12-17T12:37:03Z</time>
      </trkpt>
      <trkpt lat="62.637694116158" lon="17.970353214974">
        <ele>81.6</ele>
        <time>2017-12-17T12:37:04Z</time>
      </trkpt>
      <trkpt lat="62.637718088392" lon="17.970417671785">
        <ele>81.4</ele>
        <time>2017-12-17T12:37:05Z</time>
      </trkpt>
      <trkpt lat="62.637743904644" lon="17.970465616253">
        <ele>81.4</ele>
        <time>2017-12-17T12:37:06Z</time>
      </trkpt>
      <trkpt lat="62.637768379792" lon="17.970538035869">
        <ele>81.4</ele>
        <time>2017-12-17T12:37:07Z</time>
      </trkpt>
      <trkpt lat="62.637793022578" lon="17.970617915376">
        <ele>81.4</ele>
        <time>2017-12-17T12:37:08Z</time>
      </trkpt>
      <trkpt lat="62.637809115826" lon="17.970681953092">
        <ele>81.4</ele>
        <time>2017-12-17T12:37:09Z</time>
      </trkpt>
      <trkpt lat="62.637822107771" lon="17.970755294717">
        <ele>81.6</ele>
        <time>2017-12-17T12:37:10Z</time>
      </trkpt>
      <trkpt lat="62.637837530467" lon="17.970817153139">
        <ele>81.8</ele>
        <time>2017-12-17T12:37:11Z</time>
      </trkpt>
      <trkpt lat="62.637844738901" lon="17.970888231651">
        <ele>81.8</ele>
        <time>2017-12-17T12:37:12Z</time>
      </trkpt>
      <trkpt lat="62.637858569036" lon="17.970952101729">
        <ele>81.8</ele>
        <time>2017-12-17T12:37:13Z</time>
      </trkpt>
      <trkpt lat="62.637865945108" lon="17.971024605164">
        <ele>81.8</ele>
        <time>2017-12-17T12:37:14Z</time>
      </trkpt>
      <trkpt lat="62.637879691424" lon="17.971080512437">
        <ele>81.8</ele>
        <time>2017-12-17T12:37:15Z</time>
      </trkpt>
      <trkpt lat="62.637885558754" lon="17.971149076379">
        <ele>81.8</ele>
        <time>2017-12-17T12:37:16Z</time>
      </trkpt>
      <trkpt lat="62.637898969794" lon="17.971198613408">
        <ele>82</ele>
        <time>2017-12-17T12:37:17Z</time>
      </trkpt>
      <trkpt lat="62.637910620635" lon="17.971266925893">
        <ele>82</ele>
        <time>2017-12-17T12:37:18Z</time>
      </trkpt>
      <trkpt lat="62.637918331983" lon="17.971328029944">
        <ele>82</ele>
        <time>2017-12-17T12:37:19Z</time>
      </trkpt>
      <trkpt lat="62.637930737195" lon="17.971383015208">
        <ele>82.2</ele>
        <time>2017-12-17T12:37:20Z</time>
      </trkpt>
      <trkpt lat="62.637935011964" lon="17.971442945793">
        <ele>82.2</ele>
        <time>2017-12-17T12:37:21Z</time>
      </trkpt>
      <trkpt lat="62.637946914262" lon="17.971494159202">
        <ele>82.2</ele>
        <time>2017-12-17T12:37:22Z</time>
      </trkpt>
      <trkpt lat="62.637953619782" lon="17.971547719543">
        <ele>82.4</ele>
        <time>2017-12-17T12:37:23Z</time>
      </trkpt>
      <trkpt lat="62.637957643094" lon="17.971610919069">
        <ele>82.4</ele>
        <time>2017-12-17T12:37:24Z</time>
      </trkpt>
      <trkpt lat="62.637963258967" lon="17.97166699398">
        <ele>82.6</ele>
        <time>2017-12-17T12:37:25Z</time>
      </trkpt>
      <trkpt lat="62.637967533736" lon="17.971730277325">
        <ele>82.6</ele>
        <time>2017-12-17T12:37:26Z</time>
      </trkpt>
      <trkpt lat="62.637972981971" lon="17.971792973937">
        <ele>82.8</ele>
        <time>2017-12-17T12:37:27Z</time>
      </trkpt>
      <trkpt lat="62.637980274224" lon="17.971847707744">
        <ele>82.8</ele>
        <time>2017-12-17T12:37:28Z</time>
      </trkpt>
      <trkpt lat="62.637985722459" lon="17.971906967777">
        <ele>82.8</ele>
        <time>2017-12-17T12:37:29Z</time>
      </trkpt>
      <trkpt lat="62.637994607273" lon="17.971965808715">
        <ele>82.8</ele>
        <time>2017-12-17T12:37:30Z</time>
      </trkpt>
      <trkpt lat="62.637996116015" lon="17.972030684621">
        <ele>82.8</ele>
        <time>2017-12-17T12:37:31Z</time>
      </trkpt>
      <trkpt lat="62.638003995001" lon="17.972086340437">
        <ele>82.8</ele>
        <time>2017-12-17T12:37:32Z</time>
      </trkpt>
      <trkpt lat="62.638006174295" lon="17.972153563275">
        <ele>83</ele>
        <time>2017-12-17T12:37:33Z</time>
      </trkpt>
      <trkpt lat="62.638009527055" lon="17.972216678982">
        <ele>83</ele>
        <time>2017-12-17T12:37:34Z</time>
      </trkpt>
      <trkpt lat="62.638015226747" lon="17.972270993694">
        <ele>83</ele>
        <time>2017-12-17T12:37:35Z</time>
      </trkpt>
      <trkpt lat="62.63802000443" lon="17.972334863772">
        <ele>83</ele>
        <time>2017-12-17T12:37:36Z</time>
      </trkpt>
      <trkpt lat="62.638028051054" lon="17.972385993362">
        <ele>83.2</ele>
        <time>2017-12-17T12:37:37Z</time>
      </trkpt>
      <trkpt lat="62.638033164013" lon="17.972439050789">
        <ele>83.2</ele>
        <time>2017-12-17T12:37:38Z</time>
      </trkpt>
      <trkpt lat="62.638038863705" lon="17.972484564506">
        <ele>83.2</ele>
        <time>2017-12-17T12:37:39Z</time>
      </trkpt>
      <trkpt lat="62.638041126818" lon="17.972529826766">
        <ele>83.2</ele>
        <time>2017-12-17T12:37:40Z</time>
      </trkpt>
      <trkpt lat="62.638045569225" lon="17.972582129822">
        <ele>83.4</ele>
        <time>2017-12-17T12:37:41Z</time>
      </trkpt>
      <trkpt lat="62.6380476647" lon="17.97263342705">
        <ele>83.6</ele>
        <time>2017-12-17T12:37:42Z</time>
      </trkpt>
      <trkpt lat="62.638051101279" lon="17.97268204207">
        <ele>83.6</ele>
        <time>2017-12-17T12:37:43Z</time>
      </trkpt>
      <trkpt lat="62.638052861478" lon="17.972731076185">
        <ele>84</ele>
        <time>2017-12-17T12:37:44Z</time>
      </trkpt>
      <trkpt lat="62.638054118763" lon="17.972781954318">
        <ele>84</ele>
        <time>2017-12-17T12:37:45Z</time>
      </trkpt>
      <trkpt lat="62.63805772298" lon="17.972829395872">
        <ele>84.2</ele>
        <time>2017-12-17T12:37:46Z</time>
      </trkpt>
      <trkpt lat="62.638052861478" lon="17.972878010892">
        <ele>84.2</ele>
        <time>2017-12-17T12:37:47Z</time>
      </trkpt>
      <trkpt lat="62.638055962781" lon="17.972936516554">
        <ele>84.4</ele>
        <time>2017-12-17T12:37:48Z</time>
      </trkpt>
      <trkpt lat="62.638050598365" lon="17.97298630504">
        <ele>84.4</ele>
        <time>2017-12-17T12:37:49Z</time>
      </trkpt>
      <trkpt lat="62.638058142075" lon="17.973035422974">
        <ele>84.6</ele>
        <time>2017-12-17T12:37:50Z</time>
      </trkpt>
      <trkpt lat="62.638051604193" lon="17.973082780709">
        <ele>84.6</ele>
        <time>2017-12-17T12:37:51Z</time>
      </trkpt>
      <trkpt lat="62.638056968609" lon="17.973128713521">
        <ele>84.8</ele>
        <time>2017-12-17T12:37:52Z</time>
      </trkpt>
      <trkpt lat="62.638053364392" lon="17.973175903618">
        <ele>84.8</ele>
        <time>2017-12-17T12:37:53Z</time>
      </trkpt>
      <trkpt lat="62.638057303885" lon="17.973232481443">
        <ele>85</ele>
        <time>2017-12-17T12:37:54Z</time>
      </trkpt>
      <trkpt lat="62.638056381876" lon="17.973273552753">
        <ele>85.2</ele>
        <time>2017-12-17T12:37:55Z</time>
      </trkpt>
      <trkpt lat="62.638052610021" lon="17.973319150289">
        <ele>85.2</ele>
        <time>2017-12-17T12:37:56Z</time>
      </trkpt>
      <trkpt lat="62.63805772298" lon="17.973357455572">
        <ele>85.4</ele>
        <time>2017-12-17T12:37:57Z</time>
      </trkpt>
      <trkpt lat="62.638053280573" lon="17.973409004257">
        <ele>85.4</ele>
        <time>2017-12-17T12:37:58Z</time>
      </trkpt>
      <trkpt lat="62.638052023288" lon="17.973444711151">
        <ele>85.6</ele>
        <time>2017-12-17T12:37:59Z</time>
      </trkpt>
      <trkpt lat="62.638043641388" lon="17.973497014207">
        <ele>85.6</ele>
        <time>2017-12-17T12:38:00Z</time>
      </trkpt>
      <trkpt lat="62.638040707723" lon="17.973540600087">
        <ele>85.8</ele>
        <time>2017-12-17T12:38:01Z</time>
      </trkpt>
      <trkpt lat="62.638036600592" lon="17.973587790184">
        <ele>85.8</ele>
        <time>2017-12-17T12:38:02Z</time>
      </trkpt>
      <trkpt lat="62.638041629732" lon="17.973630956969">
        <ele>86</ele>
        <time>2017-12-17T12:38:03Z</time>
      </trkpt>
      <trkpt lat="62.638040623904" lon="17.973689043536">
        <ele>86</ele>
        <time>2017-12-17T12:38:04Z</time>
      </trkpt>
      <trkpt lat="62.638045653044" lon="17.97373732328">
        <ele>86</ele>
        <time>2017-12-17T12:38:05Z</time>
      </trkpt>
      <trkpt lat="62.638046994148" lon="17.973804127023">
        <ele>86</ele>
        <time>2017-12-17T12:38:06Z</time>
      </trkpt>
      <trkpt lat="62.638050346908" lon="17.97386472816">
        <ele>86</ele>
        <time>2017-12-17T12:38:07Z</time>
      </trkpt>
      <trkpt lat="62.638056549514" lon="17.973923988193">
        <ele>86</ele>
        <time>2017-12-17T12:38:08Z</time>
      </trkpt>
      <trkpt lat="62.63806107574" lon="17.973983332045">
        <ele>85.8</ele>
        <time>2017-12-17T12:38:09Z</time>
      </trkpt>
      <trkpt lat="62.638069960554" lon="17.974036892386">
        <ele>86.2</ele>
        <time>2017-12-17T12:38:10Z</time>
      </trkpt>
      <trkpt lat="62.638074319142" lon="17.974098247894">
        <ele>86.2</ele>
        <time>2017-12-17T12:38:11Z</time>
      </trkpt>
      <trkpt lat="62.63808203049" lon="17.974152646425">
        <ele>86.2</ele>
        <time>2017-12-17T12:38:12Z</time>
      </trkpt>
      <trkpt lat="62.638085215612" lon="17.974218611978">
        <ele>86.2</ele>
        <time>2017-12-17T12:38:13Z</time>
      </trkpt>
      <trkpt lat="62.638089155105" lon="17.974288936119">
        <ele>86.2</ele>
        <time>2017-12-17T12:38:14Z</time>
      </trkpt>
      <trkpt lat="62.638088987467" lon="17.974353141473">
        <ele>86.2</ele>
        <time>2017-12-17T12:38:15Z</time>
      </trkpt>
      <trkpt lat="62.638089993295" lon="17.974423549433">
        <ele>86</ele>
        <time>2017-12-17T12:38:16Z</time>
      </trkpt>
      <trkpt lat="62.638091334399" lon="17.974476355403">
        <ele>86</ele>
        <time>2017-12-17T12:38:17Z</time>
      </trkpt>
      <trkpt lat="62.638085886164" lon="17.974559420032">
        <ele>86</ele>
        <time>2017-12-17T12:38:18Z</time>
      </trkpt>
      <trkpt lat="62.638086053802" lon="17.97462329011">
        <ele>86.2</ele>
        <time>2017-12-17T12:38:19Z</time>
      </trkpt>
      <trkpt lat="62.638071553115" lon="17.974691015862">
        <ele>86</ele>
        <time>2017-12-17T12:38:20Z</time>
      </trkpt>
      <trkpt lat="62.638064009405" lon="17.974754718302">
        <ele>86.2</ele>
        <time>2017-12-17T12:38:21Z</time>
      </trkpt>
      <trkpt lat="62.638053951125" lon="17.974798388001">
        <ele>86.2</ele>
        <time>2017-12-17T12:38:22Z</time>
      </trkpt>
      <trkpt lat="62.638044647216" lon="17.974842560614">
        <ele>86.2</ele>
        <time>2017-12-17T12:38:23Z</time>
      </trkpt>
      <trkpt lat="62.638020758801" lon="17.974890253625">
        <ele>86.2</ele>
        <time>2017-12-17T12:38:24Z</time>
      </trkpt>
      <trkpt lat="62.638002570078" lon="17.974934090962">
        <ele>86.2</ele>
        <time>2017-12-17T12:38:25Z</time>
      </trkpt>
      <trkpt lat="62.63798396226" lon="17.974973234435">
        <ele>86.2</ele>
        <time>2017-12-17T12:38:26Z</time>
      </trkpt>
      <trkpt lat="62.63797055122" lon="17.975008270777">
        <ele>86.4</ele>
        <time>2017-12-17T12:38:27Z</time>
      </trkpt>
      <trkpt lat="62.637953200687" lon="17.975043139481">
        <ele>86.4</ele>
        <time>2017-12-17T12:38:28Z</time>
      </trkpt>
      <trkpt lat="62.637934760507" lon="17.975079684565">
        <ele>86.8</ele>
        <time>2017-12-17T12:38:29Z</time>
      </trkpt>
      <trkpt lat="62.637918918716" lon="17.975115056183">
        <ele>87</ele>
        <time>2017-12-17T12:38:30Z</time>
      </trkpt>
      <trkpt lat="62.637899388889" lon="17.975145901575">
        <ele>87.2</ele>
        <time>2017-12-17T12:38:31Z</time>
      </trkpt>
      <trkpt lat="62.637888157143" lon="17.975177752795">
        <ele>87.2</ele>
        <time>2017-12-17T12:38:32Z</time>
      </trkpt>
      <trkpt lat="62.637869046411" lon="17.975208765825">
        <ele>87.4</ele>
        <time>2017-12-17T12:38:33Z</time>
      </trkpt>
      <trkpt lat="62.63785236643" lon="17.97524103614">
        <ele>87.4</ele>
        <time>2017-12-17T12:38:34Z</time>
      </trkpt>
      <trkpt lat="62.637838033381" lon="17.975275653387">
        <ele>87.6</ele>
        <time>2017-12-17T12:38:35Z</time>
      </trkpt>
      <trkpt lat="62.637819174106" lon="17.975307085512">
        <ele>87.6</ele>
        <time>2017-12-17T12:38:36Z</time>
      </trkpt>
      <trkpt lat="62.637807187989" lon="17.975340445474">
        <ele>87.8</ele>
        <time>2017-12-17T12:38:37Z</time>
      </trkpt>
      <trkpt lat="62.637791346198" lon="17.975369195391">
        <ele>87.8</ele>
        <time>2017-12-17T12:38:38Z</time>
      </trkpt>
      <trkpt lat="62.637776174959" lon="17.975390653055">
        <ele>88</ele>
        <time>2017-12-17T12:38:39Z</time>
      </trkpt>
      <trkpt lat="62.637765613765" lon="17.975413284185">
        <ele>88</ele>
        <time>2017-12-17T12:38:40Z</time>
      </trkpt>
      <trkpt lat="62.637752202725" lon="17.975439016618">
        <ele>88.2</ele>
        <time>2017-12-17T12:38:41Z</time>
      </trkpt>
      <trkpt lat="62.637736947667" lon="17.97545980373">
        <ele>88.4</ele>
        <time>2017-12-17T12:38:42Z</time>
      </trkpt>
      <trkpt lat="62.637723788084" lon="17.9754790821">
        <ele>88.6</ele>
        <time>2017-12-17T12:38:43Z</time>
      </trkpt>
      <trkpt lat="62.637708784483" lon="17.975499701574">
        <ele>88.8</ele>
        <time>2017-12-17T12:38:44Z</time>
      </trkpt>
      <trkpt lat="62.637690428122" lon="17.97550841875">
        <ele>89</ele>
        <time>2017-12-17T12:38:45Z</time>
      </trkpt>
      <trkpt lat="62.637674167236" lon="17.975526356016">
        <ele>89.4</ele>
        <time>2017-12-17T12:38:46Z</time>
      </trkpt>
      <trkpt lat="62.63765958273" lon="17.975536665753">
        <ele>89.4</ele>
        <time>2017-12-17T12:38:47Z</time>
      </trkpt>
      <trkpt lat="62.637634520849" lon="17.975559129245">
        <ele>89.6</ele>
        <time>2017-12-17T12:38:48Z</time>
      </trkpt>
      <trkpt lat="62.637614236651" lon="17.975567594964">
        <ele>89.8</ele>
        <time>2017-12-17T12:38:49Z</time>
      </trkpt>
      <trkpt lat="62.637593952453" lon="17.975585783687">
        <ele>89.8</ele>
        <time>2017-12-17T12:38:50Z</time>
      </trkpt>
      <trkpt lat="62.637575847549" lon="17.975596931614">
        <ele>90.2</ele>
        <time>2017-12-17T12:38:51Z</time>
      </trkpt>
      <trkpt lat="62.637558497016" lon="17.975610258835">
        <ele>90.2</ele>
        <time>2017-12-17T12:38:52Z</time>
      </trkpt>
      <trkpt lat="62.637540140655" lon="17.975624843341">
        <ele>90.2</ele>
        <time>2017-12-17T12:38:53Z</time>
      </trkpt>
      <trkpt lat="62.637528657452" lon="17.975635907449">
        <ele>90.4</ele>
        <time>2017-12-17T12:38:54Z</time>
      </trkpt>
      <trkpt lat="62.637509462901" lon="17.975643199702">
        <ele>90.8</ele>
        <time>2017-12-17T12:38:55Z</time>
      </trkpt>
      <trkpt lat="62.637494543119" lon="17.975658370941">
        <ele>91</ele>
        <time>2017-12-17T12:38:56Z</time>
      </trkpt>
      <trkpt lat="62.637477779319" lon="17.975669602687">
        <ele>91</ele>
        <time>2017-12-17T12:38:57Z</time>
      </trkpt>
      <trkpt lat="62.637461183157" lon="17.975679660967">
        <ele>91.2</ele>
        <time>2017-12-17T12:38:58Z</time>
      </trkpt>
      <trkpt lat="62.63744584428" lon="17.975693910197">
        <ele>91.4</ele>
        <time>2017-12-17T12:38:59Z</time>
      </trkpt>
      <trkpt lat="62.637426314453" lon="17.975700867174">
        <ele>91.4</ele>
        <time>2017-12-17T12:39:00Z</time>
      </trkpt>
      <trkpt lat="62.637411646128" lon="17.975723246847">
        <ele>91.6</ele>
        <time>2017-12-17T12:39:01Z</time>
      </trkpt>
      <trkpt lat="62.637392283939" lon="17.975738753362">
        <ele>91.8</ele>
        <time>2017-12-17T12:39:02Z</time>
      </trkpt>
      <trkpt lat="62.637375352501" lon="17.975767838555">
        <ele>92</ele>
        <time>2017-12-17T12:39:03Z</time>
      </trkpt>
      <trkpt lat="62.63735615795" lon="17.975787116925">
        <ele>92</ele>
        <time>2017-12-17T12:39:04Z</time>
      </trkpt>
      <trkpt lat="62.637338891236" lon="17.975805389467">
        <ele>92.2</ele>
        <time>2017-12-17T12:39:05Z</time>
      </trkpt>
      <trkpt lat="62.637323803816" lon="17.975823662009">
        <ele>92.4</ele>
        <time>2017-12-17T12:39:06Z</time>
      </trkpt>
      <trkpt lat="62.637310225138" lon="17.975839839076">
        <ele>92.4</ele>
        <time>2017-12-17T12:39:07Z</time>
      </trkpt>
      <trkpt lat="62.63729748465" lon="17.975868505174">
        <ele>92.6</ele>
        <time>2017-12-17T12:39:08Z</time>
      </trkpt>
      <trkpt lat="62.637288516017" lon="17.975899518204">
        <ele>92.8</ele>
        <time>2017-12-17T12:39:09Z</time>
      </trkpt>
      <trkpt lat="62.63727485352" lon="17.97592499918">
        <ele>92.8</ele>
        <time>2017-12-17T12:39:10Z</time>
      </trkpt>
      <trkpt lat="62.637263370317" lon="17.975951737441">
        <ele>93</ele>
        <time>2017-12-17T12:39:11Z</time>
      </trkpt>
      <trkpt lat="62.637254569322" lon="17.975982499014">
        <ele>93.2</ele>
        <time>2017-12-17T12:39:12Z</time>
      </trkpt>
      <trkpt lat="62.637242667024" lon="17.976013092949">
        <ele>93.4</ele>
        <time>2017-12-17T12:39:13Z</time>
      </trkpt>
      <trkpt lat="62.637237386427" lon="17.976048045472">
        <ele>93.6</ele>
        <time>2017-12-17T12:39:14Z</time>
      </trkpt>
      <trkpt lat="62.637225651767" lon="17.976081405434">
        <ele>93.8</ele>
        <time>2017-12-17T12:39:15Z</time>
      </trkpt>
      <trkpt lat="62.637217772781" lon="17.976119626898">
        <ele>94</ele>
        <time>2017-12-17T12:39:16Z</time>
      </trkpt>
      <trkpt lat="62.637209139424" lon="17.976148125358">
        <ele>94.2</ele>
        <time>2017-12-17T12:39:17Z</time>
      </trkpt>
      <trkpt lat="62.637198075316" lon="17.97619321998">
        <ele>94.2</ele>
        <time>2017-12-17T12:39:18Z</time>
      </trkpt>
      <trkpt lat="62.637191621253" lon="17.976231944358">
        <ele>94.6</ele>
        <time>2017-12-17T12:39:19Z</time>
      </trkpt>
      <trkpt lat="62.637181898249" lon="17.976275614057">
        <ele>94.6</ele>
        <time>2017-12-17T12:39:20Z</time>
      </trkpt>
      <trkpt lat="62.637176366195" lon="17.976310818037">
        <ele>94.6</ele>
        <time>2017-12-17T12:39:21Z</time>
      </trkpt>
      <trkpt lat="62.637169157761" lon="17.97634828513">
        <ele>94.6</ele>
        <time>2017-12-17T12:39:22Z</time>
      </trkpt>
      <trkpt lat="62.637164715354" lon="17.976387344784">
        <ele>94.8</ele>
        <time>2017-12-17T12:39:23Z</time>
      </trkpt>
      <trkpt lat="62.637153064513" lon="17.976431433578">
        <ele>94.6</ele>
        <time>2017-12-17T12:39:24Z</time>
      </trkpt>
      <trkpt lat="62.637142503319" lon="17.976476612019">
        <ele>94.8</ele>
        <time>2017-12-17T12:39:25Z</time>
      </trkpt>
      <trkpt lat="62.63713655217" lon="17.976514414388">
        <ele>95</ele>
        <time>2017-12-17T12:39:26Z</time>
      </trkpt>
      <trkpt lat="62.63712817027" lon="17.976554898965">
        <ele>95.2</ele>
        <time>2017-12-17T12:39:27Z</time>
      </trkpt>
      <trkpt lat="62.637123895501" lon="17.976593790981">
        <ele>95.2</ele>
        <time>2017-12-17T12:39:28Z</time>
      </trkpt>
      <trkpt lat="62.637120207465" lon="17.976631928626">
        <ele>95.4</ele>
        <time>2017-12-17T12:39:29Z</time>
      </trkpt>
      <trkpt lat="62.637115262144" lon="17.976677274705">
        <ele>95.4</ele>
        <time>2017-12-17T12:39:30Z</time>
      </trkpt>
      <trkpt lat="62.637113669583" lon="17.976716166721">
        <ele>95.4</ele>
        <time>2017-12-17T12:39:31Z</time>
      </trkpt>
      <trkpt lat="62.637111322651" lon="17.976766793397">
        <ele>95.4</ele>
        <time>2017-12-17T12:39:32Z</time>
      </trkpt>
      <trkpt lat="62.637110484461" lon="17.976813648218">
        <ele>95.4</ele>
        <time>2017-12-17T12:39:33Z</time>
      </trkpt>
      <trkpt lat="62.637108975719" lon="17.976867711473">
        <ele>95.4</ele>
        <time>2017-12-17T12:39:34Z</time>
      </trkpt>
      <trkpt lat="62.63711056828" lon="17.976913141371">
        <ele>95.4</ele>
        <time>2017-12-17T12:39:35Z</time>
      </trkpt>
      <trkpt lat="62.637110149185" lon="17.976969551558">
        <ele>95.6</ele>
        <time>2017-12-17T12:39:36Z</time>
      </trkpt>
      <trkpt lat="62.637113250488" lon="17.977010036135">
        <ele>95.6</ele>
        <time>2017-12-17T12:39:37Z</time>
      </trkpt>
      <trkpt lat="62.637112328479" lon="17.977071894557">
        <ele>95.6</ele>
        <time>2017-12-17T12:39:38Z</time>
      </trkpt>
      <trkpt lat="62.637113837221" lon="17.977125035803">
        <ele>95.6</ele>
        <time>2017-12-17T12:39:39Z</time>
      </trkpt>
      <trkpt lat="62.63711056828" lon="17.977184212017">
        <ele>95.6</ele>
        <time>2017-12-17T12:39:40Z</time>
      </trkpt>
      <trkpt lat="62.637108221348" lon="17.977230312467">
        <ele>95.6</ele>
        <time>2017-12-17T12:39:41Z</time>
      </trkpt>
      <trkpt lat="62.637102437837" lon="17.977290745966">
        <ele>95.6</ele>
        <time>2017-12-17T12:39:42Z</time>
      </trkpt>
      <trkpt lat="62.637100090905" lon="17.977338438977">
        <ele>95.6</ele>
        <time>2017-12-17T12:39:43Z</time>
      </trkpt>
      <trkpt lat="62.637089864987" lon="17.97740021358">
        <ele>95.6</ele>
        <time>2017-12-17T12:39:44Z</time>
      </trkpt>
      <trkpt lat="62.6370837462" lon="17.977447571315">
        <ele>95.6</ele>
        <time>2017-12-17T12:39:45Z</time>
      </trkpt>
      <trkpt lat="62.637071424807" lon="17.977499790552">
        <ele>95.6</ele>
        <time>2017-12-17T12:39:46Z</time>
      </trkpt>
      <trkpt lat="62.637066311848" lon="17.977544130803">
        <ele>95.4</ele>
        <time>2017-12-17T12:39:47Z</time>
      </trkpt>
      <trkpt lat="62.637052565532" lon="17.977597523506">
        <ele>95.6</ele>
        <time>2017-12-17T12:39:48Z</time>
      </trkpt>
      <trkpt lat="62.637041585243" lon="17.977647395811">
        <ele>95.6</ele>
        <time>2017-12-17T12:39:49Z</time>
      </trkpt>
      <trkpt lat="62.637028677117" lon="17.977693328623">
        <ele>95.6</ele>
        <time>2017-12-17T12:39:50Z</time>
      </trkpt>
      <trkpt lat="62.637016355724" lon="17.977743452385">
        <ele>95.6</ele>
        <time>2017-12-17T12:39:51Z</time>
      </trkpt>
      <trkpt lat="62.637008560557" lon="17.977784523695">
        <ele>95.8</ele>
        <time>2017-12-17T12:39:52Z</time>
      </trkpt>
      <trkpt lat="62.637000513933" lon="17.977840514787">
        <ele>95.8</ele>
        <time>2017-12-17T12:39:53Z</time>
      </trkpt>
      <trkpt lat="62.636994981879" lon="17.977880161174">
        <ele>96</ele>
        <time>2017-12-17T12:39:54Z</time>
      </trkpt>
      <trkpt lat="62.636991293843" lon="17.977921651579">
        <ele>96</ele>
        <time>2017-12-17T12:39:55Z</time>
      </trkpt>
      <trkpt lat="62.63698400159" lon="17.977983929096">
        <ele>96</ele>
        <time>2017-12-17T12:39:56Z</time>
      </trkpt>
      <trkpt lat="62.636977966622" lon="17.978040171645">
        <ele>96</ele>
        <time>2017-12-17T12:39:57Z</time>
      </trkpt>
      <trkpt lat="62.636971344921" lon="17.978095995099">
        <ele>96</ele>
        <time>2017-12-17T12:39:58Z</time>
      </trkpt>
      <trkpt lat="62.636964136487" lon="17.978143520472">
        <ele>96</ele>
        <time>2017-12-17T12:39:59Z</time>
      </trkpt>
      <trkpt lat="62.636955670768" lon="17.978196913175">
        <ele>96</ele>
        <time>2017-12-17T12:40:00Z</time>
      </trkpt>
      <trkpt lat="62.636947456506" lon="17.978235302277">
        <ele>96</ele>
        <time>2017-12-17T12:40:01Z</time>
      </trkpt>
      <trkpt lat="62.636936392398" lon="17.978279642528">
        <ele>96</ele>
        <time>2017-12-17T12:40:02Z</time>
      </trkpt>
      <trkpt lat="62.636927423765" lon="17.978318702182">
        <ele>96</ele>
        <time>2017-12-17T12:40:03Z</time>
      </trkpt>
      <trkpt lat="62.636912839259" lon="17.978355498723">
        <ele>96</ele>
        <time>2017-12-17T12:40:04Z</time>
      </trkpt>
      <trkpt lat="62.636903116255" lon="17.978391540893">
        <ele>96</ele>
        <time>2017-12-17T12:40:05Z</time>
      </trkpt>
      <trkpt lat="62.636887023007" lon="17.978435462049">
        <ele>96</ele>
        <time>2017-12-17T12:40:06Z</time>
      </trkpt>
      <trkpt lat="62.636878054374" lon="17.978482568327">
        <ele>96</ele>
        <time>2017-12-17T12:40:07Z</time>
      </trkpt>
      <trkpt lat="62.636864224239" lon="17.97852338818">
        <ele>96</ele>
        <time>2017-12-17T12:40:08Z</time>
      </trkpt>
      <trkpt lat="62.636848550086" lon="17.97855943035">
        <ele>96.2</ele>
        <time>2017-12-17T12:40:09Z</time>
      </trkpt>
      <trkpt lat="62.636831115734" lon="17.978600250203">
        <ele>96.2</ele>
        <time>2017-12-17T12:40:10Z</time>
      </trkpt>
      <trkpt lat="62.636818291427" lon="17.978625814998">
        <ele>96.2</ele>
        <time>2017-12-17T12:40:11Z</time>
      </trkpt>
      <trkpt lat="62.636797755772" lon="17.978653475268">
        <ele>96.4</ele>
        <time>2017-12-17T12:40:12Z</time>
      </trkpt>
      <trkpt lat="62.636786272569" lon="17.978673172733">
        <ele>96.4</ele>
        <time>2017-12-17T12:40:13Z</time>
      </trkpt>
      <trkpt lat="62.636768838217" lon="17.978696390596">
        <ele>96.4</ele>
        <time>2017-12-17T12:40:14Z</time>
      </trkpt>
      <trkpt lat="62.636755091901" lon="17.978724134685">
        <ele>96.6</ele>
        <time>2017-12-17T12:40:15Z</time>
      </trkpt>
      <trkpt lat="62.636737238454" lon="17.978740144114">
        <ele>96.6</ele>
        <time>2017-12-17T12:40:16Z</time>
      </trkpt>
      <trkpt lat="62.636720390835" lon="17.978755985905">
        <ele>96.6</ele>
        <time>2017-12-17T12:40:17Z</time>
      </trkpt>
      <trkpt lat="62.636700861008" lon="17.978776689198">
        <ele>96.8</ele>
        <time>2017-12-17T12:40:18Z</time>
      </trkpt>
      <trkpt lat="62.636679487163" lon="17.978781634519">
        <ele>96.8</ele>
        <time>2017-12-17T12:40:19Z</time>
      </trkpt>
      <trkpt lat="62.636658364775" lon="17.97879244717">
        <ele>96.8</ele>
        <time>2017-12-17T12:40:20Z</time>
      </trkpt>
      <trkpt lat="62.636638248215" lon="17.978797057215">
        <ele>97</ele>
        <time>2017-12-17T12:40:21Z</time>
      </trkpt>
      <trkpt lat="62.636619305121" lon="17.978798901233">
        <ele>97</ele>
        <time>2017-12-17T12:40:22Z</time>
      </trkpt>
      <trkpt lat="62.636600781122" lon="17.978806277305">
        <ele>97.2</ele>
        <time>2017-12-17T12:40:23Z</time>
      </trkpt>
      <trkpt lat="62.636577814716" lon="17.97880334364">
        <ele>97.2</ele>
        <time>2017-12-17T12:40:24Z</time>
      </trkpt>
      <trkpt lat="62.636557781975" lon="17.978805774391">
        <ele>97.4</ele>
        <time>2017-12-17T12:40:25Z</time>
      </trkpt>
      <trkpt lat="62.636536659587" lon="17.978807618409">
        <ele>97.6</ele>
        <time>2017-12-17T12:40:26Z</time>
      </trkpt>
      <trkpt lat="62.636516626846" lon="17.978801499622">
        <ele>97.6</ele>
        <time>2017-12-17T12:40:27Z</time>
      </trkpt>
      <trkpt lat="62.636496594105" lon="17.978806528762">
        <ele>97.8</ele>
        <time>2017-12-17T12:40:28Z</time>
      </trkpt>
      <trkpt lat="62.636479327391" lon="17.978817928146">
        <ele>97.8</ele>
        <time>2017-12-17T12:40:29Z</time>
      </trkpt>
      <trkpt lat="62.636455019881" lon="17.978809630065">
        <ele>98</ele>
        <time>2017-12-17T12:40:30Z</time>
      </trkpt>
      <trkpt lat="62.636436412063" lon="17.978819101612">
        <ele>98.2</ele>
        <time>2017-12-17T12:40:31Z</time>
      </trkpt>
      <trkpt lat="62.636418307159" lon="17.978821280906">
        <ele>98.4</ele>
        <time>2017-12-17T12:40:32Z</time>
      </trkpt>
      <trkpt lat="62.636398525875" lon="17.978819353069">
        <ele>98.6</ele>
        <time>2017-12-17T12:40:33Z</time>
      </trkpt>
      <trkpt lat="62.636384192826" lon="17.978833769937">
        <ele>98.8</ele>
        <time>2017-12-17T12:40:34Z</time>
      </trkpt>
      <trkpt lat="62.636367429026" lon="17.978845588416">
        <ele>99</ele>
        <time>2017-12-17T12:40:35Z</time>
      </trkpt>
      <trkpt lat="62.636351503416" lon="17.978850617556">
        <ele>99.2</ele>
        <time>2017-12-17T12:40:36Z</time>
      </trkpt>
      <trkpt lat="62.636343540611" lon="17.97886117875">
        <ele>99.4</ele>
        <time>2017-12-17T12:40:37Z</time>
      </trkpt>
      <trkpt lat="62.63633021339" lon="17.978870147383">
        <ele>99.6</ele>
        <time>2017-12-17T12:40:38Z</time>
      </trkpt>
      <trkpt lat="62.636314790694" lon="17.978880289482">
        <ele>99.8</ele>
        <time>2017-12-17T12:40:39Z</time>
      </trkpt>
      <trkpt lat="62.636301547292" lon="17.978897388558">
        <ele>100.2</ele>
        <time>2017-12-17T12:40:40Z</time>
      </trkpt>
      <trkpt lat="62.636284280578" lon="17.978913481806">
        <ele>100.2</ele>
        <time>2017-12-17T12:40:41Z</time>
      </trkpt>
      <trkpt lat="62.636266846226" lon="17.978933095452">
        <ele>100.2</ele>
        <time>2017-12-17T12:40:42Z</time>
      </trkpt>
      <trkpt lat="62.636253351367" lon="17.978954720754">
        <ele>100.4</ele>
        <time>2017-12-17T12:40:43Z</time>
      </trkpt>
      <trkpt lat="62.636237593395" lon="17.978977268065">
        <ele>100.4</ele>
        <time>2017-12-17T12:40:44Z</time>
      </trkpt>
      <trkpt lat="62.63622543964" lon="17.978989589458">
        <ele>100.6</ele>
        <time>2017-12-17T12:40:45Z</time>
      </trkpt>
      <trkpt lat="62.636213034428" lon="17.979000821204">
        <ele>100.6</ele>
        <time>2017-12-17T12:40:46Z</time>
      </trkpt>
      <trkpt lat="62.63620616127" lon="17.979009286923">
        <ele>101</ele>
        <time>2017-12-17T12:40:47Z</time>
      </trkpt>
      <trkpt lat="62.636192331135" lon="17.979030828406">
        <ele>101.2</ele>
        <time>2017-12-17T12:40:48Z</time>
      </trkpt>
      <trkpt lat="62.636182189036" lon="17.979043149799">
        <ele>101.6</ele>
        <time>2017-12-17T12:40:49Z</time>
      </trkpt>
      <trkpt lat="62.636174812964" lon="17.979055555011">
        <ele>102.2</ele>
        <time>2017-12-17T12:40:50Z</time>
      </trkpt>
      <trkpt lat="62.636166011969" lon="17.979066954395">
        <ele>102.6</ele>
        <time>2017-12-17T12:40:51Z</time>
      </trkpt>
      <trkpt lat="62.636157294793" lon="17.979080533073">
        <ele>102.8</ele>
        <time>2017-12-17T12:40:52Z</time>
      </trkpt>
      <trkpt lat="62.636147907065" lon="17.97910090109">
        <ele>103.2</ele>
        <time>2017-12-17T12:40:53Z</time>
      </trkpt>
      <trkpt lat="62.636135334215" lon="17.979119928003">
        <ele>103.4</ele>
        <time>2017-12-17T12:40:54Z</time>
      </trkpt>
      <trkpt lat="62.636121420261" lon="17.979144822246">
        <ele>103.4</ele>
        <time>2017-12-17T12:40:55Z</time>
      </trkpt>
      <trkpt lat="62.636113876551" lon="17.979170973774">
        <ele>103.6</ele>
        <time>2017-12-17T12:40:56Z</time>
      </trkpt>
      <trkpt lat="62.636102728624" lon="17.979195448922">
        <ele>103.6</ele>
        <time>2017-12-17T12:40:57Z</time>
      </trkpt>
      <trkpt lat="62.636094179086" lon="17.979224617934">
        <ele>103.8</ele>
        <time>2017-12-17T12:40:58Z</time>
      </trkpt>
      <trkpt lat="62.636083114978" lon="17.979260743923">
        <ele>104</ele>
        <time>2017-12-17T12:40:59Z</time>
      </trkpt>
      <trkpt lat="62.636069787757" lon="17.979294942075">
        <ele>104</ele>
        <time>2017-12-17T12:41:00Z</time>
      </trkpt>
      <trkpt lat="62.636060567667" lon="17.979325200734">
        <ele>104.4</ele>
        <time>2017-12-17T12:41:01Z</time>
      </trkpt>
      <trkpt lat="62.636052521043" lon="17.979356129945">
        <ele>104.4</ele>
        <time>2017-12-17T12:41:02Z</time>
      </trkpt>
      <trkpt lat="62.636045731704" lon="17.97939091483">
        <ele>104.6</ele>
        <time>2017-12-17T12:41:03Z</time>
      </trkpt>
      <trkpt lat="62.636040283469" lon="17.979422179317">
        <ele>104.6</ele>
        <time>2017-12-17T12:41:04Z</time>
      </trkpt>
      <trkpt lat="62.636032991216" lon="17.97947473383">
        <ele>104.6</ele>
        <time>2017-12-17T12:41:05Z</time>
      </trkpt>
      <trkpt lat="62.636028800266" lon="17.979544135962">
        <ele>104.6</ele>
        <time>2017-12-17T12:41:06Z</time>
      </trkpt>
      <trkpt lat="62.636025196049" lon="17.979632648826">
        <ele>104.6</ele>
        <time>2017-12-17T12:41:07Z</time>
      </trkpt>
      <trkpt lat="62.636024441678" lon="17.979755695118">
        <ele>104.4</ele>
        <time>2017-12-17T12:41:08Z</time>
      </trkpt>
      <trkpt lat="62.636023771126" lon="17.979894164106">
        <ele>104.2</ele>
        <time>2017-12-17T12:41:09Z</time>
      </trkpt>
      <trkpt lat="62.636026956248" lon="17.980038165148">
        <ele>103.6</ele>
        <time>2017-12-17T12:41:10Z</time>
      </trkpt>
      <trkpt lat="62.636039696736" lon="17.980167414046">
        <ele>102.6</ele>
        <time>2017-12-17T12:41:11Z</time>
      </trkpt>
      <trkpt lat="62.636060400029" lon="17.980309738708">
        <ele>101.6</ele>
        <time>2017-12-17T12:41:12Z</time>
      </trkpt>
      <trkpt lat="62.63608210915" lon="17.98045122518">
        <ele>100.4</ele>
        <time>2017-12-17T12:41:13Z</time>
      </trkpt>
      <trkpt lat="62.636104405004" lon="17.980598578982">
        <ele>99.6</ele>
        <time>2017-12-17T12:41:14Z</time>
      </trkpt>
      <trkpt lat="62.63613156236" lon="17.980728498432">
        <ele>98.8</ele>
        <time>2017-12-17T12:41:15Z</time>
      </trkpt>
      <trkpt lat="62.636156372784" lon="17.980864033755">
        <ele>98.4</ele>
        <time>2017-12-17T12:41:16Z</time>
      </trkpt>
      <trkpt lat="62.63617933919" lon="17.980975680663">
        <ele>98.2</ele>
        <time>2017-12-17T12:41:17Z</time>
      </trkpt>
      <trkpt lat="62.636203981976" lon="17.981120268438">
        <ele>97.8</ele>
        <time>2017-12-17T12:41:18Z</time>
      </trkpt>
      <trkpt lat="62.63621873412" lon="17.981247840956">
        <ele>97.6</ele>
        <time>2017-12-17T12:41:19Z</time>
      </trkpt>
      <trkpt lat="62.636233234807" lon="17.981371390162">
        <ele>97.4</ele>
        <time>2017-12-17T12:41:20Z</time>
      </trkpt>
      <trkpt lat="62.636241113793" lon="17.98148974259">
        <ele>97.2</ele>
        <time>2017-12-17T12:41:21Z</time>
      </trkpt>
      <trkpt lat="62.636250752978" lon="17.981604155525">
        <ele>97</ele>
        <time>2017-12-17T12:41:22Z</time>
      </trkpt>
      <trkpt lat="62.636263242009" lon="17.981713958415">
        <ele>96.8</ele>
        <time>2017-12-17T12:41:23Z</time>
      </trkpt>
      <trkpt lat="62.636277491239" lon="17.981825940599">
        <ele>96.8</ele>
        <time>2017-12-17T12:41:24Z</time>
      </trkpt>
      <trkpt lat="62.636290650822" lon="17.981927361589">
        <ele>96.6</ele>
        <time>2017-12-17T12:41:25Z</time>
      </trkpt>
      <trkpt lat="62.636302050206" lon="17.982027609113">
        <ele>96.6</ele>
        <time>2017-12-17T12:41:26Z</time>
      </trkpt>
      <trkpt lat="62.636306827889" lon="17.982119307099">
        <ele>96.6</ele>
        <time>2017-12-17T12:41:27Z</time>
      </trkpt>
      <trkpt lat="62.636307917536" lon="17.982204299565">
        <ele>96.4</ele>
        <time>2017-12-17T12:41:28Z</time>
      </trkpt>
      <trkpt lat="62.63630925864" lon="17.982296249008">
        <ele>96.4</ele>
        <time>2017-12-17T12:41:29Z</time>
      </trkpt>
      <trkpt lat="62.636312779038" lon="17.982388533727">
        <ele>96.6</ele>
        <time>2017-12-17T12:41:30Z</time>
      </trkpt>
      <trkpt lat="62.636310515925" lon="17.9824779686">
        <ele>96.8</ele>
        <time>2017-12-17T12:41:31Z</time>
      </trkpt>
      <trkpt lat="62.636314874513" lon="17.982544604705">
        <ele>97</ele>
        <time>2017-12-17T12:41:32Z</time>
      </trkpt>
      <trkpt lat="62.636313281952" lon="17.982620544719">
        <ele>97.4</ele>
        <time>2017-12-17T12:41:33Z</time>
      </trkpt>
      <trkpt lat="62.636308085174" lon="17.982698328751">
        <ele>97.6</ele>
        <time>2017-12-17T12:41:34Z</time>
      </trkpt>
      <trkpt lat="62.636314203961" lon="17.982755241852">
        <ele>97.8</ele>
        <time>2017-12-17T12:41:35Z</time>
      </trkpt>
      <trkpt lat="62.636312276124" lon="17.982835288997">
        <ele>97.6</ele>
        <time>2017-12-17T12:41:36Z</time>
      </trkpt>
      <trkpt lat="62.636311437934" lon="17.98290376912">
        <ele>97.6</ele>
        <time>2017-12-17T12:41:37Z</time>
      </trkpt>
      <trkpt lat="62.636308085174" lon="17.982976440193">
        <ele>97.6</ele>
        <time>2017-12-17T12:41:38Z</time>
      </trkpt>
      <trkpt lat="62.636307246984" lon="17.983045255592">
        <ele>97.6</ele>
        <time>2017-12-17T12:41:39Z</time>
      </trkpt>
      <trkpt lat="62.636316886169" lon="17.983101246684">
        <ele>97.8</ele>
        <time>2017-12-17T12:41:40Z</time>
      </trkpt>
      <trkpt lat="62.636316550893" lon="17.983167715151">
        <ele>97.8</ele>
        <time>2017-12-17T12:41:41Z</time>
      </trkpt>
      <trkpt lat="62.636317808178" lon="17.983229238297">
        <ele>98</ele>
        <time>2017-12-17T12:41:42Z</time>
      </trkpt>
      <trkpt lat="62.636314706875" lon="17.983300903542">
        <ele>98</ele>
        <time>2017-12-17T12:41:43Z</time>
      </trkpt>
      <trkpt lat="62.636315796522" lon="17.983367372009">
        <ele>98</ele>
        <time>2017-12-17T12:41:44Z</time>
      </trkpt>
      <trkpt lat="62.636313114314" lon="17.98341841778">
        <ele>98.2</ele>
        <time>2017-12-17T12:41:45Z</time>
      </trkpt>
      <trkpt lat="62.636303307491" lon="17.983474660329">
        <ele>98.2</ele>
        <time>2017-12-17T12:41:46Z</time>
      </trkpt>
      <trkpt lat="62.63630255312" lon="17.983509696671">
        <ele>98.4</ele>
        <time>2017-12-17T12:41:47Z</time>
      </trkpt>
      <trkpt lat="62.636293584487" lon="17.98356174827">
        <ele>98.4</ele>
        <time>2017-12-17T12:41:48Z</time>
      </trkpt>
      <trkpt lat="62.636284532035" lon="17.983610866204">
        <ele>98.6</ele>
        <time>2017-12-17T12:41:49Z</time>
      </trkpt>
      <trkpt lat="62.636273048832" lon="17.983664175088">
        <ele>98.4</ele>
        <time>2017-12-17T12:41:50Z</time>
      </trkpt>
      <trkpt lat="62.636264080199" lon="17.983725362958">
        <ele>98.6</ele>
        <time>2017-12-17T12:41:51Z</time>
      </trkpt>
      <trkpt lat="62.636258380507" lon="17.983768362105">
        <ele>98.6</ele>
        <time>2017-12-17T12:41:52Z</time>
      </trkpt>
      <trkpt lat="62.636246897304" lon="17.983822341541">
        <ele>98.8</ele>
        <time>2017-12-17T12:41:53Z</time>
      </trkpt>
      <trkpt lat="62.636235078825" lon="17.983874309321">
        <ele>99</ele>
        <time>2017-12-17T12:41:54Z</time>
      </trkpt>
      <trkpt lat="62.636222673613" lon="17.983930216594">
        <ele>99</ele>
        <time>2017-12-17T12:41:55Z</time>
      </trkpt>
      <trkpt lat="62.636216722464" lon="17.983979753623">
        <ele>99.2</ele>
        <time>2017-12-17T12:41:56Z</time>
      </trkpt>
      <trkpt lat="62.636208424383" lon="17.984030045023">
        <ele>99.2</ele>
        <time>2017-12-17T12:41:57Z</time>
      </trkpt>
      <trkpt lat="62.636205239261" lon="17.984092154902">
        <ele>99.4</ele>
        <time>2017-12-17T12:41:58Z</time>
      </trkpt>
      <trkpt lat="62.636203898157" lon="17.984147894537">
        <ele>99.4</ele>
        <time>2017-12-17T12:41:59Z</time>
      </trkpt>
      <trkpt lat="62.636196773542" lon="17.984212267529">
        <ele>99.4</ele>
        <time>2017-12-17T12:42:00Z</time>
      </trkpt>
      <trkpt lat="62.636195180981" lon="17.984274042132">
        <ele>99.6</ele>
        <time>2017-12-17T12:42:01Z</time>
      </trkpt>
      <trkpt lat="62.636186296167" lon="17.984322405695">
        <ele>99.8</ele>
        <time>2017-12-17T12:42:02Z</time>
      </trkpt>
      <trkpt lat="62.636187972547" lon="17.984381246633">
        <ele>99.6</ele>
        <time>2017-12-17T12:42:03Z</time>
      </trkpt>
      <trkpt lat="62.636184452149" lon="17.984431705671">
        <ele>99.8</ele>
        <time>2017-12-17T12:42:04Z</time>
      </trkpt>
      <trkpt lat="62.636177914267" lon="17.984489037867">
        <ele>99.8</ele>
        <time>2017-12-17T12:42:05Z</time>
      </trkpt>
      <trkpt lat="62.63617263367" lon="17.984545196597">
        <ele>99.8</ele>
        <time>2017-12-17T12:42:06Z</time>
      </trkpt>
      <trkpt lat="62.636167520711" lon="17.984596661463">
        <ele>99.8</ele>
        <time>2017-12-17T12:42:07Z</time>
      </trkpt>
      <trkpt lat="62.636168107444" lon="17.98464468975">
        <ele>100</ele>
        <time>2017-12-17T12:42:08Z</time>
      </trkpt>
      <trkpt lat="62.636161821019" lon="17.984702021946">
        <ele>100</ele>
        <time>2017-12-17T12:42:09Z</time>
      </trkpt>
      <trkpt lat="62.636162072476" lon="17.984747200387">
        <ele>100.2</ele>
        <time>2017-12-17T12:42:10Z</time>
      </trkpt>
      <trkpt lat="62.636161988657" lon="17.984793133199">
        <ele>100.2</ele>
        <time>2017-12-17T12:42:11Z</time>
      </trkpt>
      <trkpt lat="62.636165676693" lon="17.984838060183">
        <ele>100.4</ele>
        <time>2017-12-17T12:42:12Z</time>
      </trkpt>
      <trkpt lat="62.636160815191" lon="17.984886507565">
        <ele>100.4</ele>
        <time>2017-12-17T12:42:13Z</time>
      </trkpt>
      <trkpt lat="62.636158552078" lon="17.984943169209">
        <ele>100.6</ele>
        <time>2017-12-17T12:42:14Z</time>
      </trkpt>
      <trkpt lat="62.636154612585" lon="17.984996561912">
        <ele>100.8</ele>
        <time>2017-12-17T12:42:15Z</time>
      </trkpt>
      <trkpt lat="62.636146314504" lon="17.985049367882">
        <ele>101</ele>
        <time>2017-12-17T12:42:16Z</time>
      </trkpt>
      <trkpt lat="62.636145476314" lon="17.985092953762">
        <ele>101.2</ele>
        <time>2017-12-17T12:42:17Z</time>
      </trkpt>
      <trkpt lat="62.63614413521" lon="17.985153303442">
        <ele>101.2</ele>
        <time>2017-12-17T12:42:18Z</time>
      </trkpt>
      <trkpt lat="62.636146230685" lon="17.985203594842">
        <ele>101.2</ele>
        <time>2017-12-17T12:42:19Z</time>
      </trkpt>
      <trkpt lat="62.636140698631" lon="17.985259585934">
        <ele>101.4</ele>
        <time>2017-12-17T12:42:20Z</time>
      </trkpt>
      <trkpt lat="62.636143129382" lon="17.98530937442">
        <ele>101.4</ele>
        <time>2017-12-17T12:42:21Z</time>
      </trkpt>
      <trkpt lat="62.636139441346" lon="17.985360001096">
        <ele>101.4</ele>
        <time>2017-12-17T12:42:22Z</time>
      </trkpt>
      <trkpt lat="62.636140447174" lon="17.985397635827">
        <ele>101.4</ele>
        <time>2017-12-17T12:42:23Z</time>
      </trkpt>
      <trkpt lat="62.636132819645" lon="17.98545857224">
        <ele>101.4</ele>
        <time>2017-12-17T12:42:24Z</time>
      </trkpt>
      <trkpt lat="62.636127874324" lon="17.985505091785">
        <ele>101.8</ele>
        <time>2017-12-17T12:42:25Z</time>
      </trkpt>
      <trkpt lat="62.636121001166" lon="17.985564854732">
        <ele>101.8</ele>
        <time>2017-12-17T12:42:26Z</time>
      </trkpt>
      <trkpt lat="62.636116139664" lon="17.985612212467">
        <ele>102</ele>
        <time>2017-12-17T12:42:27Z</time>
      </trkpt>
      <trkpt lat="62.636110942886" lon="17.985663844971">
        <ele>102</ele>
        <time>2017-12-17T12:42:28Z</time>
      </trkpt>
      <trkpt lat="62.636097867122" lon="17.98570667648">
        <ele>102.2</ele>
        <time>2017-12-17T12:42:29Z</time>
      </trkpt>
      <trkpt lat="62.636084875177" lon="17.985760404459">
        <ele>101.8</ele>
        <time>2017-12-17T12:42:30Z</time>
      </trkpt>
      <trkpt lat="62.636067189368" lon="17.985790411661">
        <ele>101.8</ele>
        <time>2017-12-17T12:42:31Z</time>
      </trkpt>
      <trkpt lat="62.636051766672" lon="17.985825783279">
        <ele>102</ele>
        <time>2017-12-17T12:42:32Z</time>
      </trkpt>
      <trkpt lat="62.636025698963" lon="17.985858891784">
        <ele>102</ele>
        <time>2017-12-17T12:42:33Z</time>
      </trkpt>
      <trkpt lat="62.636007007326" lon="17.985894095764">
        <ele>102</ele>
        <time>2017-12-17T12:42:34Z</time>
      </trkpt>
      <trkpt lat="62.635989405336" lon="17.985910859564">
        <ele>102.2</ele>
        <time>2017-12-17T12:42:35Z</time>
      </trkpt>
      <trkpt lat="62.635969540233" lon="17.985940866766">
        <ele>102.4</ele>
        <time>2017-12-17T12:42:36Z</time>
      </trkpt>
      <trkpt lat="62.63595135151" lon="17.985959642222">
        <ele>102.6</ele>
        <time>2017-12-17T12:42:37Z</time>
      </trkpt>
      <trkpt lat="62.635928133647" lon="17.985979507325">
        <ele>102.6</ele>
        <time>2017-12-17T12:42:38Z</time>
      </trkpt>
      <trkpt lat="62.635912710951" lon="17.985996271125">
        <ele>102.8</ele>
        <time>2017-12-17T12:42:39Z</time>
      </trkpt>
      <trkpt lat="62.635896952979" lon="17.986024099033">
        <ele>102.8</ele>
        <time>2017-12-17T12:42:40Z</time>
      </trkpt>
      <trkpt lat="62.635884044853" lon="17.986044131774">
        <ele>102.8</ele>
        <time>2017-12-17T12:42:41Z</time>
      </trkpt>
      <trkpt lat="62.63586753251" lon="17.986068439284">
        <ele>102.8</ele>
        <time>2017-12-17T12:42:42Z</time>
      </trkpt>
      <trkpt lat="62.635850098158" lon="17.986086292731">
        <ele>103</ele>
        <time>2017-12-17T12:42:43Z</time>
      </trkpt>
      <trkpt lat="62.635827969942" lon="17.986104984368">
        <ele>103</ele>
        <time>2017-12-17T12:42:44Z</time>
      </trkpt>
      <trkpt lat="62.635811960513" lon="17.986131890267">
        <ele>103</ele>
        <time>2017-12-17T12:42:45Z</time>
      </trkpt>
      <trkpt lat="62.635785976623" lon="17.986160640184">
        <ele>103.2</ele>
        <time>2017-12-17T12:42:46Z</time>
      </trkpt>
      <trkpt lat="62.635775163972" lon="17.986182516943">
        <ele>103.4</ele>
        <time>2017-12-17T12:42:47Z</time>
      </trkpt>
      <trkpt lat="62.635762507303" lon="17.986216966552">
        <ele>103.2</ele>
        <time>2017-12-17T12:42:48Z</time>
      </trkpt>
      <trkpt lat="62.635746581693" lon="17.986250326514">
        <ele>103.4</ele>
        <time>2017-12-17T12:42:49Z</time>
      </trkpt>
      <trkpt lat="62.635736439594" lon="17.986281758639">
        <ele>103.4</ele>
        <time>2017-12-17T12:42:50Z</time>
      </trkpt>
      <trkpt lat="62.63571833469" lon="17.986317884628">
        <ele>103.6</ele>
        <time>2017-12-17T12:42:51Z</time>
      </trkpt>
      <trkpt lat="62.635699726872" lon="17.986348813839">
        <ele>103.8</ele>
        <time>2017-12-17T12:42:52Z</time>
      </trkpt>
      <trkpt lat="62.635680783778" lon="17.986382592896">
        <ele>103.8</ele>
        <time>2017-12-17T12:42:53Z</time>
      </trkpt>
      <trkpt lat="62.635660080485" lon="17.986422909835">
        <ele>104</ele>
        <time>2017-12-17T12:42:54Z</time>
      </trkpt>
      <trkpt lat="62.635639796287" lon="17.986458784367">
        <ele>104.2</ele>
        <time>2017-12-17T12:42:55Z</time>
      </trkpt>
      <trkpt lat="62.635625463238" lon="17.986511171242">
        <ele>104.4</ele>
        <time>2017-12-17T12:42:56Z</time>
      </trkpt>
      <trkpt lat="62.635608699438" lon="17.98654486648">
        <ele>104.4</ele>
        <time>2017-12-17T12:42:57Z</time>
      </trkpt>
      <trkpt lat="62.635598054425" lon="17.986588619998">
        <ele>104.4</ele>
        <time>2017-12-17T12:42:58Z</time>
      </trkpt>
      <trkpt lat="62.635580536254" lon="17.986619213933">
        <ele>104.6</ele>
        <time>2017-12-17T12:42:59Z</time>
      </trkpt>
      <trkpt lat="62.635566203205" lon="17.9866605367">
        <ele>104.6</ele>
        <time>2017-12-17T12:43:00Z</time>
      </trkpt>
      <trkpt lat="62.635551367242" lon="17.98669574068">
        <ele>104.6</ele>
        <time>2017-12-17T12:43:01Z</time>
      </trkpt>
      <trkpt lat="62.635533513795" lon="17.986730274108">
        <ele>104.6</ele>
        <time>2017-12-17T12:43:02Z</time>
      </trkpt>
      <trkpt lat="62.635517336728" lon="17.986766819192">
        <ele>104.8</ele>
        <time>2017-12-17T12:43:03Z</time>
      </trkpt>
      <trkpt lat="62.63550291986" lon="17.986808644873">
        <ele>104.8</ele>
        <time>2017-12-17T12:43:04Z</time>
      </trkpt>
      <trkpt lat="62.635490766105" lon="17.986848123622">
        <ele>105</ele>
        <time>2017-12-17T12:43:05Z</time>
      </trkpt>
      <trkpt lat="62.635470481907" lon="17.986893804977">
        <ele>105.2</ele>
        <time>2017-12-17T12:43:06Z</time>
      </trkpt>
      <trkpt lat="62.635456232677" lon="17.986934708649">
        <ele>105.4</ele>
        <time>2017-12-17T12:43:07Z</time>
      </trkpt>
      <trkpt lat="62.635436535212" lon="17.986985000049">
        <ele>105.4</ele>
        <time>2017-12-17T12:43:08Z</time>
      </trkpt>
      <trkpt lat="62.635423207991" lon="17.987018862925">
        <ele>105.6</ele>
        <time>2017-12-17T12:43:09Z</time>
      </trkpt>
      <trkpt lat="62.635409126399" lon="17.987057335846">
        <ele>105.6</ele>
        <time>2017-12-17T12:43:10Z</time>
      </trkpt>
      <trkpt lat="62.635398397567" lon="17.987080050795">
        <ele>105.6</ele>
        <time>2017-12-17T12:43:11Z</time>
      </trkpt>
      <trkpt lat="62.635379957387" lon="17.98712070301">
        <ele>105.6</ele>
        <time>2017-12-17T12:43:12Z</time>
      </trkpt>
      <trkpt lat="62.635369731469" lon="17.987155152619">
        <ele>105.8</ele>
        <time>2017-12-17T12:43:13Z</time>
      </trkpt>
      <trkpt lat="62.635358080628" lon="17.987190105142">
        <ele>105.8</ele>
        <time>2017-12-17T12:43:14Z</time>
      </trkpt>
      <trkpt lat="62.635347100339" lon="17.987230673538">
        <ele>105.8</ele>
        <time>2017-12-17T12:43:15Z</time>
      </trkpt>
      <trkpt lat="62.635327067598" lon="17.987258669084">
        <ele>106</ele>
        <time>2017-12-17T12:43:16Z</time>
      </trkpt>
      <trkpt lat="62.635316674042" lon="17.987286832268">
        <ele>106.2</ele>
        <time>2017-12-17T12:43:17Z</time>
      </trkpt>
      <trkpt lat="62.635294462007" lon="17.987326562474">
        <ele>106.2</ele>
        <time>2017-12-17T12:43:18Z</time>
      </trkpt>
      <trkpt lat="62.635280548053" lon="17.987362856101">
        <ele>106.4</ele>
        <time>2017-12-17T12:43:19Z</time>
      </trkpt>
      <trkpt lat="62.635262191692" lon="17.987397976262">
        <ele>106.4</ele>
        <time>2017-12-17T12:43:20Z</time>
      </trkpt>
      <trkpt lat="62.635248277738" lon="17.987427312912">
        <ele>106.4</ele>
        <time>2017-12-17T12:43:21Z</time>
      </trkpt>
      <trkpt lat="62.635233106499" lon="17.98745933177">
        <ele>106.4</ele>
        <time>2017-12-17T12:43:22Z</time>
      </trkpt>
      <trkpt lat="62.635221539477" lon="17.987492188818">
        <ele>106.6</ele>
        <time>2017-12-17T12:43:23Z</time>
      </trkpt>
      <trkpt lat="62.635203183116" lon="17.98752471059">
        <ele>106.6</ele>
        <time>2017-12-17T12:43:24Z</time>
      </trkpt>
      <trkpt lat="62.635191616094" lon="17.987559244018">
        <ele>106.8</ele>
        <time>2017-12-17T12:43:25Z</time>
      </trkpt>
      <trkpt lat="62.635171080439" lon="17.987588161573">
        <ele>106.8</ele>
        <time>2017-12-17T12:43:26Z</time>
      </trkpt>
      <trkpt lat="62.635158088494" lon="17.987621018621">
        <ele>107</ele>
        <time>2017-12-17T12:43:27Z</time>
      </trkpt>
      <trkpt lat="62.635140989418" lon="17.98765295366">
        <ele>107.2</ele>
        <time>2017-12-17T12:43:28Z</time>
      </trkpt>
      <trkpt lat="62.635125566722" lon="17.987680111016">
        <ele>107.2</ele>
        <time>2017-12-17T12:43:29Z</time>
      </trkpt>
      <trkpt lat="62.63510813237" lon="17.987710621132">
        <ele>107.2</ele>
        <time>2017-12-17T12:43:30Z</time>
      </trkpt>
      <trkpt lat="62.635084243955" lon="17.987738113764">
        <ele>107.4</ele>
        <time>2017-12-17T12:43:31Z</time>
      </trkpt>
      <trkpt lat="62.635068402164" lon="17.987766863681">
        <ele>107.4</ele>
        <time>2017-12-17T12:43:32Z</time>
      </trkpt>
      <trkpt lat="62.635047363595" lon="17.987791674105">
        <ele>107.6</ele>
        <time>2017-12-17T12:43:33Z</time>
      </trkpt>
      <trkpt lat="62.635034790745" lon="17.987822854773">
        <ele>107.8</ele>
        <time>2017-12-17T12:43:34Z</time>
      </trkpt>
      <trkpt lat="62.635015763832" lon="17.98785160469">
        <ele>107.8</ele>
        <time>2017-12-17T12:43:35Z</time>
      </trkpt>
      <trkpt lat="62.635000089679" lon="17.987891502534">
        <ele>108</ele>
        <time>2017-12-17T12:43:36Z</time>
      </trkpt>
      <trkpt lat="62.634983577336" lon="17.987907679601">
        <ele>108.2</ele>
        <time>2017-12-17T12:43:37Z</time>
      </trkpt>
      <trkpt lat="62.634967567907" lon="17.987940704287">
        <ele>108.2</ele>
        <time>2017-12-17T12:43:38Z</time>
      </trkpt>
      <trkpt lat="62.63494887627" lon="17.987964341245">
        <ele>108.2</ele>
        <time>2017-12-17T12:43:39Z</time>
      </trkpt>
      <trkpt lat="62.634931358099" lon="17.987979763941">
        <ele>108.2</ele>
        <time>2017-12-17T12:43:40Z</time>
      </trkpt>
      <trkpt lat="62.634919874896" lon="17.988001221605">
        <ele>108.4</ele>
        <time>2017-12-17T12:43:41Z</time>
      </trkpt>
      <trkpt lat="62.63490277582" lon="17.98802008088">
        <ele>108.4</ele>
        <time>2017-12-17T12:43:42Z</time>
      </trkpt>
      <trkpt lat="62.634889113323" lon="17.988043047286">
        <ele>108.6</ele>
        <time>2017-12-17T12:43:43Z</time>
      </trkpt>
      <trkpt lat="62.634870673143" lon="17.988059894905">
        <ele>108.8</ele>
        <time>2017-12-17T12:43:44Z</time>
      </trkpt>
      <trkpt lat="62.634853825524" lon="17.988079508551">
        <ele>109</ele>
        <time>2017-12-17T12:43:45Z</time>
      </trkpt>
      <trkpt lat="62.634837397" lon="17.988086381709">
        <ele>109.2</ele>
        <time>2017-12-17T12:43:46Z</time>
      </trkpt>
      <trkpt lat="62.634818873001" lon="17.988096188532">
        <ele>109.2</ele>
        <time>2017-12-17T12:43:47Z</time>
      </trkpt>
      <trkpt lat="62.634795655138" lon="17.988108845201">
        <ele>109.4</ele>
        <time>2017-12-17T12:43:48Z</time>
      </trkpt>
      <trkpt lat="62.634774448931" lon="17.98811647273">
        <ele>109.4</ele>
        <time>2017-12-17T12:43:49Z</time>
      </trkpt>
      <trkpt lat="62.634757349855" lon="17.988126950105">
        <ele>109.6</ele>
        <time>2017-12-17T12:43:50Z</time>
      </trkpt>
      <trkpt lat="62.63473094687" lon="17.988120915137">
        <ele>109.6</ele>
        <time>2017-12-17T12:43:51Z</time>
      </trkpt>
      <trkpt lat="62.634714266889" lon="17.988128458847">
        <ele>110</ele>
        <time>2017-12-17T12:43:52Z</time>
      </trkpt>
      <trkpt lat="62.634692725406" lon="17.988130135227">
        <ele>110</ele>
        <time>2017-12-17T12:43:53Z</time>
      </trkpt>
      <trkpt lat="62.634673782312" lon="17.988141702249">
        <ele>110.2</ele>
        <time>2017-12-17T12:43:54Z</time>
      </trkpt>
      <trkpt lat="62.634644529481" lon="17.988146731389">
        <ele>110.2</ele>
        <time>2017-12-17T12:43:55Z</time>
      </trkpt>
      <trkpt lat="62.634624412921" lon="17.988153939823">
        <ele>110.4</ele>
        <time>2017-12-17T12:43:56Z</time>
      </trkpt>
      <trkpt lat="62.634600524506" lon="17.988160477705">
        <ele>110.2</ele>
        <time>2017-12-17T12:43:57Z</time>
      </trkpt>
      <trkpt lat="62.634577641919" lon="17.988168691967">
        <ele>110.2</ele>
        <time>2017-12-17T12:43:58Z</time>
      </trkpt>
      <trkpt lat="62.634553753504" lon="17.988170787442">
        <ele>110.2</ele>
        <time>2017-12-17T12:43:59Z</time>
      </trkpt>
      <trkpt lat="62.634535732419" lon="17.988187132147">
        <ele>110.4</ele>
        <time>2017-12-17T12:44:00Z</time>
      </trkpt>
      <trkpt lat="62.634514526212" lon="17.988184114663">
        <ele>110.4</ele>
        <time>2017-12-17T12:44:01Z</time>
      </trkpt>
      <trkpt lat="62.634494325833" lon="17.988194005305">
        <ele>110.4</ele>
        <time>2017-12-17T12:44:02Z</time>
      </trkpt>
      <trkpt lat="62.634466833201" lon="17.988191993649">
        <ele>110.6</ele>
        <time>2017-12-17T12:44:03Z</time>
      </trkpt>
      <trkpt lat="62.634439508207" lon="17.988199621178">
        <ele>110.8</ele>
        <time>2017-12-17T12:44:04Z</time>
      </trkpt>
      <trkpt lat="62.63441914019" lon="17.988202303386">
        <ele>110.8</ele>
        <time>2017-12-17T12:44:05Z</time>
      </trkpt>
      <trkpt lat="62.634389468264" lon="17.988211439657">
        <ele>111</ele>
        <time>2017-12-17T12:44:06Z</time>
      </trkpt>
      <trkpt lat="62.634369603161" lon="17.988216133521">
        <ele>111</ele>
        <time>2017-12-17T12:44:07Z</time>
      </trkpt>
      <trkpt lat="62.634344876556" lon="17.988218564272">
        <ele>111.2</ele>
        <time>2017-12-17T12:44:08Z</time>
      </trkpt>
      <trkpt lat="62.634320904322" lon="17.988214876236">
        <ele>111.2</ele>
        <time>2017-12-17T12:44:09Z</time>
      </trkpt>
      <trkpt lat="62.63429592626" lon="17.988217223168">
        <ele>111.2</ele>
        <time>2017-12-17T12:44:10Z</time>
      </trkpt>
      <trkpt lat="62.634271199655" lon="17.988217558444">
        <ele>111.4</ele>
        <time>2017-12-17T12:44:11Z</time>
      </trkpt>
      <trkpt lat="62.634242785014" lon="17.988223174317">
        <ele>111.2</ele>
        <time>2017-12-17T12:44:12Z</time>
      </trkpt>
      <trkpt lat="62.634212191079" lon="17.988217642263">
        <ele>111.2</ele>
        <time>2017-12-17T12:44:13Z</time>
      </trkpt>
      <trkpt lat="62.634183022067" lon="17.988212445485">
        <ele>111.2</ele>
        <time>2017-12-17T12:44:14Z</time>
      </trkpt>
      <trkpt lat="62.63415678672" lon="17.988201549015">
        <ele>111.4</ele>
        <time>2017-12-17T12:44:15Z</time>
      </trkpt>
      <trkpt lat="62.634128372079" lon="17.988191323097">
        <ele>111.2</ele>
        <time>2017-12-17T12:44:16Z</time>
      </trkpt>
      <trkpt lat="62.634107752605" lon="17.98818185155">
        <ele>111.2</ele>
        <time>2017-12-17T12:44:17Z</time>
      </trkpt>
      <trkpt lat="62.63408218781" lon="17.988167099406">
        <ele>111.4</ele>
        <time>2017-12-17T12:44:18Z</time>
      </trkpt>
      <trkpt lat="62.634062490345" lon="17.988158717506">
        <ele>111.4</ele>
        <time>2017-12-17T12:44:19Z</time>
      </trkpt>
      <trkpt lat="62.634038266654" lon="17.988150670882">
        <ele>111.4</ele>
        <time>2017-12-17T12:44:20Z</time>
      </trkpt>
      <trkpt lat="62.634019742655" lon="17.988148994502">
        <ele>111.6</ele>
        <time>2017-12-17T12:44:21Z</time>
      </trkpt>
      <trkpt lat="62.633996021878" lon="17.988134829091">
        <ele>111.6</ele>
        <time>2017-12-17T12:44:22Z</time>
      </trkpt>
      <trkpt lat="62.633977749336" lon="17.988129129399">
        <ele>111.8</ele>
        <time>2017-12-17T12:44:23Z</time>
      </trkpt>
      <trkpt lat="62.633954950568" lon="17.988113371427">
        <ele>112</ele>
        <time>2017-12-17T12:44:24Z</time>
      </trkpt>
      <trkpt lat="62.633933157628" lon="17.988109683391">
        <ele>112</ele>
        <time>2017-12-17T12:44:25Z</time>
      </trkpt>
      <trkpt lat="62.633910861774" lon="17.988081687845">
        <ele>112.2</ele>
        <time>2017-12-17T12:44:26Z</time>
      </trkpt>
      <trkpt lat="62.633892924508" lon="17.988072467755">
        <ele>112.2</ele>
        <time>2017-12-17T12:44:27Z</time>
      </trkpt>
      <trkpt lat="62.633872472672" lon="17.988044807485">
        <ele>112.4</ele>
        <time>2017-12-17T12:44:28Z</time>
      </trkpt>
      <trkpt lat="62.633847410791" lon="17.988032234635">
        <ele>112.4</ele>
        <time>2017-12-17T12:44:29Z</time>
      </trkpt>
      <trkpt lat="62.633823103281" lon="17.987998707035">
        <ele>112.6</ele>
        <time>2017-12-17T12:44:30Z</time>
      </trkpt>
      <trkpt lat="62.633803405816" lon="17.987990911868">
        <ele>112.6</ele>
        <time>2017-12-17T12:44:31Z</time>
      </trkpt>
      <trkpt lat="62.633786474378" lon="17.9879597312">
        <ele>112.6</ele>
        <time>2017-12-17T12:44:32Z</time>
      </trkpt>
      <trkpt lat="62.633759819936" lon="17.98795470206">
        <ele>112.8</ele>
        <time>2017-12-17T12:44:33Z</time>
      </trkpt>
      <trkpt lat="62.63373769172" lon="17.987919246623">
        <ele>112.6</ele>
        <time>2017-12-17T12:44:34Z</time>
      </trkpt>
      <trkpt lat="62.633714473857" lon="17.987912038189">
        <ele>112.8</ele>
        <time>2017-12-17T12:44:35Z</time>
      </trkpt>
      <trkpt lat="62.633689747252" lon="17.987891167258">
        <ele>112.6</ele>
        <time>2017-12-17T12:44:36Z</time>
      </trkpt>
      <trkpt lat="62.633673234909" lon="17.987865518644">
        <ele>112.8</ele>
        <time>2017-12-17T12:44:37Z</time>
      </trkpt>
      <trkpt lat="62.63365806367" lon="17.987850431224">
        <ele>112.8</ele>
        <time>2017-12-17T12:44:38Z</time>
      </trkpt>
      <trkpt lat="62.633643060069" lon="17.987829392655">
        <ele>113</ele>
        <time>2017-12-17T12:44:39Z</time>
      </trkpt>
      <trkpt lat="62.633626631545" lon="17.987821010755">
        <ele>113.2</ele>
        <time>2017-12-17T12:44:40Z</time>
      </trkpt>
      <trkpt lat="62.633607688451" lon="17.987796451788">
        <ele>113.6</ele>
        <time>2017-12-17T12:44:41Z</time>
      </trkpt>
      <trkpt lat="62.63359017028" lon="17.987771222269">
        <ele>113.6</ele>
        <time>2017-12-17T12:44:42Z</time>
      </trkpt>
      <trkpt lat="62.633570724272" lon="17.987742556171">
        <ele>113.8</ele>
        <time>2017-12-17T12:44:43Z</time>
      </trkpt>
      <trkpt lat="62.633550859169" lon="17.987719338308">
        <ele>113.8</ele>
        <time>2017-12-17T12:44:44Z</time>
      </trkpt>
      <trkpt lat="62.633534598283" lon="17.987691007486">
        <ele>113.8</ele>
        <time>2017-12-17T12:44:45Z</time>
      </trkpt>
      <trkpt lat="62.633519343225" lon="17.987668292537">
        <ele>114</ele>
        <time>2017-12-17T12:44:46Z</time>
      </trkpt>
      <trkpt lat="62.633502663244" lon="17.987647337787">
        <ele>114</ele>
        <time>2017-12-17T12:44:47Z</time>
      </trkpt>
      <trkpt lat="62.633482379046" lon="17.987616240938">
        <ele>114</ele>
        <time>2017-12-17T12:44:48Z</time>
      </trkpt>
      <trkpt lat="62.633465028513" lon="17.987595034731">
        <ele>114.2</ele>
        <time>2017-12-17T12:44:49Z</time>
      </trkpt>
      <trkpt lat="62.633448264713" lon="17.987571481592">
        <ele>114.4</ele>
        <time>2017-12-17T12:44:50Z</time>
      </trkpt>
      <trkpt lat="62.633429992171" lon="17.987539462734">
        <ele>114.6</ele>
        <time>2017-12-17T12:44:51Z</time>
      </trkpt>
      <trkpt lat="62.633418089873" lon="17.987505935134">
        <ele>114.6</ele>
        <time>2017-12-17T12:44:52Z</time>
      </trkpt>
      <trkpt lat="62.633404008281" lon="17.987465366738">
        <ele>115</ele>
        <time>2017-12-17T12:44:53Z</time>
      </trkpt>
      <trkpt lat="62.633388501766" lon="17.98741323132">
        <ele>115</ele>
        <time>2017-12-17T12:44:54Z</time>
      </trkpt>
      <trkpt lat="62.633369977767" lon="17.987357575504">
        <ele>115.2</ele>
        <time>2017-12-17T12:44:55Z</time>
      </trkpt>
      <trkpt lat="62.633348184827" lon="17.98731600128">
        <ele>115.6</ele>
        <time>2017-12-17T12:44:56Z</time>
      </trkpt>
      <trkpt lat="62.633322871489" lon="17.987255232505">
        <ele>115.6</ele>
        <time>2017-12-17T12:44:57Z</time>
      </trkpt>
      <trkpt lat="62.63330183292" lon="17.987176107369">
        <ele>115.6</ele>
        <time>2017-12-17T12:44:58Z</time>
      </trkpt>
      <trkpt lat="62.633278531238" lon="17.987066555936">
        <ele>115.4</ele>
        <time>2017-12-17T12:44:59Z</time>
      </trkpt>
      <trkpt lat="62.633256738298" lon="17.986947030042">
        <ele>114.8</ele>
        <time>2017-12-17T12:45:00Z</time>
      </trkpt>
      <trkpt lat="62.63324232143" lon="17.986836137505">
        <ele>113.4</ele>
        <time>2017-12-17T12:45:01Z</time>
      </trkpt>
      <trkpt lat="62.633230419132" lon="17.986732118126">
        <ele>113</ele>
        <time>2017-12-17T12:45:02Z</time>
      </trkpt>
      <trkpt lat="62.633223797431" lon="17.98662197996">
        <ele>112</ele>
        <time>2017-12-17T12:45:03Z</time>
      </trkpt>
      <trkpt lat="62.633212565685" lon="17.986519553142">
        <ele>111.6</ele>
        <time>2017-12-17T12:45:04Z</time>
      </trkpt>
      <trkpt lat="62.633205776346" lon="17.986425675862">
        <ele>111</ele>
        <time>2017-12-17T12:45:05Z</time>
      </trkpt>
      <trkpt lat="62.633201836853" lon="17.986298354801">
        <ele>111</ele>
        <time>2017-12-17T12:45:06Z</time>
      </trkpt>
      <trkpt lat="62.633197478265" lon="17.986186540255">
        <ele>111</ele>
        <time>2017-12-17T12:45:07Z</time>
      </trkpt>
      <trkpt lat="62.63319538279" lon="17.986061566126">
        <ele>110.8</ele>
        <time>2017-12-17T12:45:08Z</time>
      </trkpt>
      <trkpt lat="62.633194879876" lon="17.985939609481">
        <ele>110.6</ele>
        <time>2017-12-17T12:45:09Z</time>
      </trkpt>
      <trkpt lat="62.633195215152" lon="17.985816647008">
        <ele>110.2</ele>
        <time>2017-12-17T12:45:10Z</time>
      </trkpt>
      <trkpt lat="62.633195969523" lon="17.985703994272">
        <ele>109.8</ele>
        <time>2017-12-17T12:45:11Z</time>
      </trkpt>
      <trkpt lat="62.633201417758" lon="17.985595364848">
        <ele>109.4</ele>
        <time>2017-12-17T12:45:12Z</time>
      </trkpt>
      <trkpt lat="62.633207201269" lon="17.985490507279">
        <ele>109</ele>
        <time>2017-12-17T12:45:13Z</time>
      </trkpt>
      <trkpt lat="62.633215247893" lon="17.985364778779">
        <ele>109</ele>
        <time>2017-12-17T12:45:14Z</time>
      </trkpt>
      <trkpt lat="62.633225976725" lon="17.985231338931">
        <ele>109</ele>
        <time>2017-12-17T12:45:15Z</time>
      </trkpt>
      <trkpt lat="62.633242069973" lon="17.985077614885">
        <ele>108.8</ele>
        <time>2017-12-17T12:45:16Z</time>
      </trkpt>
      <trkpt lat="62.63325908523" lon="17.984946019055">
        <ele>108.4</ele>
        <time>2017-12-17T12:45:17Z</time>
      </trkpt>
      <trkpt lat="62.633288338061" lon="17.984798665253">
        <ele>107.8</ele>
        <time>2017-12-17T12:45:18Z</time>
      </trkpt>
      <trkpt lat="62.633315327779" lon="17.98467905554">
        <ele>107.2</ele>
        <time>2017-12-17T12:45:19Z</time>
      </trkpt>
      <trkpt lat="62.633341060212" lon="17.984563636777">
        <ele>106.2</ele>
        <time>2017-12-17T12:45:20Z</time>
      </trkpt>
      <trkpt lat="62.633365786817" lon="17.984445535806">
        <ele>105.8</ele>
        <time>2017-12-17T12:45:21Z</time>
      </trkpt>
      <trkpt lat="62.633379281676" lon="17.984334810907">
        <ele>105.6</ele>
        <time>2017-12-17T12:45:22Z</time>
      </trkpt>
      <trkpt lat="62.633390345784" lon="17.984226265302">
        <ele>105.6</ele>
        <time>2017-12-17T12:45:23Z</time>
      </trkpt>
      <trkpt lat="62.633403421548" lon="17.98412668833">
        <ele>105.6</ele>
        <time>2017-12-17T12:45:24Z</time>
      </trkpt>
      <trkpt lat="62.633413982742" lon="17.984030715575">
        <ele>105.8</ele>
        <time>2017-12-17T12:45:25Z</time>
      </trkpt>
      <trkpt lat="62.63342253228" lon="17.983933736992">
        <ele>106.2</ele>
        <time>2017-12-17T12:45:26Z</time>
      </trkpt>
      <trkpt lat="62.633437452062" lon="17.983843212472">
        <ele>106.6</ele>
        <time>2017-12-17T12:45:27Z</time>
      </trkpt>
      <trkpt lat="62.633451785111" lon="17.983738941636">
        <ele>106.8</ele>
        <time>2017-12-17T12:45:28Z</time>
      </trkpt>
      <trkpt lat="62.633455556966" lon="17.98365646374">
        <ele>107.2</ele>
        <time>2017-12-17T12:45:29Z</time>
      </trkpt>
      <trkpt lat="62.633467123988" lon="17.98356929198">
        <ele>107.6</ele>
        <time>2017-12-17T12:45:30Z</time>
      </trkpt>
      <trkpt lat="62.633477685182" lon="17.9834837966">
        <ele>107.6</ele>
        <time>2017-12-17T12:45:31Z</time>
      </trkpt>
      <trkpt lat="62.633484223064" lon="17.983412634269">
        <ele>107.8</ele>
        <time>2017-12-17T12:45:32Z</time>
      </trkpt>
      <trkpt lat="62.633501405959" lon="17.983320684826">
        <ele>107.6</ele>
        <time>2017-12-17T12:45:33Z</time>
      </trkpt>
      <trkpt lat="62.633520097596" lon="17.983249187219">
        <ele>107.8</ele>
        <time>2017-12-17T12:45:34Z</time>
      </trkpt>
      <trkpt lat="62.633525462012" lon="17.98318540096">
        <ele>107.6</ele>
        <time>2017-12-17T12:45:35Z</time>
      </trkpt>
      <trkpt lat="62.633540046518" lon="17.983100492313">
        <ele>107.6</ele>
        <time>2017-12-17T12:45:36Z</time>
      </trkpt>
      <trkpt lat="62.633554798662" lon="17.98304123228">
        <ele>107.6</ele>
        <time>2017-12-17T12:45:37Z</time>
      </trkpt>
      <trkpt lat="62.633571059548" lon="17.982952803235">
        <ele>107.6</ele>
        <time>2017-12-17T12:45:38Z</time>
      </trkpt>
      <trkpt lat="62.633585895511" lon="17.98286856514">
        <ele>107.6</ele>
        <time>2017-12-17T12:45:39Z</time>
      </trkpt>
      <trkpt lat="62.633604251872" lon="17.982800923207">
        <ele>107.6</ele>
        <time>2017-12-17T12:45:40Z</time>
      </trkpt>
      <trkpt lat="62.633621686224" lon="17.982722049528">
        <ele>107.8</ele>
        <time>2017-12-17T12:45:41Z</time>
      </trkpt>
      <trkpt lat="62.633638198567" lon="17.982664382056">
        <ele>107.8</ele>
        <time>2017-12-17T12:45:42Z</time>
      </trkpt>
      <trkpt lat="62.633652615435" lon="17.982581568884">
        <ele>107.8</ele>
        <time>2017-12-17T12:45:43Z</time>
      </trkpt>
      <trkpt lat="62.633666026475" lon="17.982509400725">
        <ele>107.8</ele>
        <time>2017-12-17T12:45:44Z</time>
      </trkpt>
      <trkpt lat="62.633673737823" lon="17.982451062701">
        <ele>107.8</ele>
        <time>2017-12-17T12:45:45Z</time>
      </trkpt>
      <trkpt lat="62.633686729768" lon="17.982360538181">
        <ele>107.8</ele>
        <time>2017-12-17T12:45:46Z</time>
      </trkpt>
      <trkpt lat="62.633688573786" lon="17.982301026691">
        <ele>107.8</ele>
        <time>2017-12-17T12:45:47Z</time>
      </trkpt>
      <trkpt lat="62.633694273478" lon="17.98221561513">
        <ele>107.8</ele>
        <time>2017-12-17T12:45:48Z</time>
      </trkpt>
      <trkpt lat="62.633700224627" lon="17.982125509705">
        <ele>107.8</ele>
        <time>2017-12-17T12:45:49Z</time>
      </trkpt>
      <trkpt lat="62.633701901007" lon="17.982060466161">
        <ele>107.8</ele>
        <time>2017-12-17T12:45:50Z</time>
      </trkpt>
      <trkpt lat="62.633704499396" lon="17.981985029061">
        <ele>108</ele>
        <time>2017-12-17T12:45:51Z</time>
      </trkpt>
      <trkpt lat="62.633709696174" lon="17.981933312738">
        <ele>108.2</ele>
        <time>2017-12-17T12:45:52Z</time>
      </trkpt>
      <trkpt lat="62.633714892952" lon="17.981859803475">
        <ele>108.2</ele>
        <time>2017-12-17T12:45:53Z</time>
      </trkpt>
      <trkpt lat="62.633717491341" lon="17.981801130175">
        <ele>108.2</ele>
        <time>2017-12-17T12:45:54Z</time>
      </trkpt>
      <trkpt lat="62.63372092792" lon="17.981737176278">
        <ele>108.2</ele>
        <time>2017-12-17T12:45:55Z</time>
      </trkpt>
      <trkpt lat="62.633729728915" lon="17.981652602907">
        <ele>108.2</ele>
        <time>2017-12-17T12:45:56Z</time>
      </trkpt>
      <trkpt lat="62.633731153838" lon="17.981586888811">
        <ele>108.2</ele>
        <time>2017-12-17T12:45:57Z</time>
      </trkpt>
      <trkpt lat="62.633738110815" lon="17.981511870806">
        <ele>108.2</ele>
        <time>2017-12-17T12:45:58Z</time>
      </trkpt>
      <trkpt lat="62.63374775" lon="17.981456131171">
        <ele>108.2</ele>
        <time>2017-12-17T12:45:59Z</time>
      </trkpt>
      <trkpt lat="62.63376283742" lon="17.981382118994">
        <ele>108.2</ele>
        <time>2017-12-17T12:46:00Z</time>
      </trkpt>
      <trkpt lat="62.633780774686" lon="17.981307687722">
        <ele>108.2</ele>
        <time>2017-12-17T12:46:01Z</time>
      </trkpt>
      <trkpt lat="62.633799801599" lon="17.981238453228">
        <ele>108.2</ele>
        <time>2017-12-17T12:46:02Z</time>
      </trkpt>
      <trkpt lat="62.633812122992" lon="17.981168045268">
        <ele>108.2</ele>
        <time>2017-12-17T12:46:03Z</time>
      </trkpt>
      <trkpt lat="62.633827629507" lon="17.981105264837">
        <ele>108.2</ele>
        <time>2017-12-17T12:46:04Z</time>
      </trkpt>
      <trkpt lat="62.633836514321" lon="17.981063858251">
        <ele>108.4</ele>
        <time>2017-12-17T12:46:05Z</time>
      </trkpt>
      <trkpt lat="62.633853194302" lon="17.981007196607">
        <ele>108.4</ele>
        <time>2017-12-17T12:46:06Z</time>
      </trkpt>
      <trkpt lat="62.633873646138" lon="17.980959838872">
        <ele>108.6</ele>
        <time>2017-12-17T12:46:07Z</time>
      </trkpt>
      <trkpt lat="62.633887308635" lon="17.980906865264">
        <ele>108.6</ele>
        <time>2017-12-17T12:46:08Z</time>
      </trkpt>
      <trkpt lat="62.633905497358" lon="17.980852802009">
        <ele>108.8</ele>
        <time>2017-12-17T12:46:09Z</time>
      </trkpt>
      <trkpt lat="62.633917232018" lon="17.980790524492">
        <ele>108.8</ele>
        <time>2017-12-17T12:46:10Z</time>
      </trkpt>
      <trkpt lat="62.63393131361" lon="17.980744843137">
        <ele>108.8</ele>
        <time>2017-12-17T12:46:11Z</time>
      </trkpt>
      <trkpt lat="62.633947993591" lon="17.980688516769">
        <ele>108.8</ele>
        <time>2017-12-17T12:46:12Z</time>
      </trkpt>
      <trkpt lat="62.633958051871" lon="17.980628753822">
        <ele>109</ele>
        <time>2017-12-17T12:46:13Z</time>
      </trkpt>
      <trkpt lat="62.633976408232" lon="17.980565051382">
        <ele>109</ele>
        <time>2017-12-17T12:46:14Z</time>
      </trkpt>
      <trkpt lat="62.633997782077" lon="17.980520375855">
        <ele>109.2</ele>
        <time>2017-12-17T12:46:15Z</time>
      </trkpt>
      <trkpt lat="62.634014378239" lon="17.98047385631">
        <ele>109.4</ele>
        <time>2017-12-17T12:46:16Z</time>
      </trkpt>
      <trkpt lat="62.63403189641" lon="17.980425911842">
        <ele>109.4</ele>
        <time>2017-12-17T12:46:17Z</time>
      </trkpt>
      <trkpt lat="62.634049749857" lon="17.980381320134">
        <ele>109.4</ele>
        <time>2017-12-17T12:46:18Z</time>
      </trkpt>
      <trkpt lat="62.634080343792" lon="17.980320132264">
        <ele>109.6</ele>
        <time>2017-12-17T12:46:19Z</time>
      </trkpt>
      <trkpt lat="62.63409056971" lon="17.980271349606">
        <ele>109.6</ele>
        <time>2017-12-17T12:46:20Z</time>
      </trkpt>
      <trkpt lat="62.634115296315" lon="17.980214520324">
        <ele>109.6</ele>
        <time>2017-12-17T12:46:21Z</time>
      </trkpt>
      <trkpt lat="62.634139603825" lon="17.980158445413">
        <ele>109.8</ele>
        <time>2017-12-17T12:46:22Z</time>
      </trkpt>
      <trkpt lat="62.634161396765" lon="17.980110752402">
        <ele>109.8</ele>
        <time>2017-12-17T12:46:23Z</time>
      </trkpt>
      <trkpt lat="62.634189727587" lon="17.980044619211">
        <ele>109.6</ele>
        <time>2017-12-17T12:46:24Z</time>
      </trkpt>
      <trkpt lat="62.63421546002" lon="17.979974043613">
        <ele>109.6</ele>
        <time>2017-12-17T12:46:25Z</time>
      </trkpt>
      <trkpt lat="62.634235325123" lon="17.979912520467">
        <ele>109.6</ele>
        <time>2017-12-17T12:46:26Z</time>
      </trkpt>
      <trkpt lat="62.634252088923" lon="17.979856780832">
        <ele>109.6</ele>
        <time>2017-12-17T12:46:27Z</time>
      </trkpt>
      <trkpt lat="62.634264661773" lon="17.979792826935">
        <ele>109.6</ele>
        <time>2017-12-17T12:46:28Z</time>
      </trkpt>
      <trkpt lat="62.634282347582" lon="17.979727112839">
        <ele>109.4</ele>
        <time>2017-12-17T12:46:29Z</time>
      </trkpt>
      <trkpt lat="62.634290645663" lon="17.979650250816">
        <ele>109.6</ele>
        <time>2017-12-17T12:46:30Z</time>
      </trkpt>
      <trkpt lat="62.634306403635" lon="17.979575148992">
        <ele>109.6</ele>
        <time>2017-12-17T12:46:31Z</time>
      </trkpt>
      <trkpt lat="62.63432274834" lon="17.979506752688">
        <ele>109.4</ele>
        <time>2017-12-17T12:46:32Z</time>
      </trkpt>
      <trkpt lat="62.634338171036" lon="17.979434584529">
        <ele>109.4</ele>
        <time>2017-12-17T12:46:33Z</time>
      </trkpt>
      <trkpt lat="62.6343512468" lon="17.979357303411">
        <ele>109.6</ele>
        <time>2017-12-17T12:46:34Z</time>
      </trkpt>
      <trkpt lat="62.634363987288" lon="17.979294020066">
        <ele>109.4</ele>
        <time>2017-12-17T12:46:35Z</time>
      </trkpt>
      <trkpt lat="62.634379158527" lon="17.97921405674">
        <ele>109.6</ele>
        <time>2017-12-17T12:46:36Z</time>
      </trkpt>
      <trkpt lat="62.634389719721" lon="17.979163178607">
        <ele>109.8</ele>
        <time>2017-12-17T12:46:37Z</time>
      </trkpt>
      <trkpt lat="62.634402795485" lon="17.979099392348">
        <ele>109.8</ele>
        <time>2017-12-17T12:46:38Z</time>
      </trkpt>
      <trkpt lat="62.634419391647" lon="17.979030157854">
        <ele>109.6</ele>
        <time>2017-12-17T12:46:39Z</time>
      </trkpt>
      <trkpt lat="62.634431461583" lon="17.978965449586">
        <ele>109.8</ele>
        <time>2017-12-17T12:46:40Z</time>
      </trkpt>
      <trkpt lat="62.634448393021" lon="17.978894119617">
        <ele>109.8</ele>
        <time>2017-12-17T12:46:41Z</time>
      </trkpt>
      <trkpt lat="62.634462809889" lon="17.978812982825">
        <ele>109.8</ele>
        <time>2017-12-17T12:46:42Z</time>
      </trkpt>
      <trkpt lat="62.63447781349" lon="17.978736958992">
        <ele>109.8</ele>
        <time>2017-12-17T12:46:43Z</time>
      </trkpt>
      <trkpt lat="62.634491308349" lon="17.978665126109">
        <ele>109.8</ele>
        <time>2017-12-17T12:46:44Z</time>
      </trkpt>
      <trkpt lat="62.634503210647" lon="17.978604357334">
        <ele>109.6</ele>
        <time>2017-12-17T12:46:45Z</time>
      </trkpt>
      <trkpt lat="62.634515029126" lon="17.978521125067">
        <ele>109.6</ele>
        <time>2017-12-17T12:46:46Z</time>
      </trkpt>
      <trkpt lat="62.634527350519" lon="17.978451471478">
        <ele>109.6</ele>
        <time>2017-12-17T12:46:47Z</time>
      </trkpt>
      <trkpt lat="62.634543443767" lon="17.978358097112">
        <ele>109.4</ele>
        <time>2017-12-17T12:46:48Z</time>
      </trkpt>
      <trkpt lat="62.63455995611" lon="17.978260280339">
        <ele>109.4</ele>
        <time>2017-12-17T12:46:49Z</time>
      </trkpt>
      <trkpt lat="62.634572445141" lon="17.978182999221">
        <ele>109.2</ele>
        <time>2017-12-17T12:46:50Z</time>
      </trkpt>
      <trkpt lat="62.634587364923" lon="17.978083673706">
        <ele>109.2</ele>
        <time>2017-12-17T12:46:51Z</time>
      </trkpt>
      <trkpt lat="62.634598177574" lon="17.977998429783">
        <ele>109</ele>
        <time>2017-12-17T12:46:52Z</time>
      </trkpt>
      <trkpt lat="62.634613684089" lon="17.97789809844">
        <ele>109</ele>
        <time>2017-12-17T12:46:53Z</time>
      </trkpt>
      <trkpt lat="62.634629274423" lon="17.977798521468">
        <ele>108.6</ele>
        <time>2017-12-17T12:46:54Z</time>
      </trkpt>
      <trkpt lat="62.634643356015" lon="17.977707410215">
        <ele>108.4</ele>
        <time>2017-12-17T12:46:55Z</time>
      </trkpt>
      <trkpt lat="62.634652324648" lon="17.977615376953">
        <ele>108.4</ele>
        <time>2017-12-17T12:46:56Z</time>
      </trkpt>
      <trkpt lat="62.634663975489" lon="17.97753600036">
        <ele>108.2</ele>
        <time>2017-12-17T12:46:57Z</time>
      </trkpt>
      <trkpt lat="62.634677135072" lon="17.977430136963">
        <ele>108.2</ele>
        <time>2017-12-17T12:46:58Z</time>
      </trkpt>
      <trkpt lat="62.63468065547" lon="17.977347994343">
        <ele>108.2</ele>
        <time>2017-12-17T12:46:59Z</time>
      </trkpt>
      <trkpt lat="62.634695826709" lon="17.977257888918">
        <ele>108.2</ele>
        <time>2017-12-17T12:47:00Z</time>
      </trkpt>
      <trkpt lat="62.634708231921" lon="17.977185217845">
        <ele>108.2</ele>
        <time>2017-12-17T12:47:01Z</time>
      </trkpt>
      <trkpt lat="62.634718960753" lon="17.977112127677">
        <ele>108</ele>
        <time>2017-12-17T12:47:02Z</time>
      </trkpt>
      <trkpt lat="62.634735389277" lon="17.977026297021">
        <ele>108</ele>
        <time>2017-12-17T12:47:03Z</time>
      </trkpt>
      <trkpt lat="62.634754164733" lon="17.976942645659">
        <ele>108</ele>
        <time>2017-12-17T12:47:04Z</time>
      </trkpt>
      <trkpt lat="62.634769252153" lon="17.976876009554">
        <ele>108</ele>
        <time>2017-12-17T12:47:05Z</time>
      </trkpt>
      <trkpt lat="62.634788698161" lon="17.976792609649">
        <ele>108</ele>
        <time>2017-12-17T12:47:06Z</time>
      </trkpt>
      <trkpt lat="62.634806467789" lon="17.976716334359">
        <ele>108</ele>
        <time>2017-12-17T12:47:07Z</time>
      </trkpt>
      <trkpt lat="62.634820381743" lon="17.976638969422">
        <ele>108</ele>
        <time>2017-12-17T12:47:08Z</time>
      </trkpt>
      <trkpt lat="62.634839743932" lon="17.976553390223">
        <ele>107.8</ele>
        <time>2017-12-17T12:47:09Z</time>
      </trkpt>
      <trkpt lat="62.634856507732" lon="17.976468481576">
        <ele>107.8</ele>
        <time>2017-12-17T12:47:10Z</time>
      </trkpt>
      <trkpt lat="62.634873606808" lon="17.976388099155">
        <ele>107.6</ele>
        <time>2017-12-17T12:47:11Z</time>
      </trkpt>
      <trkpt lat="62.634892968997" lon="17.976302603775">
        <ele>107.6</ele>
        <time>2017-12-17T12:47:12Z</time>
      </trkpt>
      <trkpt lat="62.634916522136" lon="17.976219622965">
        <ele>107.4</ele>
        <time>2017-12-17T12:47:13Z</time>
      </trkpt>
      <trkpt lat="62.634940242913" lon="17.976131613015">
        <ele>107.2</ele>
        <time>2017-12-17T12:47:14Z</time>
      </trkpt>
      <trkpt lat="62.634964885699" lon="17.97603564026">
        <ele>107.2</ele>
        <time>2017-12-17T12:47:15Z</time>
      </trkpt>
      <trkpt lat="62.634985672811" lon="17.975941343885">
        <ele>106.8</ele>
        <time>2017-12-17T12:47:16Z</time>
      </trkpt>
      <trkpt lat="62.635003693896" lon="17.975856435238">
        <ele>106.4</ele>
        <time>2017-12-17T12:47:17Z</time>
      </trkpt>
      <trkpt lat="62.6350217988" lon="17.975746716167">
        <ele>105.8</ele>
        <time>2017-12-17T12:47:18Z</time>
      </trkpt>
      <trkpt lat="62.635037892048" lon="17.975646133367">
        <ele>105.4</ele>
        <time>2017-12-17T12:47:19Z</time>
      </trkpt>
      <trkpt lat="62.635050548717" lon="17.975558291055">
        <ele>105</ele>
        <time>2017-12-17T12:47:20Z</time>
      </trkpt>
      <trkpt lat="62.635068569802" lon="17.975484697973">
        <ele>104.6</ele>
        <time>2017-12-17T12:47:21Z</time>
      </trkpt>
      <trkpt lat="62.635081058833" lon="17.975413954737">
        <ele>104.6</ele>
        <time>2017-12-17T12:47:22Z</time>
      </trkpt>
      <trkpt lat="62.63509639771" lon="17.975311947014">
        <ele>104.8</ele>
        <time>2017-12-17T12:47:23Z</time>
      </trkpt>
      <trkpt lat="62.635106288352" lon="17.975200383925">
        <ele>105</ele>
        <time>2017-12-17T12:47:24Z</time>
      </trkpt>
      <trkpt lat="62.63509975047" lon="17.975089910483">
        <ele>105.2</ele>
        <time>2017-12-17T12:47:25Z</time>
      </trkpt>
      <trkpt lat="62.635082651394" lon="17.974975916643">
        <ele>105</ele>
        <time>2017-12-17T12:47:26Z</time>
      </trkpt>
      <trkpt lat="62.635062451015" lon="17.974879608612">
        <ele>104.8</ele>
        <time>2017-12-17T12:47:27Z</time>
      </trkpt>
      <trkpt lat="62.635035461297" lon="17.974767542609">
        <ele>104.2</ele>
        <time>2017-12-17T12:47:28Z</time>
      </trkpt>
      <trkpt lat="62.635007884846" lon="17.974660924841">
        <ele>103.4</ele>
        <time>2017-12-17T12:47:29Z</time>
      </trkpt>
      <trkpt lat="62.634982739146" lon="17.974541734223">
        <ele>102.8</ele>
        <time>2017-12-17T12:47:30Z</time>
      </trkpt>
      <trkpt lat="62.634958683093" lon="17.974433440075">
        <ele>102.4</ele>
        <time>2017-12-17T12:47:31Z</time>
      </trkpt>
      <trkpt lat="62.634935046135" lon="17.974336126216">
        <ele>102.2</ele>
        <time>2017-12-17T12:47:32Z</time>
      </trkpt>
      <trkpt lat="62.634912498824" lon="17.974230765733">
        <ele>102</ele>
        <time>2017-12-17T12:47:33Z</time>
      </trkpt>
      <trkpt lat="62.634897076128" lon="17.974130685847">
        <ele>101.8</ele>
        <time>2017-12-17T12:47:34Z</time>
      </trkpt>
      <trkpt lat="62.634876875749" lon="17.974041921526">
        <ele>101.6</ele>
        <time>2017-12-17T12:47:35Z</time>
      </trkpt>
      <trkpt lat="62.63485583718" lon="17.973928514419">
        <ele>101.4</ele>
        <time>2017-12-17T12:47:36Z</time>
      </trkpt>
      <trkpt lat="62.634840330665" lon="17.973842348487">
        <ele>101.4</ele>
        <time>2017-12-17T12:47:37Z</time>
      </trkpt>
      <trkpt lat="62.634820800838" lon="17.973763474808">
        <ele>101.6</ele>
        <time>2017-12-17T12:47:38Z</time>
      </trkpt>
      <trkpt lat="62.63480806035" lon="17.973684098215">
        <ele>102</ele>
        <time>2017-12-17T12:47:39Z</time>
      </trkpt>
      <trkpt lat="62.634791715645" lon="17.973587538727">
        <ele>102.2</ele>
        <time>2017-12-17T12:47:40Z</time>
      </trkpt>
      <trkpt lat="62.634770677076" lon="17.973505396107">
        <ele>102.2</ele>
        <time>2017-12-17T12:47:41Z</time>
      </trkpt>
      <trkpt lat="62.634750728154" lon="17.973414787768">
        <ele>102.4</ele>
        <time>2017-12-17T12:47:42Z</time>
      </trkpt>
      <trkpt lat="62.634740334598" lon="17.973318982651">
        <ele>102.2</ele>
        <time>2017-12-17T12:47:43Z</time>
      </trkpt>
      <trkpt lat="62.634741088969" lon="17.973227536122">
        <ele>102</ele>
        <time>2017-12-17T12:47:44Z</time>
      </trkpt>
      <trkpt lat="62.634749470869" lon="17.973123852019">
        <ele>102</ele>
        <time>2017-12-17T12:47:45Z</time>
      </trkpt>
      <trkpt lat="62.634755841113" lon="17.97301815626">
        <ele>102</ele>
        <time>2017-12-17T12:47:46Z</time>
      </trkpt>
      <trkpt lat="62.63476782723" lon="17.972926961188">
        <ele>101.6</ele>
        <time>2017-12-17T12:47:47Z</time>
      </trkpt>
      <trkpt lat="62.634792386197" lon="17.972815146642">
        <ele>101.6</ele>
        <time>2017-12-17T12:47:48Z</time>
      </trkpt>
      <trkpt lat="62.634807054522" lon="17.972726130864">
        <ele>101.4</ele>
        <time>2017-12-17T12:47:49Z</time>
      </trkpt>
      <trkpt lat="62.634825829978" lon="17.972641725131">
        <ele>101.2</ele>
        <time>2017-12-17T12:47:50Z</time>
      </trkpt>
      <trkpt lat="62.634851981506" lon="17.972544830367">
        <ele>101</ele>
        <time>2017-12-17T12:47:51Z</time>
      </trkpt>
      <trkpt lat="62.634879138862" lon="17.972461430462">
        <ele>100.8</ele>
        <time>2017-12-17T12:47:52Z</time>
      </trkpt>
      <trkpt lat="62.634903446372" lon="17.972385155172">
        <ele>100.8</ele>
        <time>2017-12-17T12:47:53Z</time>
      </trkpt>
      <trkpt lat="62.634927418606" lon="17.972291613168">
        <ele>100.8</ele>
        <time>2017-12-17T12:47:54Z</time>
      </trkpt>
      <trkpt lat="62.634958180179" lon="17.972208297082">
        <ele>100.8</ele>
        <time>2017-12-17T12:47:55Z</time>
      </trkpt>
      <trkpt lat="62.634987097734" lon="17.972121628236">
        <ele>100.6</ele>
        <time>2017-12-17T12:47:56Z</time>
      </trkpt>
      <trkpt lat="62.635011656701" lon="17.972030684621">
        <ele>100.6</ele>
        <time>2017-12-17T12:47:57Z</time>
      </trkpt>
      <trkpt lat="62.635043424102" lon="17.971918031885">
        <ele>100.2</ele>
        <time>2017-12-17T12:47:58Z</time>
      </trkpt>
      <trkpt lat="62.635067144879" lon="17.971807223167">
        <ele>99.8</ele>
        <time>2017-12-17T12:47:59Z</time>
      </trkpt>
      <trkpt lat="62.635091452389" lon="17.971680824115">
        <ele>99.2</ele>
        <time>2017-12-17T12:48:00Z</time>
      </trkpt>
      <trkpt lat="62.635106120714" lon="17.971556688176">
        <ele>98.2</ele>
        <time>2017-12-17T12:48:01Z</time>
      </trkpt>
      <trkpt lat="62.635120956677" lon="17.971441856146">
        <ele>97.2</ele>
        <time>2017-12-17T12:48:02Z</time>
      </trkpt>
      <trkpt lat="62.63513411626" lon="17.971318558397">
        <ele>96.4</ele>
        <time>2017-12-17T12:48:03Z</time>
      </trkpt>
      <trkpt lat="62.635147694938" lon="17.971197523761">
        <ele>95.6</ele>
        <time>2017-12-17T12:48:04Z</time>
      </trkpt>
      <trkpt lat="62.635160686883" lon="17.971098617341">
        <ele>95</ele>
        <time>2017-12-17T12:48:05Z</time>
      </trkpt>
      <trkpt lat="62.635176947769" lon="17.970974565221">
        <ele>94.6</ele>
        <time>2017-12-17T12:48:06Z</time>
      </trkpt>
      <trkpt lat="62.635192621922" lon="17.970877586638">
        <ele>94.6</ele>
        <time>2017-12-17T12:48:07Z</time>
      </trkpt>
      <trkpt lat="62.635208296075" lon="17.970766442644">
        <ele>94.6</ele>
        <time>2017-12-17T12:48:08Z</time>
      </trkpt>
      <trkpt lat="62.635220030735" lon="17.970660579247">
        <ele>94.8</ele>
        <time>2017-12-17T12:48:09Z</time>
      </trkpt>
      <trkpt lat="62.63523218449" lon="17.970558152429">
        <ele>94.8</ele>
        <time>2017-12-17T12:48:10Z</time>
      </trkpt>
      <trkpt lat="62.63524391915" lon="17.970464945701">
        <ele>94.8</ele>
        <time>2017-12-17T12:48:11Z</time>
      </trkpt>
      <trkpt lat="62.635254983258" lon="17.970366793652">
        <ele>94.8</ele>
        <time>2017-12-17T12:48:12Z</time>
      </trkpt>
      <trkpt lat="62.63526822666" lon="17.970269982707">
        <ele>94.4</ele>
        <time>2017-12-17T12:48:13Z</time>
      </trkpt>
      <trkpt lat="62.6352816377" lon="17.970179877282">
        <ele>94</ele>
        <time>2017-12-17T12:48:14Z</time>
      </trkpt>
      <trkpt lat="62.635297144215" lon="17.970092370246">
        <ele>93.8</ele>
        <time>2017-12-17T12:48:15Z</time>
      </trkpt>
      <trkpt lat="62.635315752033" lon="17.970002432459">
        <ele>93.6</ele>
        <time>2017-12-17T12:48:16Z</time>
      </trkpt>
      <trkpt lat="62.635334192213" lon="17.969921630943">
        <ele>93.2</ele>
        <time>2017-12-17T12:48:17Z</time>
      </trkpt>
      <trkpt lat="62.635361768664" lon="17.969825909645">
        <ele>93.2</ele>
        <time>2017-12-17T12:48:18Z</time>
      </trkpt>
      <trkpt lat="62.63538641145" lon="17.96972993689">
        <ele>92.8</ele>
        <time>2017-12-17T12:48:19Z</time>
      </trkpt>
      <trkpt lat="62.635408539666" lon="17.969638071266">
        <ele>92.4</ele>
        <time>2017-12-17T12:48:20Z</time>
      </trkpt>
      <trkpt lat="62.635435445565" lon="17.969533129878">
        <ele>92</ele>
        <time>2017-12-17T12:48:21Z</time>
      </trkpt>
      <trkpt lat="62.635459753075" lon="17.969437324761">
        <ele>91.8</ele>
        <time>2017-12-17T12:48:22Z</time>
      </trkpt>
      <trkpt lat="62.635486407517" lon="17.969334478848">
        <ele>91.4</ele>
        <time>2017-12-17T12:48:23Z</time>
      </trkpt>
      <trkpt lat="62.635517001452" lon="17.969231968211">
        <ele>91</ele>
        <time>2017-12-17T12:48:24Z</time>
      </trkpt>
      <trkpt lat="62.635545332274" lon="17.96913230742">
        <ele>90.6</ele>
        <time>2017-12-17T12:48:25Z</time>
      </trkpt>
      <trkpt lat="62.635571986716" lon="17.969031473163">
        <ele>90</ele>
        <time>2017-12-17T12:48:26Z</time>
      </trkpt>
      <trkpt lat="62.635598138244" lon="17.968937763521">
        <ele>89.6</ele>
        <time>2017-12-17T12:48:27Z</time>
      </trkpt>
      <trkpt lat="62.635627307256" lon="17.968838018911">
        <ele>89</ele>
        <time>2017-12-17T12:48:28Z</time>
      </trkpt>
      <trkpt lat="62.63565547044" lon="17.968755876291">
        <ele>88.6</ele>
        <time>2017-12-17T12:48:29Z</time>
      </trkpt>
      <trkpt lat="62.635692266981" lon="17.968670548549">
        <ele>88.2</ele>
        <time>2017-12-17T12:48:30Z</time>
      </trkpt>
      <trkpt lat="62.635729985531" lon="17.968597709838">
        <ele>87.8</ele>
        <time>2017-12-17T12:48:31Z</time>
      </trkpt>
      <trkpt lat="62.635769715737" lon="17.968540461461">
        <ele>87.6</ele>
        <time>2017-12-17T12:48:32Z</time>
      </trkpt>
      <trkpt lat="62.635816989653" lon="17.968488912776">
        <ele>87.2</ele>
        <time>2017-12-17T12:48:33Z</time>
      </trkpt>
      <trkpt lat="62.635864095931" lon="17.968454379348">
        <ele>86.8</ele>
        <time>2017-12-17T12:48:34Z</time>
      </trkpt>
      <trkpt lat="62.635906005431" lon="17.96843577153">
        <ele>86.4</ele>
        <time>2017-12-17T12:48:35Z</time>
      </trkpt>
      <trkpt lat="62.635954871908" lon="17.968422947223">
        <ele>86.2</ele>
        <time>2017-12-17T12:48:36Z</time>
      </trkpt>
      <trkpt lat="62.635989656793" lon="17.968419343006">
        <ele>86</ele>
        <time>2017-12-17T12:48:37Z</time>
      </trkpt>
      <trkpt lat="62.636022430022" lon="17.968421270843">
        <ele>85.8</ele>
        <time>2017-12-17T12:48:38Z</time>
      </trkpt>
      <trkpt lat="62.636045480247" lon="17.96842403687">
        <ele>85.4</ele>
        <time>2017-12-17T12:48:39Z</time>
      </trkpt>
      <trkpt lat="62.636060902943" lon="17.968426719078">
        <ele>85</ele>
        <time>2017-12-17T12:48:40Z</time>
      </trkpt>
      <trkpt lat="62.63606618354" lon="17.968421773757">
        <ele>85</ele>
        <time>2017-12-17T12:48:41Z</time>
      </trkpt>
      <trkpt lat="62.636065429169" lon="17.968421103205">
        <ele>85</ele>
        <time>2017-12-17T12:48:43Z</time>
      </trkpt>
      <trkpt lat="62.636079762218" lon="17.968425377974">
        <ele>85</ele>
        <time>2017-12-17T12:49:09Z</time>
      </trkpt>
      <trkpt lat="62.636079426942" lon="17.968423533956">
        <ele>84.8</ele>
        <time>2017-12-17T12:49:10Z</time>
      </trkpt>
      <trkpt lat="62.636282604198" lon="17.968544568592">
        <ele>85</ele>
        <time>2017-12-17T12:49:36Z</time>
      </trkpt>
      <trkpt lat="62.636314790694" lon="17.968567283541">
        <ele>85</ele>
        <time>2017-12-17T12:49:37Z</time>
      </trkpt>
      <trkpt lat="62.636353598891" lon="17.968582287142">
        <ele>84.8</ele>
        <time>2017-12-17T12:49:38Z</time>
      </trkpt>
      <trkpt lat="62.636387126491" lon="17.968618999864">
        <ele>84.8</ele>
        <time>2017-12-17T12:49:39Z</time>
      </trkpt>
      <trkpt lat="62.636416630779" lon="17.968668117798">
        <ele>84.8</ele>
        <time>2017-12-17T12:49:40Z</time>
      </trkpt>
      <trkpt lat="62.636445799791" lon="17.968736095007">
        <ele>84.6</ele>
        <time>2017-12-17T12:49:41Z</time>
      </trkpt>
      <trkpt lat="62.636471113129" lon="17.96879367866">
        <ele>84.6</ele>
        <time>2017-12-17T12:49:42Z</time>
      </trkpt>
      <trkpt lat="62.636498102847" lon="17.968861320593">
        <ele>84.6</ele>
        <time>2017-12-17T12:49:43Z</time>
      </trkpt>
      <trkpt lat="62.636521655986" lon="17.968922340825">
        <ele>84.8</ele>
        <time>2017-12-17T12:49:44Z</time>
      </trkpt>
      <trkpt lat="62.636545544401" lon="17.968979924478">
        <ele>84.8</ele>
        <time>2017-12-17T12:49:45Z</time>
      </trkpt>
      <trkpt lat="62.636567672617" lon="17.969047147316">
        <ele>84.8</ele>
        <time>2017-12-17T12:49:46Z</time>
      </trkpt>
      <trkpt lat="62.636586950987" lon="17.969106491168">
        <ele>84.8</ele>
        <time>2017-12-17T12:49:47Z</time>
      </trkpt>
      <trkpt lat="62.636611929049" lon="17.969184526657">
        <ele>84.8</ele>
        <time>2017-12-17T12:49:48Z</time>
      </trkpt>
      <trkpt lat="62.636632297066" lon="17.969251917133">
        <ele>84.8</ele>
        <time>2017-12-17T12:49:49Z</time>
      </trkpt>
      <trkpt lat="62.636650066694" lon="17.969317798867">
        <ele>85</ele>
        <time>2017-12-17T12:49:50Z</time>
      </trkpt>
      <trkpt lat="62.636672111091" lon="17.969396840184">
        <ele>85</ele>
        <time>2017-12-17T12:49:51Z</time>
      </trkpt>
      <trkpt lat="62.636688288158" lon="17.969466242316">
        <ele>85</ele>
        <time>2017-12-17T12:49:52Z</time>
      </trkpt>
      <trkpt lat="62.636703710854" lon="17.969531788774">
        <ele>85.2</ele>
        <time>2017-12-17T12:49:53Z</time>
      </trkpt>
      <trkpt lat="62.636722821586" lon="17.969602448191">
        <ele>85.4</ele>
        <time>2017-12-17T12:49:54Z</time>
      </trkpt>
      <trkpt lat="62.636734556246" lon="17.969654667428">
        <ele>85.4</ele>
        <time>2017-12-17T12:49:55Z</time>
      </trkpt>
      <trkpt lat="62.636750900951" lon="17.969720130067">
        <ele>85.6</ele>
        <time>2017-12-17T12:49:56Z</time>
      </trkpt>
      <trkpt lat="62.636765485457" lon="17.969779809195">
        <ele>85.6</ele>
        <time>2017-12-17T12:49:57Z</time>
      </trkpt>
      <trkpt lat="62.636783255085" lon="17.96983638702">
        <ele>85.6</ele>
        <time>2017-12-17T12:49:58Z</time>
      </trkpt>
      <trkpt lat="62.636801779084" lon="17.969900508555">
        <ele>85.8</ele>
        <time>2017-12-17T12:49:59Z</time>
      </trkpt>
      <trkpt lat="62.636824913128" lon="17.969961025873">
        <ele>85.8</ele>
        <time>2017-12-17T12:50:00Z</time>
      </trkpt>
      <trkpt lat="62.636846957525" lon="17.970002097183">
        <ele>85.8</ele>
        <time>2017-12-17T12:50:01Z</time>
      </trkpt>
      <trkpt lat="62.636871935587" lon="17.970046353615">
        <ele>85.8</ele>
        <time>2017-12-17T12:50:02Z</time>
      </trkpt>
      <trkpt lat="62.636906469015" lon="17.970091112961">
        <ele>85.8</ele>
        <time>2017-12-17T12:50:03Z</time>
      </trkpt>
      <trkpt lat="62.636932955819" lon="17.970114330824">
        <ele>86</ele>
        <time>2017-12-17T12:50:04Z</time>
      </trkpt>
      <trkpt lat="62.636962963021" lon="17.970142661646">
        <ele>86</ele>
        <time>2017-12-17T12:50:05Z</time>
      </trkpt>
      <trkpt lat="62.637004704883" lon="17.970159844541">
        <ele>86</ele>
        <time>2017-12-17T12:50:06Z</time>
      </trkpt>
      <trkpt lat="62.637035801732" lon="17.970171746839">
        <ele>86</ele>
        <time>2017-12-17T12:50:07Z</time>
      </trkpt>
      <trkpt lat="62.63707871706" lon="17.970180128739">
        <ele>86</ele>
        <time>2017-12-17T12:50:08Z</time>
      </trkpt>
      <trkpt lat="62.637117609076" lon="17.970175183418">
        <ele>85.8</ele>
        <time>2017-12-17T12:50:09Z</time>
      </trkpt>
      <trkpt lat="62.637156920187" lon="17.970162359111">
        <ele>85.6</ele>
        <time>2017-12-17T12:50:10Z</time>
      </trkpt>
      <trkpt lat="62.637198410592" lon="17.9701481937">
        <ele>85</ele>
        <time>2017-12-17T12:50:11Z</time>
      </trkpt>
      <trkpt lat="62.637245181594" lon="17.970131681357">
        <ele>84.6</ele>
        <time>2017-12-17T12:50:12Z</time>
      </trkpt>
      <trkpt lat="62.63729580827" lon="17.970104356363">
        <ele>84.2</ele>
        <time>2017-12-17T12:50:13Z</time>
      </trkpt>
      <trkpt lat="62.637345932032" lon="17.97007862393">
        <ele>83.6</ele>
        <time>2017-12-17T12:50:14Z</time>
      </trkpt>
      <trkpt lat="62.637397815993" lon="17.970057585361">
        <ele>83.6</ele>
        <time>2017-12-17T12:50:15Z</time>
      </trkpt>
      <trkpt lat="62.637451208696" lon="17.970047443262">
        <ele>83.2</ele>
        <time>2017-12-17T12:50:16Z</time>
      </trkpt>
      <trkpt lat="62.637496554775" lon="17.970056495714">
        <ele>82.8</ele>
        <time>2017-12-17T12:50:17Z</time>
      </trkpt>
      <trkpt lat="62.637551707677" lon="17.970092202608">
        <ele>82.6</ele>
        <time>2017-12-17T12:50:18Z</time>
      </trkpt>
      <trkpt lat="62.637595545014" lon="17.970145343854">
        <ele>82.2</ele>
        <time>2017-12-17T12:50:19Z</time>
      </trkpt>
      <trkpt lat="62.637588085123" lon="17.970167555889">
        <ele>81.8</ele>
        <time>2017-12-17T12:50:20Z</time>
      </trkpt>
      <trkpt lat="62.637586995476" lon="17.97022446899">
        <ele>81.6</ele>
        <time>2017-12-17T12:50:21Z</time>
      </trkpt>
      <trkpt lat="62.637617421773" lon="17.970300995737">
        <ele>81.8</ele>
        <time>2017-12-17T12:50:22Z</time>
      </trkpt>
      <trkpt lat="62.637650865554" lon="17.97039043061">
        <ele>82</ele>
        <time>2017-12-17T12:50:23Z</time>
      </trkpt>
      <trkpt lat="62.637683135869" lon="17.970477518551">
        <ele>82.2</ele>
        <time>2017-12-17T12:50:24Z</time>
      </trkpt>
      <trkpt lat="62.637710879958" lon="17.970554045298">
        <ele>82.4</ele>
        <time>2017-12-17T12:50:25Z</time>
      </trkpt>
      <trkpt lat="62.637735438925" lon="17.970630907321">
        <ele>82.8</ele>
        <time>2017-12-17T12:50:26Z</time>
      </trkpt>
      <trkpt lat="62.637759075883" lon="17.970705087136">
        <ele>82.8</ele>
        <time>2017-12-17T12:50:27Z</time>
      </trkpt>
      <trkpt lat="62.637779360081" lon="17.970781110969">
        <ele>82.8</ele>
        <time>2017-12-17T12:50:28Z</time>
      </trkpt>
      <trkpt lat="62.637795788605" lon="17.970860319924">
        <ele>83</ele>
        <time>2017-12-17T12:50:29Z</time>
      </trkpt>
      <trkpt lat="62.637813725871" lon="17.970941037621">
        <ele>83</ele>
        <time>2017-12-17T12:50:30Z</time>
      </trkpt>
      <trkpt lat="62.637829819119" lon="17.971015049798">
        <ele>83.2</ele>
        <time>2017-12-17T12:50:31Z</time>
      </trkpt>
      <trkpt lat="62.637842056693" lon="17.971088307604">
        <ele>83.2</ele>
        <time>2017-12-17T12:50:32Z</time>
      </trkpt>
      <trkpt lat="62.637860077778" lon="17.971166678369">
        <ele>83.4</ele>
        <time>2017-12-17T12:50:33Z</time>
      </trkpt>
      <trkpt lat="62.637872902085" lon="17.971244462401">
        <ele>83.6</ele>
        <time>2017-12-17T12:50:34Z</time>
      </trkpt>
      <trkpt lat="62.637883211822" lon="17.971314786542">
        <ele>83.6</ele>
        <time>2017-12-17T12:50:35Z</time>
      </trkpt>
      <trkpt lat="62.637899807984" lon="17.971385278321">
        <ele>83.8</ele>
        <time>2017-12-17T12:50:36Z</time>
      </trkpt>
      <trkpt lat="62.637909111893" lon="17.971455015729">
        <ele>83.8</ele>
        <time>2017-12-17T12:50:37Z</time>
      </trkpt>
      <trkpt lat="62.637920678915" lon="17.971528189716">
        <ele>83.8</ele>
        <time>2017-12-17T12:50:38Z</time>
      </trkpt>
      <trkpt lat="62.637929731367" lon="17.971585773369">
        <ele>84</ele>
        <time>2017-12-17T12:50:39Z</time>
      </trkpt>
      <trkpt lat="62.637936520706" lon="17.971658779718">
        <ele>83.8</ele>
        <time>2017-12-17T12:50:40Z</time>
      </trkpt>
      <trkpt lat="62.637944986425" lon="17.971720889597">
        <ele>84</ele>
        <time>2017-12-17T12:50:41Z</time>
      </trkpt>
      <trkpt lat="62.637951608126" lon="17.971798170715">
        <ele>84</ele>
        <time>2017-12-17T12:50:42Z</time>
      </trkpt>
      <trkpt lat="62.637956721085" lon="17.971879726602">
        <ele>84.2</ele>
        <time>2017-12-17T12:50:43Z</time>
      </trkpt>
      <trkpt lat="62.637959822388" lon="17.971945021603">
        <ele>84.2</ele>
        <time>2017-12-17T12:50:44Z</time>
      </trkpt>
      <trkpt lat="62.63796216932" lon="17.972013669364">
        <ele>84.4</ele>
        <time>2017-12-17T12:50:45Z</time>
      </trkpt>
      <trkpt lat="62.637972311419" lon="17.972081562754">
        <ele>84.4</ele>
        <time>2017-12-17T12:50:46Z</time>
      </trkpt>
      <trkpt lat="62.63797641855" lon="17.972142080072">
        <ele>84.4</ele>
        <time>2017-12-17T12:50:47Z</time>
      </trkpt>
      <trkpt lat="62.637980860957" lon="17.972223133045">
        <ele>84.6</ele>
        <time>2017-12-17T12:50:48Z</time>
      </trkpt>
      <trkpt lat="62.637986895925" lon="17.972294630652">
        <ele>84.6</ele>
        <time>2017-12-17T12:50:49Z</time>
      </trkpt>
      <trkpt lat="62.637990583961" lon="17.972356489074">
        <ele>84.6</ele>
        <time>2017-12-17T12:50:50Z</time>
      </trkpt>
      <trkpt lat="62.637996032196" lon="17.972426142663">
        <ele>84.6</ele>
        <time>2017-12-17T12:50:51Z</time>
      </trkpt>
      <trkpt lat="62.638001396612" lon="17.972477858986">
        <ele>84.8</ele>
        <time>2017-12-17T12:50:52Z</time>
      </trkpt>
      <trkpt lat="62.638004581734" lon="17.972539633589">
        <ele>84.8</ele>
        <time>2017-12-17T12:50:53Z</time>
      </trkpt>
      <trkpt lat="62.638008772684" lon="17.97260492859">
        <ele>85</ele>
        <time>2017-12-17T12:50:54Z</time>
      </trkpt>
      <trkpt lat="62.638014304738" lon="17.972659830035">
        <ele>85</ele>
        <time>2017-12-17T12:50:55Z</time>
      </trkpt>
      <trkpt lat="62.638018495688" lon="17.972718754792">
        <ele>85.2</ele>
        <time>2017-12-17T12:50:56Z</time>
      </trkpt>
      <trkpt lat="62.638022016086" lon="17.972778098644">
        <ele>85.2</ele>
        <time>2017-12-17T12:50:57Z</time>
      </trkpt>
      <trkpt lat="62.63802419538" lon="17.972838448324">
        <ele>85.2</ele>
        <time>2017-12-17T12:50:58Z</time>
      </trkpt>
      <trkpt lat="62.638027212864" lon="17.972895026149">
        <ele>85.4</ele>
        <time>2017-12-17T12:50:59Z</time>
      </trkpt>
      <trkpt lat="62.638032325823" lon="17.972956297838">
        <ele>85.4</ele>
        <time>2017-12-17T12:51:00Z</time>
      </trkpt>
      <trkpt lat="62.638035678583" lon="17.973004409944">
        <ele>85.6</ele>
        <time>2017-12-17T12:51:01Z</time>
      </trkpt>
      <trkpt lat="62.638040372447" lon="17.973062245054">
        <ele>85.6</ele>
        <time>2017-12-17T12:51:02Z</time>
      </trkpt>
      <trkpt lat="62.638045485406" lon="17.973118822879">
        <ele>85.6</ele>
        <time>2017-12-17T12:51:03Z</time>
      </trkpt>
      <trkpt lat="62.638047161786" lon="17.973175149247">
        <ele>85.8</ele>
        <time>2017-12-17T12:51:04Z</time>
      </trkpt>
      <trkpt lat="62.638049005804" lon="17.973230721244">
        <ele>85.8</ele>
        <time>2017-12-17T12:51:05Z</time>
      </trkpt>
      <trkpt lat="62.638049508718" lon="17.973280090635">
        <ele>86</ele>
        <time>2017-12-17T12:51:06Z</time>
      </trkpt>
      <trkpt lat="62.638047497062" lon="17.97332241923">
        <ele>86</ele>
        <time>2017-12-17T12:51:07Z</time>
      </trkpt>
      <trkpt lat="62.638044228121" lon="17.973377236856">
        <ele>86.2</ele>
        <time>2017-12-17T12:51:08Z</time>
      </trkpt>
      <trkpt lat="62.638043641388" lon="17.973419146356">
        <ele>86.4</ele>
        <time>2017-12-17T12:51:09Z</time>
      </trkpt>
      <trkpt lat="62.638038276972" lon="17.973474550715">
        <ele>86.8</ele>
        <time>2017-12-17T12:51:10Z</time>
      </trkpt>
      <trkpt lat="62.638039198981" lon="17.973516627853">
        <ele>87</ele>
        <time>2017-12-17T12:51:11Z</time>
      </trkpt>
      <trkpt lat="62.638032744918" lon="17.97357052347">
        <ele>87</ele>
        <time>2017-12-17T12:51:12Z</time>
      </trkpt>
      <trkpt lat="62.63802670995" lon="17.973629112951">
        <ele>87.2</ele>
        <time>2017-12-17T12:51:13Z</time>
      </trkpt>
      <trkpt lat="62.638022519" lon="17.973682086559">
        <ele>87.2</ele>
        <time>2017-12-17T12:51:14Z</time>
      </trkpt>
      <trkpt lat="62.638025955579" lon="17.973724666611">
        <ele>87.4</ele>
        <time>2017-12-17T12:51:15Z</time>
      </trkpt>
      <trkpt lat="62.638026290855" lon="17.973789374879">
        <ele>87.4</ele>
        <time>2017-12-17T12:51:16Z</time>
      </trkpt>
      <trkpt lat="62.6380309009" lon="17.973842599944">
        <ele>87.4</ele>
        <time>2017-12-17T12:51:17Z</time>
      </trkpt>
      <trkpt lat="62.638037354963" lon="17.973906470022">
        <ele>87.4</ele>
        <time>2017-12-17T12:51:18Z</time>
      </trkpt>
      <trkpt lat="62.63804179737" lon="17.973979308733">
        <ele>87.4</ele>
        <time>2017-12-17T12:51:19Z</time>
      </trkpt>
      <trkpt lat="62.638052442383" lon="17.974042256802">
        <ele>87.4</ele>
        <time>2017-12-17T12:51:20Z</time>
      </trkpt>
      <trkpt lat="62.63805856117" lon="17.974120962843">
        <ele>87.2</ele>
        <time>2017-12-17T12:51:21Z</time>
      </trkpt>
      <trkpt lat="62.638065853423" lon="17.974187934224">
        <ele>87.2</ele>
        <time>2017-12-17T12:51:22Z</time>
      </trkpt>
      <trkpt lat="62.638070631106" lon="17.974251301388">
        <ele>87.2</ele>
        <time>2017-12-17T12:51:23Z</time>
      </trkpt>
      <trkpt lat="62.638073900047" lon="17.974336210035">
        <ele>87.2</ele>
        <time>2017-12-17T12:51:24Z</time>
      </trkpt>
      <trkpt lat="62.638080857024" lon="17.974409216384">
        <ele>87.2</ele>
        <time>2017-12-17T12:51:25Z</time>
      </trkpt>
      <trkpt lat="62.638080773205" lon="17.974492029556">
        <ele>87.2</ele>
        <time>2017-12-17T12:51:26Z</time>
      </trkpt>
      <trkpt lat="62.638074989694" lon="17.974566963742">
        <ele>87.2</ele>
        <time>2017-12-17T12:51:27Z</time>
      </trkpt>
      <trkpt lat="62.638070714925" lon="17.974636617331">
        <ele>87.4</ele>
        <time>2017-12-17T12:51:28Z</time>
      </trkpt>
      <trkpt lat="62.63805772298" lon="17.974709372223">
        <ele>87.4</ele>
        <time>2017-12-17T12:51:29Z</time>
      </trkpt>
      <trkpt lat="62.638042803198" lon="17.974786904798">
        <ele>87.4</ele>
        <time>2017-12-17T12:51:30Z</time>
      </trkpt>
      <trkpt lat="62.638031152357" lon="17.974841806243">
        <ele>87.4</ele>
        <time>2017-12-17T12:51:31Z</time>
      </trkpt>
      <trkpt lat="62.638017406041" lon="17.974898384068">
        <ele>87.4</ele>
        <time>2017-12-17T12:51:32Z</time>
      </trkpt>
      <trkpt lat="62.638003995001" lon="17.974949262201">
        <ele>87.4</ele>
        <time>2017-12-17T12:51:33Z</time>
      </trkpt>
      <trkpt lat="62.637984968088" lon="17.974990584968">
        <ele>87.4</ele>
        <time>2017-12-17T12:51:34Z</time>
      </trkpt>
      <trkpt lat="62.637971137953" lon="17.975026878595">
        <ele>87.4</ele>
        <time>2017-12-17T12:51:35Z</time>
      </trkpt>
      <trkpt lat="62.637951189031" lon="17.975068536638">
        <ele>87.6</ele>
        <time>2017-12-17T12:51:36Z</time>
      </trkpt>
      <trkpt lat="62.637933000308" lon="17.975100806953">
        <ele>87.6</ele>
        <time>2017-12-17T12:51:37Z</time>
      </trkpt>
      <trkpt lat="62.637918415802" lon="17.975138693141">
        <ele>87.8</ele>
        <time>2017-12-17T12:51:38Z</time>
      </trkpt>
      <trkpt lat="62.637900813812" lon="17.975172556017">
        <ele>88</ele>
        <time>2017-12-17T12:51:39Z</time>
      </trkpt>
      <trkpt lat="62.637882289813" lon="17.975209101101">
        <ele>88.2</ele>
        <time>2017-12-17T12:51:40Z</time>
      </trkpt>
      <trkpt lat="62.63786996842" lon="17.975238102475">
        <ele>88.6</ele>
        <time>2017-12-17T12:51:41Z</time>
      </trkpt>
      <trkpt lat="62.637851695878" lon="17.975269031686">
        <ele>88.8</ele>
        <time>2017-12-17T12:51:42Z</time>
      </trkpt>
      <trkpt lat="62.637836524639" lon="17.975307839883">
        <ele>89</ele>
        <time>2017-12-17T12:51:43Z</time>
      </trkpt>
      <trkpt lat="62.637820850486" lon="17.975337511809">
        <ele>89.2</ele>
        <time>2017-12-17T12:51:44Z</time>
      </trkpt>
      <trkpt lat="62.63780375141" lon="17.975359640025">
        <ele>89.2</ele>
        <time>2017-12-17T12:51:45Z</time>
      </trkpt>
      <trkpt lat="62.63779117856" lon="17.975388306123">
        <ele>89.2</ele>
        <time>2017-12-17T12:51:46Z</time>
      </trkpt>
      <trkpt lat="62.637778438072" lon="17.975413200366">
        <ele>89.2</ele>
        <time>2017-12-17T12:51:47Z</time>
      </trkpt>
      <trkpt lat="62.637759997892" lon="17.975438346066">
        <ele>89.4</ele>
        <time>2017-12-17T12:51:48Z</time>
      </trkpt>
      <trkpt lat="62.637744323739" lon="17.975461061015">
        <ele>89.4</ele>
        <time>2017-12-17T12:51:49Z</time>
      </trkpt>
      <trkpt lat="62.63773501983" lon="17.97547992029">
        <ele>89.6</ele>
        <time>2017-12-17T12:51:50Z</time>
      </trkpt>
      <trkpt lat="62.637719178039" lon="17.975493079873">
        <ele>89.8</ele>
        <time>2017-12-17T12:51:51Z</time>
      </trkpt>
      <trkpt lat="62.637703755343" lon="17.975499869212">
        <ele>90</ele>
        <time>2017-12-17T12:51:52Z</time>
      </trkpt>
      <trkpt lat="62.637690511941" lon="17.975511687691">
        <ele>90</ele>
        <time>2017-12-17T12:51:53Z</time>
      </trkpt>
      <trkpt lat="62.637669473372" lon="17.975522835618">
        <ele>90.4</ele>
        <time>2017-12-17T12:51:54Z</time>
      </trkpt>
      <trkpt lat="62.637651452287" lon="17.975544377101">
        <ele>90.6</ele>
        <time>2017-12-17T12:51:55Z</time>
      </trkpt>
      <trkpt lat="62.637630413718" lon="17.975560554168">
        <ele>90.8</ele>
        <time>2017-12-17T12:51:56Z</time>
      </trkpt>
      <trkpt lat="62.637608201683" lon="17.975569858077">
        <ele>91</ele>
        <time>2017-12-17T12:51:57Z</time>
      </trkpt>
      <trkpt lat="62.637589007132" lon="17.975586621877">
        <ele>91.2</ele>
        <time>2017-12-17T12:51:58Z</time>
      </trkpt>
      <trkpt lat="62.637570064038" lon="17.975601206383">
        <ele>91.2</ele>
        <time>2017-12-17T12:51:59Z</time>
      </trkpt>
      <trkpt lat="62.637549947478" lon="17.975609504464">
        <ele>91.4</ele>
        <time>2017-12-17T12:52:00Z</time>
      </trkpt>
      <trkpt lat="62.637532932221" lon="17.975627357911">
        <ele>91.6</ele>
        <time>2017-12-17T12:52:01Z</time>
      </trkpt>
      <trkpt lat="62.637512648023" lon="17.975639511666">
        <ele>91.6</ele>
        <time>2017-12-17T12:52:02Z</time>
      </trkpt>
      <trkpt lat="62.637489933074" lon="17.975653928534">
        <ele>91.8</ele>
        <time>2017-12-17T12:52:03Z</time>
      </trkpt>
      <trkpt lat="62.637472750179" lon="17.975669518868">
        <ele>92</ele>
        <time>2017-12-17T12:52:04Z</time>
      </trkpt>
      <trkpt lat="62.637455315827" lon="17.975676727302">
        <ele>92.2</ele>
        <time>2017-12-17T12:52:05Z</time>
      </trkpt>
      <trkpt lat="62.637438635846" lon="17.975696005672">
        <ele>92.4</ele>
        <time>2017-12-17T12:52:06Z</time>
      </trkpt>
      <trkpt lat="62.637418519286" lon="17.975706985961">
        <ele>92.6</ele>
        <time>2017-12-17T12:52:07Z</time>
      </trkpt>
      <trkpt lat="62.637396558708" lon="17.97573556824">
        <ele>92.8</ele>
        <time>2017-12-17T12:52:08Z</time>
      </trkpt>
      <trkpt lat="62.637375603958" lon="17.975756020076">
        <ele>92.8</ele>
        <time>2017-12-17T12:52:09Z</time>
      </trkpt>
      <trkpt lat="62.637354146294" lon="17.975778399749">
        <ele>93</ele>
        <time>2017-12-17T12:52:10Z</time>
      </trkpt>
      <trkpt lat="62.637341489625" lon="17.975800360327">
        <ele>93.2</ele>
        <time>2017-12-17T12:52:11Z</time>
      </trkpt>
      <trkpt lat="62.637323636178" lon="17.975821650353">
        <ele>93.2</ele>
        <time>2017-12-17T12:52:12Z</time>
      </trkpt>
      <trkpt lat="62.637311650061" lon="17.975849142985">
        <ele>93.2</ele>
        <time>2017-12-17T12:52:13Z</time>
      </trkpt>
      <trkpt lat="62.637296311184" lon="17.97586800226">
        <ele>93.2</ele>
        <time>2017-12-17T12:52:14Z</time>
      </trkpt>
      <trkpt lat="62.637280553212" lon="17.975885352793">
        <ele>93.4</ele>
        <time>2017-12-17T12:52:15Z</time>
      </trkpt>
      <trkpt lat="62.637268734733" lon="17.975908989751">
        <ele>93.4</ele>
        <time>2017-12-17T12:52:16Z</time>
      </trkpt>
      <trkpt lat="62.637257586806" lon="17.975934051632">
        <ele>93.6</ele>
        <time>2017-12-17T12:52:17Z</time>
      </trkpt>
      <trkpt lat="62.637244259585" lon="17.97597109963">
        <ele>93.8</ele>
        <time>2017-12-17T12:52:18Z</time>
      </trkpt>
      <trkpt lat="62.637237218789" lon="17.976006052153">
        <ele>94.2</ele>
        <time>2017-12-17T12:52:19Z</time>
      </trkpt>
      <trkpt lat="62.63722456212" lon="17.976037903373">
        <ele>94.4</ele>
        <time>2017-12-17T12:52:20Z</time>
      </trkpt>
      <trkpt lat="62.637216934591" lon="17.976080483425">
        <ele>94.8</ele>
        <time>2017-12-17T12:52:21Z</time>
      </trkpt>
      <trkpt lat="62.637204277922" lon="17.976113759568">
        <ele>95</ele>
        <time>2017-12-17T12:52:22Z</time>
      </trkpt>
      <trkpt lat="62.6372010928" lon="17.976157010172">
        <ele>95</ele>
        <time>2017-12-17T12:52:23Z</time>
      </trkpt>
      <trkpt lat="62.637188017036" lon="17.976205289916">
        <ele>95.2</ele>
        <time>2017-12-17T12:52:24Z</time>
      </trkpt>
      <trkpt lat="62.63718181443" lon="17.97624267319">
        <ele>95.2</ele>
        <time>2017-12-17T12:52:25Z</time>
      </trkpt>
      <trkpt lat="62.63717175615" lon="17.976291204391">
        <ele>95.4</ele>
        <time>2017-12-17T12:52:26Z</time>
      </trkpt>
      <trkpt lat="62.637162871336" lon="17.976318780842">
        <ele>95.4</ele>
        <time>2017-12-17T12:52:27Z</time>
      </trkpt>
      <trkpt lat="62.637158428929" lon="17.976366976767">
        <ele>95.6</ele>
        <time>2017-12-17T12:52:28Z</time>
      </trkpt>
      <trkpt lat="62.637147616278" lon="17.976400588186">
        <ele>95.6</ele>
        <time>2017-12-17T12:52:29Z</time>
      </trkpt>
      <trkpt lat="62.637138060912" lon="17.976447610645">
        <ele>95.6</ele>
        <time>2017-12-17T12:52:30Z</time>
      </trkpt>
      <trkpt lat="62.637125907157" lon="17.97648574829">
        <ele>95.8</ele>
        <time>2017-12-17T12:52:31Z</time>
      </trkpt>
      <trkpt lat="62.637117022343" lon="17.976526149048">
        <ele>95.8</ele>
        <time>2017-12-17T12:52:32Z</time>
      </trkpt>
      <trkpt lat="62.63711056828" lon="17.976569315833">
        <ele>96</ele>
        <time>2017-12-17T12:52:33Z</time>
      </trkpt>
      <trkpt lat="62.637105036226" lon="17.97661231498">
        <ele>96.2</ele>
        <time>2017-12-17T12:52:34Z</time>
      </trkpt>
      <trkpt lat="62.637101180552" lon="17.976656152317">
        <ele>96.4</ele>
        <time>2017-12-17T12:52:35Z</time>
      </trkpt>
      <trkpt lat="62.637098163068" lon="17.976703174776">
        <ele>96.4</ele>
        <time>2017-12-17T12:52:36Z</time>
      </trkpt>
      <trkpt lat="62.637096235231" lon="17.976753885271">
        <ele>96.4</ele>
        <time>2017-12-17T12:52:37Z</time>
      </trkpt>
      <trkpt lat="62.637096905783" lon="17.976803589938">
        <ele>96.4</ele>
        <time>2017-12-17T12:52:38Z</time>
      </trkpt>
      <trkpt lat="62.637093385385" lon="17.976855306261">
        <ele>96.4</ele>
        <time>2017-12-17T12:52:39Z</time>
      </trkpt>
      <trkpt lat="62.637094475032" lon="17.976900065607">
        <ele>96.4</ele>
        <time>2017-12-17T12:52:40Z</time>
      </trkpt>
      <trkpt lat="62.637093133928" lon="17.976956475794">
        <ele>96.4</ele>
        <time>2017-12-17T12:52:41Z</time>
      </trkpt>
      <trkpt lat="62.637095816136" lon="17.977006599556">
        <ele>96.4</ele>
        <time>2017-12-17T12:52:42Z</time>
      </trkpt>
      <trkpt lat="62.637094139756" lon="17.977073151842">
        <ele>96.4</ele>
        <time>2017-12-17T12:52:43Z</time>
      </trkpt>
      <trkpt lat="62.637092463376" lon="17.977136099911">
        <ele>96.4</ele>
        <time>2017-12-17T12:52:44Z</time>
      </trkpt>
      <trkpt lat="62.637088104788" lon="17.977195611401">
        <ele>96.4</ele>
        <time>2017-12-17T12:52:45Z</time>
      </trkpt>
      <trkpt lat="62.637084081476" lon="17.977259649117">
        <ele>96.4</ele>
        <time>2017-12-17T12:52:46Z</time>
      </trkpt>
      <trkpt lat="62.637078633241" lon="17.977303905549">
        <ele>96.4</ele>
        <time>2017-12-17T12:52:47Z</time>
      </trkpt>
      <trkpt lat="62.637066563305" lon="17.977375989889">
        <ele>96.4</ele>
        <time>2017-12-17T12:52:48Z</time>
      </trkpt>
      <trkpt lat="62.637060109242" lon="17.977433908818">
        <ele>96.4</ele>
        <time>2017-12-17T12:52:49Z</time>
      </trkpt>
      <trkpt lat="62.637046698202" lon="17.977488139711">
        <ele>96.4</ele>
        <time>2017-12-17T12:52:50Z</time>
      </trkpt>
      <trkpt lat="62.637029682945" lon="17.977547986477">
        <ele>96.4</ele>
        <time>2017-12-17T12:52:51Z</time>
      </trkpt>
      <trkpt lat="62.637019624665" lon="17.977590985624">
        <ele>96.4</ele>
        <time>2017-12-17T12:52:52Z</time>
      </trkpt>
      <trkpt lat="62.637004872521" lon="17.977648653096">
        <ele>96.4</ele>
        <time>2017-12-17T12:52:53Z</time>
      </trkpt>
      <trkpt lat="62.636992132033" lon="17.977708080767">
        <ele>96.4</ele>
        <time>2017-12-17T12:52:54Z</time>
      </trkpt>
      <trkpt lat="62.636981403201" lon="17.977761557289">
        <ele>96.4</ele>
        <time>2017-12-17T12:52:55Z</time>
      </trkpt>
      <trkpt lat="62.636977966622" lon="17.977814782354">
        <ele>96.4</ele>
        <time>2017-12-17T12:52:56Z</time>
      </trkpt>
      <trkpt lat="62.636972183111" lon="17.977863481193">
        <ele>96.4</ele>
        <time>2017-12-17T12:52:57Z</time>
      </trkpt>
      <trkpt lat="62.636964807039" lon="17.97792156776">
        <ele>96.4</ele>
        <time>2017-12-17T12:52:58Z</time>
      </trkpt>
      <trkpt lat="62.63695969408" lon="17.977965572735">
        <ele>96.4</ele>
        <time>2017-12-17T12:52:59Z</time>
      </trkpt>
      <trkpt lat="62.63695215037" lon="17.978021144732">
        <ele>96.6</ele>
        <time>2017-12-17T12:53:00Z</time>
      </trkpt>
      <trkpt lat="62.636945109574" lon="17.978066993725">
        <ele>96.6</ele>
        <time>2017-12-17T12:53:01Z</time>
      </trkpt>
      <trkpt lat="62.636936308579" lon="17.978118207134">
        <ele>96.8</ele>
        <time>2017-12-17T12:53:02Z</time>
      </trkpt>
      <trkpt lat="62.636926082661" lon="17.978177802443">
        <ele>96.6</ele>
        <time>2017-12-17T12:53:03Z</time>
      </trkpt>
      <trkpt lat="62.636917616942" lon="17.978222897065">
        <ele>96.6</ele>
        <time>2017-12-17T12:53:04Z</time>
      </trkpt>
      <trkpt lat="62.636907558662" lon="17.978263046366">
        <ele>96.6</ele>
        <time>2017-12-17T12:53:05Z</time>
      </trkpt>
      <trkpt lat="62.636898757667" lon="17.978305207323">
        <ele>96.6</ele>
        <time>2017-12-17T12:53:06Z</time>
      </trkpt>
      <trkpt lat="62.636883586428" lon="17.978353906162">
        <ele>96.6</ele>
        <time>2017-12-17T12:53:07Z</time>
      </trkpt>
      <trkpt lat="62.636866068257" lon="17.978414255842">
        <ele>96.8</ele>
        <time>2017-12-17T12:53:08Z</time>
      </trkpt>
      <trkpt lat="62.636847963353" lon="17.97846220031">
        <ele>97</ele>
        <time>2017-12-17T12:53:09Z</time>
      </trkpt>
      <trkpt lat="62.636833295028" lon="17.97850410981">
        <ele>97</ele>
        <time>2017-12-17T12:53:10Z</time>
      </trkpt>
      <trkpt lat="62.636818626703" lon="17.978540487256">
        <ele>97</ele>
        <time>2017-12-17T12:53:11Z</time>
      </trkpt>
      <trkpt lat="62.636799683609" lon="17.978583821679">
        <ele>97</ele>
        <time>2017-12-17T12:53:12Z</time>
      </trkpt>
      <trkpt lat="62.636784260913" lon="17.978620031487">
        <ele>97.2</ele>
        <time>2017-12-17T12:53:13Z</time>
      </trkpt>
      <trkpt lat="62.636763473801" lon="17.97865246944">
        <ele>97</ele>
        <time>2017-12-17T12:53:14Z</time>
      </trkpt>
      <trkpt lat="62.636749476028" lon="17.978691109999">
        <ele>97.2</ele>
        <time>2017-12-17T12:53:15Z</time>
      </trkpt>
      <trkpt lat="62.636732041676" lon="17.978713489672">
        <ele>97.2</ele>
        <time>2017-12-17T12:53:16Z</time>
      </trkpt>
      <trkpt lat="62.636714691143" lon="17.978728325635">
        <ele>97.2</ele>
        <time>2017-12-17T12:53:17Z</time>
      </trkpt>
      <trkpt lat="62.636692982022" lon="17.978744335064">
        <ele>97.4</ele>
        <time>2017-12-17T12:53:18Z</time>
      </trkpt>
      <trkpt lat="62.636670769987" lon="17.978758751932">
        <ele>97.4</ele>
        <time>2017-12-17T12:53:19Z</time>
      </trkpt>
      <trkpt lat="62.63665291654" lon="17.978766295642">
        <ele>97.6</ele>
        <time>2017-12-17T12:53:20Z</time>
      </trkpt>
      <trkpt lat="62.63662944722" lon="17.978764200167">
        <ele>97.8</ele>
        <time>2017-12-17T12:53:21Z</time>
      </trkpt>
      <trkpt lat="62.636611174678" lon="17.978769061669">
        <ele>98</ele>
        <time>2017-12-17T12:53:22Z</time>
      </trkpt>
      <trkpt lat="62.636588459729" lon="17.978768474936">
        <ele>98</ele>
        <time>2017-12-17T12:53:23Z</time>
      </trkpt>
      <trkpt lat="62.636565828599" lon="17.978775851008">
        <ele>98</ele>
        <time>2017-12-17T12:53:24Z</time>
      </trkpt>
      <trkpt lat="62.63654143727" lon="17.978767804384">
        <ele>98.2</ele>
        <time>2017-12-17T12:53:25Z</time>
      </trkpt>
      <trkpt lat="62.636516878303" lon="17.97877484518">
        <ele>98.6</ele>
        <time>2017-12-17T12:53:26Z</time>
      </trkpt>
      <trkpt lat="62.636495588277" lon="17.978775264275">
        <ele>98.6</ele>
        <time>2017-12-17T12:53:27Z</time>
      </trkpt>
      <trkpt lat="62.636472957147" lon="17.978773839352">
        <ele>98.6</ele>
        <time>2017-12-17T12:53:28Z</time>
      </trkpt>
      <trkpt lat="62.636456863899" lon="17.978775431913">
        <ele>98.8</ele>
        <time>2017-12-17T12:53:29Z</time>
      </trkpt>
      <trkpt lat="62.636435070959" lon="17.978775851008">
        <ele>98.8</ele>
        <time>2017-12-17T12:53:30Z</time>
      </trkpt>
      <trkpt lat="62.636415960227" lon="17.978776773017">
        <ele>98.8</ele>
        <time>2017-12-17T12:53:31Z</time>
      </trkpt>
      <trkpt lat="62.636402549187" lon="17.978788088582">
        <ele>99</ele>
        <time>2017-12-17T12:53:32Z</time>
      </trkpt>
      <trkpt lat="62.636382600265" lon="17.97879496174">
        <ele>99.2</ele>
        <time>2017-12-17T12:53:33Z</time>
      </trkpt>
      <trkpt lat="62.636363070438" lon="17.978800912889">
        <ele>99.2</ele>
        <time>2017-12-17T12:53:34Z</time>
      </trkpt>
      <trkpt lat="62.636349575579" lon="17.978810971169">
        <ele>99.6</ele>
        <time>2017-12-17T12:53:35Z</time>
      </trkpt>
      <trkpt lat="62.636329794295" lon="17.978826477684">
        <ele>99.6</ele>
        <time>2017-12-17T12:53:36Z</time>
      </trkpt>
      <trkpt lat="62.636313030495" lon="17.978832764109">
        <ele>100</ele>
        <time>2017-12-17T12:53:37Z</time>
      </trkpt>
      <trkpt lat="62.63629752398" lon="17.978846342787">
        <ele>100.2</ele>
        <time>2017-12-17T12:53:38Z</time>
      </trkpt>
      <trkpt lat="62.63628076018" lon="17.978860424379">
        <ele>100.4</ele>
        <time>2017-12-17T12:53:39Z</time>
      </trkpt>
      <trkpt lat="62.636261817086" lon="17.978869309193">
        <ele>100.6</ele>
        <time>2017-12-17T12:53:40Z</time>
      </trkpt>
      <trkpt lat="62.636250669159" lon="17.978884480432">
        <ele>101</ele>
        <time>2017-12-17T12:53:41Z</time>
      </trkpt>
      <trkpt lat="62.636229379133" lon="17.978905267544">
        <ele>101</ele>
        <time>2017-12-17T12:53:42Z</time>
      </trkpt>
      <trkpt lat="62.636211777143" lon="17.978920774059">
        <ele>101.2</ele>
        <time>2017-12-17T12:53:43Z</time>
      </trkpt>
      <trkpt lat="62.636199288112" lon="17.978938627506">
        <ele>101.6</ele>
        <time>2017-12-17T12:53:44Z</time>
      </trkpt>
      <trkpt lat="62.636189984203" lon="17.978955475125">
        <ele>101.8</ele>
        <time>2017-12-17T12:53:45Z</time>
      </trkpt>
      <trkpt lat="62.636178249543" lon="17.97897181983">
        <ele>102</ele>
        <time>2017-12-17T12:53:46Z</time>
      </trkpt>
      <trkpt lat="62.636170705833" lon="17.978985649965">
        <ele>102</ele>
        <time>2017-12-17T12:53:47Z</time>
      </trkpt>
      <trkpt lat="62.636159725544" lon="17.97900618562">
        <ele>102.2</ele>
        <time>2017-12-17T12:53:48Z</time>
      </trkpt>
      <trkpt lat="62.63615167892" lon="17.979017668823">
        <ele>102.6</ele>
        <time>2017-12-17T12:53:49Z</time>
      </trkpt>
      <trkpt lat="62.636140614812" lon="17.979032672424">
        <ele>103</ele>
        <time>2017-12-17T12:53:50Z</time>
      </trkpt>
      <trkpt lat="62.636127203772" lon="17.979056141744">
        <ele>103.2</ele>
        <time>2017-12-17T12:53:51Z</time>
      </trkpt>
      <trkpt lat="62.636118318958" lon="17.979077180313">
        <ele>103.4</ele>
        <time>2017-12-17T12:53:52Z</time>
      </trkpt>
      <trkpt lat="62.636111278162" lon="17.979097213054">
        <ele>103.8</ele>
        <time>2017-12-17T12:53:53Z</time>
      </trkpt>
      <trkpt lat="62.636100968425" lon="17.979122191116">
        <ele>104.2</ele>
        <time>2017-12-17T12:53:54Z</time>
      </trkpt>
      <trkpt lat="62.636091245421" lon="17.979161083132">
        <ele>104.4</ele>
        <time>2017-12-17T12:53:55Z</time>
      </trkpt>
      <trkpt lat="62.636080935684" lon="17.979194107818">
        <ele>104.6</ele>
        <time>2017-12-17T12:53:56Z</time>
      </trkpt>
      <trkpt lat="62.636068195196" lon="17.979228976522">
        <ele>104.8</ele>
        <time>2017-12-17T12:53:57Z</time>
      </trkpt>
      <trkpt lat="62.636057634002" lon="17.979265773063">
        <ele>105.2</ele>
        <time>2017-12-17T12:53:58Z</time>
      </trkpt>
      <trkpt lat="62.636046486075" lon="17.979304078346">
        <ele>105.2</ele>
        <time>2017-12-17T12:53:59Z</time>
      </trkpt>
      <trkpt lat="62.636034583777" lon="17.979343138">
        <ele>105.2</ele>
        <time>2017-12-17T12:54:00Z</time>
      </trkpt>
      <trkpt lat="62.636027962076" lon="17.97938001836">
        <ele>105.4</ele>
        <time>2017-12-17T12:54:01Z</time>
      </trkpt>
      <trkpt lat="62.636019999271" lon="17.979429303932">
        <ele>105.4</ele>
        <time>2017-12-17T12:54:02Z</time>
      </trkpt>
      <trkpt lat="62.636013042294" lon="17.979493844562">
        <ele>105.4</ele>
        <time>2017-12-17T12:54:03Z</time>
      </trkpt>
      <trkpt lat="62.63601253938" lon="17.979562827599">
        <ele>105.4</ele>
        <time>2017-12-17T12:54:04Z</time>
      </trkpt>
      <trkpt lat="62.636007929335" lon="17.979641114545">
        <ele>105.4</ele>
        <time>2017-12-17T12:54:05Z</time>
      </trkpt>
      <trkpt lat="62.636002732557" lon="17.979774470574">
        <ele>105.2</ele>
        <time>2017-12-17T12:54:06Z</time>
      </trkpt>
      <trkpt lat="62.635998038693" lon="17.979911095544">
        <ele>104.6</ele>
        <time>2017-12-17T12:54:07Z</time>
      </trkpt>
      <trkpt lat="62.636000301806" lon="17.980063562305">
        <ele>103.8</ele>
        <time>2017-12-17T12:54:08Z</time>
      </trkpt>
      <trkpt lat="62.636014299579" lon="17.980212173392">
        <ele>102.8</ele>
        <time>2017-12-17T12:54:09Z</time>
      </trkpt>
      <trkpt lat="62.636032320664" lon="17.980361874126">
        <ele>102</ele>
        <time>2017-12-17T12:54:10Z</time>
      </trkpt>
      <trkpt lat="62.636048413912" lon="17.980499169648">
        <ele>101.2</ele>
        <time>2017-12-17T12:54:11Z</time>
      </trkpt>
      <trkpt lat="62.636071380318" lon="17.980644679432">
        <ele>100.8</ele>
        <time>2017-12-17T12:54:12Z</time>
      </trkpt>
      <trkpt lat="62.636097280389" lon="17.980787423189">
        <ele>100.4</ele>
        <time>2017-12-17T12:54:13Z</time>
      </trkpt>
      <trkpt lat="62.636121084985" lon="17.980913151689">
        <ele>100.2</ele>
        <time>2017-12-17T12:54:14Z</time>
      </trkpt>
      <trkpt lat="62.636144721943" lon="17.981049357564">
        <ele>99.8</ele>
        <time>2017-12-17T12:54:15Z</time>
      </trkpt>
      <trkpt lat="62.636162743028" lon="17.981180282842">
        <ele>99.2</ele>
        <time>2017-12-17T12:54:16Z</time>
      </trkpt>
      <trkpt lat="62.636172466032" lon="17.981294109044">
        <ele>99.2</ele>
        <time>2017-12-17T12:54:17Z</time>
      </trkpt>
      <trkpt lat="62.636183697778" lon="17.98143777481">
        <ele>98.8</ele>
        <time>2017-12-17T12:54:18Z</time>
      </trkpt>
      <trkpt lat="62.636193756058" lon="17.981566939889">
        <ele>98.8</ele>
        <time>2017-12-17T12:54:19Z</time>
      </trkpt>
      <trkpt lat="62.636202221777" lon="17.9816733062">
        <ele>98.8</ele>
        <time>2017-12-17T12:54:20Z</time>
      </trkpt>
      <trkpt lat="62.63621035222" lon="17.981785791298">
        <ele>99</ele>
        <time>2017-12-17T12:54:21Z</time>
      </trkpt>
      <trkpt lat="62.636219404672" lon="17.981891989971">
        <ele>98.8</ele>
        <time>2017-12-17T12:54:22Z</time>
      </trkpt>
      <trkpt lat="62.636226696925" lon="17.98200187668">
        <ele>99</ele>
        <time>2017-12-17T12:54:23Z</time>
      </trkpt>
      <trkpt lat="62.636240359422" lon="17.98211419414">
        <ele>98.6</ele>
        <time>2017-12-17T12:54:24Z</time>
      </trkpt>
      <trkpt lat="62.636249411874" lon="17.982214274026">
        <ele>98.4</ele>
        <time>2017-12-17T12:54:25Z</time>
      </trkpt>
      <trkpt lat="62.636255195385" lon="17.982309073315">
        <ele>98.4</ele>
        <time>2017-12-17T12:54:26Z</time>
      </trkpt>
      <trkpt lat="62.636266427131" lon="17.982388114632">
        <ele>98.6</ele>
        <time>2017-12-17T12:54:27Z</time>
      </trkpt>
      <trkpt lat="62.63627321647" lon="17.98247126308">
        <ele>98.4</ele>
        <time>2017-12-17T12:54:28Z</time>
      </trkpt>
      <trkpt lat="62.636280592542" lon="17.982553238062">
        <ele>98.6</ele>
        <time>2017-12-17T12:54:29Z</time>
      </trkpt>
      <trkpt lat="62.636283023293" lon="17.982643008211">
        <ele>98.8</ele>
        <time>2017-12-17T12:54:30Z</time>
      </trkpt>
      <trkpt lat="62.636287717157" lon="17.98272523465">
        <ele>98.8</ele>
        <time>2017-12-17T12:54:31Z</time>
      </trkpt>
      <trkpt lat="62.636294841772" lon="17.982803605415">
        <ele>98.8</ele>
        <time>2017-12-17T12:54:32Z</time>
      </trkpt>
      <trkpt lat="62.636294841772" lon="17.982897985609">
        <ele>98.8</ele>
        <time>2017-12-17T12:54:33Z</time>
      </trkpt>
      <trkpt lat="62.636296769609" lon="17.982969483216">
        <ele>98.8</ele>
        <time>2017-12-17T12:54:34Z</time>
      </trkpt>
      <trkpt lat="62.63629920036" lon="17.983029581439">
        <ele>98.8</ele>
        <time>2017-12-17T12:54:35Z</time>
      </trkpt>
      <trkpt lat="62.636299116541" lon="17.983100576132">
        <ele>98.8</ele>
        <time>2017-12-17T12:54:36Z</time>
      </trkpt>
      <trkpt lat="62.636297859256" lon="17.983164027115">
        <ele>98.8</ele>
        <time>2017-12-17T12:54:37Z</time>
      </trkpt>
      <trkpt lat="62.636299954731" lon="17.983245666821">
        <ele>99</ele>
        <time>2017-12-17T12:54:38Z</time>
      </trkpt>
      <trkpt lat="62.636302134025" lon="17.983318924627">
        <ele>99</ele>
        <time>2017-12-17T12:54:39Z</time>
      </trkpt>
      <trkpt lat="62.636300457645" lon="17.983381118325">
        <ele>99</ele>
        <time>2017-12-17T12:54:40Z</time>
      </trkpt>
      <trkpt lat="62.636295931419" lon="17.983439875444">
        <ele>99.2</ele>
        <time>2017-12-17T12:54:41Z</time>
      </trkpt>
      <trkpt lat="62.636288974442" lon="17.983499386934">
        <ele>99.2</ele>
        <time>2017-12-17T12:54:42Z</time>
      </trkpt>
      <trkpt lat="62.63628495113" lon="17.98355168999">
        <ele>99.2</ele>
        <time>2017-12-17T12:54:43Z</time>
      </trkpt>
      <trkpt lat="62.636277323601" lon="17.983604412141">
        <ele>99.2</ele>
        <time>2017-12-17T12:54:44Z</time>
      </trkpt>
      <trkpt lat="62.636274725212" lon="17.983650428772">
        <ele>99.2</ele>
        <time>2017-12-17T12:54:45Z</time>
      </trkpt>
      <trkpt lat="62.636266930045" lon="17.983704994941">
        <ele>99.2</ele>
        <time>2017-12-17T12:54:46Z</time>
      </trkpt>
      <trkpt lat="62.636257123222" lon="17.983760818395">
        <ele>99.4</ele>
        <time>2017-12-17T12:54:47Z</time>
      </trkpt>
      <trkpt lat="62.636254273376" lon="17.983812786175">
        <ele>99.4</ele>
        <time>2017-12-17T12:54:48Z</time>
      </trkpt>
      <trkpt lat="62.63624723258" lon="17.983871962389">
        <ele>99.6</ele>
        <time>2017-12-17T12:54:49Z</time>
      </trkpt>
      <trkpt lat="62.63623885068" lon="17.983919320124">
        <ele>99.8</ele>
        <time>2017-12-17T12:54:50Z</time>
      </trkpt>
      <trkpt lat="62.636229882047" lon="17.983981094727">
        <ele>99.8</ele>
        <time>2017-12-17T12:54:51Z</time>
      </trkpt>
      <trkpt lat="62.636223092708" lon="17.984025015883">
        <ele>99.8</ele>
        <time>2017-12-17T12:54:52Z</time>
      </trkpt>
      <trkpt lat="62.636212531514" lon="17.984085281744">
        <ele>100</ele>
        <time>2017-12-17T12:54:53Z</time>
      </trkpt>
      <trkpt lat="62.636207418555" lon="17.984134483497">
        <ele>100</ele>
        <time>2017-12-17T12:54:54Z</time>
      </trkpt>
      <trkpt lat="62.636199036655" lon="17.984198437394">
        <ele>100</ele>
        <time>2017-12-17T12:54:55Z</time>
      </trkpt>
      <trkpt lat="62.636193253144" lon="17.984253925572">
        <ele>100.2</ele>
        <time>2017-12-17T12:54:56Z</time>
      </trkpt>
      <trkpt lat="62.636187050538" lon="17.984310168121">
        <ele>100.2</ele>
        <time>2017-12-17T12:54:57Z</time>
      </trkpt>
      <trkpt lat="62.636183446321" lon="17.984358783141">
        <ele>100.4</ele>
        <time>2017-12-17T12:54:58Z</time>
      </trkpt>
      <trkpt lat="62.636182524312" lon="17.984412343482">
        <ele>100.2</ele>
        <time>2017-12-17T12:54:59Z</time>
      </trkpt>
      <trkpt lat="62.636178584819" lon="17.984469759497">
        <ele>100.4</ele>
        <time>2017-12-17T12:55:00Z</time>
      </trkpt>
      <trkpt lat="62.63617933919" lon="17.984531953195">
        <ele>100.4</ele>
        <time>2017-12-17T12:55:01Z</time>
      </trkpt>
      <trkpt lat="62.636175315878" lon="17.984577131636">
        <ele>100.6</ele>
        <time>2017-12-17T12:55:02Z</time>
      </trkpt>
      <trkpt lat="62.636171208747" lon="17.984633290366">
        <ele>100.6</ele>
        <time>2017-12-17T12:55:03Z</time>
      </trkpt>
      <trkpt lat="62.636164922322" lon="17.984679726092">
        <ele>100.8</ele>
        <time>2017-12-17T12:55:04Z</time>
      </trkpt>
      <trkpt lat="62.636168191263" lon="17.984730939501">
        <ele>100.8</ele>
        <time>2017-12-17T12:55:05Z</time>
      </trkpt>
      <trkpt lat="62.636163832675" lon="17.984782655824">
        <ele>101</ele>
        <time>2017-12-17T12:55:06Z</time>
      </trkpt>
      <trkpt lat="62.636162240114" lon="17.984831019387">
        <ele>101</ele>
        <time>2017-12-17T12:55:07Z</time>
      </trkpt>
      <trkpt lat="62.63615922263" lon="17.984878460941">
        <ele>101.2</ele>
        <time>2017-12-17T12:55:08Z</time>
      </trkpt>
      <trkpt lat="62.636158216802" lon="17.984932524196">
        <ele>101.2</ele>
        <time>2017-12-17T12:55:09Z</time>
      </trkpt>
      <trkpt lat="62.636151008368" lon="17.984978205551">
        <ele>101.4</ele>
        <time>2017-12-17T12:55:10Z</time>
      </trkpt>
      <trkpt lat="62.636152433291" lon="17.985024892734">
        <ele>101.4</ele>
        <time>2017-12-17T12:55:11Z</time>
      </trkpt>
      <trkpt lat="62.636145476314" lon="17.985074765039">
        <ele>101.6</ele>
        <time>2017-12-17T12:55:12Z</time>
      </trkpt>
      <trkpt lat="62.636148829074" lon="17.985115584892">
        <ele>101.6</ele>
        <time>2017-12-17T12:55:13Z</time>
      </trkpt>
      <trkpt lat="62.636143967572" lon="17.985167217396">
        <ele>101.8</ele>
        <time>2017-12-17T12:55:14Z</time>
      </trkpt>
      <trkpt lat="62.63614329702" lon="17.985218514624">
        <ele>101.8</ele>
        <time>2017-12-17T12:55:15Z</time>
      </trkpt>
      <trkpt lat="62.636137932604" lon="17.985275679182">
        <ele>102</ele>
        <time>2017-12-17T12:55:16Z</time>
      </trkpt>
      <trkpt lat="62.636140866269" lon="17.985319181243">
        <ele>102</ele>
        <time>2017-12-17T12:55:17Z</time>
      </trkpt>
      <trkpt lat="62.636133741654" lon="17.985378441276">
        <ele>102.2</ele>
        <time>2017-12-17T12:55:18Z</time>
      </trkpt>
      <trkpt lat="62.636132652007" lon="17.985430660513">
        <ele>102.2</ele>
        <time>2017-12-17T12:55:19Z</time>
      </trkpt>
      <trkpt lat="62.636124605383" lon="17.985485561958">
        <ele>102.2</ele>
        <time>2017-12-17T12:55:20Z</time>
      </trkpt>
      <trkpt lat="62.6361198277" lon="17.985535853358">
        <ele>102.2</ele>
        <time>2017-12-17T12:55:21Z</time>
      </trkpt>
      <trkpt lat="62.63611060761" lon="17.985583797826">
        <ele>102.2</ele>
        <time>2017-12-17T12:55:22Z</time>
      </trkpt>
      <trkpt lat="62.63609635838" lon="17.985626377878">
        <ele>102.2</ele>
        <time>2017-12-17T12:55:23Z</time>
      </trkpt>
      <trkpt lat="62.636081690055" lon="17.985690918508">
        <ele>102.2</ele>
        <time>2017-12-17T12:55:24Z</time>
      </trkpt>
      <trkpt lat="62.636065093893" lon="17.985735845492">
        <ele>102.2</ele>
        <time>2017-12-17T12:55:25Z</time>
      </trkpt>
      <trkpt lat="62.636043384772" lon="17.985769624549">
        <ele>102.2</ele>
        <time>2017-12-17T12:55:26Z</time>
      </trkpt>
      <trkpt lat="62.636029722275" lon="17.985801978683">
        <ele>102.4</ele>
        <time>2017-12-17T12:55:27Z</time>
      </trkpt>
      <trkpt lat="62.636009605715" lon="17.985841289794">
        <ele>102.4</ele>
        <time>2017-12-17T12:55:28Z</time>
      </trkpt>
      <trkpt lat="62.635995356485" lon="17.985871296996">
        <ele>102.8</ele>
        <time>2017-12-17T12:55:29Z</time>
      </trkpt>
      <trkpt lat="62.635974988468" lon="17.985897113248">
        <ele>102.8</ele>
        <time>2017-12-17T12:55:30Z</time>
      </trkpt>
      <trkpt lat="62.635957302659" lon="17.985929970296">
        <ele>103.2</ele>
        <time>2017-12-17T12:55:31Z</time>
      </trkpt>
      <trkpt lat="62.635932995149" lon="17.985945309173">
        <ele>103.2</ele>
        <time>2017-12-17T12:55:32Z</time>
      </trkpt>
      <trkpt lat="62.635912040399" lon="17.98596902995">
        <ele>103.4</ele>
        <time>2017-12-17T12:55:33Z</time>
      </trkpt>
      <trkpt lat="62.635894103133" lon="17.985978082402">
        <ele>103.4</ele>
        <time>2017-12-17T12:55:34Z</time>
      </trkpt>
      <trkpt lat="62.63587842898" lon="17.98600507212">
        <ele>103.6</ele>
        <time>2017-12-17T12:55:35Z</time>
      </trkpt>
      <trkpt lat="62.635851690719" lon="17.986024434309">
        <ele>103.6</ele>
        <time>2017-12-17T12:55:36Z</time>
      </trkpt>
      <trkpt lat="62.635833418177" lon="17.98604446705">
        <ele>103.6</ele>
        <time>2017-12-17T12:55:37Z</time>
      </trkpt>
      <trkpt lat="62.63581137378" lon="17.986067601094">
        <ele>103.8</ele>
        <time>2017-12-17T12:55:38Z</time>
      </trkpt>
      <trkpt lat="62.635785306071" lon="17.98610816949">
        <ele>103.8</ele>
        <time>2017-12-17T12:55:39Z</time>
      </trkpt>
      <trkpt lat="62.635762926398" lon="17.986134572475">
        <ele>103.8</ele>
        <time>2017-12-17T12:55:40Z</time>
      </trkpt>
      <trkpt lat="62.635748760987" lon="17.986167345704">
        <ele>104</ele>
        <time>2017-12-17T12:55:41Z</time>
      </trkpt>
      <trkpt lat="62.63573509849" lon="17.986201124761">
        <ele>104</ele>
        <time>2017-12-17T12:55:42Z</time>
      </trkpt>
      <trkpt lat="62.635712886455" lon="17.986240184415">
        <ele>104.2</ele>
        <time>2017-12-17T12:55:43Z</time>
      </trkpt>
      <trkpt lat="62.635699391596" lon="17.986282261553">
        <ele>104.4</ele>
        <time>2017-12-17T12:55:44Z</time>
      </trkpt>
      <trkpt lat="62.635676928104" lon="17.986315118601">
        <ele>104.6</ele>
        <time>2017-12-17T12:55:45Z</time>
      </trkpt>
      <trkpt lat="62.63565966139" lon="17.98636381744">
        <ele>104.6</ele>
        <time>2017-12-17T12:55:46Z</time>
      </trkpt>
      <trkpt lat="62.63564122121" lon="17.986401033076">
        <ele>104.8</ele>
        <time>2017-12-17T12:55:47Z</time>
      </trkpt>
      <trkpt lat="62.635630240921" lon="17.986448055535">
        <ele>105</ele>
        <time>2017-12-17T12:55:48Z</time>
      </trkpt>
      <trkpt lat="62.63561020818" lon="17.986492395786">
        <ele>105.2</ele>
        <time>2017-12-17T12:55:49Z</time>
      </trkpt>
      <trkpt lat="62.635596545683" lon="17.986525085196">
        <ele>105.2</ele>
        <time>2017-12-17T12:55:50Z</time>
      </trkpt>
      <trkpt lat="62.635578608417" lon="17.98658426141">
        <ele>105.2</ele>
        <time>2017-12-17T12:55:51Z</time>
      </trkpt>
      <trkpt lat="62.635562682807" lon="17.986623823978">
        <ele>105.2</ele>
        <time>2017-12-17T12:55:52Z</time>
      </trkpt>
      <trkpt lat="62.63554818212" lon="17.986655842836">
        <ele>105.2</ele>
        <time>2017-12-17T12:55:53Z</time>
      </trkpt>
      <trkpt lat="62.635538375297" lon="17.986696075956">
        <ele>105.2</ele>
        <time>2017-12-17T12:55:54Z</time>
      </trkpt>
      <trkpt lat="62.635521946773" lon="17.986744774795">
        <ele>105.4</ele>
        <time>2017-12-17T12:55:55Z</time>
      </trkpt>
      <trkpt lat="62.635504177145" lon="17.986791210521">
        <ele>105.4</ele>
        <time>2017-12-17T12:55:56Z</time>
      </trkpt>
      <trkpt lat="62.635489592639" lon="17.986831276003">
        <ele>105.6</ele>
        <time>2017-12-17T12:55:57Z</time>
      </trkpt>
      <trkpt lat="62.635472074468" lon="17.986889194932">
        <ele>105.8</ele>
        <time>2017-12-17T12:55:58Z</time>
      </trkpt>
      <trkpt lat="62.635451454994" lon="17.986931020613">
        <ele>105.8</ele>
        <time>2017-12-17T12:55:59Z</time>
      </trkpt>
      <trkpt lat="62.635434523556" lon="17.98699162175">
        <ele>105.8</ele>
        <time>2017-12-17T12:56:00Z</time>
      </trkpt>
      <trkpt lat="62.635417843575" lon="17.987029005024">
        <ele>106</ele>
        <time>2017-12-17T12:56:01Z</time>
      </trkpt>
      <trkpt lat="62.635397727015" lon="17.987066053022">
        <ele>106</ele>
        <time>2017-12-17T12:56:02Z</time>
      </trkpt>
      <trkpt lat="62.635382891052" lon="17.987107124332">
        <ele>106.2</ele>
        <time>2017-12-17T12:56:03Z</time>
      </trkpt>
      <trkpt lat="62.635363864139" lon="17.987148195642">
        <ele>106.2</ele>
        <time>2017-12-17T12:56:04Z</time>
      </trkpt>
      <trkpt lat="62.635351626565" lon="17.987181136509">
        <ele>106.4</ele>
        <time>2017-12-17T12:56:05Z</time>
      </trkpt>
      <trkpt lat="62.635331342367" lon="17.987231847004">
        <ele>106.6</ele>
        <time>2017-12-17T12:56:06Z</time>
      </trkpt>
      <trkpt lat="62.635315668214" lon="17.987261267473">
        <ele>106.8</ele>
        <time>2017-12-17T12:56:07Z</time>
      </trkpt>
      <trkpt lat="62.635302089536" lon="17.987309044303">
        <ele>106.8</ele>
        <time>2017-12-17T12:56:08Z</time>
      </trkpt>
      <trkpt lat="62.63528415227" lon="17.987342907179">
        <ele>107</ele>
        <time>2017-12-17T12:56:09Z</time>
      </trkpt>
      <trkpt lat="62.635267556108" lon="17.987383643213">
        <ele>107</ele>
        <time>2017-12-17T12:56:10Z</time>
      </trkpt>
      <trkpt lat="62.635241823675" lon="17.987425887989">
        <ele>107</ele>
        <time>2017-12-17T12:56:11Z</time>
      </trkpt>
      <trkpt lat="62.635229250825" lon="17.987459415589">
        <ele>107</ele>
        <time>2017-12-17T12:56:12Z</time>
      </trkpt>
      <trkpt lat="62.635210559188" lon="17.987501408908">
        <ele>107.2</ele>
        <time>2017-12-17T12:56:13Z</time>
      </trkpt>
      <trkpt lat="62.635192873379" lon="17.987530410282">
        <ele>107.2</ele>
        <time>2017-12-17T12:56:14Z</time>
      </trkpt>
      <trkpt lat="62.635171248077" lon="17.987562764416">
        <ele>107.2</ele>
        <time>2017-12-17T12:56:15Z</time>
      </trkpt>
      <trkpt lat="62.635157837037" lon="17.987595872921">
        <ele>107.2</ele>
        <time>2017-12-17T12:56:16Z</time>
      </trkpt>
      <trkpt lat="62.635139061581" lon="17.987628813788">
        <ele>107.4</ele>
        <time>2017-12-17T12:56:17Z</time>
      </trkpt>
      <trkpt lat="62.635124812351" lon="17.987672315849">
        <ele>107.6</ele>
        <time>2017-12-17T12:56:18Z</time>
      </trkpt>
      <trkpt lat="62.635107126542" lon="17.987702993603">
        <ele>107.8</ele>
        <time>2017-12-17T12:56:19Z</time>
      </trkpt>
      <trkpt lat="62.635091284751" lon="17.987738868135">
        <ele>108.2</ele>
        <time>2017-12-17T12:56:20Z</time>
      </trkpt>
      <trkpt lat="62.635071335829" lon="17.987771725183">
        <ele>108.2</ele>
        <time>2017-12-17T12:56:21Z</time>
      </trkpt>
      <trkpt lat="62.635060690816" lon="17.987805085145">
        <ele>108.4</ele>
        <time>2017-12-17T12:56:22Z</time>
      </trkpt>
      <trkpt lat="62.635040155161" lon="17.987835846718">
        <ele>108.4</ele>
        <time>2017-12-17T12:56:23Z</time>
      </trkpt>
      <trkpt lat="62.635023139904" lon="17.987874822553">
        <ele>108.6</ele>
        <time>2017-12-17T12:56:24Z</time>
      </trkpt>
      <trkpt lat="62.635001179326" lon="17.987907344325">
        <ele>108.6</ele>
        <time>2017-12-17T12:56:25Z</time>
      </trkpt>
      <trkpt lat="62.634978296739" lon="17.987940536649">
        <ele>108.8</ele>
        <time>2017-12-17T12:56:26Z</time>
      </trkpt>
      <trkpt lat="62.634963293138" lon="17.987970292394">
        <ele>108.8</ele>
        <time>2017-12-17T12:56:27Z</time>
      </trkpt>
      <trkpt lat="62.634937560705" lon="17.987987140013">
        <ele>109</ele>
        <time>2017-12-17T12:56:28Z</time>
      </trkpt>
      <trkpt lat="62.634919204344" lon="17.988014800283">
        <ele>109.2</ele>
        <time>2017-12-17T12:56:29Z</time>
      </trkpt>
      <trkpt lat="62.634894980653" lon="17.988043466381">
        <ele>109.4</ele>
        <time>2017-12-17T12:56:30Z</time>
      </trkpt>
      <trkpt lat="62.634871678971" lon="17.988069366452">
        <ele>109.6</ele>
        <time>2017-12-17T12:56:31Z</time>
      </trkpt>
      <trkpt lat="62.634851813868" lon="17.988086130252">
        <ele>109.8</ele>
        <time>2017-12-17T12:56:32Z</time>
      </trkpt>
      <trkpt lat="62.634824572693" lon="17.988100379482">
        <ele>109.8</ele>
        <time>2017-12-17T12:56:33Z</time>
      </trkpt>
      <trkpt lat="62.634804372314" lon="17.988112700875">
        <ele>110</ele>
        <time>2017-12-17T12:56:34Z</time>
      </trkpt>
      <trkpt lat="62.634778975157" lon="17.988121669508">
        <ele>110</ele>
        <time>2017-12-17T12:56:35Z</time>
      </trkpt>
      <trkpt lat="62.634753829457" lon="17.988130805779">
        <ele>110.2</ele>
        <time>2017-12-17T12:56:36Z</time>
      </trkpt>
      <trkpt lat="62.634728935214" lon="17.988136421652">
        <ele>110.2</ele>
        <time>2017-12-17T12:56:37Z</time>
      </trkpt>
      <trkpt lat="62.634706723179" lon="17.988151509072">
        <ele>110.4</ele>
        <time>2017-12-17T12:56:38Z</time>
      </trkpt>
      <trkpt lat="62.634675793968" lon="17.988149748873">
        <ele>110.4</ele>
        <time>2017-12-17T12:56:39Z</time>
      </trkpt>
      <trkpt lat="62.634652743743" lon="17.98816257318">
        <ele>110.4</ele>
        <time>2017-12-17T12:56:40Z</time>
      </trkpt>
      <trkpt lat="62.634631286079" lon="17.988157711678">
        <ele>110.4</ele>
        <time>2017-12-17T12:56:41Z</time>
      </trkpt>
      <trkpt lat="62.634607397664" lon="17.988167434682">
        <ele>110.6</ele>
        <time>2017-12-17T12:56:42Z</time>
      </trkpt>
      <trkpt lat="62.634582084326" lon="17.988166093578">
        <ele>110.6</ele>
        <time>2017-12-17T12:56:43Z</time>
      </trkpt>
      <trkpt lat="62.634561464852" lon="17.988180761903">
        <ele>110.6</ele>
        <time>2017-12-17T12:56:44Z</time>
      </trkpt>
      <trkpt lat="62.634538330808" lon="17.988183276473">
        <ele>110.6</ele>
        <time>2017-12-17T12:56:45Z</time>
      </trkpt>
      <trkpt lat="62.63451637023" lon="17.988190568726">
        <ele>110.8</ele>
        <time>2017-12-17T12:56:46Z</time>
      </trkpt>
      <trkpt lat="62.634494074376" lon="17.988190987821">
        <ele>110.8</ele>
        <time>2017-12-17T12:56:47Z</time>
      </trkpt>
      <trkpt lat="62.634471527065" lon="17.988189646717">
        <ele>111</ele>
        <time>2017-12-17T12:56:48Z</time>
      </trkpt>
      <trkpt lat="62.634439759664" lon="17.988199118264">
        <ele>111</ele>
        <time>2017-12-17T12:56:49Z</time>
      </trkpt>
      <trkpt lat="62.634413775774" lon="17.9882028063">
        <ele>111.2</ele>
        <time>2017-12-17T12:56:50Z</time>
      </trkpt>
      <trkpt lat="62.63439231811" lon="17.988210182372">
        <ele>111.2</ele>
        <time>2017-12-17T12:56:51Z</time>
      </trkpt>
      <trkpt lat="62.634367507686" lon="17.988206661974">
        <ele>111.2</ele>
        <time>2017-12-17T12:56:52Z</time>
      </trkpt>
      <trkpt lat="62.634343283995" lon="17.988212445485">
        <ele>111.4</ele>
        <time>2017-12-17T12:56:53Z</time>
      </trkpt>
      <trkpt lat="62.634314617897" lon="17.988206410517">
        <ele>111.6</ele>
        <time>2017-12-17T12:56:54Z</time>
      </trkpt>
      <trkpt lat="62.634284275419" lon="17.98821705553">
        <ele>111.6</ele>
        <time>2017-12-17T12:56:55Z</time>
      </trkpt>
      <trkpt lat="62.634259129719" lon="17.988201381377">
        <ele>111.8</ele>
        <time>2017-12-17T12:56:56Z</time>
      </trkpt>
      <trkpt lat="62.634231217992" lon="17.988208338354">
        <ele>111.8</ele>
        <time>2017-12-17T12:56:57Z</time>
      </trkpt>
      <trkpt lat="62.634205904654" lon="17.988191323097">
        <ele>111.8</ele>
        <time>2017-12-17T12:56:58Z</time>
      </trkpt>
      <trkpt lat="62.634179753126" lon="17.988188305613">
        <ele>111.8</ele>
        <time>2017-12-17T12:56:59Z</time>
      </trkpt>
      <trkpt lat="62.634147315173" lon="17.988170033071">
        <ele>111.8</ele>
        <time>2017-12-17T12:57:00Z</time>
      </trkpt>
      <trkpt lat="62.634123426758" lon="17.988164501017">
        <ele>111.8</ele>
        <time>2017-12-17T12:57:01Z</time>
      </trkpt>
      <trkpt lat="62.634096269402" lon="17.988142875715">
        <ele>111.8</ele>
        <time>2017-12-17T12:57:02Z</time>
      </trkpt>
      <trkpt lat="62.634061987431" lon="17.98813826567">
        <ele>111.8</ele>
        <time>2017-12-17T12:57:03Z</time>
      </trkpt>
      <trkpt lat="62.634035919722" lon="17.988120412223">
        <ele>111.8</ele>
        <time>2017-12-17T12:57:04Z</time>
      </trkpt>
      <trkpt lat="62.634006918348" lon="17.988115969816">
        <ele>111.8</ele>
        <time>2017-12-17T12:57:05Z</time>
      </trkpt>
      <trkpt lat="62.633976659689" lon="17.988112700875">
        <ele>112</ele>
        <time>2017-12-17T12:57:06Z</time>
      </trkpt>
      <trkpt lat="62.633949418514" lon="17.988088225727">
        <ele>112</ele>
        <time>2017-12-17T12:57:07Z</time>
      </trkpt>
      <trkpt lat="62.633918489303" lon="17.988081352569">
        <ele>112.2</ele>
        <time>2017-12-17T12:57:08Z</time>
      </trkpt>
      <trkpt lat="62.633894936164" lon="17.988057883249">
        <ele>112.2</ele>
        <time>2017-12-17T12:57:09Z</time>
      </trkpt>
      <trkpt lat="62.633873059405" lon="17.988032402273">
        <ele>112.2</ele>
        <time>2017-12-17T12:57:10Z</time>
      </trkpt>
      <trkpt lat="62.633856966157" lon="17.988015470835">
        <ele>112.4</ele>
        <time>2017-12-17T12:57:11Z</time>
      </trkpt>
      <trkpt lat="62.633831736638" lon="17.987984625443">
        <ele>112.4</ele>
        <time>2017-12-17T12:57:12Z</time>
      </trkpt>
      <trkpt lat="62.63380726149" lon="17.987968783652">
        <ele>112.6</ele>
        <time>2017-12-17T12:57:13Z</time>
      </trkpt>
      <trkpt lat="62.633782702523" lon="17.98793961464">
        <ele>112.8</ele>
        <time>2017-12-17T12:57:14Z</time>
      </trkpt>
      <trkpt lat="62.633762250687" lon="17.987923186116">
        <ele>112.8</ele>
        <time>2017-12-17T12:57:15Z</time>
      </trkpt>
      <trkpt lat="62.633734422779" lon="17.987889993792">
        <ele>112.8</ele>
        <time>2017-12-17T12:57:16Z</time>
      </trkpt>
      <trkpt lat="62.633713970943" lon="17.987871637431">
        <ele>113</ele>
        <time>2017-12-17T12:57:17Z</time>
      </trkpt>
      <trkpt lat="62.633690250166" lon="17.987843558066">
        <ele>112.8</ele>
        <time>2017-12-17T12:57:18Z</time>
      </trkpt>
      <trkpt lat="62.633671809986" lon="17.987832158682">
        <ele>113</ele>
        <time>2017-12-17T12:57:19Z</time>
      </trkpt>
      <trkpt lat="62.633653956539" lon="17.987810281923">
        <ele>113</ele>
        <time>2017-12-17T12:57:20Z</time>
      </trkpt>
      <trkpt lat="62.633633923798" lon="17.98778287311">
        <ele>113.2</ele>
        <time>2017-12-17T12:57:21Z</time>
      </trkpt>
      <trkpt lat="62.633610119202" lon="17.987777089599">
        <ele>113.4</ele>
        <time>2017-12-17T12:57:22Z</time>
      </trkpt>
      <trkpt lat="62.633588074805" lon="17.987759822885">
        <ele>113.6</ele>
        <time>2017-12-17T12:57:23Z</time>
      </trkpt>
      <trkpt lat="62.633564270209" lon="17.987734006633">
        <ele>113.8</ele>
        <time>2017-12-17T12:57:24Z</time>
      </trkpt>
      <trkpt lat="62.633545913848" lon="17.987716404643">
        <ele>114</ele>
        <time>2017-12-17T12:57:25Z</time>
      </trkpt>
      <trkpt lat="62.633528730953" lon="17.987683799052">
        <ele>114.2</ele>
        <time>2017-12-17T12:57:26Z</time>
      </trkpt>
      <trkpt lat="62.633509955497" lon="17.987664269225">
        <ele>114.4</ele>
        <time>2017-12-17T12:57:27Z</time>
      </trkpt>
      <trkpt lat="62.633485899444" lon="17.987624119924">
        <ele>114.4</ele>
        <time>2017-12-17T12:57:28Z</time>
      </trkpt>
      <trkpt lat="62.63346444178" lon="17.987590592324">
        <ele>114.6</ele>
        <time>2017-12-17T12:57:29Z</time>
      </trkpt>
      <trkpt lat="62.63344516341" lon="17.987564440796">
        <ele>114.6</ele>
        <time>2017-12-17T12:57:30Z</time>
      </trkpt>
      <trkpt lat="62.633425633583" lon="17.987531583748">
        <ele>114.6</ele>
        <time>2017-12-17T12:57:31Z</time>
      </trkpt>
      <trkpt lat="62.633411971086" lon="17.987491015352">
        <ele>114.8</ele>
        <time>2017-12-17T12:57:32Z</time>
      </trkpt>
      <trkpt lat="62.633398140951" lon="17.987452039517">
        <ele>114.8</ele>
        <time>2017-12-17T12:57:33Z</time>
      </trkpt>
      <trkpt lat="62.633381209513" lon="17.987398060081">
        <ele>115</ele>
        <time>2017-12-17T12:57:34Z</time>
      </trkpt>
      <trkpt lat="62.633367463197" lon="17.987359251884">
        <ele>115.4</ele>
        <time>2017-12-17T12:57:35Z</time>
      </trkpt>
      <trkpt lat="62.633343658601" lon="17.987288257191">
        <ele>115.6</ele>
        <time>2017-12-17T12:57:36Z</time>
      </trkpt>
      <trkpt lat="62.633323961136" lon="17.987241318551">
        <ele>115.8</ele>
        <time>2017-12-17T12:57:37Z</time>
      </trkpt>
      <trkpt lat="62.633298144884" lon="17.987143837054">
        <ele>115.8</ele>
        <time>2017-12-17T12:57:38Z</time>
      </trkpt>
      <trkpt lat="62.633269646424" lon="17.987036297277">
        <ele>115.4</ele>
        <time>2017-12-17T12:57:39Z</time>
      </trkpt>
      <trkpt lat="62.633246093285" lon="17.98692121379">
        <ele>114.6</ele>
        <time>2017-12-17T12:57:40Z</time>
      </trkpt>
      <trkpt lat="62.633230000037" lon="17.986812416728">
        <ele>113.8</ele>
        <time>2017-12-17T12:57:41Z</time>
      </trkpt>
      <trkpt lat="62.633220109395" lon="17.986692639377">
        <ele>113</ele>
        <time>2017-12-17T12:57:42Z</time>
      </trkpt>
      <trkpt lat="62.633211056943" lon="17.986573532578">
        <ele>112.4</ele>
        <time>2017-12-17T12:57:43Z</time>
      </trkpt>
      <trkpt lat="62.633204686699" lon="17.986465992801">
        <ele>112</ele>
        <time>2017-12-17T12:57:44Z</time>
      </trkpt>
      <trkpt lat="62.633199406102" lon="17.986352418056">
        <ele>112</ele>
        <time>2017-12-17T12:57:45Z</time>
      </trkpt>
      <trkpt lat="62.633196556256" lon="17.986233981809">
        <ele>112</ele>
        <time>2017-12-17T12:57:46Z</time>
      </trkpt>
      <trkpt lat="62.633193622591" lon="17.986119987969">
        <ele>112</ele>
        <time>2017-12-17T12:57:47Z</time>
      </trkpt>
      <trkpt lat="62.633192700582" lon="17.985979507325">
        <ele>111.8</ele>
        <time>2017-12-17T12:57:48Z</time>
      </trkpt>
      <trkpt lat="62.633193287315" lon="17.985856963947">
        <ele>111.6</ele>
        <time>2017-12-17T12:57:49Z</time>
      </trkpt>
      <trkpt lat="62.633194712238" lon="17.98574439503">
        <ele>111.2</ele>
        <time>2017-12-17T12:57:50Z</time>
      </trkpt>
      <trkpt lat="62.633194879876" lon="17.985610955182">
        <ele>111</ele>
        <time>2017-12-17T12:57:51Z</time>
      </trkpt>
      <trkpt lat="62.633195718066" lon="17.985505846156">
        <ele>110.6</ele>
        <time>2017-12-17T12:57:52Z</time>
      </trkpt>
      <trkpt lat="62.633196053342" lon="17.985402329691">
        <ele>110.4</ele>
        <time>2017-12-17T12:57:53Z</time>
      </trkpt>
      <trkpt lat="62.633200998663" lon="17.985270482404">
        <ele>110.2</ele>
        <time>2017-12-17T12:57:54Z</time>
      </trkpt>
      <trkpt lat="62.633219438843" lon="17.985111393942">
        <ele>110.4</ele>
        <time>2017-12-17T12:57:55Z</time>
      </trkpt>
      <trkpt lat="62.633241734697" lon="17.984965632701">
        <ele>109.8</ele>
        <time>2017-12-17T12:57:56Z</time>
      </trkpt>
      <trkpt lat="62.633268472958" lon="17.984824397686">
        <ele>109.4</ele>
        <time>2017-12-17T12:57:57Z</time>
      </trkpt>
      <trkpt lat="62.633299821264" lon="17.984682492119">
        <ele>108.8</ele>
        <time>2017-12-17T12:57:58Z</time>
      </trkpt>
      <trkpt lat="62.633326308068" lon="17.984564139691">
        <ele>107.8</ele>
        <time>2017-12-17T12:57:59Z</time>
      </trkpt>
      <trkpt lat="62.633351872863" lon="17.984444110883">
        <ele>107</ele>
        <time>2017-12-17T12:58:00Z</time>
      </trkpt>
      <trkpt lat="62.633367882292" lon="17.984321567505">
        <ele>106.4</ele>
        <time>2017-12-17T12:58:01Z</time>
      </trkpt>
      <trkpt lat="62.633380119866" lon="17.984210758787">
        <ele>106.2</ele>
        <time>2017-12-17T12:58:02Z</time>
      </trkpt>
      <trkpt lat="62.633397638037" lon="17.984085365563">
        <ele>106.4</ele>
        <time>2017-12-17T12:58:03Z</time>
      </trkpt>
      <trkpt lat="62.633411803448" lon="17.984005402237">
        <ele>106.6</ele>
        <time>2017-12-17T12:58:04Z</time>
      </trkpt>
      <trkpt lat="62.6334208559" lon="17.983922589065">
        <ele>106.6</ele>
        <time>2017-12-17T12:58:05Z</time>
      </trkpt>
      <trkpt lat="62.633430578904" lon="17.983832148364">
        <ele>107</ele>
        <time>2017-12-17T12:58:06Z</time>
      </trkpt>
      <trkpt lat="62.633444995772" lon="17.983751682124">
        <ele>107.2</ele>
        <time>2017-12-17T12:58:07Z</time>
      </trkpt>
      <trkpt lat="62.633463855047" lon="17.98365646374">
        <ele>107.6</ele>
        <time>2017-12-17T12:58:08Z</time>
      </trkpt>
      <trkpt lat="62.633474583879" lon="17.983573734387">
        <ele>107.6</ele>
        <time>2017-12-17T12:58:09Z</time>
      </trkpt>
      <trkpt lat="62.633482546684" lon="17.983492513776">
        <ele>107.8</ele>
        <time>2017-12-17T12:58:10Z</time>
      </trkpt>
      <trkpt lat="62.633494197525" lon="17.98340249217">
        <ele>107.8</ele>
        <time>2017-12-17T12:58:11Z</time>
      </trkpt>
      <trkpt lat="62.633501154502" lon="17.983325546328">
        <ele>108</ele>
        <time>2017-12-17T12:58:12Z</time>
      </trkpt>
      <trkpt lat="62.633516493379" lon="17.983231920505">
        <ele>108</ele>
        <time>2017-12-17T12:58:13Z</time>
      </trkpt>
      <trkpt lat="62.633533424817" lon="17.983149945523">
        <ele>108</ele>
        <time>2017-12-17T12:58:14Z</time>
      </trkpt>
      <trkpt lat="62.633542896364" lon="17.983066294161">
        <ele>108</ele>
        <time>2017-12-17T12:58:15Z</time>
      </trkpt>
      <trkpt lat="62.633558905793" lon="17.982976021098">
        <ele>108</ele>
        <time>2017-12-17T12:58:16Z</time>
      </trkpt>
      <trkpt lat="62.633576340145" lon="17.982915252323">
        <ele>108</ele>
        <time>2017-12-17T12:58:17Z</time>
      </trkpt>
      <trkpt lat="62.633592936307" lon="17.982846939838">
        <ele>108</ele>
        <time>2017-12-17T12:58:18Z</time>
      </trkpt>
      <trkpt lat="62.633612466134" lon="17.982785081416">
        <ele>108</ele>
        <time>2017-12-17T12:58:19Z</time>
      </trkpt>
      <trkpt lat="62.633625793355" lon="17.982718361492">
        <ele>108</ele>
        <time>2017-12-17T12:58:20Z</time>
      </trkpt>
      <trkpt lat="62.633637863291" lon="17.982637392338">
        <ele>108.2</ele>
        <time>2017-12-17T12:58:21Z</time>
      </trkpt>
      <trkpt lat="62.633648508304" lon="17.982563212523">
        <ele>108</ele>
        <time>2017-12-17T12:58:22Z</time>
      </trkpt>
      <trkpt lat="62.633666026475" lon="17.9824947324">
        <ele>108.2</ele>
        <time>2017-12-17T12:58:23Z</time>
      </trkpt>
      <trkpt lat="62.633688406148" lon="17.982416613092">
        <ele>108</ele>
        <time>2017-12-17T12:58:24Z</time>
      </trkpt>
      <trkpt lat="62.633698715885" lon="17.982344444933">
        <ele>108</ele>
        <time>2017-12-17T12:58:25Z</time>
      </trkpt>
      <trkpt lat="62.63370081136" lon="17.982257859906">
        <ele>108</ele>
        <time>2017-12-17T12:58:26Z</time>
      </trkpt>
      <trkpt lat="62.633702571559" lon="17.982184350643">
        <ele>108</ele>
        <time>2017-12-17T12:58:27Z</time>
      </trkpt>
      <trkpt lat="62.633697710057" lon="17.982111428113">
        <ele>107.8</ele>
        <time>2017-12-17T12:58:28Z</time>
      </trkpt>
      <trkpt lat="62.633700308446" lon="17.98204797713">
        <ele>107.8</ele>
        <time>2017-12-17T12:58:29Z</time>
      </trkpt>
      <trkpt lat="62.633703828844" lon="17.981974384048">
        <ele>108</ele>
        <time>2017-12-17T12:58:30Z</time>
      </trkpt>
      <trkpt lat="62.63370751688" lon="17.981901796794">
        <ele>108</ele>
        <time>2017-12-17T12:58:31Z</time>
      </trkpt>
      <trkpt lat="62.633716820789" lon="17.981825772961">
        <ele>108.2</ele>
        <time>2017-12-17T12:58:32Z</time>
      </trkpt>
      <trkpt lat="62.6337309862" lon="17.981732314776">
        <ele>108.4</ele>
        <time>2017-12-17T12:58:33Z</time>
      </trkpt>
      <trkpt lat="62.633737775539" lon="17.981663164101">
        <ele>108.4</ele>
        <time>2017-12-17T12:58:34Z</time>
      </trkpt>
      <trkpt lat="62.633744732516" lon="17.981585044793">
        <ele>108.4</ele>
        <time>2017-12-17T12:58:35Z</time>
      </trkpt>
      <trkpt lat="62.633763759429" lon="17.981509691512">
        <ele>108.4</ele>
        <time>2017-12-17T12:58:36Z</time>
      </trkpt>
      <trkpt lat="62.633773147157" lon="17.981429560548">
        <ele>108.4</ele>
        <time>2017-12-17T12:58:37Z</time>
      </trkpt>
      <trkpt lat="62.633785552369" lon="17.98133970658">
        <ele>108.4</ele>
        <time>2017-12-17T12:58:38Z</time>
      </trkpt>
      <trkpt lat="62.633789827138" lon="17.981253875924">
        <ele>108.4</ele>
        <time>2017-12-17T12:58:39Z</time>
      </trkpt>
      <trkpt lat="62.633810111336" lon="17.98118799419">
        <ele>108.4</ele>
        <time>2017-12-17T12:58:40Z</time>
      </trkpt>
      <trkpt lat="62.633826875136" lon="17.981134685306">
        <ele>108.4</ele>
        <time>2017-12-17T12:58:41Z</time>
      </trkpt>
      <trkpt lat="62.633843387479" lon="17.981082633707">
        <ele>108.4</ele>
        <time>2017-12-17T12:58:42Z</time>
      </trkpt>
      <trkpt lat="62.633858726356" lon="17.98103209085">
        <ele>108.6</ele>
        <time>2017-12-17T12:58:43Z</time>
      </trkpt>
      <trkpt lat="62.633879094373" lon="17.980978362871">
        <ele>108.6</ele>
        <time>2017-12-17T12:58:44Z</time>
      </trkpt>
      <trkpt lat="62.633896528725" lon="17.980923712883">
        <ele>108.6</ele>
        <time>2017-12-17T12:58:45Z</time>
      </trkpt>
      <trkpt lat="62.633910777955" lon="17.980878199166">
        <ele>108.8</ele>
        <time>2017-12-17T12:58:46Z</time>
      </trkpt>
      <trkpt lat="62.633927793212" lon="17.980828494499">
        <ele>108.8</ele>
        <time>2017-12-17T12:58:47Z</time>
      </trkpt>
      <trkpt lat="62.633946903944" lon="17.980785830628">
        <ele>109</ele>
        <time>2017-12-17T12:58:48Z</time>
      </trkpt>
      <trkpt lat="62.633964170658" lon="17.980728749889">
        <ele>109</ele>
        <time>2017-12-17T12:58:49Z</time>
      </trkpt>
      <trkpt lat="62.633984790132" lon="17.98066999277">
        <ele>109.4</ele>
        <time>2017-12-17T12:58:50Z</time>
      </trkpt>
      <trkpt lat="62.633993088213" lon="17.980602769932">
        <ele>109.4</ele>
        <time>2017-12-17T12:58:51Z</time>
      </trkpt>
      <trkpt lat="62.634013707687" lon="17.980550466876">
        <ele>109.4</ele>
        <time>2017-12-17T12:58:52Z</time>
      </trkpt>
      <trkpt lat="62.634037512283" lon="17.980491123024">
        <ele>109.6</ele>
        <time>2017-12-17T12:58:53Z</time>
      </trkpt>
      <trkpt lat="62.634056455377" lon="17.980439909615">
        <ele>109.6</ele>
        <time>2017-12-17T12:58:54Z</time>
      </trkpt>
      <trkpt lat="62.63408218781" lon="17.980381403953">
        <ele>109.4</ele>
        <time>2017-12-17T12:58:55Z</time>
      </trkpt>
      <trkpt lat="62.634109596623" lon="17.980312253278">
        <ele>109.4</ele>
        <time>2017-12-17T12:58:56Z</time>
      </trkpt>
      <trkpt lat="62.634123929672" lon="17.98025508872">
        <ele>109.4</ele>
        <time>2017-12-17T12:58:57Z</time>
      </trkpt>
      <trkpt lat="62.634151422304" lon="17.980187530606">
        <ele>109.4</ele>
        <time>2017-12-17T12:58:58Z</time>
      </trkpt>
      <trkpt lat="62.634173718158" lon="17.980130366048">
        <ele>109.4</ele>
        <time>2017-12-17T12:58:59Z</time>
      </trkpt>
      <trkpt lat="62.63420623993" lon="17.980075548422">
        <ele>109.2</ele>
        <time>2017-12-17T12:59:00Z</time>
      </trkpt>
      <trkpt lat="62.634233564924" lon="17.980011929801">
        <ele>109.2</ele>
        <time>2017-12-17T12:59:01Z</time>
      </trkpt>
      <trkpt lat="62.634248400887" lon="17.979958537098">
        <ele>109.4</ele>
        <time>2017-12-17T12:59:02Z</time>
      </trkpt>
      <trkpt lat="62.634274217139" lon="17.979884692559">
        <ele>109.2</ele>
        <time>2017-12-17T12:59:03Z</time>
      </trkpt>
      <trkpt lat="62.634288466369" lon="17.979818140273">
        <ele>109.4</ele>
        <time>2017-12-17T12:59:04Z</time>
      </trkpt>
      <trkpt lat="62.634301877409" lon="17.979755276023">
        <ele>109.2</ele>
        <time>2017-12-17T12:59:05Z</time>
      </trkpt>
      <trkpt lat="62.634317635381" lon="17.979685706253">
        <ele>109.2</ele>
        <time>2017-12-17T12:59:06Z</time>
      </trkpt>
      <trkpt lat="62.634335069733" lon="17.979610017696">
        <ele>109.2</ele>
        <time>2017-12-17T12:59:07Z</time>
      </trkpt>
      <trkpt lat="62.634351162981" lon="17.979537849537">
        <ele>109.2</ele>
        <time>2017-12-17T12:59:08Z</time>
      </trkpt>
      <trkpt lat="62.634361053623" lon="17.979463334446">
        <ele>109</ele>
        <time>2017-12-17T12:59:09Z</time>
      </trkpt>
      <trkpt lat="62.634376560138" lon="17.979399632006">
        <ele>109.2</ele>
        <time>2017-12-17T12:59:10Z</time>
      </trkpt>
      <trkpt lat="62.63438812716" lon="17.979329224046">
        <ele>109</ele>
        <time>2017-12-17T12:59:11Z</time>
      </trkpt>
      <trkpt lat="62.634402124933" lon="17.979268036176">
        <ele>109.2</ele>
        <time>2017-12-17T12:59:12Z</time>
      </trkpt>
      <trkpt lat="62.63441075829" lon="17.979188659583">
        <ele>109.2</ele>
        <time>2017-12-17T12:59:13Z</time>
      </trkpt>
      <trkpt lat="62.634427186814" lon="17.97912185584">
        <ele>109.4</ele>
        <time>2017-12-17T12:59:14Z</time>
      </trkpt>
      <trkpt lat="62.634430707212" lon="17.979043149799">
        <ele>109.2</ele>
        <time>2017-12-17T12:59:15Z</time>
      </trkpt>
      <trkpt lat="62.634448309202" lon="17.978973077115">
        <ele>109.4</ele>
        <time>2017-12-17T12:59:16Z</time>
      </trkpt>
      <trkpt lat="62.634459960043" lon="17.978901579508">
        <ele>109.2</ele>
        <time>2017-12-17T12:59:17Z</time>
      </trkpt>
      <trkpt lat="62.63447781349" lon="17.978819101612">
        <ele>109.4</ele>
        <time>2017-12-17T12:59:18Z</time>
      </trkpt>
      <trkpt lat="62.634492817091" lon="17.978736456078">
        <ele>109.2</ele>
        <time>2017-12-17T12:59:19Z</time>
      </trkpt>
      <trkpt lat="62.634507569235" lon="17.978663868824">
        <ele>109.2</ele>
        <time>2017-12-17T12:59:20Z</time>
      </trkpt>
      <trkpt lat="62.634522153741" lon="17.978582564394">
        <ele>109.2</ele>
        <time>2017-12-17T12:59:21Z</time>
      </trkpt>
      <trkpt lat="62.634535145686" lon="17.978503020163">
        <ele>109.4</ele>
        <time>2017-12-17T12:59:22Z</time>
      </trkpt>
      <trkpt lat="62.634546964165" lon="17.978428924167">
        <ele>109.2</ele>
        <time>2017-12-17T12:59:23Z</time>
      </trkpt>
      <trkpt lat="62.63456163249" lon="17.978335968896">
        <ele>109.2</ele>
        <time>2017-12-17T12:59:24Z</time>
      </trkpt>
      <trkpt lat="62.634576552272" lon="17.978244438548">
        <ele>109</ele>
        <time>2017-12-17T12:59:25Z</time>
      </trkpt>
      <trkpt lat="62.634593735167" lon="17.978146286499">
        <ele>108.8</ele>
        <time>2017-12-17T12:59:26Z</time>
      </trkpt>
      <trkpt lat="62.634612342985" lon="17.978050481382">
        <ele>108.4</ele>
        <time>2017-12-17T12:59:27Z</time>
      </trkpt>
      <trkpt lat="62.63463287864" lon="17.97794000794">
        <ele>108</ele>
        <time>2017-12-17T12:59:28Z</time>
      </trkpt>
      <trkpt lat="62.634644948576" lon="17.977858200596">
        <ele>107.6</ele>
        <time>2017-12-17T12:59:29Z</time>
      </trkpt>
      <trkpt lat="62.634661041824" lon="17.977751666647">
        <ele>107.4</ele>
        <time>2017-12-17T12:59:30Z</time>
      </trkpt>
      <trkpt lat="62.63466808262" lon="17.977659549566">
        <ele>107.2</ele>
        <time>2017-12-17T12:59:31Z</time>
      </trkpt>
      <trkpt lat="62.634681074565" lon="17.97756785158">
        <ele>107</ele>
        <time>2017-12-17T12:59:32Z</time>
      </trkpt>
      <trkpt lat="62.634698425098" lon="17.977460898536">
        <ele>107</ele>
        <time>2017-12-17T12:59:33Z</time>
      </trkpt>
      <trkpt lat="62.634714434527" lon="17.977376660441">
        <ele>107</ele>
        <time>2017-12-17T12:59:34Z</time>
      </trkpt>
      <trkpt lat="62.634727761748" lon="17.977312790363">
        <ele>107</ele>
        <time>2017-12-17T12:59:35Z</time>
      </trkpt>
      <trkpt lat="62.634741927159" lon="17.977227127345">
        <ele>107</ele>
        <time>2017-12-17T12:59:36Z</time>
      </trkpt>
      <trkpt lat="62.634752069258" lon="17.9771554621">
        <ele>107</ele>
        <time>2017-12-17T12:59:37Z</time>
      </trkpt>
      <trkpt lat="62.634770090343" lon="17.977060662811">
        <ele>107.2</ele>
        <time>2017-12-17T12:59:38Z</time>
      </trkpt>
      <trkpt lat="62.634786099772" lon="17.976978520191">
        <ele>107.6</ele>
        <time>2017-12-17T12:59:39Z</time>
      </trkpt>
      <trkpt lat="62.634800097545" lon="17.976895958476">
        <ele>107.6</ele>
        <time>2017-12-17T12:59:40Z</time>
      </trkpt>
      <trkpt lat="62.634812586576" lon="17.976822113937">
        <ele>107.6</ele>
        <time>2017-12-17T12:59:41Z</time>
      </trkpt>
      <trkpt lat="62.634829769471" lon="17.976741815335">
        <ele>107.6</ele>
        <time>2017-12-17T12:59:42Z</time>
      </trkpt>
      <trkpt lat="62.634847622918" lon="17.976654140661">
        <ele>107.6</ele>
        <time>2017-12-17T12:59:43Z</time>
      </trkpt>
      <trkpt lat="62.634865560184" lon="17.976569064376">
        <ele>107.2</ele>
        <time>2017-12-17T12:59:44Z</time>
      </trkpt>
      <trkpt lat="62.634878049215" lon="17.976494884561">
        <ele>107</ele>
        <time>2017-12-17T12:59:45Z</time>
      </trkpt>
      <trkpt lat="62.634897411404" lon="17.976409724457">
        <ele>106.6</ele>
        <time>2017-12-17T12:59:46Z</time>
      </trkpt>
      <trkpt lat="62.634913756109" lon="17.976345016189">
        <ele>106.6</ele>
        <time>2017-12-17T12:59:47Z</time>
      </trkpt>
      <trkpt lat="62.634932783022" lon="17.976273183306">
        <ele>106.6</ele>
        <time>2017-12-17T12:59:48Z</time>
      </trkpt>
      <trkpt lat="62.634957593446" lon="17.976177881103">
        <ele>106.6</ele>
        <time>2017-12-17T12:59:49Z</time>
      </trkpt>
      <trkpt lat="62.634977877644" lon="17.976098755967">
        <ele>106.6</ele>
        <time>2017-12-17T12:59:50Z</time>
      </trkpt>
      <trkpt lat="62.635002855706" lon="17.976003705221">
        <ele>106.4</ele>
        <time>2017-12-17T12:59:51Z</time>
      </trkpt>
      <trkpt lat="62.635021463524" lon="17.975918042203">
        <ele>105.8</ele>
        <time>2017-12-17T12:59:52Z</time>
      </trkpt>
      <trkpt lat="62.635037808229" lon="17.975830032253">
        <ele>105.4</ele>
        <time>2017-12-17T12:59:53Z</time>
      </trkpt>
      <trkpt lat="62.635053230925" lon="17.97572467177">
        <ele>105</ele>
        <time>2017-12-17T12:59:54Z</time>
      </trkpt>
      <trkpt lat="62.635072006381" lon="17.975639763123">
        <ele>105</ele>
        <time>2017-12-17T12:59:55Z</time>
      </trkpt>
      <trkpt lat="62.635087931991" lon="17.975558207236">
        <ele>105.2</ele>
        <time>2017-12-17T12:59:56Z</time>
      </trkpt>
      <trkpt lat="62.635095727158" lon="17.975491487312">
        <ele>105.4</ele>
        <time>2017-12-17T12:59:57Z</time>
      </trkpt>
      <trkpt lat="62.635109892569" lon="17.975399034955">
        <ele>105.6</ele>
        <time>2017-12-17T12:59:58Z</time>
      </trkpt>
      <trkpt lat="62.635119531754" lon="17.975302475467">
        <ele>105.4</ele>
        <time>2017-12-17T12:59:59Z</time>
      </trkpt>
      <trkpt lat="62.635119950849" lon="17.975196528251">
        <ele>105</ele>
        <time>2017-12-17T13:00:00Z</time>
      </trkpt>
      <trkpt lat="62.635109724931" lon="17.97509435289">
        <ele>104.8</ele>
        <time>2017-12-17T13:00:01Z</time>
      </trkpt>
      <trkpt lat="62.635090195104" lon="17.97499460828">
        <ele>104.2</ele>
        <time>2017-12-17T13:00:02Z</time>
      </trkpt>
      <trkpt lat="62.635062618653" lon="17.97488983453">
        <ele>103.6</ele>
        <time>2017-12-17T13:00:03Z</time>
      </trkpt>
      <trkpt lat="62.635033365822" lon="17.974791263386">
        <ele>103.4</ele>
        <time>2017-12-17T13:00:04Z</time>
      </trkpt>
      <trkpt lat="62.635006879018" lon="17.974699900676">
        <ele>103</ele>
        <time>2017-12-17T13:00:05Z</time>
      </trkpt>
      <trkpt lat="62.634978129101" lon="17.97458305699">
        <ele>102.8</ele>
        <time>2017-12-17T13:00:06Z</time>
      </trkpt>
      <trkpt lat="62.634960946206" lon="17.974482641828">
        <ele>102.4</ele>
        <time>2017-12-17T13:00:07Z</time>
      </trkpt>
      <trkpt lat="62.634934794678" lon="17.974376946069">
        <ele>102</ele>
        <time>2017-12-17T13:00:08Z</time>
      </trkpt>
      <trkpt lat="62.634913504652" lon="17.974283068789">
        <ele>101.8</ele>
        <time>2017-12-17T13:00:09Z</time>
      </trkpt>
      <trkpt lat="62.634893974825" lon="17.974188185681">
        <ele>101.4</ele>
        <time>2017-12-17T13:00:10Z</time>
      </trkpt>
      <trkpt lat="62.634877965396" lon="17.974107132708">
        <ele>101.2</ele>
        <time>2017-12-17T13:00:11Z</time>
      </trkpt>
      <trkpt lat="62.634859022302" lon="17.974015518541">
        <ele>101.2</ele>
        <time>2017-12-17T13:00:12Z</time>
      </trkpt>
      <trkpt lat="62.634844521615" lon="17.97394184164">
        <ele>101.2</ele>
        <time>2017-12-17T13:00:13Z</time>
      </trkpt>
      <trkpt lat="62.634828596005" lon="17.973854418423">
        <ele>101.2</ele>
        <time>2017-12-17T13:00:14Z</time>
      </trkpt>
      <trkpt lat="62.634808563264" lon="17.973784178101">
        <ele>101.4</ele>
        <time>2017-12-17T13:00:15Z</time>
      </trkpt>
      <trkpt lat="62.634794146396" lon="17.973694910866">
        <ele>101.6</ele>
        <time>2017-12-17T13:00:16Z</time>
      </trkpt>
      <trkpt lat="62.634784507211" lon="17.97363003496">
        <ele>102</ele>
        <time>2017-12-17T13:00:17Z</time>
      </trkpt>
      <trkpt lat="62.634769335972" lon="17.973540600087">
        <ele>102</ele>
        <time>2017-12-17T13:00:18Z</time>
      </trkpt>
      <trkpt lat="62.634758355683" lon="17.97346323515">
        <ele>102</ele>
        <time>2017-12-17T13:00:19Z</time>
      </trkpt>
      <trkpt lat="62.634754248552" lon="17.97338193072">
        <ele>102</ele>
        <time>2017-12-17T13:00:20Z</time>
      </trkpt>
      <trkpt lat="62.634748884136" lon="17.973295680969">
        <ele>101.8</ele>
        <time>2017-12-17T13:00:21Z</time>
      </trkpt>
      <trkpt lat="62.634749135593" lon="17.973215214729">
        <ele>101.8</ele>
        <time>2017-12-17T13:00:22Z</time>
      </trkpt>
      <trkpt lat="62.634753913276" lon="17.97311370992">
        <ele>101.6</ele>
        <time>2017-12-17T13:00:23Z</time>
      </trkpt>
      <trkpt lat="62.634762211357" lon="17.973022179572">
        <ele>101.6</ele>
        <time>2017-12-17T13:00:24Z</time>
      </trkpt>
      <trkpt lat="62.634775119483" lon="17.972917070546">
        <ele>101.6</ele>
        <time>2017-12-17T13:00:25Z</time>
      </trkpt>
      <trkpt lat="62.634785932134" lon="17.972798382842">
        <ele>101.6</ele>
        <time>2017-12-17T13:00:26Z</time>
      </trkpt>
      <trkpt lat="62.634805797237" lon="17.972719592982">
        <ele>101.4</ele>
        <time>2017-12-17T13:00:27Z</time>
      </trkpt>
      <trkpt lat="62.634827925453" lon="17.972628817005">
        <ele>101.2</ele>
        <time>2017-12-17T13:00:28Z</time>
      </trkpt>
      <trkpt lat="62.634844018701" lon="17.972556565027">
        <ele>101</ele>
        <time>2017-12-17T13:00:29Z</time>
      </trkpt>
      <trkpt lat="62.634873187713" lon="17.972480457375">
        <ele>100.8</ele>
        <time>2017-12-17T13:00:30Z</time>
      </trkpt>
      <trkpt lat="62.634895399748" lon="17.972403427714">
        <ele>100.8</ele>
        <time>2017-12-17T13:00:31Z</time>
      </trkpt>
      <trkpt lat="62.634912917919" lon="17.972335366686">
        <ele>100.6</ele>
        <time>2017-12-17T13:00:32Z</time>
      </trkpt>
      <trkpt lat="62.634938985628" lon="17.972252972609">
        <ele>100.6</ele>
        <time>2017-12-17T13:00:33Z</time>
      </trkpt>
      <trkpt lat="62.634963879871" lon="17.972177535509">
        <ele>100.6</ele>
        <time>2017-12-17T13:00:34Z</time>
      </trkpt>
      <trkpt lat="62.634984164069" lon="17.972108468653">
        <ele>100.4</ele>
        <time>2017-12-17T13:00:35Z</time>
      </trkpt>
      <trkpt lat="62.635010483235" lon="17.972022554178">
        <ele>100</ele>
        <time>2017-12-17T13:00:36Z</time>
      </trkpt>
      <trkpt lat="62.635031940899" lon="17.971935801513">
        <ele>99.6</ele>
        <time>2017-12-17T13:00:37Z</time>
      </trkpt>
      <trkpt lat="62.63505700278" lon="17.971826082442">
        <ele>99.4</ele>
        <time>2017-12-17T13:00:38Z</time>
      </trkpt>
      <trkpt lat="62.635077538435" lon="17.971710160765">
        <ele>99</ele>
        <time>2017-12-17T13:00:39Z</time>
      </trkpt>
      <trkpt lat="62.635097068262" lon="17.971588790853">
        <ele>98.4</ele>
        <time>2017-12-17T13:00:40Z</time>
      </trkpt>
      <trkpt lat="62.63511316151" lon="17.971473120633">
        <ele>98</ele>
        <time>2017-12-17T13:00:41Z</time>
      </trkpt>
      <trkpt lat="62.63512824893" lon="17.971349739065">
        <ele>97.8</ele>
        <time>2017-12-17T13:00:42Z</time>
      </trkpt>
      <trkpt lat="62.635144090721" lon="17.971229291162">
        <ele>97</ele>
        <time>2017-12-17T13:00:43Z</time>
      </trkpt>
      <trkpt lat="62.635159178141" lon="17.971105071404">
        <ele>96.2</ele>
        <time>2017-12-17T13:00:44Z</time>
      </trkpt>
      <trkpt lat="62.635173930285" lon="17.970981857474">
        <ele>95.4</ele>
        <time>2017-12-17T13:00:45Z</time>
      </trkpt>
      <trkpt lat="62.635189772076" lon="17.970861912485">
        <ele>95</ele>
        <time>2017-12-17T13:00:46Z</time>
      </trkpt>
      <trkpt lat="62.63520368603" lon="17.970755797631">
        <ele>94.2</ele>
        <time>2017-12-17T13:00:47Z</time>
      </trkpt>
      <trkpt lat="62.635219108726" lon="17.970621100498">
        <ele>93.4</ele>
        <time>2017-12-17T13:00:48Z</time>
      </trkpt>
      <trkpt lat="62.635234196146" lon="17.970505178821">
        <ele>93</ele>
        <time>2017-12-17T13:00:49Z</time>
      </trkpt>
      <trkpt lat="62.635247858643" lon="17.970393112818">
        <ele>92.6</ele>
        <time>2017-12-17T13:00:50Z</time>
      </trkpt>
      <trkpt lat="62.63526319752" lon="17.970276352951">
        <ele>92.2</ele>
        <time>2017-12-17T13:00:51Z</time>
      </trkpt>
      <trkpt lat="62.635279458406" lon="17.970169819002">
        <ele>91.8</ele>
        <time>2017-12-17T13:00:52Z</time>
      </trkpt>
      <trkpt lat="62.635297479491" lon="17.970054986972">
        <ele>91.6</ele>
        <time>2017-12-17T13:00:53Z</time>
      </trkpt>
      <trkpt lat="62.635318685698" lon="17.969926408626">
        <ele>91.4</ele>
        <time>2017-12-17T13:00:54Z</time>
      </trkpt>
      <trkpt lat="62.635347351796" lon="17.96981040313">
        <ele>91</ele>
        <time>2017-12-17T13:00:55Z</time>
      </trkpt>
      <trkpt lat="62.635378616283" lon="17.969704623552">
        <ele>90.4</ele>
        <time>2017-12-17T13:00:56Z</time>
      </trkpt>
      <trkpt lat="62.635407533838" lon="17.969601190906">
        <ele>90.2</ele>
        <time>2017-12-17T13:00:57Z</time>
      </trkpt>
      <trkpt lat="62.63543670285" lon="17.969488370532">
        <ele>89.6</ele>
        <time>2017-12-17T13:00:58Z</time>
      </trkpt>
      <trkpt lat="62.635463105835" lon="17.969390553759">
        <ele>89.2</ele>
        <time>2017-12-17T13:00:59Z</time>
      </trkpt>
      <trkpt lat="62.635492442485" lon="17.969276224643">
        <ele>88.8</ele>
        <time>2017-12-17T13:01:00Z</time>
      </trkpt>
      <trkpt lat="62.635521946773" lon="17.969163152812">
        <ele>88.4</ele>
        <time>2017-12-17T13:01:01Z</time>
      </trkpt>
      <trkpt lat="62.635550109957" lon="17.969061648003">
        <ele>87.8</ele>
        <time>2017-12-17T13:01:02Z</time>
      </trkpt>
      <trkpt lat="62.635578692236" lon="17.968952264208">
        <ele>87.4</ele>
        <time>2017-12-17T13:01:03Z</time>
      </trkpt>
      <trkpt lat="62.635606352506" lon="17.968855369444">
        <ele>86.8</ele>
        <time>2017-12-17T13:01:04Z</time>
      </trkpt>
      <trkpt lat="62.635634683328" lon="17.968753948454">
        <ele>86.6</ele>
        <time>2017-12-17T13:01:05Z</time>
      </trkpt>
      <trkpt lat="62.635666953643" lon="17.96867717025">
        <ele>86.2</ele>
        <time>2017-12-17T13:01:06Z</time>
      </trkpt>
      <trkpt lat="62.635709198419" lon="17.968589327938">
        <ele>86</ele>
        <time>2017-12-17T13:01:07Z</time>
      </trkpt>
      <trkpt lat="62.63575521505" lon="17.968517411236">
        <ele>85.8</ele>
        <time>2017-12-17T13:01:08Z</time>
      </trkpt>
      <trkpt lat="62.635801231681" lon="17.968464689085">
        <ele>85.6</ele>
        <time>2017-12-17T13:01:09Z</time>
      </trkpt>
      <trkpt lat="62.635852528909" lon="17.968423617775">
        <ele>85.2</ele>
        <time>2017-12-17T13:01:10Z</time>
      </trkpt>
      <trkpt lat="62.635903993775" lon="17.968398136799">
        <ele>85</ele>
        <time>2017-12-17T13:01:11Z</time>
      </trkpt>
      <trkpt lat="62.635959398134" lon="17.968387910881">
        <ele>84.6</ele>
        <time>2017-12-17T13:01:12Z</time>
      </trkpt>
      <trkpt lat="62.636013209932" lon="17.96839134746">
        <ele>84.4</ele>
        <time>2017-12-17T13:01:13Z</time>
      </trkpt>
      <trkpt lat="62.636062244047" lon="17.968404507043">
        <ele>84</ele>
        <time>2017-12-17T13:01:14Z</time>
      </trkpt>
      <trkpt lat="62.636107506307" lon="17.968422779585">
        <ele>83.8</ele>
        <time>2017-12-17T13:01:15Z</time>
      </trkpt>
      <trkpt lat="62.636145643952" lon="17.96842068411">
        <ele>83.8</ele>
        <time>2017-12-17T13:01:16Z</time>
      </trkpt>
      <trkpt lat="62.636177746629" lon="17.968423450137">
        <ele>84</ele>
        <time>2017-12-17T13:01:17Z</time>
      </trkpt>
      <trkpt lat="62.636223008889" lon="17.968437364091">
        <ele>84.2</ele>
        <time>2017-12-17T13:01:18Z</time>
      </trkpt>
      <trkpt lat="62.636262152362" lon="17.968454798443">
        <ele>84.4</ele>
        <time>2017-12-17T13:01:19Z</time>
      </trkpt>
      <trkpt lat="62.63629752398" lon="17.968481536704">
        <ele>84.4</ele>
        <time>2017-12-17T13:01:20Z</time>
      </trkpt>
      <trkpt lat="62.636334152883" lon="17.968519422892">
        <ele>84.4</ele>
        <time>2017-12-17T13:01:21Z</time>
      </trkpt>
      <trkpt lat="62.636367177569" lon="17.968568037912">
        <ele>84.4</ele>
        <time>2017-12-17T13:01:22Z</time>
      </trkpt>
      <trkpt lat="62.636400034617" lon="17.968638948786">
        <ele>84.4</ele>
        <time>2017-12-17T13:01:23Z</time>
      </trkpt>
      <trkpt lat="62.636431131466" lon="17.968711787497">
        <ele>84.4</ele>
        <time>2017-12-17T13:01:24Z</time>
      </trkpt>
      <trkpt lat="62.636456277166" lon="17.968791331728">
        <ele>84.4</ele>
        <time>2017-12-17T13:01:25Z</time>
      </trkpt>
      <trkpt lat="62.636480584676" lon="17.968865427724">
        <ele>84.4</ele>
        <time>2017-12-17T13:01:26Z</time>
      </trkpt>
      <trkpt lat="62.636502293797" lon="17.96892695087">
        <ele>84.4</ele>
        <time>2017-12-17T13:01:27Z</time>
      </trkpt>
      <trkpt lat="62.636525260203" lon="17.968992245871">
        <ele>84.6</ele>
        <time>2017-12-17T13:01:28Z</time>
      </trkpt>
      <trkpt lat="62.636546801686" lon="17.969049410429">
        <ele>84.6</ele>
        <time>2017-12-17T13:01:29Z</time>
      </trkpt>
      <trkpt lat="62.636545292944" lon="17.969054104293">
        <ele>84.6</ele>
        <time>2017-12-17T13:01:30Z</time>
      </trkpt>
      <trkpt lat="62.636586196616" lon="17.969188717607">
        <ele>84.8</ele>
        <time>2017-12-17T13:01:31Z</time>
      </trkpt>
      <trkpt lat="62.636605894081" lon="17.96926390325">
        <ele>84.8</ele>
        <time>2017-12-17T13:01:32Z</time>
      </trkpt>
      <trkpt lat="62.636628944306" lon="17.969328695337">
        <ele>85</ele>
        <time>2017-12-17T13:01:33Z</time>
      </trkpt>
      <trkpt lat="62.636645037554" lon="17.969396253451">
        <ele>85</ele>
        <time>2017-12-17T13:01:34Z</time>
      </trkpt>
      <trkpt lat="62.636659957336" lon="17.969455597303">
        <ele>85</ele>
        <time>2017-12-17T13:01:35Z</time>
      </trkpt>
      <trkpt lat="62.636678229878" lon="17.969522820141">
        <ele>85.2</ele>
        <time>2017-12-17T13:01:36Z</time>
      </trkpt>
      <trkpt lat="62.636692646746" lon="17.969586522581">
        <ele>85.2</ele>
        <time>2017-12-17T13:01:37Z</time>
      </trkpt>
      <trkpt lat="62.63670823708" lon="17.969649889745">
        <ele>85.2</ele>
        <time>2017-12-17T13:01:38Z</time>
      </trkpt>
      <trkpt lat="62.636720642292" lon="17.969700013507">
        <ele>85.4</ele>
        <time>2017-12-17T13:01:39Z</time>
      </trkpt>
      <trkpt lat="62.636735729712" lon="17.969763967404">
        <ele>85.4</ele>
        <time>2017-12-17T13:01:40Z</time>
      </trkpt>
      <trkpt lat="62.636754505168" lon="17.969811995691">
        <ele>85.2</ele>
        <time>2017-12-17T13:01:41Z</time>
      </trkpt>
      <trkpt lat="62.636773112986" lon="17.969873435018">
        <ele>85.4</ele>
        <time>2017-12-17T13:01:42Z</time>
      </trkpt>
      <trkpt lat="62.636793564822" lon="17.969927414454">
        <ele>85.4</ele>
        <time>2017-12-17T13:01:43Z</time>
      </trkpt>
      <trkpt lat="62.636815273943" lon="17.969977873492">
        <ele>85.4</ele>
        <time>2017-12-17T13:01:44Z</time>
      </trkpt>
      <trkpt lat="62.636837402159" lon="17.970022800476">
        <ele>85.4</ele>
        <time>2017-12-17T13:01:45Z</time>
      </trkpt>
      <trkpt lat="62.63685575852" lon="17.970050712203">
        <ele>85.6</ele>
        <time>2017-12-17T13:01:46Z</time>
      </trkpt>
      <trkpt lat="62.636878892564" lon="17.970083233975">
        <ele>85.6</ele>
        <time>2017-12-17T13:01:47Z</time>
      </trkpt>
      <trkpt lat="62.636904960273" lon="17.970108212037">
        <ele>85.6</ele>
        <time>2017-12-17T13:01:48Z</time>
      </trkpt>
      <trkpt lat="62.636933207276" lon="17.970133273918">
        <ele>85.6</ele>
        <time>2017-12-17T13:01:49Z</time>
      </trkpt>
      <trkpt lat="62.636957430967" lon="17.970149199528">
        <ele>85.6</ele>
        <time>2017-12-17T13:01:50Z</time>
      </trkpt>
      <trkpt lat="62.636988108721" lon="17.970163448758">
        <ele>85.4</ele>
        <time>2017-12-17T13:01:51Z</time>
      </trkpt>
      <trkpt lat="62.637020714312" lon="17.970174848142">
        <ele>85.4</ele>
        <time>2017-12-17T13:01:52Z</time>
      </trkpt>
      <trkpt lat="62.637055750654" lon="17.970185576974">
        <ele>85.4</ele>
        <time>2017-12-17T13:01:53Z</time>
      </trkpt>
      <trkpt lat="62.637091960462" lon="17.970178200902">
        <ele>85.2</ele>
        <time>2017-12-17T13:01:54Z</time>
      </trkpt>
      <trkpt lat="62.637135378704" lon="17.970164454586">
        <ele>85</ele>
        <time>2017-12-17T13:01:55Z</time>
      </trkpt>
      <trkpt lat="62.637175444186" lon="17.970147942243">
        <ele>85</ele>
        <time>2017-12-17T13:01:56Z</time>
      </trkpt>
      <trkpt lat="62.637216347858" lon="17.970127658045">
        <ele>84.8</ele>
        <time>2017-12-17T13:01:57Z</time>
      </trkpt>
      <trkpt lat="62.637263621774" lon="17.970104943096">
        <ele>84.6</ele>
        <time>2017-12-17T13:01:58Z</time>
      </trkpt>
      <trkpt lat="62.637306956197" lon="17.970081054681">
        <ele>84.2</ele>
        <time>2017-12-17T13:01:59Z</time>
      </trkpt>
      <trkpt lat="62.637357163778" lon="17.970056160438">
        <ele>83.8</ele>
        <time>2017-12-17T13:02:00Z</time>
      </trkpt>
      <trkpt lat="62.637405527341" lon="17.970041911208">
        <ele>83.6</ele>
        <time>2017-12-17T13:02:01Z</time>
      </trkpt>
      <trkpt lat="62.637452885076" lon="17.970036043878">
        <ele>83.2</ele>
        <time>2017-12-17T13:02:02Z</time>
      </trkpt>
      <trkpt lat="62.637504936675" lon="17.97005096366">
        <ele>83</ele>
        <time>2017-12-17T13:02:03Z</time>
      </trkpt>
      <trkpt lat="62.637550450392" lon="17.97008784402">
        <ele>83</ele>
        <time>2017-12-17T13:02:04Z</time>
      </trkpt>
      <trkpt lat="62.637595712652" lon="17.970125394932">
        <ele>82.8</ele>
        <time>2017-12-17T13:02:05Z</time>
      </trkpt>
      <trkpt lat="62.63762270237" lon="17.970175099599">
        <ele>82.8</ele>
        <time>2017-12-17T13:02:06Z</time>
      </trkpt>
      <trkpt lat="62.637658409264" lon="17.970243328265">
        <ele>82.6</ele>
        <time>2017-12-17T13:02:07Z</time>
      </trkpt>
      <trkpt lat="62.637690428122" lon="17.970320609383">
        <ele>82.6</ele>
        <time>2017-12-17T13:02:08Z</time>
      </trkpt>
      <trkpt lat="62.637716914926" lon="17.970394034827">
        <ele>82.4</ele>
        <time>2017-12-17T13:02:09Z</time>
      </trkpt>
      <trkpt lat="62.63774172535" lon="17.970478775836">
        <ele>82.4</ele>
        <time>2017-12-17T13:02:10Z</time>
      </trkpt>
      <trkpt lat="62.637764188842" lon="17.970546082493">
        <ele>82.6</ele>
        <time>2017-12-17T13:02:11Z</time>
      </trkpt>
      <trkpt lat="62.63778698761" lon="17.970623866525">
        <ele>82.6</ele>
        <time>2017-12-17T13:02:12Z</time>
      </trkpt>
      <trkpt lat="62.63780710417" lon="17.970709194267">
        <ele>82.8</ele>
        <time>2017-12-17T13:02:13Z</time>
      </trkpt>
      <trkpt lat="62.637827723644" lon="17.970774070173">
        <ele>82.8</ele>
        <time>2017-12-17T13:02:14Z</time>
      </trkpt>
      <trkpt lat="62.637845493272" lon="17.97085311149">
        <ele>83</ele>
        <time>2017-12-17T13:02:15Z</time>
      </trkpt>
      <trkpt lat="62.637859407226" lon="17.970918071215">
        <ele>83</ele>
        <time>2017-12-17T13:02:16Z</time>
      </trkpt>
      <trkpt lat="62.637870722791" lon="17.970978504714">
        <ele>83.2</ele>
        <time>2017-12-17T13:02:17Z</time>
      </trkpt>
      <trkpt lat="62.637886229306" lon="17.971077159677">
        <ele>83.2</ele>
        <time>2017-12-17T13:02:18Z</time>
      </trkpt>
      <trkpt lat="62.637901149088" lon="17.971151255673">
        <ele>83.4</ele>
        <time>2017-12-17T13:02:19Z</time>
      </trkpt>
      <trkpt lat="62.637913135205" lon="17.971215544846">
        <ele>83.4</ele>
        <time>2017-12-17T13:02:20Z</time>
      </trkpt>
      <trkpt lat="62.637927384435" lon="17.971302716606">
        <ele>83.6</ele>
        <time>2017-12-17T13:02:21Z</time>
      </trkpt>
      <trkpt lat="62.637941968941" lon="17.971360635535">
        <ele>83.4</ele>
        <time>2017-12-17T13:02:22Z</time>
      </trkpt>
      <trkpt lat="62.637953033049" lon="17.971432636056">
        <ele>83.6</ele>
        <time>2017-12-17T13:02:23Z</time>
      </trkpt>
      <trkpt lat="62.637964264795" lon="17.971508324613">
        <ele>83.6</ele>
        <time>2017-12-17T13:02:24Z</time>
      </trkpt>
      <trkpt lat="62.637975664179" lon="17.97156305842">
        <ele>83.6</ele>
        <time>2017-12-17T13:02:25Z</time>
      </trkpt>
      <trkpt lat="62.63798144769" lon="17.971642770289">
        <ele>83.6</ele>
        <time>2017-12-17T13:02:26Z</time>
      </trkpt>
      <trkpt lat="62.637991003056" lon="17.971716866285">
        <ele>83.8</ele>
        <time>2017-12-17T13:02:27Z</time>
      </trkpt>
      <trkpt lat="62.637998714404" lon="17.971784005304">
        <ele>83.8</ele>
        <time>2017-12-17T13:02:28Z</time>
      </trkpt>
      <trkpt lat="62.638001731888" lon="17.971857849843">
        <ele>84</ele>
        <time>2017-12-17T13:02:29Z</time>
      </trkpt>
      <trkpt lat="62.638007934494" lon="17.971934963323">
        <ele>84</ele>
        <time>2017-12-17T13:02:30Z</time>
      </trkpt>
      <trkpt lat="62.638012041625" lon="17.972007215301">
        <ele>84</ele>
        <time>2017-12-17T13:02:31Z</time>
      </trkpt>
      <trkpt lat="62.638012544539" lon="17.972080137831">
        <ele>84</ele>
        <time>2017-12-17T13:02:32Z</time>
      </trkpt>
      <trkpt lat="62.638021010258" lon="17.972151886895">
        <ele>84.2</ele>
        <time>2017-12-17T13:02:33Z</time>
      </trkpt>
      <trkpt lat="62.63802419538" lon="17.972229922384">
        <ele>84.2</ele>
        <time>2017-12-17T13:02:34Z</time>
      </trkpt>
      <trkpt lat="62.638026207036" lon="17.97229144553">
        <ele>84.2</ele>
        <time>2017-12-17T13:02:35Z</time>
      </trkpt>
      <trkpt lat="62.638031571452" lon="17.972359758015">
        <ele>84.4</ele>
        <time>2017-12-17T13:02:36Z</time>
      </trkpt>
      <trkpt lat="62.638040456266" lon="17.972415246193">
        <ele>84.6</ele>
        <time>2017-12-17T13:02:37Z</time>
      </trkpt>
      <trkpt lat="62.638048838166" lon="17.972488001085">
        <ele>84.8</ele>
        <time>2017-12-17T13:02:38Z</time>
      </trkpt>
      <trkpt lat="62.63805520841" lon="17.972552206439">
        <ele>84.8</ele>
        <time>2017-12-17T13:02:39Z</time>
      </trkpt>
      <trkpt lat="62.638057303885" lon="17.972616244155">
        <ele>84.8</ele>
        <time>2017-12-17T13:02:40Z</time>
      </trkpt>
      <trkpt lat="62.638059734636" lon="17.972681371518">
        <ele>84.8</ele>
        <time>2017-12-17T13:02:41Z</time>
      </trkpt>
      <trkpt lat="62.638062668301" lon="17.972739206628">
        <ele>85</ele>
        <time>2017-12-17T13:02:42Z</time>
      </trkpt>
      <trkpt lat="62.638061578654" lon="17.972809363131">
        <ele>85</ele>
        <time>2017-12-17T13:02:43Z</time>
      </trkpt>
      <trkpt lat="62.638064931414" lon="17.972869880449">
        <ele>85.2</ele>
        <time>2017-12-17T13:02:44Z</time>
      </trkpt>
      <trkpt lat="62.638064093224" lon="17.972930062491">
        <ele>85.4</ele>
        <time>2017-12-17T13:02:45Z</time>
      </trkpt>
      <trkpt lat="62.638062333025" lon="17.972989909257">
        <ele>85.6</ele>
        <time>2017-12-17T13:02:46Z</time>
      </trkpt>
      <trkpt lat="62.638067110708" lon="17.973041038847">
        <ele>85.6</ele>
        <time>2017-12-17T13:02:47Z</time>
      </trkpt>
      <trkpt lat="62.638070212011" lon="17.973109351332">
        <ele>85.8</ele>
        <time>2017-12-17T13:02:48Z</time>
      </trkpt>
      <trkpt lat="62.638068367993" lon="17.973171964125">
        <ele>86</ele>
        <time>2017-12-17T13:02:49Z</time>
      </trkpt>
      <trkpt lat="62.638070714925" lon="17.973223428991">
        <ele>86.2</ele>
        <time>2017-12-17T13:02:50Z</time>
      </trkpt>
      <trkpt lat="62.638068284174" lon="17.973286628517">
        <ele>86.4</ele>
        <time>2017-12-17T13:02:51Z</time>
      </trkpt>
      <trkpt lat="62.638067865079" lon="17.973342787247">
        <ele>86.4</ele>
        <time>2017-12-17T13:02:52Z</time>
      </trkpt>
      <trkpt lat="62.638069541459" lon="17.973399281253">
        <ele>86.4</ele>
        <time>2017-12-17T13:02:53Z</time>
      </trkpt>
      <trkpt lat="62.638063422672" lon="17.97345233868">
        <ele>86.8</ele>
        <time>2017-12-17T13:02:54Z</time>
      </trkpt>
      <trkpt lat="62.638065769604" lon="17.973515957301">
        <ele>87</ele>
        <time>2017-12-17T13:02:55Z</time>
      </trkpt>
      <trkpt lat="62.638058225894" lon="17.973577983361">
        <ele>87</ele>
        <time>2017-12-17T13:02:56Z</time>
      </trkpt>
      <trkpt lat="62.638052023288" lon="17.973640177059">
        <ele>87.2</ele>
        <time>2017-12-17T13:02:57Z</time>
      </trkpt>
      <trkpt lat="62.638050598365" lon="17.973707483716">
        <ele>87.2</ele>
        <time>2017-12-17T13:02:58Z</time>
      </trkpt>
      <trkpt lat="62.638051939469" lon="17.97377001269">
        <ele>87.4</ele>
        <time>2017-12-17T13:02:59Z</time>
      </trkpt>
      <trkpt lat="62.638054034944" lon="17.973829607999">
        <ele>87.4</ele>
        <time>2017-12-17T13:03:00Z</time>
      </trkpt>
      <trkpt lat="62.638056549514" lon="17.973899848321">
        <ele>87.4</ele>
        <time>2017-12-17T13:03:01Z</time>
      </trkpt>
      <trkpt lat="62.638060656645" lon="17.973949804445">
        <ele>87.4</ele>
        <time>2017-12-17T13:03:02Z</time>
      </trkpt>
      <trkpt lat="62.638064847595" lon="17.974021972604">
        <ele>87.4</ele>
        <time>2017-12-17T13:03:03Z</time>
      </trkpt>
      <trkpt lat="62.638069960554" lon="17.97409271584">
        <ele>87.4</ele>
        <time>2017-12-17T13:03:04Z</time>
      </trkpt>
      <trkpt lat="62.638072978038" lon="17.974145437991">
        <ele>87.2</ele>
        <time>2017-12-17T13:03:05Z</time>
      </trkpt>
      <trkpt lat="62.638077252807" lon="17.974222886747">
        <ele>87.2</ele>
        <time>2017-12-17T13:03:06Z</time>
      </trkpt>
      <trkpt lat="62.63808286868" lon="17.974278291106">
        <ele>87.4</ele>
        <time>2017-12-17T13:03:07Z</time>
      </trkpt>
      <trkpt lat="62.63808370687" lon="17.974361020459">
        <ele>87.4</ele>
        <time>2017-12-17T13:03:08Z</time>
      </trkpt>
      <trkpt lat="62.638082617223" lon="17.974436625197">
        <ele>87.4</ele>
        <time>2017-12-17T13:03:09Z</time>
      </trkpt>
      <trkpt lat="62.638076833712" lon="17.974516923799">
        <ele>87.4</ele>
        <time>2017-12-17T13:03:10Z</time>
      </trkpt>
      <trkpt lat="62.638067865079" lon="17.974590265424">
        <ele>87.4</ele>
        <time>2017-12-17T13:03:11Z</time>
      </trkpt>
      <trkpt lat="62.638057387704" lon="17.974655728063">
        <ele>87.4</ele>
        <time>2017-12-17T13:03:12Z</time>
      </trkpt>
      <trkpt lat="62.638035343307" lon="17.974734937018">
        <ele>87.2</ele>
        <time>2017-12-17T13:03:13Z</time>
      </trkpt>
      <trkpt lat="62.638025536484" lon="17.974798974734">
        <ele>87.2</ele>
        <time>2017-12-17T13:03:14Z</time>
      </trkpt>
      <trkpt lat="62.638009024141" lon="17.974847338297">
        <ele>87.4</ele>
        <time>2017-12-17T13:03:15Z</time>
      </trkpt>
      <trkpt lat="62.63799318235" lon="17.974899389896">
        <ele>87.2</ele>
        <time>2017-12-17T13:03:16Z</time>
      </trkpt>
      <trkpt lat="62.637978011111" lon="17.97494096412">
        <ele>87.4</ele>
        <time>2017-12-17T13:03:17Z</time>
      </trkpt>
      <trkpt lat="62.63795881656" lon="17.974990836425">
        <ele>87.4</ele>
        <time>2017-12-17T13:03:18Z</time>
      </trkpt>
      <trkpt lat="62.637945237882" lon="17.975034757581">
        <ele>87.6</ele>
        <time>2017-12-17T13:03:19Z</time>
      </trkpt>
      <trkpt lat="62.637926713883" lon="17.975068871914">
        <ele>87.8</ele>
        <time>2017-12-17T13:03:20Z</time>
      </trkpt>
      <trkpt lat="62.637906513504" lon="17.975126539386">
        <ele>88</ele>
        <time>2017-12-17T13:03:21Z</time>
      </trkpt>
      <trkpt lat="62.63789092317" lon="17.975165766678">
        <ele>88</ele>
        <time>2017-12-17T13:03:22Z</time>
      </trkpt>
      <trkpt lat="62.637873488818" lon="17.975206167436">
        <ele>88.2</ele>
        <time>2017-12-17T13:03:23Z</time>
      </trkpt>
      <trkpt lat="62.637860077778" lon="17.975246400556">
        <ele>88.4</ele>
        <time>2017-12-17T13:03:24Z</time>
      </trkpt>
      <trkpt lat="62.637842056693" lon="17.975284370563">
        <ele>88.6</ele>
        <time>2017-12-17T13:03:25Z</time>
      </trkpt>
      <trkpt lat="62.637826047264" lon="17.97532150238">
        <ele>88.8</ele>
        <time>2017-12-17T13:03:26Z</time>
      </trkpt>
      <trkpt lat="62.637809870197" lon="17.975351844858">
        <ele>89</ele>
        <time>2017-12-17T13:03:27Z</time>
      </trkpt>
      <trkpt lat="62.637790256551" lon="17.975381516784">
        <ele>89.2</ele>
        <time>2017-12-17T13:03:28Z</time>
      </trkpt>
      <trkpt lat="62.637775672045" lon="17.975406494846">
        <ele>89.2</ele>
        <time>2017-12-17T13:03:29Z</time>
      </trkpt>
      <trkpt lat="62.637758405331" lon="17.975431556727">
        <ele>89.4</ele>
        <time>2017-12-17T13:03:30Z</time>
      </trkpt>
      <trkpt lat="62.637740551884" lon="17.975449158717">
        <ele>89.4</ele>
        <time>2017-12-17T13:03:31Z</time>
      </trkpt>
      <trkpt lat="62.637726805568" lon="17.975468101811">
        <ele>89.6</ele>
        <time>2017-12-17T13:03:32Z</time>
      </trkpt>
      <trkpt lat="62.637709538854" lon="17.97548914038">
        <ele>89.8</ele>
        <time>2017-12-17T13:03:33Z</time>
      </trkpt>
      <trkpt lat="62.637688584104" lon="17.975503808705">
        <ele>90</ele>
        <time>2017-12-17T13:03:34Z</time>
      </trkpt>
      <trkpt lat="62.637672742313" lon="17.975529122043">
        <ele>90.2</ele>
        <time>2017-12-17T13:03:35Z</time>
      </trkpt>
      <trkpt lat="62.637644411491" lon="17.975548819508">
        <ele>90.4</ele>
        <time>2017-12-17T13:03:36Z</time>
      </trkpt>
      <trkpt lat="62.637618679058" lon="17.975562230548">
        <ele>90.8</ele>
        <time>2017-12-17T13:03:37Z</time>
      </trkpt>
      <trkpt lat="62.637596131747" lon="17.975585951325">
        <ele>91.2</ele>
        <time>2017-12-17T13:03:38Z</time>
      </trkpt>
      <trkpt lat="62.637570566952" lon="17.97559726689">
        <ele>91.2</ele>
        <time>2017-12-17T13:03:39Z</time>
      </trkpt>
      <trkpt lat="62.637550031297" lon="17.975621658219">
        <ele>91.2</ele>
        <time>2017-12-17T13:03:40Z</time>
      </trkpt>
      <trkpt lat="62.637531088203" lon="17.975634817802">
        <ele>91.4</ele>
        <time>2017-12-17T13:03:41Z</time>
      </trkpt>
      <trkpt lat="62.637510049634" lon="17.975641942417">
        <ele>91.6</ele>
        <time>2017-12-17T13:03:42Z</time>
      </trkpt>
      <trkpt lat="62.637492112368" lon="17.975657700389">
        <ele>91.8</ele>
        <time>2017-12-17T13:03:43Z</time>
      </trkpt>
      <trkpt lat="62.637470738523" lon="17.975665747013">
        <ele>92</ele>
        <time>2017-12-17T13:03:44Z</time>
      </trkpt>
      <trkpt lat="62.637452465981" lon="17.975684187193">
        <ele>92.2</ele>
        <time>2017-12-17T13:03:45Z</time>
      </trkpt>
      <trkpt lat="62.637431259774" lon="17.97569533512">
        <ele>92.4</ele>
        <time>2017-12-17T13:03:46Z</time>
      </trkpt>
      <trkpt lat="62.637412484318" lon="17.975710841635">
        <ele>92.4</ele>
        <time>2017-12-17T13:03:47Z</time>
      </trkpt>
      <trkpt lat="62.637388344446" lon="17.975733305127">
        <ele>92.6</ele>
        <time>2017-12-17T13:03:48Z</time>
      </trkpt>
      <trkpt lat="62.637369066076" lon="17.975759121379">
        <ele>92.8</ele>
        <time>2017-12-17T13:03:49Z</time>
      </trkpt>
      <trkpt lat="62.637353391923" lon="17.975776220455">
        <ele>93</ele>
        <time>2017-12-17T13:03:50Z</time>
      </trkpt>
      <trkpt lat="62.637334029734" lon="17.975797678119">
        <ele>93</ele>
        <time>2017-12-17T13:03:51Z</time>
      </trkpt>
      <trkpt lat="62.637323719997" lon="17.975822907638">
        <ele>93.2</ele>
        <time>2017-12-17T13:03:52Z</time>
      </trkpt>
      <trkpt lat="62.637307878206" lon="17.975843108017">
        <ele>93.2</ele>
        <time>2017-12-17T13:03:53Z</time>
      </trkpt>
      <trkpt lat="62.637291952596" lon="17.975869846278">
        <ele>93.4</ele>
        <time>2017-12-17T13:03:54Z</time>
      </trkpt>
      <trkpt lat="62.637280217936" lon="17.975896919815">
        <ele>93.4</ele>
        <time>2017-12-17T13:03:55Z</time>
      </trkpt>
      <trkpt lat="62.637266555439" lon="17.975921394963">
        <ele>93.6</ele>
        <time>2017-12-17T13:03:56Z</time>
      </trkpt>
      <trkpt lat="62.637258844091" lon="17.97595349764">
        <ele>93.8</ele>
        <time>2017-12-17T13:03:57Z</time>
      </trkpt>
      <trkpt lat="62.637245265413" lon="17.975992808751">
        <ele>94</ele>
        <time>2017-12-17T13:03:58Z</time>
      </trkpt>
      <trkpt lat="62.637231100002" lon="17.976031114034">
        <ele>94.2</ele>
        <time>2017-12-17T13:03:59Z</time>
      </trkpt>
      <trkpt lat="62.637220706446" lon="17.976057517019">
        <ele>94.4</ele>
        <time>2017-12-17T13:04:00Z</time>
      </trkpt>
      <trkpt lat="62.637207127768" lon="17.976103030736">
        <ele>94.6</ele>
        <time>2017-12-17T13:04:01Z</time>
      </trkpt>
      <trkpt lat="62.637198159135" lon="17.976134798137">
        <ele>95</ele>
        <time>2017-12-17T13:04:02Z</time>
      </trkpt>
      <trkpt lat="62.637192207986" lon="17.976171594678">
        <ele>95.2</ele>
        <time>2017-12-17T13:04:03Z</time>
      </trkpt>
      <trkpt lat="62.637180221869" lon="17.976213923273">
        <ele>95.2</ele>
        <time>2017-12-17T13:04:04Z</time>
      </trkpt>
      <trkpt lat="62.637168235752" lon="17.976258766438">
        <ele>95.4</ele>
        <time>2017-12-17T13:04:05Z</time>
      </trkpt>
      <trkpt lat="62.637161614051" lon="17.976292042581">
        <ele>95.4</ele>
        <time>2017-12-17T13:04:06Z</time>
      </trkpt>
      <trkpt lat="62.637153148332" lon="17.976328839122">
        <ele>95.6</ele>
        <time>2017-12-17T13:04:07Z</time>
      </trkpt>
      <trkpt lat="62.637146275174" lon="17.976361947627">
        <ele>95.6</ele>
        <time>2017-12-17T13:04:08Z</time>
      </trkpt>
      <trkpt lat="62.63713739036" lon="17.976403270394">
        <ele>95.6</ele>
        <time>2017-12-17T13:04:09Z</time>
      </trkpt>
      <trkpt lat="62.637130601021" lon="17.976449287025">
        <ele>95.8</ele>
        <time>2017-12-17T13:04:10Z</time>
      </trkpt>
      <trkpt lat="62.6371256557" lon="17.976486167385">
        <ele>95.8</ele>
        <time>2017-12-17T13:04:11Z</time>
      </trkpt>
      <trkpt lat="62.637118363447" lon="17.976532016378">
        <ele>95.8</ele>
        <time>2017-12-17T13:04:12Z</time>
      </trkpt>
      <trkpt lat="62.637115681239" lon="17.976580212303">
        <ele>96</ele>
        <time>2017-12-17T13:04:13Z</time>
      </trkpt>
      <trkpt lat="62.637111322651" lon="17.97662991697">
        <ele>96.2</ele>
        <time>2017-12-17T13:04:14Z</time>
      </trkpt>
      <trkpt lat="62.637106293511" lon="17.976679873094">
        <ele>96.2</ele>
        <time>2017-12-17T13:04:15Z</time>
      </trkpt>
      <trkpt lat="62.637104533312" lon="17.976723878069">
        <ele>96.4</ele>
        <time>2017-12-17T13:04:16Z</time>
      </trkpt>
      <trkpt lat="62.637102605475" lon="17.976776767858">
        <ele>96.4</ele>
        <time>2017-12-17T13:04:17Z</time>
      </trkpt>
      <trkpt lat="62.637103443665" lon="17.976833178045">
        <ele>96.4</ele>
        <time>2017-12-17T13:04:18Z</time>
      </trkpt>
      <trkpt lat="62.637101515828" lon="17.976893611544">
        <ele>96.4</ele>
        <time>2017-12-17T13:04:19Z</time>
      </trkpt>
      <trkpt lat="62.637102689294" lon="17.976945327867">
        <ele>96.4</ele>
        <time>2017-12-17T13:04:20Z</time>
      </trkpt>
      <trkpt lat="62.637100426181" lon="17.977001654235">
        <ele>96.4</ele>
        <time>2017-12-17T13:04:21Z</time>
      </trkpt>
      <trkpt lat="62.637099839448" lon="17.977063009743">
        <ele>96.4</ele>
        <time>2017-12-17T13:04:22Z</time>
      </trkpt>
      <trkpt lat="62.637101767285" lon="17.977118917016">
        <ele>96.4</ele>
        <time>2017-12-17T13:04:23Z</time>
      </trkpt>
      <trkpt lat="62.637097073421" lon="17.977194521754">
        <ele>96.4</ele>
        <time>2017-12-17T13:04:24Z</time>
      </trkpt>
      <trkpt lat="62.637093217747" lon="17.977256128719">
        <ele>96.2</ele>
        <time>2017-12-17T13:04:25Z</time>
      </trkpt>
      <trkpt lat="62.637087853331" lon="17.97731136544">
        <ele>96.2</ele>
        <time>2017-12-17T13:04:26Z</time>
      </trkpt>
      <trkpt lat="62.637075029024" lon="17.97737758245">
        <ele>96</ele>
        <time>2017-12-17T13:04:27Z</time>
      </trkpt>
      <trkpt lat="62.637065389839" lon="17.97743793213">
        <ele>96</ele>
        <time>2017-12-17T13:04:28Z</time>
      </trkpt>
      <trkpt lat="62.637053319903" lon="17.977491241014">
        <ele>96</ele>
        <time>2017-12-17T13:04:29Z</time>
      </trkpt>
      <trkpt lat="62.637036472284" lon="17.977555111092">
        <ele>96.2</ele>
        <time>2017-12-17T13:04:30Z</time>
      </trkpt>
      <trkpt lat="62.637026916918" lon="17.977604899578">
        <ele>96.2</ele>
        <time>2017-12-17T13:04:31Z</time>
      </trkpt>
      <trkpt lat="62.637013505878" lon="17.977663069964">
        <ele>96.2</ele>
        <time>2017-12-17T13:04:32Z</time>
      </trkpt>
      <trkpt lat="62.637000681571" lon="17.977725096024">
        <ele>96.4</ele>
        <time>2017-12-17T13:04:33Z</time>
      </trkpt>
      <trkpt lat="62.636991880576" lon="17.977775806519">
        <ele>96.4</ele>
        <time>2017-12-17T13:04:34Z</time>
      </trkpt>
      <trkpt lat="62.63698903073" lon="17.977830959421">
        <ele>96.4</ele>
        <time>2017-12-17T13:04:35Z</time>
      </trkpt>
      <trkpt lat="62.636988024902" lon="17.977905809788">
        <ele>96.4</ele>
        <time>2017-12-17T13:04:36Z</time>
      </trkpt>
      <trkpt lat="62.636984504504" lon="17.977970098961">
        <ele>96.4</ele>
        <time>2017-12-17T13:04:37Z</time>
      </trkpt>
      <trkpt lat="62.636977044613" lon="17.978038579084">
        <ele>96.4</ele>
        <time>2017-12-17T13:04:38Z</time>
      </trkpt>
      <trkpt lat="62.636966986333" lon="17.97810429318">
        <ele>96.6</ele>
        <time>2017-12-17T13:04:39Z</time>
      </trkpt>
      <trkpt lat="62.636954832578" lon="17.978169923457">
        <ele>96.8</ele>
        <time>2017-12-17T13:04:40Z</time>
      </trkpt>
      <trkpt lat="62.636942259728" lon="17.978226249825">
        <ele>96.8</ele>
        <time>2017-12-17T13:04:41Z</time>
      </trkpt>
      <trkpt lat="62.636930608887" lon="17.9782786367">
        <ele>97</ele>
        <time>2017-12-17T13:04:42Z</time>
      </trkpt>
      <trkpt lat="62.636913342173" lon="17.978330855937">
        <ele>97</ele>
        <time>2017-12-17T13:04:43Z</time>
      </trkpt>
      <trkpt lat="62.636901272237" lon="17.978381566432">
        <ele>97</ele>
        <time>2017-12-17T13:04:44Z</time>
      </trkpt>
      <trkpt lat="62.636880485125" lon="17.978423895027">
        <ele>97</ele>
        <time>2017-12-17T13:04:45Z</time>
      </trkpt>
      <trkpt lat="62.636869253379" lon="17.978478293558">
        <ele>97.2</ele>
        <time>2017-12-17T13:04:46Z</time>
      </trkpt>
      <trkpt lat="62.636853579226" lon="17.978502852525">
        <ele>97.2</ele>
        <time>2017-12-17T13:04:47Z</time>
      </trkpt>
      <trkpt lat="62.636831786286" lon="17.978558256884">
        <ele>97.2</ele>
        <time>2017-12-17T13:04:48Z</time>
      </trkpt>
      <trkpt lat="62.636813932839" lon="17.978586839163">
        <ele>97.2</ele>
        <time>2017-12-17T13:04:49Z</time>
      </trkpt>
      <trkpt lat="62.636794486831" lon="17.978628245749">
        <ele>97.2</ele>
        <time>2017-12-17T13:04:50Z</time>
      </trkpt>
      <trkpt lat="62.636775208461" lon="17.978660096969">
        <ele>97.2</ele>
        <time>2017-12-17T13:04:51Z</time>
      </trkpt>
      <trkpt lat="62.636754086073" lon="17.978681135538">
        <ele>97.2</ele>
        <time>2017-12-17T13:04:52Z</time>
      </trkpt>
      <trkpt lat="62.636737070816" lon="17.978707370885">
        <ele>97.2</ele>
        <time>2017-12-17T13:04:53Z</time>
      </trkpt>
      <trkpt lat="62.636713098582" lon="17.978726900712">
        <ele>97.2</ele>
        <time>2017-12-17T13:04:54Z</time>
      </trkpt>
      <trkpt lat="62.636689042529" lon="17.978751627317">
        <ele>97.4</ele>
        <time>2017-12-17T13:04:55Z</time>
      </trkpt>
      <trkpt lat="62.636665740847" lon="17.978766128004">
        <ele>97.4</ele>
        <time>2017-12-17T13:04:56Z</time>
      </trkpt>
      <trkpt lat="62.636642774441" lon="17.978770486592">
        <ele>97.4</ele>
        <time>2017-12-17T13:04:57Z</time>
      </trkpt>
      <trkpt lat="62.636621484415" lon="17.978782053614">
        <ele>97.6</ele>
        <time>2017-12-17T13:04:58Z</time>
      </trkpt>
      <trkpt lat="62.636598937104" lon="17.978778365578">
        <ele>97.8</ele>
        <time>2017-12-17T13:04:59Z</time>
      </trkpt>
      <trkpt lat="62.63657915582" lon="17.978787501849">
        <ele>98</ele>
        <time>2017-12-17T13:05:00Z</time>
      </trkpt>
      <trkpt lat="62.636555351224" lon="17.978783310899">
        <ele>98.2</ele>
        <time>2017-12-17T13:05:01Z</time>
      </trkpt>
      <trkpt lat="62.636535318483" lon="17.978791525161">
        <ele>98.2</ele>
        <time>2017-12-17T13:05:02Z</time>
      </trkpt>
      <trkpt lat="62.636513190267" lon="17.978787166573">
        <ele>98.4</ele>
        <time>2017-12-17T13:05:03Z</time>
      </trkpt>
      <trkpt lat="62.636492319336" lon="17.978787334211">
        <ele>98.4</ele>
        <time>2017-12-17T13:05:04Z</time>
      </trkpt>
      <trkpt lat="62.636474298251" lon="17.978786412202">
        <ele>98.6</ele>
        <time>2017-12-17T13:05:05Z</time>
      </trkpt>
      <trkpt lat="62.636451415664" lon="17.978785154917">
        <ele>98.6</ele>
        <time>2017-12-17T13:05:06Z</time>
      </trkpt>
      <trkpt lat="62.636435406235" lon="17.978792195713">
        <ele>98.8</ele>
        <time>2017-12-17T13:05:07Z</time>
      </trkpt>
      <trkpt lat="62.636415457313" lon="17.978792950084">
        <ele>99</ele>
        <time>2017-12-17T13:05:08Z</time>
      </trkpt>
      <trkpt lat="62.636400286074" lon="17.978801164346">
        <ele>99</ele>
        <time>2017-12-17T13:05:09Z</time>
      </trkpt>
      <trkpt lat="62.636381007704" lon="17.978802002536">
        <ele>99.2</ele>
        <time>2017-12-17T13:05:10Z</time>
      </trkpt>
      <trkpt lat="62.636363070438" lon="17.978805187658">
        <ele>99.4</ele>
        <time>2017-12-17T13:05:11Z</time>
      </trkpt>
      <trkpt lat="62.636348150656" lon="17.978817844327">
        <ele>99.4</ele>
        <time>2017-12-17T13:05:12Z</time>
      </trkpt>
      <trkpt lat="62.636331303037" lon="17.978822035277">
        <ele>99.6</ele>
        <time>2017-12-17T13:05:13Z</time>
      </trkpt>
      <trkpt lat="62.63631764054" lon="17.978831674462">
        <ele>100</ele>
        <time>2017-12-17T13:05:14Z</time>
      </trkpt>
      <trkpt lat="62.636303056034" lon="17.978847097158">
        <ele>100.2</ele>
        <time>2017-12-17T13:05:15Z</time>
      </trkpt>
      <trkpt lat="62.636286962786" lon="17.978858077447">
        <ele>100.4</ele>
        <time>2017-12-17T13:05:16Z</time>
      </trkpt>
      <trkpt lat="62.636275982497" lon="17.978873081048">
        <ele>100.6</ele>
        <time>2017-12-17T13:05:17Z</time>
      </trkpt>
      <trkpt lat="62.636257374679" lon="17.978894119617">
        <ele>100.8</ele>
        <time>2017-12-17T13:05:18Z</time>
      </trkpt>
      <trkpt lat="62.636239437413" lon="17.978907865933">
        <ele>101</ele>
        <time>2017-12-17T13:05:19Z</time>
      </trkpt>
      <trkpt lat="62.636229965866" lon="17.978927898674">
        <ele>101.2</ele>
        <time>2017-12-17T13:05:20Z</time>
      </trkpt>
      <trkpt lat="62.636215632817" lon="17.978950194528">
        <ele>101.4</ele>
        <time>2017-12-17T13:05:21Z</time>
      </trkpt>
      <trkpt lat="62.636206748003" lon="17.978967293604">
        <ele>101.6</ele>
        <time>2017-12-17T13:05:22Z</time>
      </trkpt>
      <trkpt lat="62.636198449922" lon="17.978985566146">
        <ele>101.6</ele>
        <time>2017-12-17T13:05:23Z</time>
      </trkpt>
      <trkpt lat="62.636186966719" lon="17.979002246127">
        <ele>101.6</ele>
        <time>2017-12-17T13:05:24Z</time>
      </trkpt>
      <trkpt lat="62.636177411353" lon="17.979020183393">
        <ele>102</ele>
        <time>2017-12-17T13:05:25Z</time>
      </trkpt>
      <trkpt lat="62.636169951462" lon="17.979026972732">
        <ele>102.2</ele>
        <time>2017-12-17T13:05:26Z</time>
      </trkpt>
      <trkpt lat="62.636154947861" lon="17.979042395428">
        <ele>102.6</ele>
        <time>2017-12-17T13:05:27Z</time>
      </trkpt>
      <trkpt lat="62.636138351699" lon="17.979072737906">
        <ele>103</ele>
        <time>2017-12-17T13:05:28Z</time>
      </trkpt>
      <trkpt lat="62.636126617039" lon="17.979093692656">
        <ele>103.4</ele>
        <time>2017-12-17T13:05:29Z</time>
      </trkpt>
      <trkpt lat="62.636116977854" lon="17.97910509204">
        <ele>103.8</ele>
        <time>2017-12-17T13:05:30Z</time>
      </trkpt>
      <trkpt lat="62.636104153547" lon="17.979129818645">
        <ele>104.2</ele>
        <time>2017-12-17T13:05:31Z</time>
      </trkpt>
      <trkpt lat="62.636093340896" lon="17.979160999313">
        <ele>104.4</ele>
        <time>2017-12-17T13:05:32Z</time>
      </trkpt>
      <trkpt lat="62.636082612064" lon="17.979195281284">
        <ele>104.6</ele>
        <time>2017-12-17T13:05:33Z</time>
      </trkpt>
      <trkpt lat="62.636069620119" lon="17.979232580739">
        <ele>104.8</ele>
        <time>2017-12-17T13:05:34Z</time>
      </trkpt>
      <trkpt lat="62.636061908771" lon="17.979269293461">
        <ele>105</ele>
        <time>2017-12-17T13:05:35Z</time>
      </trkpt>
      <trkpt lat="62.636049000645" lon="17.979322937621">
        <ele>105</ele>
        <time>2017-12-17T13:05:36Z</time>
      </trkpt>
      <trkpt lat="62.63603852327" lon="17.979374821582">
        <ele>105.2</ele>
        <time>2017-12-17T13:05:37Z</time>
      </trkpt>
      <trkpt lat="62.636031733931" lon="17.979431064131">
        <ele>105.2</ele>
        <time>2017-12-17T13:05:38Z</time>
      </trkpt>
      <trkpt lat="62.636022849117" lon="17.979510105448">
        <ele>105.2</ele>
        <time>2017-12-17T13:05:39Z</time>
      </trkpt>
      <trkpt lat="62.636016143597" lon="17.979591912792">
        <ele>105.2</ele>
        <time>2017-12-17T13:05:40Z</time>
      </trkpt>
      <trkpt lat="62.636007761697" lon="17.979689226651">
        <ele>105.2</ele>
        <time>2017-12-17T13:05:41Z</time>
      </trkpt>
      <trkpt lat="62.636003235471" lon="17.9798292882">
        <ele>105.2</ele>
        <time>2017-12-17T13:05:42Z</time>
      </trkpt>
      <trkpt lat="62.63600331929" lon="17.979986281187">
        <ele>104.4</ele>
        <time>2017-12-17T13:05:43Z</time>
      </trkpt>
      <trkpt lat="62.636012874656" lon="17.98013774212">
        <ele>103.4</ele>
        <time>2017-12-17T13:05:44Z</time>
      </trkpt>
      <trkpt lat="62.63602678861" lon="17.980289873605">
        <ele>102.4</ele>
        <time>2017-12-17T13:05:45Z</time>
      </trkpt>
      <trkpt lat="62.636046234618" lon="17.980441753633">
        <ele>101.2</ele>
        <time>2017-12-17T13:05:46Z</time>
      </trkpt>
      <trkpt lat="62.63606702173" lon="17.980574103834">
        <ele>100.2</ele>
        <time>2017-12-17T13:05:47Z</time>
      </trkpt>
      <trkpt lat="62.636094514362" lon="17.980725061853">
        <ele>99.6</ele>
        <time>2017-12-17T13:05:48Z</time>
      </trkpt>
      <trkpt lat="62.636119660062" lon="17.980858417882">
        <ele>99.2</ele>
        <time>2017-12-17T13:05:49Z</time>
      </trkpt>
      <trkpt lat="62.636145057219" lon="17.980986074219">
        <ele>99</ele>
        <time>2017-12-17T13:05:50Z</time>
      </trkpt>
      <trkpt lat="62.636172717489" lon="17.981134769125">
        <ele>98.8</ele>
        <time>2017-12-17T13:05:51Z</time>
      </trkpt>
      <trkpt lat="62.636186966719" lon="17.981264353299">
        <ele>98.6</ele>
        <time>2017-12-17T13:05:52Z</time>
      </trkpt>
      <trkpt lat="62.63619777937" lon="17.981393937473">
        <ele>98.4</ele>
        <time>2017-12-17T13:05:53Z</time>
      </trkpt>
      <trkpt lat="62.636208592021" lon="17.981528131692">
        <ele>98.2</ele>
        <time>2017-12-17T13:05:54Z</time>
      </trkpt>
      <trkpt lat="62.636220578138" lon="17.981651010346">
        <ele>98</ele>
        <time>2017-12-17T13:05:55Z</time>
      </trkpt>
      <trkpt lat="62.63623465973" lon="17.981767602575">
        <ele>97.8</ele>
        <time>2017-12-17T13:05:56Z</time>
      </trkpt>
      <trkpt lat="62.63624471801" lon="17.981880674406">
        <ele>97.6</ele>
        <time>2017-12-17T13:05:57Z</time>
      </trkpt>
      <trkpt lat="62.636253854281" lon="17.981993075685">
        <ele>97.4</ele>
        <time>2017-12-17T13:05:58Z</time>
      </trkpt>
      <trkpt lat="62.636262236181" lon="17.98209826853">
        <ele>97.4</ele>
        <time>2017-12-17T13:05:59Z</time>
      </trkpt>
      <trkpt lat="62.636263409647" lon="17.982192816362">
        <ele>97.4</ele>
        <time>2017-12-17T13:06:00Z</time>
      </trkpt>
      <trkpt lat="62.636266091855" lon="17.982297338655">
        <ele>97.4</ele>
        <time>2017-12-17T13:06:01Z</time>
      </trkpt>
      <trkpt lat="62.636268019692" lon="17.982381492931">
        <ele>97.2</ele>
        <time>2017-12-17T13:06:02Z</time>
      </trkpt>
      <trkpt lat="62.636262152362" lon="17.982477298048">
        <ele>97.2</ele>
        <time>2017-12-17T13:06:03Z</time>
      </trkpt>
      <trkpt lat="62.636263744923" lon="17.982565559455">
        <ele>97.2</ele>
        <time>2017-12-17T13:06:04Z</time>
      </trkpt>
      <trkpt lat="62.63626567276" lon="17.982640074546">
        <ele>97.4</ele>
        <time>2017-12-17T13:06:05Z</time>
      </trkpt>
      <trkpt lat="62.636270282805" lon="17.982737220767">
        <ele>97.6</ele>
        <time>2017-12-17T13:06:06Z</time>
      </trkpt>
      <trkpt lat="62.636273467927" lon="17.982814753342">
        <ele>97.8</ele>
        <time>2017-12-17T13:06:07Z</time>
      </trkpt>
      <trkpt lat="62.636269696072" lon="17.982900332541">
        <ele>98.2</ele>
        <time>2017-12-17T13:06:08Z</time>
      </trkpt>
      <trkpt lat="62.636267013864" lon="17.982976607831">
        <ele>98.6</ele>
        <time>2017-12-17T13:06:09Z</time>
      </trkpt>
      <trkpt lat="62.636277658877" lon="17.983046596696">
        <ele>98.8</ele>
        <time>2017-12-17T13:06:10Z</time>
      </trkpt>
      <trkpt lat="62.636283693845" lon="17.983112813706">
        <ele>98.8</ele>
        <time>2017-12-17T13:06:11Z</time>
      </trkpt>
      <trkpt lat="62.636288136252" lon="17.983173917757">
        <ele>98.8</ele>
        <time>2017-12-17T13:06:12Z</time>
      </trkpt>
      <trkpt lat="62.636289309718" lon="17.983252037065">
        <ele>99</ele>
        <time>2017-12-17T13:06:13Z</time>
      </trkpt>
      <trkpt lat="62.636289225899" lon="17.983324456681">
        <ele>99</ele>
        <time>2017-12-17T13:06:14Z</time>
      </trkpt>
      <trkpt lat="62.63628998027" lon="17.983373323158">
        <ele>99</ele>
        <time>2017-12-17T13:06:15Z</time>
      </trkpt>
      <trkpt lat="62.636284615854" lon="17.983442809109">
        <ele>99</ele>
        <time>2017-12-17T13:06:16Z</time>
      </trkpt>
      <trkpt lat="62.63628076018" lon="17.983501063314">
        <ele>99</ele>
        <time>2017-12-17T13:06:17Z</time>
      </trkpt>
      <trkpt lat="62.636275898678" lon="17.983560742442">
        <ele>99.2</ele>
        <time>2017-12-17T13:06:18Z</time>
      </trkpt>
      <trkpt lat="62.63626818733" lon="17.98361623062">
        <ele>99.2</ele>
        <time>2017-12-17T13:06:19Z</time>
      </trkpt>
      <trkpt lat="62.636260559801" lon="17.983672976083">
        <ele>99.2</ele>
        <time>2017-12-17T13:06:20Z</time>
      </trkpt>
      <trkpt lat="62.636256033575" lon="17.983728883356">
        <ele>99.2</ele>
        <time>2017-12-17T13:06:21Z</time>
      </trkpt>
      <trkpt lat="62.636248657503" lon="17.983789903588">
        <ele>99.4</ele>
        <time>2017-12-17T13:06:22Z</time>
      </trkpt>
      <trkpt lat="62.636241029974" lon="17.98385595296">
        <ele>99.6</ele>
        <time>2017-12-17T13:06:23Z</time>
      </trkpt>
      <trkpt lat="62.636237593395" lon="17.983904232704">
        <ele>99.6</ele>
        <time>2017-12-17T13:06:24Z</time>
      </trkpt>
      <trkpt lat="62.636226529287" lon="17.983967599868">
        <ele>99.8</ele>
        <time>2017-12-17T13:06:25Z</time>
      </trkpt>
      <trkpt lat="62.636220829595" lon="17.984014873784">
        <ele>100</ele>
        <time>2017-12-17T13:06:26Z</time>
      </trkpt>
      <trkpt lat="62.636215213722" lon="17.984059046397">
        <ele>100</ele>
        <time>2017-12-17T13:06:27Z</time>
      </trkpt>
      <trkpt lat="62.636208172926" lon="17.984120066629">
        <ele>100</ele>
        <time>2017-12-17T13:06:28Z</time>
      </trkpt>
      <trkpt lat="62.636207502374" lon="17.984165328889">
        <ele>100.2</ele>
        <time>2017-12-17T13:06:29Z</time>
      </trkpt>
      <trkpt lat="62.636203395243" lon="17.984223834551">
        <ele>100.2</ele>
        <time>2017-12-17T13:06:30Z</time>
      </trkpt>
      <trkpt lat="62.636198198465" lon="17.984277813987">
        <ele>100.4</ele>
        <time>2017-12-17T13:06:31Z</time>
      </trkpt>
      <trkpt lat="62.636193169325" lon="17.984332296337">
        <ele>100.6</ele>
        <time>2017-12-17T13:06:32Z</time>
      </trkpt>
      <trkpt lat="62.636185541796" lon="17.984393065112">
        <ele>100.8</ele>
        <time>2017-12-17T13:06:33Z</time>
      </trkpt>
      <trkpt lat="62.636183278683" lon="17.984446206358">
        <ele>100.8</ele>
        <time>2017-12-17T13:06:34Z</time>
      </trkpt>
      <trkpt lat="62.636178333362" lon="17.984496497758">
        <ele>100.8</ele>
        <time>2017-12-17T13:06:35Z</time>
      </trkpt>
      <trkpt lat="62.636179590647" lon="17.984553243221">
        <ele>100.8</ele>
        <time>2017-12-17T13:06:36Z</time>
      </trkpt>
      <trkpt lat="62.636179087733" lon="17.984604205173">
        <ele>100.8</ele>
        <time>2017-12-17T13:06:37Z</time>
      </trkpt>
      <trkpt lat="62.636182524312" lon="17.984646030854">
        <ele>100.8</ele>
        <time>2017-12-17T13:06:38Z</time>
      </trkpt>
      <trkpt lat="62.636176740801" lon="17.984695064969">
        <ele>101</ele>
        <time>2017-12-17T13:06:39Z</time>
      </trkpt>
      <trkpt lat="62.636178165724" lon="17.98473856703">
        <ele>101</ele>
        <time>2017-12-17T13:06:40Z</time>
      </trkpt>
      <trkpt lat="62.636171879299" lon="17.984791121543">
        <ele>101.2</ele>
        <time>2017-12-17T13:06:41Z</time>
      </trkpt>
      <trkpt lat="62.636168694177" lon="17.984847447911">
        <ele>101.4</ele>
        <time>2017-12-17T13:06:42Z</time>
      </trkpt>
      <trkpt lat="62.636163078304" lon="17.984898828958">
        <ele>101.4</ele>
        <time>2017-12-17T13:06:43Z</time>
      </trkpt>
      <trkpt lat="62.636160144639" lon="17.984949036539">
        <ele>101.6</ele>
        <time>2017-12-17T13:06:44Z</time>
      </trkpt>
      <trkpt lat="62.636159138811" lon="17.984996394274">
        <ele>101.6</ele>
        <time>2017-12-17T13:06:45Z</time>
      </trkpt>
      <trkpt lat="62.636156205146" lon="17.98505037371">
        <ele>101.6</ele>
        <time>2017-12-17T13:06:46Z</time>
      </trkpt>
      <trkpt lat="62.636156875698" lon="17.985092115572">
        <ele>101.8</ele>
        <time>2017-12-17T13:06:47Z</time>
      </trkpt>
      <trkpt lat="62.636155450775" lon="17.985167133577">
        <ele>101.8</ele>
        <time>2017-12-17T13:06:48Z</time>
      </trkpt>
      <trkpt lat="62.636153522938" lon="17.985208875439">
        <ele>102</ele>
        <time>2017-12-17T13:06:49Z</time>
      </trkpt>
      <trkpt lat="62.636151176006" lon="17.985255981717">
        <ele>102.2</ele>
        <time>2017-12-17T13:06:50Z</time>
      </trkpt>
      <trkpt lat="62.636148493798" lon="17.985307362764">
        <ele>102.2</ele>
        <time>2017-12-17T13:06:51Z</time>
      </trkpt>
      <trkpt lat="62.636145392495" lon="17.985345919504">
        <ele>102.4</ele>
        <time>2017-12-17T13:06:52Z</time>
      </trkpt>
      <trkpt lat="62.636141033907" lon="17.985396797637">
        <ele>102.4</ele>
        <time>2017-12-17T13:06:53Z</time>
      </trkpt>
      <trkpt lat="62.636140698631" lon="17.985443233363">
        <ele>102.6</ele>
        <time>2017-12-17T13:06:54Z</time>
      </trkpt>
      <trkpt lat="62.636133657835" lon="17.985506516708">
        <ele>102.4</ele>
        <time>2017-12-17T13:06:55Z</time>
      </trkpt>
      <trkpt lat="62.636127622867" lon="17.985559071221">
        <ele>102.4</ele>
        <time>2017-12-17T13:06:56Z</time>
      </trkpt>
      <trkpt lat="62.63611228399" lon="17.985613134476">
        <ele>102.4</ele>
        <time>2017-12-17T13:06:57Z</time>
      </trkpt>
      <trkpt lat="62.636100297873" lon="17.985675831088">
        <ele>102.6</ele>
        <time>2017-12-17T13:06:58Z</time>
      </trkpt>
      <trkpt lat="62.636088982308" lon="17.985716483303">
        <ele>102.6</ele>
        <time>2017-12-17T13:06:59Z</time>
      </trkpt>
      <trkpt lat="62.636075738906" lon="17.985754369491">
        <ele>102.4</ele>
        <time>2017-12-17T13:07:00Z</time>
      </trkpt>
      <trkpt lat="62.636076996191" lon="17.985793512964">
        <ele>102.6</ele>
        <time>2017-12-17T13:07:01Z</time>
      </trkpt>
      <trkpt lat="62.636069201024" lon="17.985831315333">
        <ele>102.6</ele>
        <time>2017-12-17T13:07:02Z</time>
      </trkpt>
      <trkpt lat="62.636055203251" lon="17.98586509439">
        <ele>102.8</ele>
        <time>2017-12-17T13:07:03Z</time>
      </trkpt>
      <trkpt lat="62.636038104175" lon="17.985892167927">
        <ele>102.8</ele>
        <time>2017-12-17T13:07:04Z</time>
      </trkpt>
      <trkpt lat="62.636023854945" lon="17.985912284487">
        <ele>103</ele>
        <time>2017-12-17T13:07:05Z</time>
      </trkpt>
      <trkpt lat="62.636006588231" lon="17.985936675816">
        <ele>103</ele>
        <time>2017-12-17T13:07:06Z</time>
      </trkpt>
      <trkpt lat="62.635986723128" lon="17.985947069372">
        <ele>103.2</ele>
        <time>2017-12-17T13:07:07Z</time>
      </trkpt>
      <trkpt lat="62.635967193301" lon="17.985968694674">
        <ele>103.4</ele>
        <time>2017-12-17T13:07:08Z</time>
      </trkpt>
      <trkpt lat="62.63594296961" lon="17.985983027723">
        <ele>103.6</ele>
        <time>2017-12-17T13:07:09Z</time>
      </trkpt>
      <trkpt lat="62.635921092851" lon="17.986008843975">
        <ele>103.6</ele>
        <time>2017-12-17T13:07:10Z</time>
      </trkpt>
      <trkpt lat="62.63590273649" lon="17.986022590291">
        <ele>103.8</ele>
        <time>2017-12-17T13:07:11Z</time>
      </trkpt>
      <trkpt lat="62.635880272998" lon="17.98605284895">
        <ele>104</ele>
        <time>2017-12-17T13:07:12Z</time>
      </trkpt>
      <trkpt lat="62.635860072619" lon="17.986083275247">
        <ele>104</ele>
        <time>2017-12-17T13:07:13Z</time>
      </trkpt>
      <trkpt lat="62.635836268023" lon="17.986106074015">
        <ele>104</ele>
        <time>2017-12-17T13:07:14Z</time>
      </trkpt>
      <trkpt lat="62.635818498395" lon="17.986141864728">
        <ele>104</ele>
        <time>2017-12-17T13:07:15Z</time>
      </trkpt>
      <trkpt lat="62.635801818414" lon="17.986169524998">
        <ele>104</ele>
        <time>2017-12-17T13:07:16Z</time>
      </trkpt>
      <trkpt lat="62.635788994107" lon="17.986194251603">
        <ele>104.2</ele>
        <time>2017-12-17T13:07:17Z</time>
      </trkpt>
      <trkpt lat="62.635772733221" lon="17.986227443927">
        <ele>104.2</ele>
        <time>2017-12-17T13:07:18Z</time>
      </trkpt>
      <trkpt lat="62.635759406" lon="17.986251583799">
        <ele>104.2</ele>
        <time>2017-12-17T13:07:19Z</time>
      </trkpt>
      <trkpt lat="62.635743061295" lon="17.986286117227">
        <ele>104.2</ele>
        <time>2017-12-17T13:07:20Z</time>
      </trkpt>
      <trkpt lat="62.635729147341" lon="17.986318890456">
        <ele>104.6</ele>
        <time>2017-12-17T13:07:21Z</time>
      </trkpt>
      <trkpt lat="62.635713054093" lon="17.986355267902">
        <ele>104.8</ele>
        <time>2017-12-17T13:07:22Z</time>
      </trkpt>
      <trkpt lat="62.635695200646" lon="17.986386783846">
        <ele>105</ele>
        <time>2017-12-17T13:07:23Z</time>
      </trkpt>
      <trkpt lat="62.635676341371" lon="17.98643590178">
        <ele>105.2</ele>
        <time>2017-12-17T13:07:24Z</time>
      </trkpt>
      <trkpt lat="62.63565798501" lon="17.986469010285">
        <ele>105.2</ele>
        <time>2017-12-17T13:07:25Z</time>
      </trkpt>
      <trkpt lat="62.635647423816" lon="17.986517960581">
        <ele>105.2</ele>
        <time>2017-12-17T13:07:26Z</time>
      </trkpt>
      <trkpt lat="62.635639963925" lon="17.986567078515">
        <ele>105.4</ele>
        <time>2017-12-17T13:07:27Z</time>
      </trkpt>
      <trkpt lat="62.635620769374" lon="17.986578813175">
        <ele>105.4</ele>
        <time>2017-12-17T13:07:28Z</time>
      </trkpt>
      <trkpt lat="62.635601407185" lon="17.986621560865">
        <ele>105.4</ele>
        <time>2017-12-17T13:07:29Z</time>
      </trkpt>
      <trkpt lat="62.635586319765" lon="17.986667158401">
        <ele>105.4</ele>
        <time>2017-12-17T13:07:30Z</time>
      </trkpt>
      <trkpt lat="62.635568131042" lon="17.986699177259">
        <ele>105.4</ele>
        <time>2017-12-17T13:07:31Z</time>
      </trkpt>
      <trkpt lat="62.635554300907" lon="17.986734884153">
        <ele>105.4</ele>
        <time>2017-12-17T13:07:32Z</time>
      </trkpt>
      <trkpt lat="62.635542817704" lon="17.986770004314">
        <ele>105.4</ele>
        <time>2017-12-17T13:07:33Z</time>
      </trkpt>
      <trkpt lat="62.635523455515" lon="17.986799005688">
        <ele>105.6</ele>
        <time>2017-12-17T13:07:34Z</time>
      </trkpt>
      <trkpt lat="62.635513564873" lon="17.986830353994">
        <ele>105.8</ele>
        <time>2017-12-17T13:07:35Z</time>
      </trkpt>
      <trkpt lat="62.635495543788" lon="17.986876035349">
        <ele>106</ele>
        <time>2017-12-17T13:07:36Z</time>
      </trkpt>
      <trkpt lat="62.63548112692" lon="17.986910568777">
        <ele>106.2</ele>
        <time>2017-12-17T13:07:37Z</time>
      </trkpt>
      <trkpt lat="62.635468302613" lon="17.986959351435">
        <ele>106.2</ele>
        <time>2017-12-17T13:07:38Z</time>
      </trkpt>
      <trkpt lat="62.635454053383" lon="17.986990448284">
        <ele>106.2</ele>
        <time>2017-12-17T13:07:39Z</time>
      </trkpt>
      <trkpt lat="62.63543502647" lon="17.987026155178">
        <ele>106.2</ele>
        <time>2017-12-17T13:07:40Z</time>
      </trkpt>
      <trkpt lat="62.635423459448" lon="17.987058844588">
        <ele>106.2</ele>
        <time>2017-12-17T13:07:41Z</time>
      </trkpt>
      <trkpt lat="62.635405606001" lon="17.987093461835">
        <ele>106.2</ele>
        <time>2017-12-17T13:07:42Z</time>
      </trkpt>
      <trkpt lat="62.635386746726" lon="17.987139646104">
        <ele>106.4</ele>
        <time>2017-12-17T13:07:43Z</time>
      </trkpt>
      <trkpt lat="62.635368893279" lon="17.987179879224">
        <ele>106.6</ele>
        <time>2017-12-17T13:07:44Z</time>
      </trkpt>
      <trkpt lat="62.635350034004" lon="17.987235954135">
        <ele>106.8</ele>
        <time>2017-12-17T13:07:45Z</time>
      </trkpt>
      <trkpt lat="62.635331174729" lon="17.987273505047">
        <ele>107</ele>
        <time>2017-12-17T13:07:46Z</time>
      </trkpt>
      <trkpt lat="62.635313908015" lon="17.98731683947">
        <ele>107.2</ele>
        <time>2017-12-17T13:07:47Z</time>
      </trkpt>
      <trkpt lat="62.635288259401" lon="17.987381631557">
        <ele>107.2</ele>
        <time>2017-12-17T13:07:48Z</time>
      </trkpt>
      <trkpt lat="62.635261604959" lon="17.987422116134">
        <ele>107.4</ele>
        <time>2017-12-17T13:07:49Z</time>
      </trkpt>
      <trkpt lat="62.635247858643" lon="17.987471736982">
        <ele>107.6</ele>
        <time>2017-12-17T13:07:50Z</time>
      </trkpt>
      <trkpt lat="62.635227322988" lon="17.987495876854">
        <ele>107.8</ele>
        <time>2017-12-17T13:07:51Z</time>
      </trkpt>
      <trkpt lat="62.63521374431" lon="17.987526470789">
        <ele>107.8</ele>
        <time>2017-12-17T13:07:52Z</time>
      </trkpt>
      <trkpt lat="62.63519530413" lon="17.987556813267">
        <ele>107.8</ele>
        <time>2017-12-17T13:07:53Z</time>
      </trkpt>
      <trkpt lat="62.635177618321" lon="17.987603165174">
        <ele>108</ele>
        <time>2017-12-17T13:07:54Z</time>
      </trkpt>
      <trkpt lat="62.6351559092" lon="17.987631831272">
        <ele>108</ele>
        <time>2017-12-17T13:07:55Z</time>
      </trkpt>
      <trkpt lat="62.635137133744" lon="17.987677931722">
        <ele>108</ele>
        <time>2017-12-17T13:07:56Z</time>
      </trkpt>
      <trkpt lat="62.63512405798" lon="17.98770743601">
        <ele>108.2</ele>
        <time>2017-12-17T13:07:57Z</time>
      </trkpt>
      <trkpt lat="62.635099918108" lon="17.987749177872">
        <ele>108.4</ele>
        <time>2017-12-17T13:07:58Z</time>
      </trkpt>
      <trkpt lat="62.635090949475" lon="17.98778706406">
        <ele>108.4</ele>
        <time>2017-12-17T13:07:59Z</time>
      </trkpt>
      <trkpt lat="62.635066641965" lon="17.987823776782">
        <ele>108.4</ele>
        <time>2017-12-17T13:08:00Z</time>
      </trkpt>
      <trkpt lat="62.635053733839" lon="17.987864764273">
        <ele>108.6</ele>
        <time>2017-12-17T13:08:01Z</time>
      </trkpt>
      <trkpt lat="62.635027749949" lon="17.987891921629">
        <ele>108.8</ele>
        <time>2017-12-17T13:08:02Z</time>
      </trkpt>
      <trkpt lat="62.635009477407" lon="17.987928466713">
        <ele>108.8</ele>
        <time>2017-12-17T13:08:03Z</time>
      </trkpt>
      <trkpt lat="62.634988019743" lon="17.98794632016">
        <ele>108.8</ele>
        <time>2017-12-17T13:08:04Z</time>
      </trkpt>
      <trkpt lat="62.634968489916" lon="17.987972890783">
        <ele>109</ele>
        <time>2017-12-17T13:08:05Z</time>
      </trkpt>
      <trkpt lat="62.634948624813" lon="17.987995354275">
        <ele>109.2</ele>
        <time>2017-12-17T13:08:06Z</time>
      </trkpt>
      <trkpt lat="62.634929849357" lon="17.988013207722">
        <ele>109.2</ele>
        <time>2017-12-17T13:08:07Z</time>
      </trkpt>
      <trkpt lat="62.634915767765" lon="17.988040448897">
        <ele>109.2</ele>
        <time>2017-12-17T13:08:08Z</time>
      </trkpt>
      <trkpt lat="62.634891711712" lon="17.988057464154">
        <ele>109.4</ele>
        <time>2017-12-17T13:08:09Z</time>
      </trkpt>
      <trkpt lat="62.63487260098" lon="17.988087890451">
        <ele>109.4</ele>
        <time>2017-12-17T13:08:10Z</time>
      </trkpt>
      <trkpt lat="62.634851813868" lon="17.988096691446">
        <ele>109.6</ele>
        <time>2017-12-17T13:08:11Z</time>
      </trkpt>
      <trkpt lat="62.6348290151" lon="17.988116975644">
        <ele>109.8</ele>
        <time>2017-12-17T13:08:12Z</time>
      </trkpt>
      <trkpt lat="62.634802528296" lon="17.98811311997">
        <ele>110</ele>
        <time>2017-12-17T13:08:13Z</time>
      </trkpt>
      <trkpt lat="62.634782411736" lon="17.988126195734">
        <ele>110</ele>
        <time>2017-12-17T13:08:14Z</time>
      </trkpt>
      <trkpt lat="62.634754583828" lon="17.988129297037">
        <ele>110.2</ele>
        <time>2017-12-17T13:08:15Z</time>
      </trkpt>
      <trkpt lat="62.634729773404" lon="17.988152766357">
        <ele>110.2</ele>
        <time>2017-12-17T13:08:16Z</time>
      </trkpt>
      <trkpt lat="62.634704879161" lon="17.988152179624">
        <ele>110.4</ele>
        <time>2017-12-17T13:08:17Z</time>
      </trkpt>
      <trkpt lat="62.63467478814" lon="17.988166931768">
        <ele>110.4</ele>
        <time>2017-12-17T13:08:18Z</time>
      </trkpt>
      <trkpt lat="62.634645870585" lon="17.988164501017">
        <ele>110.6</ele>
        <time>2017-12-17T13:08:19Z</time>
      </trkpt>
      <trkpt lat="62.634621060161" lon="17.988169613976">
        <ele>110.8</ele>
        <time>2017-12-17T13:08:20Z</time>
      </trkpt>
      <trkpt lat="62.634598345212" lon="17.988165506845">
        <ele>110.8</ele>
        <time>2017-12-17T13:08:21Z</time>
      </trkpt>
      <trkpt lat="62.634578228652" lon="17.988173302012">
        <ele>111</ele>
        <time>2017-12-17T13:08:22Z</time>
      </trkpt>
      <trkpt lat="62.634555178427" lon="17.988181600093">
        <ele>111</ele>
        <time>2017-12-17T13:08:23Z</time>
      </trkpt>
      <trkpt lat="62.634523830121" lon="17.988183779387">
        <ele>111.2</ele>
        <time>2017-12-17T13:08:24Z</time>
      </trkpt>
      <trkpt lat="62.634495583118" lon="17.988195765504">
        <ele>111</ele>
        <time>2017-12-17T13:08:25Z</time>
      </trkpt>
      <trkpt lat="62.634465408278" lon="17.98818939526">
        <ele>111.4</ele>
        <time>2017-12-17T13:08:26Z</time>
      </trkpt>
      <trkpt lat="62.634440178759" lon="17.98818436612">
        <ele>111.4</ele>
        <time>2017-12-17T13:08:27Z</time>
      </trkpt>
      <trkpt lat="62.634414530145" lon="17.988193250934">
        <ele>111.6</ele>
        <time>2017-12-17T13:08:28Z</time>
      </trkpt>
      <trkpt lat="62.634385864047" lon="17.988204901775">
        <ele>111.8</ele>
        <time>2017-12-17T13:08:29Z</time>
      </trkpt>
      <trkpt lat="62.63435459956" lon="17.988203895947">
        <ele>112</ele>
        <time>2017-12-17T13:08:30Z</time>
      </trkpt>
      <trkpt lat="62.634328448032" lon="17.988199621178">
        <ele>112</ele>
        <time>2017-12-17T13:08:31Z</time>
      </trkpt>
      <trkpt lat="62.634301961228" lon="17.988206242879">
        <ele>112.2</ele>
        <time>2017-12-17T13:08:32Z</time>
      </trkpt>
      <trkpt lat="62.634266841067" lon="17.988193670029">
        <ele>112.2</ele>
        <time>2017-12-17T13:08:33Z</time>
      </trkpt>
      <trkpt lat="62.634231217992" lon="17.988202051929">
        <ele>112</ele>
        <time>2017-12-17T13:08:34Z</time>
      </trkpt>
      <trkpt lat="62.634202300437" lon="17.988193753848">
        <ele>112.2</ele>
        <time>2017-12-17T13:08:35Z</time>
      </trkpt>
      <trkpt lat="62.634173634339" lon="17.988195597866">
        <ele>112.2</ele>
        <time>2017-12-17T13:08:36Z</time>
      </trkpt>
      <trkpt lat="62.63414589025" lon="17.988174475478">
        <ele>112.2</ele>
        <time>2017-12-17T13:08:37Z</time>
      </trkpt>
      <trkpt lat="62.634109596623" lon="17.988179420799">
        <ele>112.2</ele>
        <time>2017-12-17T13:08:38Z</time>
      </trkpt>
      <trkpt lat="62.634083612733" lon="17.988156202936">
        <ele>112.4</ele>
        <time>2017-12-17T13:08:39Z</time>
      </trkpt>
      <trkpt lat="62.634053270255" lon="17.988144300638">
        <ele>112.4</ele>
        <time>2017-12-17T13:08:40Z</time>
      </trkpt>
      <trkpt lat="62.634029046564" lon="17.988127201562">
        <ele>112.4</ele>
        <time>2017-12-17T13:08:41Z</time>
      </trkpt>
      <trkpt lat="62.633998620267" lon="17.988112952332">
        <ele>112.4</ele>
        <time>2017-12-17T13:08:42Z</time>
      </trkpt>
      <trkpt lat="62.633965595581" lon="17.988096523808">
        <ele>112.6</ele>
        <time>2017-12-17T13:08:43Z</time>
      </trkpt>
      <trkpt lat="62.633938773501" lon="17.988079927646">
        <ele>112.6</ele>
        <time>2017-12-17T13:08:44Z</time>
      </trkpt>
      <trkpt lat="62.633911699964" lon="17.988063750579">
        <ele>112.6</ele>
        <time>2017-12-17T13:08:45Z</time>
      </trkpt>
      <trkpt lat="62.633885296979" lon="17.988048076426">
        <ele>112.8</ele>
        <time>2017-12-17T13:08:46Z</time>
      </trkpt>
      <trkpt lat="62.633861827659" lon="17.988036174128">
        <ele>113</ele>
        <time>2017-12-17T13:08:47Z</time>
      </trkpt>
      <trkpt lat="62.633832658647" lon="17.988003400899">
        <ele>113.2</ele>
        <time>2017-12-17T13:08:48Z</time>
      </trkpt>
      <trkpt lat="62.633795945925" lon="17.987992169153">
        <ele>113.2</ele>
        <time>2017-12-17T13:08:49Z</time>
      </trkpt>
      <trkpt lat="62.633772979519" lon="17.987970711489">
        <ele>113.4</ele>
        <time>2017-12-17T13:08:50Z</time>
      </trkpt>
      <trkpt lat="62.633744229602" lon="17.987942296848">
        <ele>113.4</ele>
        <time>2017-12-17T13:08:51Z</time>
      </trkpt>
      <trkpt lat="62.633722101386" lon="17.987925113953">
        <ele>113.4</ele>
        <time>2017-12-17T13:08:52Z</time>
      </trkpt>
      <trkpt lat="62.633698212971" lon="17.987888317412">
        <ele>113.4</ele>
        <time>2017-12-17T13:08:53Z</time>
      </trkpt>
      <trkpt lat="62.633674073099" lon="17.987847665197">
        <ele>113.4</ele>
        <time>2017-12-17T13:08:54Z</time>
      </trkpt>
      <trkpt lat="62.633650855236" lon="17.98782059166">
        <ele>113.4</ele>
        <time>2017-12-17T13:08:55Z</time>
      </trkpt>
      <trkpt lat="62.633628391744" lon="17.987797038521">
        <ele>113.6</ele>
        <time>2017-12-17T13:08:56Z</time>
      </trkpt>
      <trkpt lat="62.633605509157" lon="17.987766863681">
        <ele>113.8</ele>
        <time>2017-12-17T13:08:57Z</time>
      </trkpt>
      <trkpt lat="62.633581620742" lon="17.987731156787">
        <ele>114</ele>
        <time>2017-12-17T13:08:58Z</time>
      </trkpt>
      <trkpt lat="62.633562593829" lon="17.987701736318">
        <ele>114.2</ele>
        <time>2017-12-17T13:08:59Z</time>
      </trkpt>
      <trkpt lat="62.633538789233" lon="17.987663431035">
        <ele>114.6</ele>
        <time>2017-12-17T13:09:00Z</time>
      </trkpt>
      <trkpt lat="62.633511464239" lon="17.987641889552">
        <ele>114.6</ele>
        <time>2017-12-17T13:09:01Z</time>
      </trkpt>
      <trkpt lat="62.633489000747" lon="17.987605595925">
        <ele>114.8</ele>
        <time>2017-12-17T13:09:02Z</time>
      </trkpt>
      <trkpt lat="62.633464357961" lon="17.98757500199">
        <ele>114.8</ele>
        <time>2017-12-17T13:09:03Z</time>
      </trkpt>
      <trkpt lat="62.633443738487" lon="17.987546587349">
        <ele>114.8</ele>
        <time>2017-12-17T13:09:04Z</time>
      </trkpt>
      <trkpt lat="62.633423957203" lon="17.987519010898">
        <ele>114.8</ele>
        <time>2017-12-17T13:09:05Z</time>
      </trkpt>
      <trkpt lat="62.633400068788" lon="17.987476430846">
        <ele>114.8</ele>
        <time>2017-12-17T13:09:06Z</time>
      </trkpt>
      <trkpt lat="62.63338229916" lon="17.987435946269">
        <ele>115</ele>
        <time>2017-12-17T13:09:07Z</time>
      </trkpt>
      <trkpt lat="62.633361512048" lon="17.987386912154">
        <ele>115.4</ele>
        <time>2017-12-17T13:09:08Z</time>
      </trkpt>
      <trkpt lat="62.633335779615" lon="17.987347181948">
        <ele>115.6</ele>
        <time>2017-12-17T13:09:09Z</time>
      </trkpt>
      <trkpt lat="62.633310550096" lon="17.987281300214">
        <ele>115.8</ele>
        <time>2017-12-17T13:09:10Z</time>
      </trkpt>
      <trkpt lat="62.63329345102" lon="17.987217262498">
        <ele>115.6</ele>
        <time>2017-12-17T13:09:11Z</time>
      </trkpt>
      <trkpt lat="62.63327081989" lon="17.987130845109">
        <ele>115.6</ele>
        <time>2017-12-17T13:09:12Z</time>
      </trkpt>
      <trkpt lat="62.633247769665" lon="17.98701006193">
        <ele>115.4</ele>
        <time>2017-12-17T13:09:13Z</time>
      </trkpt>
      <trkpt lat="62.63322891039" lon="17.986892128597">
        <ele>114.8</ele>
        <time>2017-12-17T13:09:14Z</time>
      </trkpt>
      <trkpt lat="62.633213487694" lon="17.986774446721">
        <ele>114</ele>
        <time>2017-12-17T13:09:15Z</time>
      </trkpt>
      <trkpt lat="62.633201333939" lon="17.986656932483">
        <ele>113.4</ele>
        <time>2017-12-17T13:09:16Z</time>
      </trkpt>
      <trkpt lat="62.633193119677" lon="17.986555679131">
        <ele>112.8</ele>
        <time>2017-12-17T13:09:17Z</time>
      </trkpt>
      <trkpt lat="62.633185240691" lon="17.986427016966">
        <ele>112</ele>
        <time>2017-12-17T13:09:18Z</time>
      </trkpt>
      <trkpt lat="62.633179876275" lon="17.986312855488">
        <ele>111.8</ele>
        <time>2017-12-17T13:09:19Z</time>
      </trkpt>
      <trkpt lat="62.633174763316" lon="17.986191485576">
        <ele>111.8</ele>
        <time>2017-12-17T13:09:20Z</time>
      </trkpt>
      <trkpt lat="62.633171326737" lon="17.986050166742">
        <ele>111.8</ele>
        <time>2017-12-17T13:09:21Z</time>
      </trkpt>
      <trkpt lat="62.633172919298" lon="17.985930305572">
        <ele>111.6</ele>
        <time>2017-12-17T13:09:22Z</time>
      </trkpt>
      <trkpt lat="62.633175517687" lon="17.985796278991">
        <ele>111.2</ele>
        <time>2017-12-17T13:09:23Z</time>
      </trkpt>
      <trkpt lat="62.633176691153" lon="17.985664934618">
        <ele>110.8</ele>
        <time>2017-12-17T13:09:24Z</time>
      </trkpt>
      <trkpt lat="62.633181049741" lon="17.985536859186">
        <ele>110.4</ele>
        <time>2017-12-17T13:09:25Z</time>
      </trkpt>
      <trkpt lat="62.633189180184" lon="17.985412304152">
        <ele>109.8</ele>
        <time>2017-12-17T13:09:26Z</time>
      </trkpt>
      <trkpt lat="62.633197729722" lon="17.985279618675">
        <ele>109.8</ele>
        <time>2017-12-17T13:09:27Z</time>
      </trkpt>
      <trkpt lat="62.633211140762" lon="17.985116339263">
        <ele>109.6</ele>
        <time>2017-12-17T13:09:28Z</time>
      </trkpt>
      <trkpt lat="62.633226144363" lon="17.984980468664">
        <ele>109.4</ele>
        <time>2017-12-17T13:09:29Z</time>
      </trkpt>
      <trkpt lat="62.633250954787" lon="17.984824816781">
        <ele>109.2</ele>
        <time>2017-12-17T13:09:30Z</time>
      </trkpt>
      <trkpt lat="62.633279788523" lon="17.984690203467">
        <ele>108.6</ele>
        <time>2017-12-17T13:09:31Z</time>
      </trkpt>
      <trkpt lat="62.633303928395" lon="17.984561122207">
        <ele>108</ele>
        <time>2017-12-17T13:09:32Z</time>
      </trkpt>
      <trkpt lat="62.633332343036" lon="17.98442843673">
        <ele>107.6</ele>
        <time>2017-12-17T13:09:33Z</time>
      </trkpt>
      <trkpt lat="62.633352375777" lon="17.984315951632">
        <ele>106.8</ele>
        <time>2017-12-17T13:09:34Z</time>
      </trkpt>
      <trkpt lat="62.633366205912" lon="17.984211429339">
        <ele>106.2</ele>
        <time>2017-12-17T13:09:35Z</time>
      </trkpt>
      <trkpt lat="62.633379449314" lon="17.984095842938">
        <ele>106</ele>
        <time>2017-12-17T13:09:36Z</time>
      </trkpt>
      <trkpt lat="62.633392608897" lon="17.983994673405">
        <ele>106</ele>
        <time>2017-12-17T13:09:37Z</time>
      </trkpt>
      <trkpt lat="62.633401745168" lon="17.983918733391">
        <ele>106</ele>
        <time>2017-12-17T13:09:38Z</time>
      </trkpt>
      <trkpt lat="62.633413815104" lon="17.983830136708">
        <ele>106.2</ele>
        <time>2017-12-17T13:09:39Z</time>
      </trkpt>
      <trkpt lat="62.633427980515" lon="17.983735337419">
        <ele>106.8</ele>
        <time>2017-12-17T13:09:40Z</time>
      </trkpt>
      <trkpt lat="62.633437368243" lon="17.983657637206">
        <ele>107</ele>
        <time>2017-12-17T13:09:41Z</time>
      </trkpt>
      <trkpt lat="62.633452790939" lon="17.983571219817">
        <ele>107.4</ele>
        <time>2017-12-17T13:09:42Z</time>
      </trkpt>
      <trkpt lat="62.633463352133" lon="17.983471391388">
        <ele>107.8</ele>
        <time>2017-12-17T13:09:43Z</time>
      </trkpt>
      <trkpt lat="62.633473578051" lon="17.98339830122">
        <ele>108</ele>
        <time>2017-12-17T13:09:44Z</time>
      </trkpt>
      <trkpt lat="62.633485815625" lon="17.983317667342">
        <ele>108</ele>
        <time>2017-12-17T13:09:45Z</time>
      </trkpt>
      <trkpt lat="62.633500651588" lon="17.983231836686">
        <ele>108</ele>
        <time>2017-12-17T13:09:46Z</time>
      </trkpt>
      <trkpt lat="62.633512889162" lon="17.983168972436">
        <ele>107.8</ele>
        <time>2017-12-17T13:09:47Z</time>
      </trkpt>
      <trkpt lat="62.633528898591" lon="17.983088673834">
        <ele>108</ele>
        <time>2017-12-17T13:09:48Z</time>
      </trkpt>
      <trkpt lat="62.633547171133" lon="17.983010554526">
        <ele>108.2</ele>
        <time>2017-12-17T13:09:49Z</time>
      </trkpt>
      <trkpt lat="62.633563683476" lon="17.982932854313">
        <ele>108.2</ele>
        <time>2017-12-17T13:09:50Z</time>
      </trkpt>
      <trkpt lat="62.63357675924" lon="17.982850292598">
        <ele>108.4</ele>
        <time>2017-12-17T13:09:51Z</time>
      </trkpt>
      <trkpt lat="62.63359436123" lon="17.982778375896">
        <ele>108.4</ele>
        <time>2017-12-17T13:09:52Z</time>
      </trkpt>
      <trkpt lat="62.633609113374" lon="17.982701513873">
        <ele>108.4</ele>
        <time>2017-12-17T13:09:53Z</time>
      </trkpt>
      <trkpt lat="62.633622943509" lon="17.982627417877">
        <ele>108.2</ele>
        <time>2017-12-17T13:09:54Z</time>
      </trkpt>
      <trkpt lat="62.633636773644" lon="17.982549801483">
        <ele>108.2</ele>
        <time>2017-12-17T13:09:55Z</time>
      </trkpt>
      <trkpt lat="62.633650184684" lon="17.982466066302">
        <ele>108</ele>
        <time>2017-12-17T13:09:56Z</time>
      </trkpt>
      <trkpt lat="62.633658734222" lon="17.982401358034">
        <ele>108</ele>
        <time>2017-12-17T13:09:57Z</time>
      </trkpt>
      <trkpt lat="62.633674073099" lon="17.982328854599">
        <ele>108</ele>
        <time>2017-12-17T13:09:58Z</time>
      </trkpt>
      <trkpt lat="62.633687651777" lon="17.982260123019">
        <ele>108.2</ele>
        <time>2017-12-17T13:09:59Z</time>
      </trkpt>
      <trkpt lat="62.633697290962" lon="17.982188709231">
        <ele>108</ele>
        <time>2017-12-17T13:10:00Z</time>
      </trkpt>
      <trkpt lat="62.633704247939" lon="17.982115367606">
        <ele>108.2</ele>
        <time>2017-12-17T13:10:01Z</time>
      </trkpt>
      <trkpt lat="62.633711540192" lon="17.982033560262">
        <ele>108.2</ele>
        <time>2017-12-17T13:10:02Z</time>
      </trkpt>
      <trkpt lat="62.633711288735" lon="17.981953932212">
        <ele>108.4</ele>
        <time>2017-12-17T13:10:03Z</time>
      </trkpt>
      <trkpt lat="62.633711037278" lon="17.981874555619">
        <ele>108.6</ele>
        <time>2017-12-17T13:10:04Z</time>
      </trkpt>
      <trkpt lat="62.633717994255" lon="17.981802638917">
        <ele>108.6</ele>
        <time>2017-12-17T13:10:05Z</time>
      </trkpt>
      <trkpt lat="62.633723107214" lon="17.981718652279">
        <ele>108.8</ele>
        <time>2017-12-17T13:10:06Z</time>
      </trkpt>
      <trkpt lat="62.633723693947" lon="17.981641706437">
        <ele>108.8</ele>
        <time>2017-12-17T13:10:07Z</time>
      </trkpt>
      <trkpt lat="62.633732159666" lon="17.981555875781">
        <ele>108.6</ele>
        <time>2017-12-17T13:10:08Z</time>
      </trkpt>
      <trkpt lat="62.633743391412" lon="17.981474487532">
        <ele>108.6</ele>
        <time>2017-12-17T13:10:09Z</time>
      </trkpt>
      <trkpt lat="62.633757053909" lon="17.981398547518">
        <ele>108.6</ele>
        <time>2017-12-17T13:10:10Z</time>
      </trkpt>
      <trkpt lat="62.633767363646" lon="17.981319925296">
        <ele>108.6</ele>
        <time>2017-12-17T13:10:11Z</time>
      </trkpt>
      <trkpt lat="62.633777841021" lon="17.981236273934">
        <ele>108.6</ele>
        <time>2017-12-17T13:10:12Z</time>
      </trkpt>
      <trkpt lat="62.633788318396" lon="17.981166704164">
        <ele>108.6</ele>
        <time>2017-12-17T13:10:13Z</time>
      </trkpt>
      <trkpt lat="62.633798795771" lon="17.98110417519">
        <ele>108.4</ele>
        <time>2017-12-17T13:10:14Z</time>
      </trkpt>
      <trkpt lat="62.633820756349" lon="17.981054889618">
        <ele>108.4</ele>
        <time>2017-12-17T13:10:15Z</time>
      </trkpt>
      <trkpt lat="62.633836849597" lon="17.981000155811">
        <ele>108.6</ele>
        <time>2017-12-17T13:10:16Z</time>
      </trkpt>
      <trkpt lat="62.633858139623" lon="17.980952043705">
        <ele>108.6</ele>
        <time>2017-12-17T13:10:17Z</time>
      </trkpt>
      <trkpt lat="62.633881692762" lon="17.980890185283">
        <ele>108.8</ele>
        <time>2017-12-17T13:10:18Z</time>
      </trkpt>
      <trkpt lat="62.633900803494" lon="17.980834613286">
        <ele>109</ele>
        <time>2017-12-17T13:10:19Z</time>
      </trkpt>
      <trkpt lat="62.633918824579" lon="17.980777700185">
        <ele>109.4</ele>
        <time>2017-12-17T13:10:20Z</time>
      </trkpt>
      <trkpt lat="62.633940282243" lon="17.980717350505">
        <ele>109.4</ele>
        <time>2017-12-17T13:10:21Z</time>
      </trkpt>
      <trkpt lat="62.633961069355" lon="17.980664293078">
        <ele>109.4</ele>
        <time>2017-12-17T13:10:22Z</time>
      </trkpt>
      <trkpt lat="62.633981269734" lon="17.980605200683">
        <ele>109.6</ele>
        <time>2017-12-17T13:10:23Z</time>
      </trkpt>
      <trkpt lat="62.634002140665" lon="17.980537726388">
        <ele>109.4</ele>
        <time>2017-12-17T13:10:24Z</time>
      </trkpt>
      <trkpt lat="62.634021335216" lon="17.980472682844">
        <ele>109.6</ele>
        <time>2017-12-17T13:10:25Z</time>
      </trkpt>
      <trkpt lat="62.634039523939" lon="17.980418871046">
        <ele>109.6</ele>
        <time>2017-12-17T13:10:26Z</time>
      </trkpt>
      <trkpt lat="62.634065507829" lon="17.980374614614">
        <ele>109.8</ele>
        <time>2017-12-17T13:10:27Z</time>
      </trkpt>
      <trkpt lat="62.634094006289" lon="17.980316863323">
        <ele>109.8</ele>
        <time>2017-12-17T13:10:28Z</time>
      </trkpt>
      <trkpt lat="62.634108758433" lon="17.980256346005">
        <ele>109.8</ele>
        <time>2017-12-17T13:10:29Z</time>
      </trkpt>
      <trkpt lat="62.634134407047" lon="17.980200522551">
        <ele>110</ele>
        <time>2017-12-17T13:10:30Z</time>
      </trkpt>
      <trkpt lat="62.634149578286" lon="17.980134473179">
        <ele>109.8</ele>
        <time>2017-12-17T13:10:31Z</time>
      </trkpt>
      <trkpt lat="62.634174723986" lon="17.980083427408">
        <ele>109.8</ele>
        <time>2017-12-17T13:10:32Z</time>
      </trkpt>
      <trkpt lat="62.634201713704" lon="17.980020814615">
        <ele>109.8</ele>
        <time>2017-12-17T13:10:33Z</time>
      </trkpt>
      <trkpt lat="62.634224261015" lon="17.979969182111">
        <ele>109.8</ele>
        <time>2017-12-17T13:10:34Z</time>
      </trkpt>
      <trkpt lat="62.634247395059" lon="17.979920483272">
        <ele>109.6</ele>
        <time>2017-12-17T13:10:35Z</time>
      </trkpt>
      <trkpt lat="62.634270696741" lon="17.97985275752">
        <ele>109.6</ele>
        <time>2017-12-17T13:10:36Z</time>
      </trkpt>
      <trkpt lat="62.634295507165" lon="17.979788887442">
        <ele>109.6</ele>
        <time>2017-12-17T13:10:37Z</time>
      </trkpt>
      <trkpt lat="62.63431855739" lon="17.979719317672">
        <ele>109.6</ele>
        <time>2017-12-17T13:10:38Z</time>
      </trkpt>
      <trkpt lat="62.63433532119" lon="17.979644718762">
        <ele>109.6</ele>
        <time>2017-12-17T13:10:39Z</time>
      </trkpt>
      <trkpt lat="62.634350660067" lon="17.979574310802">
        <ele>109.6</ele>
        <time>2017-12-17T13:10:40Z</time>
      </trkpt>
      <trkpt lat="62.634367675324" lon="17.979507674697">
        <ele>109.4</ele>
        <time>2017-12-17T13:10:41Z</time>
      </trkpt>
      <trkpt lat="62.634380248174" lon="17.979440703316">
        <ele>109.4</ele>
        <time>2017-12-17T13:10:42Z</time>
      </trkpt>
      <trkpt lat="62.63439986182" lon="17.979368535157">
        <ele>109.4</ele>
        <time>2017-12-17T13:10:43Z</time>
      </trkpt>
      <trkpt lat="62.634415116878" lon="17.979295277351">
        <ele>109.2</ele>
        <time>2017-12-17T13:10:44Z</time>
      </trkpt>
      <trkpt lat="62.634429366108" lon="17.979234676214">
        <ele>109.2</ele>
        <time>2017-12-17T13:10:45Z</time>
      </trkpt>
      <trkpt lat="62.63444093313" lon="17.979158987657">
        <ele>109.4</ele>
        <time>2017-12-17T13:10:46Z</time>
      </trkpt>
      <trkpt lat="62.634453003066" lon="17.979101487823">
        <ele>109.4</ele>
        <time>2017-12-17T13:10:47Z</time>
      </trkpt>
      <trkpt lat="62.634463145165" lon="17.979036947193">
        <ele>109.4</ele>
        <time>2017-12-17T13:10:48Z</time>
      </trkpt>
      <trkpt lat="62.634478484042" lon="17.978955475125">
        <ele>109.4</ele>
        <time>2017-12-17T13:10:49Z</time>
      </trkpt>
      <trkpt lat="62.634492146539" lon="17.978880792396">
        <ele>109.4</ele>
        <time>2017-12-17T13:10:50Z</time>
      </trkpt>
      <trkpt lat="62.634503545923" lon="17.978803762735">
        <ele>109.4</ele>
        <time>2017-12-17T13:10:51Z</time>
      </trkpt>
      <trkpt lat="62.634520477361" lon="17.97873377387">
        <ele>109.2</ele>
        <time>2017-12-17T13:10:52Z</time>
      </trkpt>
      <trkpt lat="62.634529278356" lon="17.978662779177">
        <ele>109.2</ele>
        <time>2017-12-17T13:10:53Z</time>
      </trkpt>
      <trkpt lat="62.634541264473" lon="17.978582229118">
        <ele>109.2</ele>
        <time>2017-12-17T13:10:54Z</time>
      </trkpt>
      <trkpt lat="62.63455325059" lon="17.978500840869">
        <ele>109</ele>
        <time>2017-12-17T13:10:55Z</time>
      </trkpt>
      <trkpt lat="62.63456749982" lon="17.978413669109">
        <ele>109</ele>
        <time>2017-12-17T13:10:56Z</time>
      </trkpt>
      <trkpt lat="62.634579569756" lon="17.978325826797">
        <ele>109.2</ele>
        <time>2017-12-17T13:10:57Z</time>
      </trkpt>
      <trkpt lat="62.634591220597" lon="17.978231614241">
        <ele>109.2</ele>
        <time>2017-12-17T13:10:58Z</time>
      </trkpt>
      <trkpt lat="62.634606475655" lon="17.978139580979">
        <ele>109.2</ele>
        <time>2017-12-17T13:10:59Z</time>
      </trkpt>
      <trkpt lat="62.63462198217" lon="17.978029778089">
        <ele>109.2</ele>
        <time>2017-12-17T13:11:00Z</time>
      </trkpt>
      <trkpt lat="62.63463706959" lon="17.977927770366">
        <ele>108.8</ele>
        <time>2017-12-17T13:11:01Z</time>
      </trkpt>
      <trkpt lat="62.634651402639" lon="17.977830288869">
        <ele>108.6</ele>
        <time>2017-12-17T13:11:02Z</time>
      </trkpt>
      <trkpt lat="62.634665232774" lon="17.977739261435">
        <ele>108.2</ele>
        <time>2017-12-17T13:11:03Z</time>
      </trkpt>
      <trkpt lat="62.634680571651" lon="17.977635409694">
        <ele>107.8</ele>
        <time>2017-12-17T13:11:04Z</time>
      </trkpt>
      <trkpt lat="62.634691971035" lon="17.977548154115">
        <ele>107.8</ele>
        <time>2017-12-17T13:11:05Z</time>
      </trkpt>
      <trkpt lat="62.634705465894" lon="17.977442877451">
        <ele>107.8</ele>
        <time>2017-12-17T13:11:06Z</time>
      </trkpt>
      <trkpt lat="62.634718122563" lon="17.977355035139">
        <ele>107.6</ele>
        <time>2017-12-17T13:11:07Z</time>
      </trkpt>
      <trkpt lat="62.634736059829" lon="17.977263169515">
        <ele>107.6</ele>
        <time>2017-12-17T13:11:08Z</time>
      </trkpt>
      <trkpt lat="62.634751482525" lon="17.977184044379">
        <ele>107.6</ele>
        <time>2017-12-17T13:11:09Z</time>
      </trkpt>
      <trkpt lat="62.634767911049" lon="17.97710097975">
        <ele>107.6</ele>
        <time>2017-12-17T13:11:10Z</time>
      </trkpt>
      <trkpt lat="62.634782579374" lon="17.977016825474">
        <ele>107.6</ele>
        <time>2017-12-17T13:11:11Z</time>
      </trkpt>
      <trkpt lat="62.634801271011" lon="17.976921690909">
        <ele>107.6</ele>
        <time>2017-12-17T13:11:12Z</time>
      </trkpt>
      <trkpt lat="62.634824488874" lon="17.976838458642">
        <ele>107.6</ele>
        <time>2017-12-17T13:11:13Z</time>
      </trkpt>
      <trkpt lat="62.634843431968" lon="17.976755980746">
        <ele>107.4</ele>
        <time>2017-12-17T13:11:14Z</time>
      </trkpt>
      <trkpt lat="62.634859022302" lon="17.976680878922">
        <ele>107.4</ele>
        <time>2017-12-17T13:11:15Z</time>
      </trkpt>
      <trkpt lat="62.634878133034" lon="17.976589432393">
        <ele>107.2</ele>
        <time>2017-12-17T13:11:16Z</time>
      </trkpt>
      <trkpt lat="62.63489439392" lon="17.97651089399">
        <ele>107</ele>
        <time>2017-12-17T13:11:17Z</time>
      </trkpt>
      <trkpt lat="62.634909984254" lon="17.976413831588">
        <ele>107</ele>
        <time>2017-12-17T13:11:18Z</time>
      </trkpt>
      <trkpt lat="62.634930352271" lon="17.97633738866">
        <ele>106.8</ele>
        <time>2017-12-17T13:11:19Z</time>
      </trkpt>
      <trkpt lat="62.63494803808" lon="17.976264047035">
        <ele>106.6</ele>
        <time>2017-12-17T13:11:20Z</time>
      </trkpt>
      <trkpt lat="62.634972094133" lon="17.976163715692">
        <ele>106.6</ele>
        <time>2017-12-17T13:11:21Z</time>
      </trkpt>
      <trkpt lat="62.634989277028" lon="17.976078052674">
        <ele>106.4</ele>
        <time>2017-12-17T13:11:22Z</time>
      </trkpt>
      <trkpt lat="62.635012411072" lon="17.975977302236">
        <ele>106.4</ele>
        <time>2017-12-17T13:11:23Z</time>
      </trkpt>
      <trkpt lat="62.635040406618" lon="17.975869008088">
        <ele>106.6</ele>
        <time>2017-12-17T13:11:24Z</time>
      </trkpt>
      <trkpt lat="62.635059433531" lon="17.975768760564">
        <ele>106.6</ele>
        <time>2017-12-17T13:11:25Z</time>
      </trkpt>
      <trkpt lat="62.635076532607" lon="17.975668093945">
        <ele>106.2</ele>
        <time>2017-12-17T13:11:26Z</time>
      </trkpt>
      <trkpt lat="62.635091871484" lon="17.975592321569">
        <ele>105.6</ele>
        <time>2017-12-17T13:11:27Z</time>
      </trkpt>
      <trkpt lat="62.635110479302" lon="17.975502132325">
        <ele>105.2</ele>
        <time>2017-12-17T13:11:28Z</time>
      </trkpt>
      <trkpt lat="62.635132775156" lon="17.975421163171">
        <ele>105</ele>
        <time>2017-12-17T13:11:29Z</time>
      </trkpt>
      <trkpt lat="62.635145431825" lon="17.975310102996">
        <ele>104.8</ele>
        <time>2017-12-17T13:11:30Z</time>
      </trkpt>
      <trkpt lat="62.635147275843" lon="17.975200383925">
        <ele>105</ele>
        <time>2017-12-17T13:11:31Z</time>
      </trkpt>
      <trkpt lat="62.635139480676" lon="17.975100555496">
        <ele>104.8</ele>
        <time>2017-12-17T13:11:32Z</time>
      </trkpt>
      <trkpt lat="62.635119531754" lon="17.974984885276">
        <ele>104.6</ele>
        <time>2017-12-17T13:11:33Z</time>
      </trkpt>
      <trkpt lat="62.635096062434" lon="17.974885475942">
        <ele>104</ele>
        <time>2017-12-17T13:11:34Z</time>
      </trkpt>
      <trkpt lat="62.635072174019" lon="17.974790425196">
        <ele>103.6</ele>
        <time>2017-12-17T13:11:35Z</time>
      </trkpt>
      <trkpt lat="62.635039568428" lon="17.974667630361">
        <ele>102.6</ele>
        <time>2017-12-17T13:11:36Z</time>
      </trkpt>
      <trkpt lat="62.635014925642" lon="17.974566041733">
        <ele>102.4</ele>
        <time>2017-12-17T13:11:37Z</time>
      </trkpt>
      <trkpt lat="62.634990031399" lon="17.974453388997">
        <ele>102.2</ele>
        <time>2017-12-17T13:11:38Z</time>
      </trkpt>
      <trkpt lat="62.634965137156" lon="17.97433998189">
        <ele>102</ele>
        <time>2017-12-17T13:11:39Z</time>
      </trkpt>
      <trkpt lat="62.63493965618" lon="17.974234286131">
        <ele>101.6</ele>
        <time>2017-12-17T13:11:40Z</time>
      </trkpt>
      <trkpt lat="62.634917192688" lon="17.974137223729">
        <ele>101.2</ele>
        <time>2017-12-17T13:11:41Z</time>
      </trkpt>
      <trkpt lat="62.634900345069" lon="17.974042675897">
        <ele>101.2</ele>
        <time>2017-12-17T13:11:42Z</time>
      </trkpt>
      <trkpt lat="62.634876205197" lon="17.973962293476">
        <ele>101.4</ele>
        <time>2017-12-17T13:11:43Z</time>
      </trkpt>
      <trkpt lat="62.634853406429" lon="17.97388065377">
        <ele>101.6</ele>
        <time>2017-12-17T13:11:44Z</time>
      </trkpt>
      <trkpt lat="62.634829937109" lon="17.973788704327">
        <ele>102</ele>
        <time>2017-12-17T13:11:45Z</time>
      </trkpt>
      <trkpt lat="62.634804288495" lon="17.973716117073">
        <ele>102.2</ele>
        <time>2017-12-17T13:11:46Z</time>
      </trkpt>
      <trkpt lat="62.634786351229" lon="17.973639841783">
        <ele>102</ele>
        <time>2017-12-17T13:11:47Z</time>
      </trkpt>
      <trkpt lat="62.634763217185" lon="17.97353615768">
        <ele>102.2</ele>
        <time>2017-12-17T13:11:48Z</time>
      </trkpt>
      <trkpt lat="62.634752488353" lon="17.973441358391">
        <ele>102</ele>
        <time>2017-12-17T13:11:49Z</time>
      </trkpt>
      <trkpt lat="62.634740083141" lon="17.973347816387">
        <ele>101.8</ele>
        <time>2017-12-17T13:11:50Z</time>
      </trkpt>
      <trkpt lat="62.634734970182" lon="17.973243461732">
        <ele>101.6</ele>
        <time>2017-12-17T13:11:51Z</time>
      </trkpt>
      <trkpt lat="62.634737400933" lon="17.973143465665">
        <ele>101.6</ele>
        <time>2017-12-17T13:11:52Z</time>
      </trkpt>
      <trkpt lat="62.634746118109" lon="17.973022011934">
        <ele>101.6</ele>
        <time>2017-12-17T13:11:53Z</time>
      </trkpt>
      <trkpt lat="62.63476279809" lon="17.972888404448">
        <ele>101.4</ele>
        <time>2017-12-17T13:11:54Z</time>
      </trkpt>
      <trkpt lat="62.634783669021" lon="17.972789246571">
        <ele>101.2</ele>
        <time>2017-12-17T13:11:55Z</time>
      </trkpt>
      <trkpt lat="62.634802695934" lon="17.972681622975">
        <ele>101.2</ele>
        <time>2017-12-17T13:11:56Z</time>
      </trkpt>
      <trkpt lat="62.634827925453" lon="17.972589254437">
        <ele>101.2</ele>
        <time>2017-12-17T13:11:57Z</time>
      </trkpt>
      <trkpt lat="62.634859776673" lon="17.972491186207">
        <ele>100.8</ele>
        <time>2017-12-17T13:11:58Z</time>
      </trkpt>
      <trkpt lat="62.634885592925" lon="17.972410971424">
        <ele>100.6</ele>
        <time>2017-12-17T13:11:59Z</time>
      </trkpt>
      <trkpt lat="62.634919120525" lon="17.972325476044">
        <ele>100.8</ele>
        <time>2017-12-17T13:12:00Z</time>
      </trkpt>
      <trkpt lat="62.6349463617" lon="17.972247189098">
        <ele>100.4</ele>
        <time>2017-12-17T13:12:01Z</time>
      </trkpt>
      <trkpt lat="62.634968489916" lon="17.972175440034">
        <ele>100.4</ele>
        <time>2017-12-17T13:12:02Z</time>
      </trkpt>
      <trkpt lat="62.634996234005" lon="17.972085083152">
        <ele>100.4</ele>
        <time>2017-12-17T13:12:03Z</time>
      </trkpt>
      <trkpt lat="62.635024229551" lon="17.971986260551">
        <ele>100.2</ele>
        <time>2017-12-17T13:12:04Z</time>
      </trkpt>
      <trkpt lat="62.635048285604" lon="17.971882157353">
        <ele>99.6</ele>
        <time>2017-12-17T13:12:05Z</time>
      </trkpt>
      <trkpt lat="62.635075107684" lon="17.971739581234">
        <ele>99</ele>
        <time>2017-12-17T13:12:06Z</time>
      </trkpt>
      <trkpt lat="62.635094469873" lon="17.971620558254">
        <ele>98.2</ele>
        <time>2017-12-17T13:12:07Z</time>
      </trkpt>
      <trkpt lat="62.635114334976" lon="17.971476557212">
        <ele>97.2</ele>
        <time>2017-12-17T13:12:08Z</time>
      </trkpt>
      <trkpt lat="62.635129841491" lon="17.971338339681">
        <ele>96.2</ele>
        <time>2017-12-17T13:12:09Z</time>
      </trkpt>
      <trkpt lat="62.635147443481" lon="17.971215880122">
        <ele>95.6</ele>
        <time>2017-12-17T13:12:10Z</time>
      </trkpt>
      <trkpt lat="62.635164961652" lon="17.971093169106">
        <ele>95.2</ele>
        <time>2017-12-17T13:12:11Z</time>
      </trkpt>
      <trkpt lat="62.635183066556" lon="17.97096039981">
        <ele>94.6</ele>
        <time>2017-12-17T13:12:12Z</time>
      </trkpt>
      <trkpt lat="62.635201506736" lon="17.970819416252">
        <ele>94.2</ele>
        <time>2017-12-17T13:12:13Z</time>
      </trkpt>
      <trkpt lat="62.635219192545" lon="17.970681533997">
        <ele>94</ele>
        <time>2017-12-17T13:12:14Z</time>
      </trkpt>
      <trkpt lat="62.635235872526" lon="17.970551949823">
        <ele>93.6</ele>
        <time>2017-12-17T13:12:15Z</time>
      </trkpt>
      <trkpt lat="62.635249870299" lon="17.970422198011">
        <ele>93.2</ele>
        <time>2017-12-17T13:12:16Z</time>
      </trkpt>
      <trkpt lat="62.635264790081" lon="17.970309377637">
        <ele>93.2</ele>
        <time>2017-12-17T13:12:17Z</time>
      </trkpt>
      <trkpt lat="62.635286415383" lon="17.970170405735">
        <ele>93</ele>
        <time>2017-12-17T13:12:18Z</time>
      </trkpt>
      <trkpt lat="62.635309717065" lon="17.970048281452">
        <ele>93</ele>
        <time>2017-12-17T13:12:19Z</time>
      </trkpt>
      <trkpt lat="62.635333940756" lon="17.969931773042">
        <ele>93</ele>
        <time>2017-12-17T13:12:20Z</time>
      </trkpt>
      <trkpt lat="62.635365037605" lon="17.969809397302">
        <ele>92.8</ele>
        <time>2017-12-17T13:12:21Z</time>
      </trkpt>
      <trkpt lat="62.635392865513" lon="17.969697834213">
        <ele>92.6</ele>
        <time>2017-12-17T13:12:22Z</time>
      </trkpt>
      <trkpt lat="62.635421950706" lon="17.969579481785">
        <ele>92.2</ele>
        <time>2017-12-17T13:12:23Z</time>
      </trkpt>
      <trkpt lat="62.635450784442" lon="17.969463643927">
        <ele>91.6</ele>
        <time>2017-12-17T13:12:24Z</time>
      </trkpt>
      <trkpt lat="62.635478444712" lon="17.969347135517">
        <ele>91</ele>
        <time>2017-12-17T13:12:25Z</time>
      </trkpt>
      <trkpt lat="62.635506691715" lon="17.96923540479">
        <ele>90.4</ele>
        <time>2017-12-17T13:12:26Z</time>
      </trkpt>
      <trkpt lat="62.635533681433" lon="17.969130211945">
        <ele>89.6</ele>
        <time>2017-12-17T13:12:27Z</time>
      </trkpt>
      <trkpt lat="62.635564023911" lon="17.969011021327">
        <ele>89</ele>
        <time>2017-12-17T13:12:28Z</time>
      </trkpt>
      <trkpt lat="62.635591516543" lon="17.968908929785">
        <ele>88.4</ele>
        <time>2017-12-17T13:12:29Z</time>
      </trkpt>
      <trkpt lat="62.635624876505" lon="17.968799043076">
        <ele>87.8</ele>
        <time>2017-12-17T13:12:30Z</time>
      </trkpt>
      <trkpt lat="62.635661756865" lon="17.968699885199">
        <ele>87.2</ele>
        <time>2017-12-17T13:12:31Z</time>
      </trkpt>
      <trkpt lat="62.63570157089" lon="17.968616317656">
        <ele>86.8</ele>
        <time>2017-12-17T13:12:32Z</time>
      </trkpt>
      <trkpt lat="62.635753957765" lon="17.968533169208">
        <ele>86.4</ele>
        <time>2017-12-17T13:12:33Z</time>
      </trkpt>
      <trkpt lat="62.635808104839" lon="17.968474244451">
        <ele>86.2</ele>
        <time>2017-12-17T13:12:34Z</time>
      </trkpt>
      <trkpt lat="62.635858899153" lon="17.968436693539">
        <ele>85.8</ele>
        <time>2017-12-17T13:12:35Z</time>
      </trkpt>
      <trkpt lat="62.635926624905" lon="17.968410206735">
        <ele>85.4</ele>
        <time>2017-12-17T13:12:36Z</time>
      </trkpt>
      <trkpt lat="62.635983538006" lon="17.968410039097">
        <ele>84.8</ele>
        <time>2017-12-17T13:12:37Z</time>
      </trkpt>
      <trkpt lat="62.636041708392" lon="17.96842822782">
        <ele>84.2</ele>
        <time>2017-12-17T13:12:38Z</time>
      </trkpt>
      <trkpt lat="62.636127119953" lon="17.968448512018">
        <ele>83.2</ele>
        <time>2017-12-17T13:12:40Z</time>
      </trkpt>
      <trkpt lat="62.636160144639" lon="17.968459743764">
        <ele>83.2</ele>
        <time>2017-12-17T13:12:41Z</time>
      </trkpt>
      <trkpt lat="62.636200796854" lon="17.968489080414">
        <ele>83.4</ele>
        <time>2017-12-17T13:12:42Z</time>
      </trkpt>
      <trkpt lat="62.636244215096" lon="17.968514309933">
        <ele>83.4</ele>
        <time>2017-12-17T13:12:43Z</time>
      </trkpt>
      <trkpt lat="62.636287130424" lon="17.96854138347">
        <ele>83.6</ele>
        <time>2017-12-17T13:12:44Z</time>
      </trkpt>
      <trkpt lat="62.636330045752" lon="17.968588238291">
        <ele>84</ele>
        <time>2017-12-17T13:12:45Z</time>
      </trkpt>
      <trkpt lat="62.636370781786" lon="17.968635512207">
        <ele>84.2</ele>
        <time>2017-12-17T13:12:46Z</time>
      </trkpt>
      <trkpt lat="62.636401375721" lon="17.968684462503">
        <ele>84.2</ele>
        <time>2017-12-17T13:12:47Z</time>
      </trkpt>
      <trkpt lat="62.636437334072" lon="17.968758893775">
        <ele>84.2</ele>
        <time>2017-12-17T13:12:48Z</time>
      </trkpt>
      <trkpt lat="62.636466922179" lon="17.968814884867">
        <ele>84.2</ele>
        <time>2017-12-17T13:12:49Z</time>
      </trkpt>
      <trkpt lat="62.636490140042" lon="17.968878252031">
        <ele>84.2</ele>
        <time>2017-12-17T13:12:50Z</time>
      </trkpt>
      <trkpt lat="62.636518135588" lon="17.968959724099">
        <ele>84</ele>
        <time>2017-12-17T13:12:51Z</time>
      </trkpt>
      <trkpt lat="62.636540347623" lon="17.969021582521">
        <ele>84</ele>
        <time>2017-12-17T13:12:52Z</time>
      </trkpt>
      <trkpt lat="62.636561470011" lon="17.969092409576">
        <ele>84.2</ele>
        <time>2017-12-17T13:12:53Z</time>
      </trkpt>
      <trkpt lat="62.636590219928" lon="17.969163236631">
        <ele>84.4</ele>
        <time>2017-12-17T13:12:54Z</time>
      </trkpt>
      <trkpt lat="62.636612934877" lon="17.969225597967">
        <ele>84.2</ele>
        <time>2017-12-17T13:12:55Z</time>
      </trkpt>
      <trkpt lat="62.636635566007" lon="17.969306064207">
        <ele>84.2</ele>
        <time>2017-12-17T13:12:56Z</time>
      </trkpt>
      <trkpt lat="62.636656688395" lon="17.969376472167">
        <ele>84.4</ele>
        <time>2017-12-17T13:12:57Z</time>
      </trkpt>
      <trkpt lat="62.636675882946" lon="17.969454759113">
        <ele>84.4</ele>
        <time>2017-12-17T13:12:58Z</time>
      </trkpt>
      <trkpt lat="62.636694323126" lon="17.969526591996">
        <ele>84.4</ele>
        <time>2017-12-17T13:12:59Z</time>
      </trkpt>
      <trkpt lat="62.636713014763" lon="17.969606890598">
        <ele>84.6</ele>
        <time>2017-12-17T13:13:00Z</time>
      </trkpt>
      <trkpt lat="62.636728269821" lon="17.969676208911">
        <ele>84.8</ele>
        <time>2017-12-17T13:13:01Z</time>
      </trkpt>
      <trkpt lat="62.636743860155" lon="17.969743767025">
        <ele>84.8</ele>
        <time>2017-12-17T13:13:02Z</time>
      </trkpt>
      <trkpt lat="62.636759618127" lon="17.969803781429">
        <ele>84.8</ele>
        <time>2017-12-17T13:13:03Z</time>
      </trkpt>
      <trkpt lat="62.636778728859" lon="17.969873183561">
        <ele>84.8</ele>
        <time>2017-12-17T13:13:04Z</time>
      </trkpt>
      <trkpt lat="62.636798677781" lon="17.969939652028">
        <ele>84.8</ele>
        <time>2017-12-17T13:13:05Z</time>
      </trkpt>
      <trkpt lat="62.636819213436" lon="17.969983740822">
        <ele>84.8</ele>
        <time>2017-12-17T13:13:06Z</time>
      </trkpt>
      <trkpt lat="62.636843269489" lon="17.970032858756">
        <ele>84.6</ele>
        <time>2017-12-17T13:13:07Z</time>
      </trkpt>
      <trkpt lat="62.636871181216" lon="17.970079881215">
        <ele>84.8</ele>
        <time>2017-12-17T13:13:08Z</time>
      </trkpt>
      <trkpt lat="62.63690185897" lon="17.970111983892">
        <ele>84.8</ele>
        <time>2017-12-17T13:13:09Z</time>
      </trkpt>
      <trkpt lat="62.636935805665" lon="17.970145762949">
        <ele>84.8</ele>
        <time>2017-12-17T13:13:10Z</time>
      </trkpt>
      <trkpt lat="62.636968243618" lon="17.970145008578">
        <ele>85</ele>
        <time>2017-12-17T13:13:11Z</time>
      </trkpt>
      <trkpt lat="62.637007554729" lon="17.970165460414">
        <ele>85</ele>
        <time>2017-12-17T13:13:12Z</time>
      </trkpt>
      <trkpt lat="62.637052900808" lon="17.970181469843">
        <ele>85</ele>
        <time>2017-12-17T13:13:13Z</time>
      </trkpt>
      <trkpt lat="62.637100342362" lon="17.970181134567">
        <ele>84.8</ele>
        <time>2017-12-17T13:13:14Z</time>
      </trkpt>
      <trkpt lat="62.637145939898" lon="17.970169651364">
        <ele>84.8</ele>
        <time>2017-12-17T13:13:15Z</time>
      </trkpt>
      <trkpt lat="62.637190280149" lon="17.970153139021">
        <ele>84.8</ele>
        <time>2017-12-17T13:13:16Z</time>
      </trkpt>
      <trkpt lat="62.637232273468" lon="17.970131513719">
        <ele>84.2</ele>
        <time>2017-12-17T13:13:17Z</time>
      </trkpt>
      <trkpt lat="62.637286671999" lon="17.970103518173">
        <ele>83.8</ele>
        <time>2017-12-17T13:13:18Z</time>
      </trkpt>
      <trkpt lat="62.637336628123" lon="17.970073762428">
        <ele>83.4</ele>
        <time>2017-12-17T13:13:19Z</time>
      </trkpt>
      <trkpt lat="62.637383650582" lon="17.970052723859">
        <ele>83</ele>
        <time>2017-12-17T13:13:20Z</time>
      </trkpt>
      <trkpt lat="62.637439306398" lon="17.970038726086">
        <ele>82.4</ele>
        <time>2017-12-17T13:13:21Z</time>
      </trkpt>
      <trkpt lat="62.63748943016" lon="17.970042246484">
        <ele>82</ele>
        <time>2017-12-17T13:13:22Z</time>
      </trkpt>
      <trkpt lat="62.637539637741" lon="17.970073091876">
        <ele>81.8</ele>
        <time>2017-12-17T13:13:23Z</time>
      </trkpt>
      <trkpt lat="62.637589007132" lon="17.970125143475">
        <ele>81.4</ele>
        <time>2017-12-17T13:13:24Z</time>
      </trkpt>
      <trkpt lat="62.637631251908" lon="17.97018004492">
        <ele>81.2</ele>
        <time>2017-12-17T13:13:25Z</time>
      </trkpt>
      <trkpt lat="62.637669221915" lon="17.970243831179">
        <ele>81.2</ele>
        <time>2017-12-17T13:13:26Z</time>
      </trkpt>
      <trkpt lat="62.637699229117" lon="17.970310215827">
        <ele>81.2</ele>
        <time>2017-12-17T13:13:27Z</time>
      </trkpt>
      <trkpt lat="62.637726554111" lon="17.970388921868">
        <ele>81.4</ele>
        <time>2017-12-17T13:13:28Z</time>
      </trkpt>
      <trkpt lat="62.637748849965" lon="17.970455138878">
        <ele>81.6</ele>
        <time>2017-12-17T13:13:29Z</time>
      </trkpt>
      <trkpt lat="62.637769553258" lon="17.970533342005">
        <ele>81.8</ele>
        <time>2017-12-17T13:13:30Z</time>
      </trkpt>
      <trkpt lat="62.637788999266" lon="17.970612299503">
        <ele>82.2</ele>
        <time>2017-12-17T13:13:31Z</time>
      </trkpt>
      <trkpt lat="62.63780291322" lon="17.970682036911">
        <ele>82.4</ele>
        <time>2017-12-17T13:13:32Z</time>
      </trkpt>
      <trkpt lat="62.637819593201" lon="17.97076174878">
        <ele>82.4</ele>
        <time>2017-12-17T13:13:33Z</time>
      </trkpt>
      <trkpt lat="62.637837195191" lon="17.970846070694">
        <ele>82.2</ele>
        <time>2017-12-17T13:13:34Z</time>
      </trkpt>
      <trkpt lat="62.637850606231" lon="17.970905749822">
        <ele>82.4</ele>
        <time>2017-12-17T13:13:35Z</time>
      </trkpt>
      <trkpt lat="62.63786661566" lon="17.970997447808">
        <ele>82.4</ele>
        <time>2017-12-17T13:13:36Z</time>
      </trkpt>
      <trkpt lat="62.637878434139" lon="17.971055869651">
        <ele>82.4</ele>
        <time>2017-12-17T13:13:37Z</time>
      </trkpt>
      <trkpt lat="62.637892515731" lon="17.971146813266">
        <ele>82.4</ele>
        <time>2017-12-17T13:13:38Z</time>
      </trkpt>
      <trkpt lat="62.637905675314" lon="17.971210515706">
        <ele>82.6</ele>
        <time>2017-12-17T13:13:39Z</time>
      </trkpt>
      <trkpt lat="62.637912129377" lon="17.971289557023">
        <ele>82.6</ele>
        <time>2017-12-17T13:13:40Z</time>
      </trkpt>
      <trkpt lat="62.637920595096" lon="17.971341440984">
        <ele>82.6</ele>
        <time>2017-12-17T13:13:41Z</time>
      </trkpt>
      <trkpt lat="62.637927552073" lon="17.971413776781">
        <ele>82.8</ele>
        <time>2017-12-17T13:13:42Z</time>
      </trkpt>
      <trkpt lat="62.637941968941" lon="17.971477395402">
        <ele>82.8</ele>
        <time>2017-12-17T13:13:43Z</time>
      </trkpt>
      <trkpt lat="62.637948003909" lon="17.971547300448">
        <ele>83</ele>
        <time>2017-12-17T13:13:44Z</time>
      </trkpt>
      <trkpt lat="62.637961247311" lon="17.971610332336">
        <ele>83</ele>
        <time>2017-12-17T13:13:45Z</time>
      </trkpt>
      <trkpt lat="62.637965941175" lon="17.971674956785">
        <ele>83.2</ele>
        <time>2017-12-17T13:13:46Z</time>
      </trkpt>
      <trkpt lat="62.637975412722" lon="17.971736312293">
        <ele>83.4</ele>
        <time>2017-12-17T13:13:47Z</time>
      </trkpt>
      <trkpt lat="62.637980525681" lon="17.971806552615">
        <ele>83.4</ele>
        <time>2017-12-17T13:13:48Z</time>
      </trkpt>
      <trkpt lat="62.637989159038" lon="17.97187821786">
        <ele>83.6</ele>
        <time>2017-12-17T13:13:49Z</time>
      </trkpt>
      <trkpt lat="62.637989326676" lon="17.971945692155">
        <ele>83.6</ele>
        <time>2017-12-17T13:13:50Z</time>
      </trkpt>
      <trkpt lat="62.637996451291" lon="17.972017189762">
        <ele>83.8</ele>
        <time>2017-12-17T13:13:51Z</time>
      </trkpt>
      <trkpt lat="62.637994774911" lon="17.972077790899">
        <ele>83.8</ele>
        <time>2017-12-17T13:13:52Z</time>
      </trkpt>
      <trkpt lat="62.638000474603" lon="17.972145181375">
        <ele>83.8</ele>
        <time>2017-12-17T13:13:53Z</time>
      </trkpt>
      <trkpt lat="62.638007515399" lon="17.972212404213">
        <ele>83.8</ele>
        <time>2017-12-17T13:13:54Z</time>
      </trkpt>
      <trkpt lat="62.638008940322" lon="17.972277531576">
        <ele>83.8</ele>
        <time>2017-12-17T13:13:55Z</time>
      </trkpt>
      <trkpt lat="62.638011957806" lon="17.972342323663">
        <ele>84</ele>
        <time>2017-12-17T13:13:56Z</time>
      </trkpt>
      <trkpt lat="62.638014891471" lon="17.972398230936">
        <ele>83.8</ele>
        <time>2017-12-17T13:13:57Z</time>
      </trkpt>
      <trkpt lat="62.638023105733" lon="17.972450114897">
        <ele>83.8</ele>
        <time>2017-12-17T13:13:58Z</time>
      </trkpt>
      <trkpt lat="62.638024949751" lon="17.972495293338">
        <ele>84</ele>
        <time>2017-12-17T13:13:59Z</time>
      </trkpt>
      <trkpt lat="62.63802922452" lon="17.97255882814">
        <ele>84.2</ele>
        <time>2017-12-17T13:14:00Z</time>
      </trkpt>
      <trkpt lat="62.638034169841" lon="17.972605263866">
        <ele>84.4</ele>
        <time>2017-12-17T13:14:01Z</time>
      </trkpt>
      <trkpt lat="62.638036013859" lon="17.972668379573">
        <ele>84.6</ele>
        <time>2017-12-17T13:14:02Z</time>
      </trkpt>
      <trkpt lat="62.638043809026" lon="17.972726382321">
        <ele>84.8</ele>
        <time>2017-12-17T13:14:03Z</time>
      </trkpt>
      <trkpt lat="62.638043054655" lon="17.972785558535">
        <ele>84.8</ele>
        <time>2017-12-17T13:14:04Z</time>
      </trkpt>
      <trkpt lat="62.638049257261" lon="17.972833083908">
        <ele>85</ele>
        <time>2017-12-17T13:14:05Z</time>
      </trkpt>
      <trkpt lat="62.638049927813" lon="17.972893014493">
        <ele>85</ele>
        <time>2017-12-17T13:14:06Z</time>
      </trkpt>
      <trkpt lat="62.638053867306" lon="17.972944227902">
        <ele>85.2</ele>
        <time>2017-12-17T13:14:07Z</time>
      </trkpt>
      <trkpt lat="62.638055376048" lon="17.972996111863">
        <ele>85.2</ele>
        <time>2017-12-17T13:14:08Z</time>
      </trkpt>
      <trkpt lat="62.638055878962" lon="17.973051516222">
        <ele>85.2</ele>
        <time>2017-12-17T13:14:09Z</time>
      </trkpt>
      <trkpt lat="62.638063087396" lon="17.973105830934">
        <ele>85.4</ele>
        <time>2017-12-17T13:14:10Z</time>
      </trkpt>
      <trkpt lat="62.638063422672" lon="17.973162073483">
        <ele>85.6</ele>
        <time>2017-12-17T13:14:11Z</time>
      </trkpt>
      <trkpt lat="62.638061494835" lon="17.973223093715">
        <ele>85.6</ele>
        <time>2017-12-17T13:14:12Z</time>
      </trkpt>
      <trkpt lat="62.638061746292" lon="17.973272630744">
        <ele>85.8</ele>
        <time>2017-12-17T13:14:13Z</time>
      </trkpt>
      <trkpt lat="62.638058142075" lon="17.973325352895">
        <ele>85.8</ele>
        <time>2017-12-17T13:14:14Z</time>
      </trkpt>
      <trkpt lat="62.638062081568" lon="17.973374806105">
        <ele>86</ele>
        <time>2017-12-17T13:14:15Z</time>
      </trkpt>
      <trkpt lat="62.638058728808" lon="17.973435239604">
        <ele>86</ele>
        <time>2017-12-17T13:14:16Z</time>
      </trkpt>
      <trkpt lat="62.638059064084" lon="17.973490811601">
        <ele>86.2</ele>
        <time>2017-12-17T13:14:17Z</time>
      </trkpt>
      <trkpt lat="62.638059902274" lon="17.973555016955">
        <ele>86.4</ele>
        <time>2017-12-17T13:14:18Z</time>
      </trkpt>
      <trkpt lat="62.638055711324" lon="17.973614193169">
        <ele>86.4</ele>
        <time>2017-12-17T13:14:19Z</time>
      </trkpt>
      <trkpt lat="62.638055711324" lon="17.973660545076">
        <ele>86.6</ele>
        <time>2017-12-17T13:14:20Z</time>
      </trkpt>
      <trkpt lat="62.638054118763" lon="17.973733383787">
        <ele>86.8</ele>
        <time>2017-12-17T13:14:21Z</time>
      </trkpt>
      <trkpt lat="62.638057890618" lon="17.973783339911">
        <ele>86.8</ele>
        <time>2017-12-17T13:14:22Z</time>
      </trkpt>
      <trkpt lat="62.638059566998" lon="17.973847629084">
        <ele>86.8</ele>
        <time>2017-12-17T13:14:23Z</time>
      </trkpt>
      <trkpt lat="62.638061830111" lon="17.973914013732">
        <ele>86.8</ele>
        <time>2017-12-17T13:14:24Z</time>
      </trkpt>
      <trkpt lat="62.638064931414" lon="17.973963969856">
        <ele>86.8</ele>
        <time>2017-12-17T13:14:25Z</time>
      </trkpt>
      <trkpt lat="62.638066775432" lon="17.974031108875">
        <ele>86.8</ele>
        <time>2017-12-17T13:14:26Z</time>
      </trkpt>
      <trkpt lat="62.638071553115" lon="17.974083914845">
        <ele>86.8</ele>
        <time>2017-12-17T13:14:27Z</time>
      </trkpt>
      <trkpt lat="62.638075827884" lon="17.974155915366">
        <ele>86.8</ele>
        <time>2017-12-17T13:14:28Z</time>
      </trkpt>
      <trkpt lat="62.638084461241" lon="17.974209643345">
        <ele>86.8</ele>
        <time>2017-12-17T13:14:29Z</time>
      </trkpt>
      <trkpt lat="62.638087478725" lon="17.97426622117">
        <ele>86.8</ele>
        <time>2017-12-17T13:14:30Z</time>
      </trkpt>
      <trkpt lat="62.638086975811" lon="17.974340233347">
        <ele>86.6</ele>
        <time>2017-12-17T13:14:31Z</time>
      </trkpt>
      <trkpt lat="62.638092591684" lon="17.974396392077">
        <ele>86.6</ele>
        <time>2017-12-17T13:14:32Z</time>
      </trkpt>
      <trkpt lat="62.638094435702" lon="17.974467722046">
        <ele>86.6</ele>
        <time>2017-12-17T13:14:33Z</time>
      </trkpt>
      <trkpt lat="62.638092256408" lon="17.974540644576">
        <ele>86.6</ele>
        <time>2017-12-17T13:14:34Z</time>
      </trkpt>
      <trkpt lat="62.638090580028" lon="17.974589259596">
        <ele>86.8</ele>
        <time>2017-12-17T13:14:35Z</time>
      </trkpt>
      <trkpt lat="62.638080186472" lon="17.974668133275">
        <ele>86.6</ele>
        <time>2017-12-17T13:14:36Z</time>
      </trkpt>
      <trkpt lat="62.638072139848" lon="17.974735356113">
        <ele>86.8</ele>
        <time>2017-12-17T13:14:37Z</time>
      </trkpt>
      <trkpt lat="62.638058309713" lon="17.974796543983">
        <ele>86.8</ele>
        <time>2017-12-17T13:14:38Z</time>
      </trkpt>
      <trkpt lat="62.638038947524" lon="17.974853373265">
        <ele>86.6</ele>
        <time>2017-12-17T13:14:39Z</time>
      </trkpt>
      <trkpt lat="62.638027967235" lon="17.974900814819">
        <ele>86.6</ele>
        <time>2017-12-17T13:14:40Z</time>
      </trkpt>
      <trkpt lat="62.638009024141" lon="17.974943227233">
        <ele>86.8</ele>
        <time>2017-12-17T13:14:41Z</time>
      </trkpt>
      <trkpt lat="62.637993014712" lon="17.974986561656">
        <ele>86.8</ele>
        <time>2017-12-17T13:14:42Z</time>
      </trkpt>
      <trkpt lat="62.637972898152" lon="17.975029141708">
        <ele>87</ele>
        <time>2017-12-17T13:14:43Z</time>
      </trkpt>
      <trkpt lat="62.637954290334" lon="17.975063256041">
        <ele>87.2</ele>
        <time>2017-12-17T13:14:44Z</time>
      </trkpt>
      <trkpt lat="62.637942555674" lon="17.975103405342">
        <ele>87.2</ele>
        <time>2017-12-17T13:14:45Z</time>
      </trkpt>
      <trkpt lat="62.637922020019" lon="17.975141626806">
        <ele>87.4</ele>
        <time>2017-12-17T13:14:46Z</time>
      </trkpt>
      <trkpt lat="62.637905004762" lon="17.975177920433">
        <ele>87.6</ele>
        <time>2017-12-17T13:14:47Z</time>
      </trkpt>
      <trkpt lat="62.637885307297" lon="17.975219746114">
        <ele>87.8</ele>
        <time>2017-12-17T13:14:48Z</time>
      </trkpt>
      <trkpt lat="62.637864520185" lon="17.975254279542">
        <ele>87.8</ele>
        <time>2017-12-17T13:14:49Z</time>
      </trkpt>
      <trkpt lat="62.637851779697" lon="17.975288058599">
        <ele>88</ele>
        <time>2017-12-17T13:14:50Z</time>
      </trkpt>
      <trkpt lat="62.637827891282" lon="17.975324603683">
        <ele>88.2</ele>
        <time>2017-12-17T13:14:51Z</time>
      </trkpt>
      <trkpt lat="62.637815653708" lon="17.975355784351">
        <ele>88.2</ele>
        <time>2017-12-17T13:14:52Z</time>
      </trkpt>
      <trkpt lat="62.6377962077" lon="17.975386378286">
        <ele>88.2</ele>
        <time>2017-12-17T13:14:53Z</time>
      </trkpt>
      <trkpt lat="62.637774917674" lon="17.975416972221">
        <ele>88.4</ele>
        <time>2017-12-17T13:14:54Z</time>
      </trkpt>
      <trkpt lat="62.637758572969" lon="17.975445973595">
        <ele>88.6</ele>
        <time>2017-12-17T13:14:55Z</time>
      </trkpt>
      <trkpt lat="62.637739546056" lon="17.975469191458">
        <ele>88.8</ele>
        <time>2017-12-17T13:14:56Z</time>
      </trkpt>
      <trkpt lat="62.63772160879" lon="17.975488218371">
        <ele>89.2</ele>
        <time>2017-12-17T13:14:57Z</time>
      </trkpt>
      <trkpt lat="62.637700821678" lon="17.975505233628">
        <ele>89.4</ele>
        <time>2017-12-17T13:14:58Z</time>
      </trkpt>
      <trkpt lat="62.637681543308" lon="17.975530630785">
        <ele>89.6</ele>
        <time>2017-12-17T13:14:59Z</time>
      </trkpt>
      <trkpt lat="62.637657654893" lon="17.975546304938">
        <ele>89.8</ele>
        <time>2017-12-17T13:15:00Z</time>
      </trkpt>
      <trkpt lat="62.63763108427" lon="17.975562565824">
        <ele>90.2</ele>
        <time>2017-12-17T13:15:01Z</time>
      </trkpt>
      <trkpt lat="62.637609626606" lon="17.975578156158">
        <ele>90.4</ele>
        <time>2017-12-17T13:15:02Z</time>
      </trkpt>
      <trkpt lat="62.637585235277" lon="17.975591064284">
        <ele>90.6</ele>
        <time>2017-12-17T13:15:03Z</time>
      </trkpt>
      <trkpt lat="62.637566711278" lon="17.975606989894">
        <ele>90.8</ele>
        <time>2017-12-17T13:15:04Z</time>
      </trkpt>
      <trkpt lat="62.637545085976" lon="17.975620400934">
        <ele>91</ele>
        <time>2017-12-17T13:15:05Z</time>
      </trkpt>
      <trkpt lat="62.637519018267" lon="17.975635069259">
        <ele>91</ele>
        <time>2017-12-17T13:15:06Z</time>
      </trkpt>
      <trkpt lat="62.637502170648" lon="17.975652838887">
        <ele>91.2</ele>
        <time>2017-12-17T13:15:07Z</time>
      </trkpt>
      <trkpt lat="62.637478030776" lon="17.975663651538">
        <ele>91.4</ele>
        <time>2017-12-17T13:15:08Z</time>
      </trkpt>
      <trkpt lat="62.637460512605" lon="17.975682259356">
        <ele>91.8</ele>
        <time>2017-12-17T13:15:09Z</time>
      </trkpt>
      <trkpt lat="62.637437210923" lon="17.975690976532">
        <ele>92</ele>
        <time>2017-12-17T13:15:10Z</time>
      </trkpt>
      <trkpt lat="62.637415920897" lon="17.975714864947">
        <ele>92.2</ele>
        <time>2017-12-17T13:15:11Z</time>
      </trkpt>
      <trkpt lat="62.637394044138" lon="17.975733137489">
        <ele>92.2</ele>
        <time>2017-12-17T13:15:12Z</time>
      </trkpt>
      <trkpt lat="62.637367138239" lon="17.975755433343">
        <ele>92.4</ele>
        <time>2017-12-17T13:15:13Z</time>
      </trkpt>
      <trkpt lat="62.637351464086" lon="17.975781752509">
        <ele>92.6</ele>
        <time>2017-12-17T13:15:14Z</time>
      </trkpt>
      <trkpt lat="62.637328413861" lon="17.975804802734">
        <ele>92.6</ele>
        <time>2017-12-17T13:15:15Z</time>
      </trkpt>
      <trkpt lat="62.63731676302" lon="17.975839000886">
        <ele>92.6</ele>
        <time>2017-12-17T13:15:16Z</time>
      </trkpt>
      <trkpt lat="62.637300502134" lon="17.975859787998">
        <ele>92.6</ele>
        <time>2017-12-17T13:15:17Z</time>
      </trkpt>
      <trkpt lat="62.6372849118" lon="17.975888454096">
        <ele>93</ele>
        <time>2017-12-17T13:15:18Z</time>
      </trkpt>
      <trkpt lat="62.637276781357" lon="17.975923406619">
        <ele>93.2</ele>
        <time>2017-12-17T13:15:19Z</time>
      </trkpt>
      <trkpt lat="62.637262196851" lon="17.975964729386">
        <ele>93.4</ele>
        <time>2017-12-17T13:15:20Z</time>
      </trkpt>
      <trkpt lat="62.637244594861" lon="17.976005213963">
        <ele>93.6</ele>
        <time>2017-12-17T13:15:21Z</time>
      </trkpt>
      <trkpt lat="62.63722959126" lon="17.976045447083">
        <ele>93.8</ele>
        <time>2017-12-17T13:15:22Z</time>
      </trkpt>
      <trkpt lat="62.637219113885" lon="17.976086518393">
        <ele>94.2</ele>
        <time>2017-12-17T13:15:23Z</time>
      </trkpt>
      <trkpt lat="62.63720528375" lon="17.976133457033">
        <ele>94.4</ele>
        <time>2017-12-17T13:15:24Z</time>
      </trkpt>
      <trkpt lat="62.637200925162" lon="17.976187604107">
        <ele>94.8</ele>
        <time>2017-12-17T13:15:25Z</time>
      </trkpt>
      <trkpt lat="62.637186592113" lon="17.976237727869">
        <ele>95</ele>
        <time>2017-12-17T13:15:26Z</time>
      </trkpt>
      <trkpt lat="62.637181060059" lon="17.976291874943">
        <ele>95</ele>
        <time>2017-12-17T13:15:27Z</time>
      </trkpt>
      <trkpt lat="62.637168738666" lon="17.976343675085">
        <ele>95.2</ele>
        <time>2017-12-17T13:15:28Z</time>
      </trkpt>
      <trkpt lat="62.637158009834" lon="17.976397067788">
        <ele>95.2</ele>
        <time>2017-12-17T13:15:29Z</time>
      </trkpt>
      <trkpt lat="62.637144179699" lon="17.976445934265">
        <ele>95.2</ele>
        <time>2017-12-17T13:15:30Z</time>
      </trkpt>
      <trkpt lat="62.637132025944" lon="17.976499578425">
        <ele>95.4</ele>
        <time>2017-12-17T13:15:31Z</time>
      </trkpt>
      <trkpt lat="62.637122219121" lon="17.976551378567">
        <ele>95.6</ele>
        <time>2017-12-17T13:15:32Z</time>
      </trkpt>
      <trkpt lat="62.637113585764" lon="17.976609884229">
        <ele>95.6</ele>
        <time>2017-12-17T13:15:33Z</time>
      </trkpt>
      <trkpt lat="62.637108137529" lon="17.976663528389">
        <ele>95.8</ele>
        <time>2017-12-17T13:15:34Z</time>
      </trkpt>
      <trkpt lat="62.637103778941" lon="17.976713987427">
        <ele>96</ele>
        <time>2017-12-17T13:15:35Z</time>
      </trkpt>
      <trkpt lat="62.637102940751" lon="17.976769978519">
        <ele>96</ele>
        <time>2017-12-17T13:15:36Z</time>
      </trkpt>
      <trkpt lat="62.63710051" lon="17.976822868308">
        <ele>96.2</ele>
        <time>2017-12-17T13:15:37Z</time>
      </trkpt>
      <trkpt lat="62.63710051" lon="17.976882295979">
        <ele>96</ele>
        <time>2017-12-17T13:15:38Z</time>
      </trkpt>
      <trkpt lat="62.637100007086" lon="17.976938119433">
        <ele>96.2</ele>
        <time>2017-12-17T13:15:39Z</time>
      </trkpt>
      <trkpt lat="62.637098665982" lon="17.976993775249">
        <ele>96</ele>
        <time>2017-12-17T13:15:40Z</time>
      </trkpt>
      <trkpt lat="62.637098163068" lon="17.977038366957">
        <ele>96</ele>
        <time>2017-12-17T13:15:41Z</time>
      </trkpt>
      <trkpt lat="62.637096989602" lon="17.977106260347">
        <ele>96</ele>
        <time>2017-12-17T13:15:42Z</time>
      </trkpt>
      <trkpt lat="62.637100090905" lon="17.977172644995">
        <ele>96</ele>
        <time>2017-12-17T13:15:43Z</time>
      </trkpt>
      <trkpt lat="62.637095229403" lon="17.977241376575">
        <ele>95.8</ele>
        <time>2017-12-17T13:15:44Z</time>
      </trkpt>
      <trkpt lat="62.637090619358" lon="17.977303067359">
        <ele>95.8</ele>
        <time>2017-12-17T13:15:45Z</time>
      </trkpt>
      <trkpt lat="62.637081566906" lon="17.977360399555">
        <ele>95.8</ele>
        <time>2017-12-17T13:15:46Z</time>
      </trkpt>
      <trkpt lat="62.637070921893" lon="17.977410607136">
        <ele>95.8</ele>
        <time>2017-12-17T13:15:47Z</time>
      </trkpt>
      <trkpt lat="62.637058935776" lon="17.977464251296">
        <ele>96</ele>
        <time>2017-12-17T13:15:48Z</time>
      </trkpt>
      <trkpt lat="62.637043177804" lon="17.977517811637">
        <ele>95.8</ele>
        <time>2017-12-17T13:15:49Z</time>
      </trkpt>
      <trkpt lat="62.637029347669" lon="17.977564163544">
        <ele>95.8</ele>
        <time>2017-12-17T13:15:50Z</time>
      </trkpt>
      <trkpt lat="62.637015768991" lon="17.977611521279">
        <ele>96</ele>
        <time>2017-12-17T13:15:51Z</time>
      </trkpt>
      <trkpt lat="62.637001687399" lon="17.97766759619">
        <ele>96</ele>
        <time>2017-12-17T13:15:52Z</time>
      </trkpt>
      <trkpt lat="62.636992718766" lon="17.977714953925">
        <ele>96</ele>
        <time>2017-12-17T13:15:53Z</time>
      </trkpt>
      <trkpt lat="62.636979894459" lon="17.977772789035">
        <ele>96</ele>
        <time>2017-12-17T13:15:54Z</time>
      </trkpt>
      <trkpt lat="62.636970925826" lon="17.977828780127">
        <ele>96</ele>
        <time>2017-12-17T13:15:55Z</time>
      </trkpt>
      <trkpt lat="62.636965142315" lon="17.977871443998">
        <ele>96</ele>
        <time>2017-12-17T13:15:56Z</time>
      </trkpt>
      <trkpt lat="62.6369580177" lon="17.977923914692">
        <ele>96</ele>
        <time>2017-12-17T13:15:57Z</time>
      </trkpt>
      <trkpt lat="62.636952569465" lon="17.977978313223">
        <ele>96</ele>
        <time>2017-12-17T13:15:58Z</time>
      </trkpt>
      <trkpt lat="62.636944271384" lon="17.978032963211">
        <ele>96</ele>
        <time>2017-12-17T13:15:59Z</time>
      </trkpt>
      <trkpt lat="62.636934213104" lon="17.978089373398">
        <ele>96</ele>
        <time>2017-12-17T13:16:00Z</time>
      </trkpt>
      <trkpt lat="62.636928261955" lon="17.978132959278">
        <ele>96.2</ele>
        <time>2017-12-17T13:16:01Z</time>
      </trkpt>
      <trkpt lat="62.636917030209" lon="17.97818559761">
        <ele>96.2</ele>
        <time>2017-12-17T13:16:02Z</time>
      </trkpt>
      <trkpt lat="62.636907055748" lon="17.978228680576">
        <ele>96.2</ele>
        <time>2017-12-17T13:16:03Z</time>
      </trkpt>
      <trkpt lat="62.636898590029" lon="17.978280732175">
        <ele>96.2</ele>
        <time>2017-12-17T13:16:04Z</time>
      </trkpt>
      <trkpt lat="62.636890040491" lon="17.978313170128">
        <ele>96.4</ele>
        <time>2017-12-17T13:16:05Z</time>
      </trkpt>
      <trkpt lat="62.636868750465" lon="17.978380560604">
        <ele>96.4</ele>
        <time>2017-12-17T13:16:06Z</time>
      </trkpt>
      <trkpt lat="62.63685827309" lon="17.978424900855">
        <ele>96.4</ele>
        <time>2017-12-17T13:16:07Z</time>
      </trkpt>
      <trkpt lat="62.636834719951" lon="17.97847812592">
        <ele>96.4</ele>
        <time>2017-12-17T13:16:08Z</time>
      </trkpt>
      <trkpt lat="62.636819800169" lon="17.978518107583">
        <ele>96.4</ele>
        <time>2017-12-17T13:16:09Z</time>
      </trkpt>
      <trkpt lat="62.636798174867" lon="17.978570075363">
        <ele>96.4</ele>
        <time>2017-12-17T13:16:10Z</time>
      </trkpt>
      <trkpt lat="62.636783255085" lon="17.978603770601">
        <ele>96.4</ele>
        <time>2017-12-17T13:16:11Z</time>
      </trkpt>
      <trkpt lat="62.636763306163" lon="17.978636460011">
        <ele>96.6</ele>
        <time>2017-12-17T13:16:12Z</time>
      </trkpt>
      <trkpt lat="62.636744614526" lon="17.978659929331">
        <ele>96.6</ele>
        <time>2017-12-17T13:16:13Z</time>
      </trkpt>
      <trkpt lat="62.636719468826" lon="17.978681722271">
        <ele>96.6</ele>
        <time>2017-12-17T13:16:14Z</time>
      </trkpt>
      <trkpt lat="62.636700274275" lon="17.978706532695">
        <ele>96.8</ele>
        <time>2017-12-17T13:16:15Z</time>
      </trkpt>
      <trkpt lat="62.636675882946" lon="17.978719608459">
        <ele>96.8</ele>
        <time>2017-12-17T13:16:16Z</time>
      </trkpt>
      <trkpt lat="62.636655514929" lon="17.978740060295">
        <ele>96.8</ele>
        <time>2017-12-17T13:16:17Z</time>
      </trkpt>
      <trkpt lat="62.636627603202" lon="17.978752549326">
        <ele>96.8</ele>
        <time>2017-12-17T13:16:18Z</time>
      </trkpt>
      <trkpt lat="62.636601032579" lon="17.978757913742">
        <ele>97</ele>
        <time>2017-12-17T13:16:19Z</time>
      </trkpt>
      <trkpt lat="62.636577898535" lon="17.978764116348">
        <ele>97.2</ele>
        <time>2017-12-17T13:16:20Z</time>
      </trkpt>
      <trkpt lat="62.636550154446" lon="17.978765122176">
        <ele>97.4</ele>
        <time>2017-12-17T13:16:21Z</time>
      </trkpt>
      <trkpt lat="62.636530708438" lon="17.978771827696">
        <ele>97.4</ele>
        <time>2017-12-17T13:16:22Z</time>
      </trkpt>
      <trkpt lat="62.636506736204" lon="17.978770235135">
        <ele>97.6</ele>
        <time>2017-12-17T13:16:23Z</time>
      </trkpt>
      <trkpt lat="62.636482344875" lon="17.978776353922">
        <ele>97.8</ele>
        <time>2017-12-17T13:16:24Z</time>
      </trkpt>
      <trkpt lat="62.636459629926" lon="17.97877735975">
        <ele>97.8</ele>
        <time>2017-12-17T13:16:25Z</time>
      </trkpt>
      <trkpt lat="62.636439764823" lon="17.978776270103">
        <ele>98</ele>
        <time>2017-12-17T13:16:26Z</time>
      </trkpt>
      <trkpt lat="62.636418055702" lon="17.978784652003">
        <ele>98.2</ele>
        <time>2017-12-17T13:16:27Z</time>
      </trkpt>
      <trkpt lat="62.636394921658" lon="17.978791776618">
        <ele>98.4</ele>
        <time>2017-12-17T13:16:28Z</time>
      </trkpt>
      <trkpt lat="62.63637631384" lon="17.978790351695">
        <ele>98.6</ele>
        <time>2017-12-17T13:16:29Z</time>
      </trkpt>
      <trkpt lat="62.636357706022" lon="17.97879915269">
        <ele>98.8</ele>
        <time>2017-12-17T13:16:30Z</time>
      </trkpt>
      <trkpt lat="62.636338762928" lon="17.978807618409">
        <ele>99.2</ele>
        <time>2017-12-17T13:16:31Z</time>
      </trkpt>
      <trkpt lat="62.636322921137" lon="17.978814994481">
        <ele>99.4</ele>
        <time>2017-12-17T13:16:32Z</time>
      </trkpt>
      <trkpt lat="62.636304480957" lon="17.978827148236">
        <ele>99.6</ele>
        <time>2017-12-17T13:16:33Z</time>
      </trkpt>
      <trkpt lat="62.636288555347" lon="17.978843325303">
        <ele>99.6</ele>
        <time>2017-12-17T13:16:34Z</time>
      </trkpt>
      <trkpt lat="62.636273300289" lon="17.978856484886">
        <ele>100</ele>
        <time>2017-12-17T13:16:35Z</time>
      </trkpt>
      <trkpt lat="62.636258380507" lon="17.978871488487">
        <ele>100.2</ele>
        <time>2017-12-17T13:16:36Z</time>
      </trkpt>
      <trkpt lat="62.636242538716" lon="17.978889844848">
        <ele>100.2</ele>
        <time>2017-12-17T13:16:37Z</time>
      </trkpt>
      <trkpt lat="62.636224685269" lon="17.978905267544">
        <ele>100.6</ele>
        <time>2017-12-17T13:16:38Z</time>
      </trkpt>
      <trkpt lat="62.636211609505" lon="17.978920774059">
        <ele>100.8</ele>
        <time>2017-12-17T13:16:39Z</time>
      </trkpt>
      <trkpt lat="62.636201802682" lon="17.978938459868">
        <ele>100.8</ele>
        <time>2017-12-17T13:16:40Z</time>
      </trkpt>
      <trkpt lat="62.63619191204" lon="17.978950781261">
        <ele>101</ele>
        <time>2017-12-17T13:16:41Z</time>
      </trkpt>
      <trkpt lat="62.636183446321" lon="17.978962767378">
        <ele>101.2</ele>
        <time>2017-12-17T13:16:42Z</time>
      </trkpt>
      <trkpt lat="62.636174812964" lon="17.978978190074">
        <ele>101.4</ele>
        <time>2017-12-17T13:16:43Z</time>
      </trkpt>
      <trkpt lat="62.636165257598" lon="17.978990846743">
        <ele>101.6</ele>
        <time>2017-12-17T13:16:44Z</time>
      </trkpt>
      <trkpt lat="62.636156372784" lon="17.979000066833">
        <ele>101.8</ele>
        <time>2017-12-17T13:16:45Z</time>
      </trkpt>
      <trkpt lat="62.636147404151" lon="17.979009706018">
        <ele>102</ele>
        <time>2017-12-17T13:16:46Z</time>
      </trkpt>
      <trkpt lat="62.63613742969" lon="17.979020686307">
        <ele>102.2</ele>
        <time>2017-12-17T13:16:47Z</time>
      </trkpt>
      <trkpt lat="62.636124940659" lon="17.979036528098">
        <ele>102.4</ele>
        <time>2017-12-17T13:16:48Z</time>
      </trkpt>
      <trkpt lat="62.636115469112" lon="17.979045915826">
        <ele>102.6</ele>
        <time>2017-12-17T13:16:49Z</time>
      </trkpt>
      <trkpt lat="62.636107590126" lon="17.9790581534">
        <ele>102.8</ele>
        <time>2017-12-17T13:16:50Z</time>
      </trkpt>
      <trkpt lat="62.636096945113" lon="17.979082041815">
        <ele>103.2</ele>
        <time>2017-12-17T13:16:51Z</time>
      </trkpt>
      <trkpt lat="62.636088563213" lon="17.979111210827">
        <ele>103.4</ele>
        <time>2017-12-17T13:16:52Z</time>
      </trkpt>
      <trkpt lat="62.636076577096" lon="17.979143984056">
        <ele>103.4</ele>
        <time>2017-12-17T13:16:53Z</time>
      </trkpt>
      <trkpt lat="62.63606618354" lon="17.97918891104">
        <ele>103.6</ele>
        <time>2017-12-17T13:16:54Z</time>
      </trkpt>
      <trkpt lat="62.636053778328" lon="17.979236352594">
        <ele>103.6</ele>
        <time>2017-12-17T13:16:55Z</time>
      </trkpt>
      <trkpt lat="62.63603852327" lon="17.979279938474">
        <ele>104</ele>
        <time>2017-12-17T13:16:56Z</time>
      </trkpt>
      <trkpt lat="62.636028213533" lon="17.979324446363">
        <ele>104</ele>
        <time>2017-12-17T13:16:57Z</time>
      </trkpt>
      <trkpt lat="62.63601756852" lon="17.979380102179">
        <ele>104.2</ele>
        <time>2017-12-17T13:16:58Z</time>
      </trkpt>
      <trkpt lat="62.636011868828" lon="17.979445229542">
        <ele>104.4</ele>
        <time>2017-12-17T13:16:59Z</time>
      </trkpt>
      <trkpt lat="62.636011030638" lon="17.979525444325">
        <ele>104.6</ele>
        <time>2017-12-17T13:17:00Z</time>
      </trkpt>
      <trkpt lat="62.636007258783" lon="17.979627116772">
        <ele>104.6</ele>
        <time>2017-12-17T13:17:01Z</time>
      </trkpt>
      <trkpt lat="62.636003151652" lon="17.979754018738">
        <ele>104.4</ele>
        <time>2017-12-17T13:17:02Z</time>
      </trkpt>
      <trkpt lat="62.636001307634" lon="17.979911514639">
        <ele>103.8</ele>
        <time>2017-12-17T13:17:03Z</time>
      </trkpt>
      <trkpt lat="62.636006839688" lon="17.980056689147">
        <ele>102.8</ele>
        <time>2017-12-17T13:17:04Z</time>
      </trkpt>
      <trkpt lat="62.636015389226" lon="17.980186776235">
        <ele>101.8</ele>
        <time>2017-12-17T13:17:05Z</time>
      </trkpt>
      <trkpt lat="62.636024860773" lon="17.980350810018">
        <ele>100.6</ele>
        <time>2017-12-17T13:17:06Z</time>
      </trkpt>
      <trkpt lat="62.636043636229" lon="17.980487183531">
        <ele>99.8</ele>
        <time>2017-12-17T13:17:07Z</time>
      </trkpt>
      <trkpt lat="62.636070290671" lon="17.98064065612">
        <ele>99</ele>
        <time>2017-12-17T13:17:08Z</time>
      </trkpt>
      <trkpt lat="62.636096777475" lon="17.980777784004">
        <ele>98.6</ele>
        <time>2017-12-17T13:17:09Z</time>
      </trkpt>
      <trkpt lat="62.63612150408" lon="17.980899070097">
        <ele>98.4</ele>
        <time>2017-12-17T13:17:10Z</time>
      </trkpt>
      <trkpt lat="62.636149918721" lon="17.981026977891">
        <ele>98.2</ele>
        <time>2017-12-17T13:17:11Z</time>
      </trkpt>
      <trkpt lat="62.636170538195" lon="17.981164273413">
        <ele>98</ele>
        <time>2017-12-17T13:17:12Z</time>
      </trkpt>
      <trkpt lat="62.636188307823" lon="17.981313052138">
        <ele>97.8</ele>
        <time>2017-12-17T13:17:13Z</time>
      </trkpt>
      <trkpt lat="62.636199707207" lon="17.981444899425">
        <ele>97.6</ele>
        <time>2017-12-17T13:17:14Z</time>
      </trkpt>
      <trkpt lat="62.636210938953" lon="17.981568113355">
        <ele>97.4</ele>
        <time>2017-12-17T13:17:15Z</time>
      </trkpt>
      <trkpt lat="62.636222505975" lon="17.981686633421">
        <ele>97.2</ele>
        <time>2017-12-17T13:17:16Z</time>
      </trkpt>
      <trkpt lat="62.636236000834" lon="17.981786713307">
        <ele>97</ele>
        <time>2017-12-17T13:17:17Z</time>
      </trkpt>
      <trkpt lat="62.636247484037" lon="17.981914202006">
        <ele>96.8</ele>
        <time>2017-12-17T13:17:18Z</time>
      </trkpt>
      <trkpt lat="62.636253435186" lon="17.982024004896">
        <ele>96.8</ele>
        <time>2017-12-17T13:17:19Z</time>
      </trkpt>
      <trkpt lat="62.636257039403" lon="17.982126096438">
        <ele>96.8</ele>
        <time>2017-12-17T13:17:20Z</time>
      </trkpt>
      <trkpt lat="62.636266343312" lon="17.982228355618">
        <ele>96.6</ele>
        <time>2017-12-17T13:17:21Z</time>
      </trkpt>
      <trkpt lat="62.636271120995" lon="17.982320891794">
        <ele>96.6</ele>
        <time>2017-12-17T13:17:22Z</time>
      </trkpt>
      <trkpt lat="62.636276485411" lon="17.982416864549">
        <ele>96.8</ele>
        <time>2017-12-17T13:17:23Z</time>
      </trkpt>
      <trkpt lat="62.636278580886" lon="17.982511077105">
        <ele>97</ele>
        <time>2017-12-17T13:17:24Z</time>
      </trkpt>
      <trkpt lat="62.636280843999" lon="17.982594309372">
        <ele>97.2</ele>
        <time>2017-12-17T13:17:25Z</time>
      </trkpt>
      <trkpt lat="62.636300290007" lon="17.982666309893">
        <ele>97.6</ele>
        <time>2017-12-17T13:17:26Z</time>
      </trkpt>
      <trkpt lat="62.636302888396" lon="17.982744848296">
        <ele>97.8</ele>
        <time>2017-12-17T13:17:27Z</time>
      </trkpt>
      <trkpt lat="62.636303223672" lon="17.982832355332">
        <ele>98</ele>
        <time>2017-12-17T13:17:28Z</time>
      </trkpt>
      <trkpt lat="62.636298781265" lon="17.982910307002">
        <ele>97.8</ele>
        <time>2017-12-17T13:17:29Z</time>
      </trkpt>
      <trkpt lat="62.636294087401" lon="17.983002088807">
        <ele>98</ele>
        <time>2017-12-17T13:17:30Z</time>
      </trkpt>
      <trkpt lat="62.636295512324" lon="17.983085321074">
        <ele>98</ele>
        <time>2017-12-17T13:17:31Z</time>
      </trkpt>
      <trkpt lat="62.636299703274" lon="17.983149107333">
        <ele>98.2</ele>
        <time>2017-12-17T13:17:32Z</time>
      </trkpt>
      <trkpt lat="62.636299703274" lon="17.983226053175">
        <ele>98.2</ele>
        <time>2017-12-17T13:17:33Z</time>
      </trkpt>
      <trkpt lat="62.636301798749" lon="17.983299813895">
        <ele>98.2</ele>
        <time>2017-12-17T13:17:34Z</time>
      </trkpt>
      <trkpt lat="62.636304648595" lon="17.983352619865">
        <ele>98.2</ele>
        <time>2017-12-17T13:17:35Z</time>
      </trkpt>
      <trkpt lat="62.636299284179" lon="17.98342763787">
        <ele>98.4</ele>
        <time>2017-12-17T13:17:36Z</time>
      </trkpt>
      <trkpt lat="62.636294003582" lon="17.983484048057">
        <ele>98.4</ele>
        <time>2017-12-17T13:17:37Z</time>
      </trkpt>
      <trkpt lat="62.636289728813" lon="17.983551187076">
        <ele>98.4</ele>
        <time>2017-12-17T13:17:38Z</time>
      </trkpt>
      <trkpt lat="62.636284532035" lon="17.983608770729">
        <ele>98.6</ele>
        <time>2017-12-17T13:17:39Z</time>
      </trkpt>
      <trkpt lat="62.636277575058" lon="17.983678927232">
        <ele>98.6</ele>
        <time>2017-12-17T13:17:40Z</time>
      </trkpt>
      <trkpt lat="62.636273635565" lon="17.983746820622">
        <ele>98.6</ele>
        <time>2017-12-17T13:17:41Z</time>
      </trkpt>
      <trkpt lat="62.636273719384" lon="17.98380314699">
        <ele>98.8</ele>
        <time>2017-12-17T13:17:42Z</time>
      </trkpt>
      <trkpt lat="62.636262655276" lon="17.983872213846">
        <ele>99</ele>
        <time>2017-12-17T13:17:43Z</time>
      </trkpt>
      <trkpt lat="62.636258799602" lon="17.983936838295">
        <ele>99</ele>
        <time>2017-12-17T13:17:44Z</time>
      </trkpt>
      <trkpt lat="62.63624890896" lon="17.983989476627">
        <ele>99.4</ele>
        <time>2017-12-17T13:17:45Z</time>
      </trkpt>
      <trkpt lat="62.636240443241" lon="17.984050496859">
        <ele>99.4</ele>
        <time>2017-12-17T13:17:46Z</time>
      </trkpt>
      <trkpt lat="62.636234492092" lon="17.984097938413">
        <ele>99.6</ele>
        <time>2017-12-17T13:17:47Z</time>
      </trkpt>
      <trkpt lat="62.636229043857" lon="17.984164490699">
        <ele>99.6</ele>
        <time>2017-12-17T13:17:48Z</time>
      </trkpt>
      <trkpt lat="62.636220745776" lon="17.984218134859">
        <ele>99.8</ele>
        <time>2017-12-17T13:17:49Z</time>
      </trkpt>
      <trkpt lat="62.63622460145" lon="17.984259541445">
        <ele>99.8</ele>
        <time>2017-12-17T13:17:50Z</time>
      </trkpt>
      <trkpt lat="62.636218231206" lon="17.984327099559">
        <ele>99.8</ele>
        <time>2017-12-17T13:17:51Z</time>
      </trkpt>
      <trkpt lat="62.636218985577" lon="17.984392897474">
        <ele>99.8</ele>
        <time>2017-12-17T13:17:52Z</time>
      </trkpt>
      <trkpt lat="62.636216303369" lon="17.984448804747">
        <ele>100</ele>
        <time>2017-12-17T13:17:53Z</time>
      </trkpt>
      <trkpt lat="62.636212615333" lon="17.984509908798">
        <ele>99.8</ele>
        <time>2017-12-17T13:17:54Z</time>
      </trkpt>
      <trkpt lat="62.636215632817" lon="17.984567408632">
        <ele>99.8</ele>
        <time>2017-12-17T13:17:55Z</time>
      </trkpt>
      <trkpt lat="62.636210687496" lon="17.984626920122">
        <ele>100</ele>
        <time>2017-12-17T13:17:56Z</time>
      </trkpt>
      <trkpt lat="62.636208843478" lon="17.984687185983">
        <ele>100</ele>
        <time>2017-12-17T13:17:57Z</time>
      </trkpt>
      <trkpt lat="62.636206915641" lon="17.984738986125">
        <ele>100.2</ele>
        <time>2017-12-17T13:17:58Z</time>
      </trkpt>
      <trkpt lat="62.636202221777" lon="17.98478969662">
        <ele>100.2</ele>
        <time>2017-12-17T13:17:59Z</time>
      </trkpt>
      <trkpt lat="62.636200042483" lon="17.984847364092">
        <ele>100.4</ele>
        <time>2017-12-17T13:18:00Z</time>
      </trkpt>
      <trkpt lat="62.636197611732" lon="17.984898996596">
        <ele>100.4</ele>
        <time>2017-12-17T13:18:01Z</time>
      </trkpt>
      <trkpt lat="62.636192582592" lon="17.984949287996">
        <ele>100.6</ele>
        <time>2017-12-17T13:18:02Z</time>
      </trkpt>
      <trkpt lat="62.636190738574" lon="17.985019276861">
        <ele>100.6</ele>
        <time>2017-12-17T13:18:03Z</time>
      </trkpt>
      <trkpt lat="62.636190570936" lon="17.985064120026">
        <ele>100.8</ele>
        <time>2017-12-17T13:18:04Z</time>
      </trkpt>
      <trkpt lat="62.63618604471" lon="17.985120194937">
        <ele>101</ele>
        <time>2017-12-17T13:18:05Z</time>
      </trkpt>
      <trkpt lat="62.636183949235" lon="17.98517358764">
        <ele>101.2</ele>
        <time>2017-12-17T13:18:06Z</time>
      </trkpt>
      <trkpt lat="62.636174477688" lon="17.985231841845">
        <ele>101.2</ele>
        <time>2017-12-17T13:18:07Z</time>
      </trkpt>
      <trkpt lat="62.636169532367" lon="17.985291269516">
        <ele>101.4</ele>
        <time>2017-12-17T13:18:08Z</time>
      </trkpt>
      <trkpt lat="62.636163329761" lon="17.985345500409">
        <ele>101.4</ele>
        <time>2017-12-17T13:18:09Z</time>
      </trkpt>
      <trkpt lat="62.63616592815" lon="17.985400569492">
        <ele>101.6</ele>
        <time>2017-12-17T13:18:10Z</time>
      </trkpt>
      <trkpt lat="62.636159390268" lon="17.985450860892">
        <ele>101.6</ele>
        <time>2017-12-17T13:18:11Z</time>
      </trkpt>
      <trkpt lat="62.636151846558" lon="17.985511126753">
        <ele>101.6</ele>
        <time>2017-12-17T13:18:12Z</time>
      </trkpt>
      <trkpt lat="62.636139525165" lon="17.985568291311">
        <ele>101.8</ele>
        <time>2017-12-17T13:18:13Z</time>
      </trkpt>
      <trkpt lat="62.636128544876" lon="17.985629898276">
        <ele>101.6</ele>
        <time>2017-12-17T13:18:14Z</time>
      </trkpt>
      <trkpt lat="62.636117899863" lon="17.985680776409">
        <ele>101.8</ele>
        <time>2017-12-17T13:18:15Z</time>
      </trkpt>
      <trkpt lat="62.636101471339" lon="17.985730900171">
        <ele>101.8</ele>
        <time>2017-12-17T13:18:16Z</time>
      </trkpt>
      <trkpt lat="62.636089485222" lon="17.985767277617">
        <ele>101.8</ele>
        <time>2017-12-17T13:18:17Z</time>
      </trkpt>
      <trkpt lat="62.636072386146" lon="17.985806924004">
        <ele>101.8</ele>
        <time>2017-12-17T13:18:18Z</time>
      </trkpt>
      <trkpt lat="62.636057131088" lon="17.985837601758">
        <ele>102.2</ele>
        <time>2017-12-17T13:18:19Z</time>
      </trkpt>
      <trkpt lat="62.63603768508" lon="17.985869452978">
        <ele>102.2</ele>
        <time>2017-12-17T13:18:20Z</time>
      </trkpt>
      <trkpt lat="62.636008264611" lon="17.985902310026">
        <ele>102.4</ele>
        <time>2017-12-17T13:18:21Z</time>
      </trkpt>
      <trkpt lat="62.635989572974" lon="17.985929215925">
        <ele>102.6</ele>
        <time>2017-12-17T13:18:22Z</time>
      </trkpt>
      <trkpt lat="62.635966774206" lon="17.985949835399">
        <ele>102.6</ele>
        <time>2017-12-17T13:18:23Z</time>
      </trkpt>
      <trkpt lat="62.635947412017" lon="17.985974562004">
        <ele>102.8</ele>
        <time>2017-12-17T13:18:24Z</time>
      </trkpt>
      <trkpt lat="62.635921931041" lon="17.985987637768">
        <ele>102.8</ele>
        <time>2017-12-17T13:18:25Z</time>
      </trkpt>
      <trkpt lat="62.635905167241" lon="17.986007502871">
        <ele>103</ele>
        <time>2017-12-17T13:18:26Z</time>
      </trkpt>
      <trkpt lat="62.63587926717" lon="17.986030636915">
        <ele>103</ele>
        <time>2017-12-17T13:18:27Z</time>
      </trkpt>
      <trkpt lat="62.635856049307" lon="17.986060811755">
        <ele>103.2</ele>
        <time>2017-12-17T13:18:28Z</time>
      </trkpt>
      <trkpt lat="62.635829730141" lon="17.986088472025">
        <ele>103</ele>
        <time>2017-12-17T13:18:29Z</time>
      </trkpt>
      <trkpt lat="62.63580634464" lon="17.986118814503">
        <ele>103.2</ele>
        <time>2017-12-17T13:18:30Z</time>
      </trkpt>
      <trkpt lat="62.635780276931" lon="17.986146223316">
        <ele>103</ele>
        <time>2017-12-17T13:18:31Z</time>
      </trkpt>
      <trkpt lat="62.635768039357" lon="17.986166339876">
        <ele>103.2</ele>
        <time>2017-12-17T13:18:32Z</time>
      </trkpt>
      <trkpt lat="62.63574767134" lon="17.986201962951">
        <ele>103.2</ele>
        <time>2017-12-17T13:18:33Z</time>
      </trkpt>
      <trkpt lat="62.635730488445" lon="17.986241190243">
        <ele>103.2</ele>
        <time>2017-12-17T13:18:34Z</time>
      </trkpt>
      <trkpt lat="62.635710120428" lon="17.986267760866">
        <ele>103.2</ele>
        <time>2017-12-17T13:18:35Z</time>
      </trkpt>
      <trkpt lat="62.635693440447" lon="17.986309418909">
        <ele>103.6</ele>
        <time>2017-12-17T13:18:36Z</time>
      </trkpt>
      <trkpt lat="62.635675503181" lon="17.986348394744">
        <ele>103.8</ele>
        <time>2017-12-17T13:18:37Z</time>
      </trkpt>
      <trkpt lat="62.635656140992" lon="17.986390388063">
        <ele>104.2</ele>
        <time>2017-12-17T13:18:38Z</time>
      </trkpt>
      <trkpt lat="62.635640969753" lon="17.986437661979">
        <ele>104.4</ele>
        <time>2017-12-17T13:18:39Z</time>
      </trkpt>
      <trkpt lat="62.635625211781" lon="17.986474207063">
        <ele>104.6</ele>
        <time>2017-12-17T13:18:40Z</time>
      </trkpt>
      <trkpt lat="62.635612219836" lon="17.986516535658">
        <ele>104.6</ele>
        <time>2017-12-17T13:18:41Z</time>
      </trkpt>
      <trkpt lat="62.63559260619" lon="17.986562636108">
        <ele>104.4</ele>
        <time>2017-12-17T13:18:42Z</time>
      </trkpt>
      <trkpt lat="62.6355750042" lon="17.986623321064">
        <ele>104.6</ele>
        <time>2017-12-17T13:18:43Z</time>
      </trkpt>
      <trkpt lat="62.635558408038" lon="17.98667059498">
        <ele>104.6</ele>
        <time>2017-12-17T13:18:44Z</time>
      </trkpt>
      <trkpt lat="62.635543572075" lon="17.986713845584">
        <ele>104.6</ele>
        <time>2017-12-17T13:18:45Z</time>
      </trkpt>
      <trkpt lat="62.635528317017" lon="17.986755587446">
        <ele>104.6</ele>
        <time>2017-12-17T13:18:46Z</time>
      </trkpt>
      <trkpt lat="62.635513397235" lon="17.986791881073">
        <ele>104.6</ele>
        <time>2017-12-17T13:18:47Z</time>
      </trkpt>
      <trkpt lat="62.635499650919" lon="17.986845860509">
        <ele>105</ele>
        <time>2017-12-17T13:18:48Z</time>
      </trkpt>
      <trkpt lat="62.635481546015" lon="17.986887183276">
        <ele>105.2</ele>
        <time>2017-12-17T13:18:49Z</time>
      </trkpt>
      <trkpt lat="62.63546436312" lon="17.986935546839">
        <ele>105.2</ele>
        <time>2017-12-17T13:18:50Z</time>
      </trkpt>
      <trkpt lat="62.635448018415" lon="17.98697821071">
        <ele>105.6</ele>
        <time>2017-12-17T13:18:51Z</time>
      </trkpt>
      <trkpt lat="62.635432260443" lon="17.987017773278">
        <ele>105.6</ele>
        <time>2017-12-17T13:18:52Z</time>
      </trkpt>
      <trkpt lat="62.635416418652" lon="17.987048702489">
        <ele>105.6</ele>
        <time>2017-12-17T13:18:53Z</time>
      </trkpt>
      <trkpt lat="62.635398732843" lon="17.98709220455">
        <ele>105.6</ele>
        <time>2017-12-17T13:18:54Z</time>
      </trkpt>
      <trkpt lat="62.635385657079" lon="17.987129336367">
        <ele>106</ele>
        <time>2017-12-17T13:18:55Z</time>
      </trkpt>
      <trkpt lat="62.635365624338" lon="17.987173425161">
        <ele>106</ele>
        <time>2017-12-17T13:18:56Z</time>
      </trkpt>
      <trkpt lat="62.63535288385" lon="17.987220531439">
        <ele>106.2</ele>
        <time>2017-12-17T13:18:57Z</time>
      </trkpt>
      <trkpt lat="62.635330671815" lon="17.987257160342">
        <ele>106.2</ele>
        <time>2017-12-17T13:18:58Z</time>
      </trkpt>
      <trkpt lat="62.635320278259" lon="17.987293621607">
        <ele>106.4</ele>
        <time>2017-12-17T13:18:59Z</time>
      </trkpt>
      <trkpt lat="62.635293204722" lon="17.987328657949">
        <ele>106.2</ele>
        <time>2017-12-17T13:19:00Z</time>
      </trkpt>
      <trkpt lat="62.63527660856" lon="17.987360090074">
        <ele>106.2</ele>
        <time>2017-12-17T13:19:01Z</time>
      </trkpt>
      <trkpt lat="62.635257833104" lon="17.987386157783">
        <ele>106.4</ele>
        <time>2017-12-17T13:19:02Z</time>
      </trkpt>
      <trkpt lat="62.635246349901" lon="17.987422283772">
        <ele>106.6</ele>
        <time>2017-12-17T13:19:03Z</time>
      </trkpt>
      <trkpt lat="62.635228077359" lon="17.987451536603">
        <ele>106.6</ele>
        <time>2017-12-17T13:19:04Z</time>
      </trkpt>
      <trkpt lat="62.635212235568" lon="17.987486321488">
        <ele>106.8</ele>
        <time>2017-12-17T13:19:05Z</time>
      </trkpt>
      <trkpt lat="62.635195471768" lon="17.98751800507">
        <ele>106.8</ele>
        <time>2017-12-17T13:19:06Z</time>
      </trkpt>
      <trkpt lat="62.635172924457" lon="17.987557232362">
        <ele>107</ele>
        <time>2017-12-17T13:19:07Z</time>
      </trkpt>
      <trkpt lat="62.635157920856" lon="17.987592101066">
        <ele>107</ele>
        <time>2017-12-17T13:19:08Z</time>
      </trkpt>
      <trkpt lat="62.635138223391" lon="17.98762696977">
        <ele>107.2</ele>
        <time>2017-12-17T13:19:09Z</time>
      </trkpt>
      <trkpt lat="62.635118442107" lon="17.987656893153">
        <ele>107.2</ele>
        <time>2017-12-17T13:19:10Z</time>
      </trkpt>
      <trkpt lat="62.635103270868" lon="17.987691845676">
        <ele>107.4</ele>
        <time>2017-12-17T13:19:11Z</time>
      </trkpt>
      <trkpt lat="62.635083489584" lon="17.987726546742">
        <ele>107.6</ele>
        <time>2017-12-17T13:19:12Z</time>
      </trkpt>
      <trkpt lat="62.635059265893" lon="17.987763846197">
        <ele>107.6</ele>
        <time>2017-12-17T13:19:13Z</time>
      </trkpt>
      <trkpt lat="62.635041160989" lon="17.987800642738">
        <ele>107.8</ele>
        <time>2017-12-17T13:19:14Z</time>
      </trkpt>
      <trkpt lat="62.635019032773" lon="17.987834924709">
        <ele>107.8</ele>
        <time>2017-12-17T13:19:15Z</time>
      </trkpt>
      <trkpt lat="62.634996066367" lon="17.987865267187">
        <ele>108</ele>
        <time>2017-12-17T13:19:16Z</time>
      </trkpt>
      <trkpt lat="62.634978883472" lon="17.987892676">
        <ele>108.2</ele>
        <time>2017-12-17T13:19:17Z</time>
      </trkpt>
      <trkpt lat="62.634951977573" lon="17.987919749537">
        <ele>108.2</ele>
        <time>2017-12-17T13:19:18Z</time>
      </trkpt>
      <trkpt lat="62.634933537393" lon="17.987947828902">
        <ele>108.4</ele>
        <time>2017-12-17T13:19:19Z</time>
      </trkpt>
      <trkpt lat="62.634915181032" lon="17.987968196919">
        <ele>108.6</ele>
        <time>2017-12-17T13:19:20Z</time>
      </trkpt>
      <trkpt lat="62.634892885178" lon="17.987988648755">
        <ele>108.8</ele>
        <time>2017-12-17T13:19:21Z</time>
      </trkpt>
      <trkpt lat="62.63487846831" lon="17.988013040084">
        <ele>109</ele>
        <time>2017-12-17T13:19:22Z</time>
      </trkpt>
      <trkpt lat="62.634857345922" lon="17.988036174128">
        <ele>109</ele>
        <time>2017-12-17T13:19:23Z</time>
      </trkpt>
      <trkpt lat="62.634828679824" lon="17.9880519321">
        <ele>109.2</ele>
        <time>2017-12-17T13:19:24Z</time>
      </trkpt>
      <trkpt lat="62.63479632569" lon="17.988097864912">
        <ele>109.2</ele>
        <time>2017-12-17T13:19:25Z</time>
      </trkpt>
      <trkpt lat="62.63476112171" lon="17.988112197961">
        <ele>109.4</ele>
        <time>2017-12-17T13:19:26Z</time>
      </trkpt>
      <trkpt lat="62.634736478924" lon="17.988128710304">
        <ele>109.6</ele>
        <time>2017-12-17T13:19:27Z</time>
      </trkpt>
      <trkpt lat="62.634708734835" lon="17.988127033924">
        <ele>109.6</ele>
        <time>2017-12-17T13:19:28Z</time>
      </trkpt>
      <trkpt lat="62.634683421497" lon="17.988146731389">
        <ele>109.6</ele>
        <time>2017-12-17T13:19:29Z</time>
      </trkpt>
      <trkpt lat="62.634659533082" lon="17.98814580938">
        <ele>109.8</ele>
        <time>2017-12-17T13:19:30Z</time>
      </trkpt>
      <trkpt lat="62.634638578332" lon="17.988157041126">
        <ele>109.8</ele>
        <time>2017-12-17T13:19:31Z</time>
      </trkpt>
      <trkpt lat="62.634610331329" lon="17.988162908456">
        <ele>109.8</ele>
        <time>2017-12-17T13:19:32Z</time>
      </trkpt>
      <trkpt lat="62.634588957484" lon="17.988172212365">
        <ele>110</ele>
        <time>2017-12-17T13:19:33Z</time>
      </trkpt>
      <trkpt lat="62.634567164544" lon="17.9881692787">
        <ele>110</ele>
        <time>2017-12-17T13:19:34Z</time>
      </trkpt>
      <trkpt lat="62.634550400744" lon="17.988175062211">
        <ele>110.2</ele>
        <time>2017-12-17T13:19:35Z</time>
      </trkpt>
      <trkpt lat="62.634520225904" lon="17.988179504618">
        <ele>110.2</ele>
        <time>2017-12-17T13:19:36Z</time>
      </trkpt>
      <trkpt lat="62.63448954815" lon="17.988201381377">
        <ele>110.4</ele>
        <time>2017-12-17T13:19:37Z</time>
      </trkpt>
      <trkpt lat="62.634456774921" lon="17.988210098553">
        <ele>110.4</ele>
        <time>2017-12-17T13:19:38Z</time>
      </trkpt>
      <trkpt lat="62.634429952841" lon="17.988222671403">
        <ele>110.4</ele>
        <time>2017-12-17T13:19:39Z</time>
      </trkpt>
      <trkpt lat="62.634405980607" lon="17.988219234824">
        <ele>110.6</ele>
        <time>2017-12-17T13:19:40Z</time>
      </trkpt>
      <trkpt lat="62.634382343649" lon="17.988216887892">
        <ele>110.8</ele>
        <time>2017-12-17T13:19:41Z</time>
      </trkpt>
      <trkpt lat="62.634357533225" lon="17.988222671403">
        <ele>110.8</ele>
        <time>2017-12-17T13:19:42Z</time>
      </trkpt>
      <trkpt lat="62.634328531851" lon="17.988219989195">
        <ele>111</ele>
        <time>2017-12-17T13:19:43Z</time>
      </trkpt>
      <trkpt lat="62.634300284848" lon="17.988225688887">
        <ele>111</ele>
        <time>2017-12-17T13:19:44Z</time>
      </trkpt>
      <trkpt lat="62.634269187999" lon="17.988218648091">
        <ele>111.2</ele>
        <time>2017-12-17T13:19:45Z</time>
      </trkpt>
      <trkpt lat="62.634234906028" lon="17.988219234824">
        <ele>111.4</ele>
        <time>2017-12-17T13:19:46Z</time>
      </trkpt>
      <trkpt lat="62.634209508871" lon="17.98821286458">
        <ele>111.2</ele>
        <time>2017-12-17T13:19:47Z</time>
      </trkpt>
      <trkpt lat="62.634173885796" lon="17.988209847096">
        <ele>111.4</ele>
        <time>2017-12-17T13:19:48Z</time>
      </trkpt>
      <trkpt lat="62.634148069544" lon="17.988194340581">
        <ele>111.4</ele>
        <time>2017-12-17T13:19:49Z</time>
      </trkpt>
      <trkpt lat="62.634123762034" lon="17.988178666428">
        <ele>111.4</ele>
        <time>2017-12-17T13:19:50Z</time>
      </trkpt>
      <trkpt lat="62.634094425384" lon="17.988165506845">
        <ele>111.4</ele>
        <time>2017-12-17T13:19:51Z</time>
      </trkpt>
      <trkpt lat="62.634069866417" lon="17.988146312294">
        <ele>111.4</ele>
        <time>2017-12-17T13:19:52Z</time>
      </trkpt>
      <trkpt lat="62.634044301622" lon="17.988131224874">
        <ele>111.4</ele>
        <time>2017-12-17T13:19:53Z</time>
      </trkpt>
      <trkpt lat="62.634013707687" lon="17.988107839373">
        <ele>111.6</ele>
        <time>2017-12-17T13:19:54Z</time>
      </trkpt>
      <trkpt lat="62.633986047417" lon="17.988096439989">
        <ele>111.8</ele>
        <time>2017-12-17T13:19:55Z</time>
      </trkpt>
      <trkpt lat="62.63395981207" lon="17.988073138307">
        <ele>111.8</ele>
        <time>2017-12-17T13:19:56Z</time>
      </trkpt>
      <trkpt lat="62.633934582551" lon="17.988071629565">
        <ele>112</ele>
        <time>2017-12-17T13:19:57Z</time>
      </trkpt>
      <trkpt lat="62.633907760471" lon="17.988045897132">
        <ele>112.2</ele>
        <time>2017-12-17T13:19:58Z</time>
      </trkpt>
      <trkpt lat="62.633885380798" lon="17.988036341766">
        <ele>112</ele>
        <time>2017-12-17T13:19:59Z</time>
      </trkpt>
      <trkpt lat="62.633857720528" lon="17.988007759487">
        <ele>112</ele>
        <time>2017-12-17T13:20:00Z</time>
      </trkpt>
      <trkpt lat="62.633830395534" lon="17.98799912613">
        <ele>112</ele>
        <time>2017-12-17T13:20:01Z</time>
      </trkpt>
      <trkpt lat="62.63381145244" lon="17.987966939634">
        <ele>112</ele>
        <time>2017-12-17T13:20:02Z</time>
      </trkpt>
      <trkpt lat="62.633782786342" lon="17.987946571617">
        <ele>112.2</ele>
        <time>2017-12-17T13:20:03Z</time>
      </trkpt>
      <trkpt lat="62.633760658126" lon="17.987928550532">
        <ele>112</ele>
        <time>2017-12-17T13:20:04Z</time>
      </trkpt>
      <trkpt lat="62.63373433896" lon="17.987902231366">
        <ele>112.2</ele>
        <time>2017-12-17T13:20:05Z</time>
      </trkpt>
      <trkpt lat="62.633707600699" lon="17.987878259132">
        <ele>112.2</ele>
        <time>2017-12-17T13:20:06Z</time>
      </trkpt>
      <trkpt lat="62.633681616809" lon="17.987851185595">
        <ele>112.4</ele>
        <time>2017-12-17T13:20:07Z</time>
      </trkpt>
      <trkpt lat="62.633656052014" lon="17.987823860601">
        <ele>112.4</ele>
        <time>2017-12-17T13:20:08Z</time>
      </trkpt>
      <trkpt lat="62.633638198567" lon="17.987801732385">
        <ele>112.4</ele>
        <time>2017-12-17T13:20:09Z</time>
      </trkpt>
      <trkpt lat="62.633614813066" lon="17.987774658848">
        <ele>112.6</ele>
        <time>2017-12-17T13:20:10Z</time>
      </trkpt>
      <trkpt lat="62.633593103945" lon="17.987744484008">
        <ele>112.8</ele>
        <time>2017-12-17T13:20:11Z</time>
      </trkpt>
      <trkpt lat="62.633571059548" lon="17.987729396588">
        <ele>112.8</ele>
        <time>2017-12-17T13:20:12Z</time>
      </trkpt>
      <trkpt lat="62.633549434246" lon="17.987703077422">
        <ele>113.2</ele>
        <time>2017-12-17T13:20:13Z</time>
      </trkpt>
      <trkpt lat="62.633530323514" lon="17.987663933949">
        <ele>113.4</ele>
        <time>2017-12-17T13:20:14Z</time>
      </trkpt>
      <trkpt lat="62.633510206954" lon="17.987634764937">
        <ele>113.6</ele>
        <time>2017-12-17T13:20:15Z</time>
      </trkpt>
      <trkpt lat="62.633486150901" lon="17.987595789102">
        <ele>113.6</ele>
        <time>2017-12-17T13:20:16Z</time>
      </trkpt>
      <trkpt lat="62.633463100676" lon="17.987561926226">
        <ele>113.6</ele>
        <time>2017-12-17T13:20:17Z</time>
      </trkpt>
      <trkpt lat="62.633436278596" lon="17.987526554608">
        <ele>113.8</ele>
        <time>2017-12-17T13:20:18Z</time>
      </trkpt>
      <trkpt lat="62.63341331219" lon="17.987490847714">
        <ele>114</ele>
        <time>2017-12-17T13:20:19Z</time>
      </trkpt>
      <trkpt lat="62.633390010508" lon="17.987458325942">
        <ele>114</ele>
        <time>2017-12-17T13:20:20Z</time>
      </trkpt>
      <trkpt lat="62.633370061586" lon="17.987416081166">
        <ele>114.2</ele>
        <time>2017-12-17T13:20:21Z</time>
      </trkpt>
      <trkpt lat="62.633352794872" lon="17.98737886553">
        <ele>114.2</ele>
        <time>2017-12-17T13:20:22Z</time>
      </trkpt>
      <trkpt lat="62.633333013588" lon="17.987325808103">
        <ele>114.4</ele>
        <time>2017-12-17T13:20:23Z</time>
      </trkpt>
      <trkpt lat="62.633306275327" lon="17.987267637717">
        <ele>114.4</ele>
        <time>2017-12-17T13:20:24Z</time>
      </trkpt>
      <trkpt lat="62.633282386912" lon="17.987198067947">
        <ele>114.6</ele>
        <time>2017-12-17T13:20:25Z</time>
      </trkpt>
      <trkpt lat="62.633264617284" lon="17.987129420186">
        <ele>114.8</ele>
        <time>2017-12-17T13:20:26Z</time>
      </trkpt>
      <trkpt lat="62.633246847656" lon="17.987038811847">
        <ele>114.8</ele>
        <time>2017-12-17T13:20:27Z</time>
      </trkpt>
      <trkpt lat="62.633227904562" lon="17.986914759727">
        <ele>114.6</ele>
        <time>2017-12-17T13:20:28Z</time>
      </trkpt>
      <trkpt lat="62.633210973124" lon="17.986804370104">
        <ele>114.2</ele>
        <time>2017-12-17T13:20:29Z</time>
      </trkpt>
      <trkpt lat="62.633197142989" lon="17.986679563613">
        <ele>113.4</ele>
        <time>2017-12-17T13:20:30Z</time>
      </trkpt>
      <trkpt lat="62.633186581795" lon="17.986558026063">
        <ele>112.6</ele>
        <time>2017-12-17T13:20:31Z</time>
      </trkpt>
      <trkpt lat="62.633180127732" lon="17.986459454919">
        <ele>111.8</ele>
        <time>2017-12-17T13:20:32Z</time>
      </trkpt>
      <trkpt lat="62.633174511859" lon="17.986344036156">
        <ele>111.2</ele>
        <time>2017-12-17T13:20:33Z</time>
      </trkpt>
      <trkpt lat="62.633169482719" lon="17.98622719247">
        <ele>111</ele>
        <time>2017-12-17T13:20:34Z</time>
      </trkpt>
      <trkpt lat="62.633167973977" lon="17.986113114811">
        <ele>110.6</ele>
        <time>2017-12-17T13:20:35Z</time>
      </trkpt>
      <trkpt lat="62.633168728348" lon="17.985975064918">
        <ele>110.4</ele>
        <time>2017-12-17T13:20:36Z</time>
      </trkpt>
      <trkpt lat="62.633169734176" lon="17.985854952291">
        <ele>110.2</ele>
        <time>2017-12-17T13:20:37Z</time>
      </trkpt>
      <trkpt lat="62.633171662013" lon="17.985724446108">
        <ele>110</ele>
        <time>2017-12-17T13:20:38Z</time>
      </trkpt>
      <trkpt lat="62.633174176583" lon="17.985604082024">
        <ele>109.6</ele>
        <time>2017-12-17T13:20:39Z</time>
      </trkpt>
      <trkpt lat="62.633179876275" lon="17.985490758736">
        <ele>109.2</ele>
        <time>2017-12-17T13:20:40Z</time>
      </trkpt>
      <trkpt lat="62.633182390845" lon="17.985400234216">
        <ele>109</ele>
        <time>2017-12-17T13:20:41Z</time>
      </trkpt>
      <trkpt lat="62.633187168528" lon="17.985293364991">
        <ele>109</ele>
        <time>2017-12-17T13:20:42Z</time>
      </trkpt>
      <trkpt lat="62.633200495749" lon="17.985134947081">
        <ele>109.2</ele>
        <time>2017-12-17T13:20:43Z</time>
      </trkpt>
      <trkpt lat="62.633221534318" lon="17.98498583308">
        <ele>109</ele>
        <time>2017-12-17T13:20:44Z</time>
      </trkpt>
      <trkpt lat="62.633242908163" lon="17.984845939169">
        <ele>108.6</ele>
        <time>2017-12-17T13:20:45Z</time>
      </trkpt>
      <trkpt lat="62.633270149338" lon="17.984708978923">
        <ele>107.8</ele>
        <time>2017-12-17T13:20:46Z</time>
      </trkpt>
      <trkpt lat="62.633293534839" lon="17.984593476341">
        <ele>107.2</ele>
        <time>2017-12-17T13:20:47Z</time>
      </trkpt>
      <trkpt lat="62.633321530385" lon="17.984449894394">
        <ele>106.6</ele>
        <time>2017-12-17T13:20:48Z</time>
      </trkpt>
      <trkpt lat="62.633342736592" lon="17.984333637441">
        <ele>105.8</ele>
        <time>2017-12-17T13:20:49Z</time>
      </trkpt>
      <trkpt lat="62.63335715346" lon="17.984226935854">
        <ele>105.6</ele>
        <time>2017-12-17T13:20:50Z</time>
      </trkpt>
      <trkpt lat="62.633371821785" lon="17.984109589254">
        <ele>105.6</ele>
        <time>2017-12-17T13:20:51Z</time>
      </trkpt>
      <trkpt lat="62.633382802074" lon="17.9840118563">
        <ele>105.6</ele>
        <time>2017-12-17T13:20:52Z</time>
      </trkpt>
      <trkpt lat="62.633393111811" lon="17.983896605175">
        <ele>105.6</ele>
        <time>2017-12-17T13:20:53Z</time>
      </trkpt>
      <trkpt lat="62.633408869783" lon="17.983799961868">
        <ele>105.8</ele>
        <time>2017-12-17T13:20:54Z</time>
      </trkpt>
      <trkpt lat="62.633419011882" lon="17.983706503683">
        <ele>106</ele>
        <time>2017-12-17T13:20:55Z</time>
      </trkpt>
      <trkpt lat="62.633433093474" lon="17.98362042157">
        <ele>106.4</ele>
        <time>2017-12-17T13:20:56Z</time>
      </trkpt>
      <trkpt lat="62.633448683808" lon="17.983534507095">
        <ele>106.8</ele>
        <time>2017-12-17T13:20:57Z</time>
      </trkpt>
      <trkpt lat="62.633465447608" lon="17.983441551824">
        <ele>107.2</ele>
        <time>2017-12-17T13:20:58Z</time>
      </trkpt>
      <trkpt lat="62.633479613019" lon="17.983363013421">
        <ele>107.4</ele>
        <time>2017-12-17T13:20:59Z</time>
      </trkpt>
      <trkpt lat="62.633495119534" lon="17.983295371488">
        <ele>107.4</ele>
        <time>2017-12-17T13:21:00Z</time>
      </trkpt>
      <trkpt lat="62.633510039316" lon="17.983222951872">
        <ele>107.4</ele>
        <time>2017-12-17T13:21:01Z</time>
      </trkpt>
      <trkpt lat="62.633522779804" lon="17.98315438793">
        <ele>107.4</ele>
        <time>2017-12-17T13:21:02Z</time>
      </trkpt>
      <trkpt lat="62.633535017378" lon="17.983076352441">
        <ele>107.6</ele>
        <time>2017-12-17T13:21:03Z</time>
      </trkpt>
      <trkpt lat="62.633545830029" lon="17.983000244789">
        <ele>107.6</ele>
        <time>2017-12-17T13:21:04Z</time>
      </trkpt>
      <trkpt lat="62.633556558861" lon="17.982928160449">
        <ele>107.6</ele>
        <time>2017-12-17T13:21:05Z</time>
      </trkpt>
      <trkpt lat="62.633575501955" lon="17.982846856019">
        <ele>107.4</ele>
        <time>2017-12-17T13:21:06Z</time>
      </trkpt>
      <trkpt lat="62.633582794208" lon="17.98277804062">
        <ele>107.4</ele>
        <time>2017-12-17T13:21:07Z</time>
      </trkpt>
      <trkpt lat="62.633599558008" lon="17.982690114489">
        <ele>107.4</ele>
        <time>2017-12-17T13:21:08Z</time>
      </trkpt>
      <trkpt lat="62.633609197193" lon="17.982604451471">
        <ele>107.4</ele>
        <time>2017-12-17T13:21:09Z</time>
      </trkpt>
      <trkpt lat="62.633618584921" lon="17.982521135385">
        <ele>107.4</ele>
        <time>2017-12-17T13:21:10Z</time>
      </trkpt>
      <trkpt lat="62.633626044812" lon="17.982438238394">
        <ele>107.4</ele>
        <time>2017-12-17T13:21:11Z</time>
      </trkpt>
      <trkpt lat="62.63363627073" lon="17.982343774381">
        <ele>107.6</ele>
        <time>2017-12-17T13:21:12Z</time>
      </trkpt>
      <trkpt lat="62.63364632901" lon="17.982247969264">
        <ele>107.4</ele>
        <time>2017-12-17T13:21:13Z</time>
      </trkpt>
      <trkpt lat="62.633656219652" lon="17.982161384237">
        <ele>107.4</ele>
        <time>2017-12-17T13:21:14Z</time>
      </trkpt>
      <trkpt lat="62.633664182457" lon="17.982072452278">
        <ele>107.6</ele>
        <time>2017-12-17T13:21:15Z</time>
      </trkpt>
      <trkpt lat="62.633675078927" lon="17.98199349478">
        <ele>107.6</ele>
        <time>2017-12-17T13:21:16Z</time>
      </trkpt>
      <trkpt lat="62.633680275705" lon="17.981930798168">
        <ele>107.6</ele>
        <time>2017-12-17T13:21:17Z</time>
      </trkpt>
      <trkpt lat="62.633686897406" lon="17.981854271421">
        <ele>107.6</ele>
        <time>2017-12-17T13:21:18Z</time>
      </trkpt>
      <trkpt lat="62.633687903234" lon="17.981786042755">
        <ele>107.6</ele>
        <time>2017-12-17T13:21:19Z</time>
      </trkpt>
      <trkpt lat="62.633687316501" lon="17.981722927048">
        <ele>107.6</ele>
        <time>2017-12-17T13:21:20Z</time>
      </trkpt>
      <trkpt lat="62.633697290962" lon="17.981647657586">
        <ele>107.8</ele>
        <time>2017-12-17T13:21:21Z</time>
      </trkpt>
      <trkpt lat="62.633706594871" lon="17.98157356159">
        <ele>107.8</ele>
        <time>2017-12-17T13:21:22Z</time>
      </trkpt>
      <trkpt lat="62.633718832445" lon="17.981499884689">
        <ele>108</ele>
        <time>2017-12-17T13:21:23Z</time>
      </trkpt>
      <trkpt lat="62.633732746399" lon="17.981420005182">
        <ele>108.2</ele>
        <time>2017-12-17T13:21:24Z</time>
      </trkpt>
      <trkpt lat="62.633739619557" lon="17.981339538942">
        <ele>108.2</ele>
        <time>2017-12-17T13:21:25Z</time>
      </trkpt>
      <trkpt lat="62.63375026457" lon="17.981261335815">
        <ele>108.2</ele>
        <time>2017-12-17T13:21:26Z</time>
      </trkpt>
      <trkpt lat="62.633760239031" lon="17.981189083837">
        <ele>108.2</ele>
        <time>2017-12-17T13:21:27Z</time>
      </trkpt>
      <trkpt lat="62.633774236804" lon="17.981108869054">
        <ele>108</ele>
        <time>2017-12-17T13:21:28Z</time>
      </trkpt>
      <trkpt lat="62.633781026143" lon="17.981045334252">
        <ele>107.8</ele>
        <time>2017-12-17T13:21:29Z</time>
      </trkpt>
      <trkpt lat="62.633795023916" lon="17.980984146382">
        <ele>107.8</ele>
        <time>2017-12-17T13:21:30Z</time>
      </trkpt>
      <trkpt lat="62.63382067253" lon="17.980934609353">
        <ele>108</ele>
        <time>2017-12-17T13:21:31Z</time>
      </trkpt>
      <trkpt lat="62.633841292004" lon="17.980886329609">
        <ele>108.2</ele>
        <time>2017-12-17T13:21:32Z</time>
      </trkpt>
      <trkpt lat="62.633857636709" lon="17.980839055693">
        <ele>108.4</ele>
        <time>2017-12-17T13:21:33Z</time>
      </trkpt>
      <trkpt lat="62.633877417993" lon="17.980787758465">
        <ele>108.4</ele>
        <time>2017-12-17T13:21:34Z</time>
      </trkpt>
      <trkpt lat="62.633891667223" lon="17.980731432097">
        <ele>108.8</ele>
        <time>2017-12-17T13:21:35Z</time>
      </trkpt>
      <trkpt lat="62.633909269213" lon="17.980671920607">
        <ele>108.8</ele>
        <time>2017-12-17T13:21:36Z</time>
      </trkpt>
      <trkpt lat="62.633927709393" lon="17.980620120465">
        <ele>108.8</ele>
        <time>2017-12-17T13:21:37Z</time>
      </trkpt>
      <trkpt lat="62.633950340523" lon="17.98056186626">
        <ele>109</ele>
        <time>2017-12-17T13:21:38Z</time>
      </trkpt>
      <trkpt lat="62.633969535074" lon="17.980503444417">
        <ele>109</ele>
        <time>2017-12-17T13:21:39Z</time>
      </trkpt>
      <trkpt lat="62.633991495652" lon="17.980449213524">
        <ele>109</ele>
        <time>2017-12-17T13:21:40Z</time>
      </trkpt>
      <trkpt lat="62.634011109298" lon="17.980402107246">
        <ele>109</ele>
        <time>2017-12-17T13:21:41Z</time>
      </trkpt>
      <trkpt lat="62.634032315505" lon="17.980352402579">
        <ele>109.2</ele>
        <time>2017-12-17T13:21:42Z</time>
      </trkpt>
      <trkpt lat="62.634060478689" lon="17.980297920229">
        <ele>109.4</ele>
        <time>2017-12-17T13:21:43Z</time>
      </trkpt>
      <trkpt lat="62.634085624389" lon="17.98024670682">
        <ele>109.4</ele>
        <time>2017-12-17T13:21:44Z</time>
      </trkpt>
      <trkpt lat="62.634107668786" lon="17.980197002153">
        <ele>109.6</ele>
        <time>2017-12-17T13:21:45Z</time>
      </trkpt>
      <trkpt lat="62.634130216097" lon="17.980148051857">
        <ele>109.6</ele>
        <time>2017-12-17T13:21:46Z</time>
      </trkpt>
      <trkpt lat="62.634154188331" lon="17.980104382158">
        <ele>109.4</ele>
        <time>2017-12-17T13:21:47Z</time>
      </trkpt>
      <trkpt lat="62.63418277061" lon="17.980051157093">
        <ele>109.4</ele>
        <time>2017-12-17T13:21:48Z</time>
      </trkpt>
      <trkpt lat="62.634203306265" lon="17.980001703883">
        <ele>109.4</ele>
        <time>2017-12-17T13:21:49Z</time>
      </trkpt>
      <trkpt lat="62.634223758101" lon="17.979948646456">
        <ele>109.4</ele>
        <time>2017-12-17T13:21:50Z</time>
      </trkpt>
      <trkpt lat="62.634241863005" lon="17.979897684504">
        <ele>109.4</ele>
        <time>2017-12-17T13:21:51Z</time>
      </trkpt>
      <trkpt lat="62.634269774732" lon="17.979835406987">
        <ele>109.4</ele>
        <time>2017-12-17T13:21:52Z</time>
      </trkpt>
      <trkpt lat="62.634283688686" lon="17.979772794194">
        <ele>109.4</ele>
        <time>2017-12-17T13:21:53Z</time>
      </trkpt>
      <trkpt lat="62.634304475798" lon="17.979704733166">
        <ele>109.4</ele>
        <time>2017-12-17T13:21:54Z</time>
      </trkpt>
      <trkpt lat="62.634322077788" lon="17.979628625514">
        <ele>109.4</ele>
        <time>2017-12-17T13:21:55Z</time>
      </trkpt>
      <trkpt lat="62.63433951214" lon="17.979565425988">
        <ele>109.4</ele>
        <time>2017-12-17T13:21:56Z</time>
      </trkpt>
      <trkpt lat="62.634351833533" lon="17.979509602534">
        <ele>109.2</ele>
        <time>2017-12-17T13:21:57Z</time>
      </trkpt>
      <trkpt lat="62.634360634528" lon="17.97944120623">
        <ele>109</ele>
        <time>2017-12-17T13:21:58Z</time>
      </trkpt>
      <trkpt lat="62.634376643957" lon="17.979373899573">
        <ele>109.2</ele>
        <time>2017-12-17T13:21:59Z</time>
      </trkpt>
      <trkpt lat="62.634385780228" lon="17.979299468301">
        <ele>109.2</ele>
        <time>2017-12-17T13:22:00Z</time>
      </trkpt>
      <trkpt lat="62.634402627847" lon="17.979236855508">
        <ele>109.2</ele>
        <time>2017-12-17T13:22:01Z</time>
      </trkpt>
      <trkpt lat="62.634413021403" lon="17.97916544172">
        <ele>109.2</ele>
        <time>2017-12-17T13:22:02Z</time>
      </trkpt>
      <trkpt lat="62.634427019176" lon="17.979098302701">
        <ele>109.4</ele>
        <time>2017-12-17T13:22:03Z</time>
      </trkpt>
      <trkpt lat="62.634441016949" lon="17.979023284696">
        <ele>109.4</ele>
        <time>2017-12-17T13:22:04Z</time>
      </trkpt>
      <trkpt lat="62.634449063573" lon="17.97895840879">
        <ele>109.2</ele>
        <time>2017-12-17T13:22:05Z</time>
      </trkpt>
      <trkpt lat="62.634465073002" lon="17.978876517627">
        <ele>109.4</ele>
        <time>2017-12-17T13:22:06Z</time>
      </trkpt>
      <trkpt lat="62.634477897309" lon="17.978814659205">
        <ele>109.4</ele>
        <time>2017-12-17T13:22:07Z</time>
      </trkpt>
      <trkpt lat="62.634491559806" lon="17.978729834377">
        <ele>109.2</ele>
        <time>2017-12-17T13:22:08Z</time>
      </trkpt>
      <trkpt lat="62.634506479588" lon="17.978661438073">
        <ele>109.2</ele>
        <time>2017-12-17T13:22:09Z</time>
      </trkpt>
      <trkpt lat="62.634516118773" lon="17.978588180267">
        <ele>109.2</ele>
        <time>2017-12-17T13:22:10Z</time>
      </trkpt>
      <trkpt lat="62.634529697451" lon="17.978517017936">
        <ele>109</ele>
        <time>2017-12-17T13:22:11Z</time>
      </trkpt>
      <trkpt lat="62.634546293613" lon="17.978441748474">
        <ele>109</ele>
        <time>2017-12-17T13:22:12Z</time>
      </trkpt>
      <trkpt lat="62.634561967766" lon="17.978348877022">
        <ele>108.8</ele>
        <time>2017-12-17T13:22:13Z</time>
      </trkpt>
      <trkpt lat="62.634578815385" lon="17.978249467688">
        <ele>109</ele>
        <time>2017-12-17T13:22:14Z</time>
      </trkpt>
      <trkpt lat="62.634595495366" lon="17.978152992019">
        <ele>109</ele>
        <time>2017-12-17T13:22:15Z</time>
      </trkpt>
      <trkpt lat="62.63461276208" lon="17.978053750323">
        <ele>108.8</ele>
        <time>2017-12-17T13:22:16Z</time>
      </trkpt>
      <trkpt lat="62.634626508396" lon="17.977968171124">
        <ele>108.6</ele>
        <time>2017-12-17T13:22:17Z</time>
      </trkpt>
      <trkpt lat="62.634643356015" lon="17.977867672143">
        <ele>108.2</ele>
        <time>2017-12-17T13:22:18Z</time>
      </trkpt>
      <trkpt lat="62.634656264141" lon="17.977782595858">
        <ele>107.6</ele>
        <time>2017-12-17T13:22:19Z</time>
      </trkpt>
      <trkpt lat="62.634671100104" lon="17.977687209836">
        <ele>107.4</ele>
        <time>2017-12-17T13:22:20Z</time>
      </trkpt>
      <trkpt lat="62.63468065547" lon="17.977596601497">
        <ele>107.4</ele>
        <time>2017-12-17T13:22:21Z</time>
      </trkpt>
      <trkpt lat="62.634692473949" lon="17.977510519384">
        <ele>107.4</ele>
        <time>2017-12-17T13:22:22Z</time>
      </trkpt>
      <trkpt lat="62.634705884989" lon="17.977424772547">
        <ele>107.6</ele>
        <time>2017-12-17T13:22:23Z</time>
      </trkpt>
      <trkpt lat="62.634722062056" lon="17.977331482">
        <ele>107.8</ele>
        <time>2017-12-17T13:22:24Z</time>
      </trkpt>
      <trkpt lat="62.634732790888" lon="17.977256799271">
        <ele>108</ele>
        <time>2017-12-17T13:22:25Z</time>
      </trkpt>
      <trkpt lat="62.634747291575" lon="17.977175494841">
        <ele>107.8</ele>
        <time>2017-12-17T13:22:26Z</time>
      </trkpt>
      <trkpt lat="62.634761876081" lon="17.977104835424">
        <ele>107.8</ele>
        <time>2017-12-17T13:22:27Z</time>
      </trkpt>
      <trkpt lat="62.634782411736" lon="17.977008024479">
        <ele>107.6</ele>
        <time>2017-12-17T13:22:28Z</time>
      </trkpt>
      <trkpt lat="62.634801438649" lon="17.976922110004">
        <ele>107.6</ele>
        <time>2017-12-17T13:22:29Z</time>
      </trkpt>
      <trkpt lat="62.63482230958" lon="17.976829070914">
        <ele>107.6</ele>
        <time>2017-12-17T13:22:30Z</time>
      </trkpt>
      <trkpt lat="62.634839995389" lon="17.976741144783">
        <ele>107.6</ele>
        <time>2017-12-17T13:22:31Z</time>
      </trkpt>
      <trkpt lat="62.63486170451" lon="17.976642070725">
        <ele>107.4</ele>
        <time>2017-12-17T13:22:32Z</time>
      </trkpt>
      <trkpt lat="62.634884587097" lon="17.976544924504">
        <ele>107.2</ele>
        <time>2017-12-17T13:22:33Z</time>
      </trkpt>
      <trkpt lat="62.634904787476" lon="17.976456830735">
        <ele>107</ele>
        <time>2017-12-17T13:22:34Z</time>
      </trkpt>
      <trkpt lat="62.634924149665" lon="17.976373933744">
        <ele>107</ele>
        <time>2017-12-17T13:22:35Z</time>
      </trkpt>
      <trkpt lat="62.634943679492" lon="17.97627871536">
        <ele>106.8</ele>
        <time>2017-12-17T13:22:36Z</time>
      </trkpt>
      <trkpt lat="62.63496480188" lon="17.976188358478">
        <ele>107</ele>
        <time>2017-12-17T13:22:37Z</time>
      </trkpt>
      <trkpt lat="62.634984499345" lon="17.976095822302">
        <ele>107</ele>
        <time>2017-12-17T13:22:38Z</time>
      </trkpt>
      <trkpt lat="62.635007130475" lon="17.976004375773">
        <ele>106.6</ele>
        <time>2017-12-17T13:22:39Z</time>
      </trkpt>
      <trkpt lat="62.635027163216" lon="17.975911755778">
        <ele>106.2</ele>
        <time>2017-12-17T13:22:40Z</time>
      </trkpt>
      <trkpt lat="62.635047698871" lon="17.975819973973">
        <ele>105.8</ele>
        <time>2017-12-17T13:22:41Z</time>
      </trkpt>
      <trkpt lat="62.635066809603" lon="17.975718050069">
        <ele>105.4</ele>
        <time>2017-12-17T13:22:42Z</time>
      </trkpt>
      <trkpt lat="62.635086842344" lon="17.975614198328">
        <ele>105.2</ele>
        <time>2017-12-17T13:22:43Z</time>
      </trkpt>
      <trkpt lat="62.635104947248" lon="17.975510765682">
        <ele>105.2</ele>
        <time>2017-12-17T13:22:44Z</time>
      </trkpt>
      <trkpt lat="62.63512321979" lon="17.97541286509">
        <ele>105.4</ele>
        <time>2017-12-17T13:22:45Z</time>
      </trkpt>
      <trkpt lat="62.635139648314" lon="17.975319909819">
        <ele>105.4</ele>
        <time>2017-12-17T13:22:46Z</time>
      </trkpt>
      <trkpt lat="62.635146940567" lon="17.975236509914">
        <ele>105.6</ele>
        <time>2017-12-17T13:22:47Z</time>
      </trkpt>
      <trkpt lat="62.635146018558" lon="17.975096196908">
        <ele>106</ele>
        <time>2017-12-17T13:22:48Z</time>
      </trkpt>
      <trkpt lat="62.635131853147" lon="17.974983544172">
        <ele>105.6</ele>
        <time>2017-12-17T13:22:49Z</time>
      </trkpt>
      <trkpt lat="62.635107126542" lon="17.974872986911">
        <ele>105.2</ele>
        <time>2017-12-17T13:22:50Z</time>
      </trkpt>
      <trkpt lat="62.635078125168" lon="17.974764608944">
        <ele>104.4</ele>
        <time>2017-12-17T13:22:51Z</time>
      </trkpt>
      <trkpt lat="62.635048201785" lon="17.974659835194">
        <ele>104</ele>
        <time>2017-12-17T13:22:52Z</time>
      </trkpt>
      <trkpt lat="62.635018194583" lon="17.974551038132">
        <ele>103.6</ele>
        <time>2017-12-17T13:22:53Z</time>
      </trkpt>
      <trkpt lat="62.634991959236" lon="17.974429919677">
        <ele>102.6</ele>
        <time>2017-12-17T13:22:54Z</time>
      </trkpt>
      <trkpt lat="62.634968825192" lon="17.974321876986">
        <ele>102.4</ele>
        <time>2017-12-17T13:22:55Z</time>
      </trkpt>
      <trkpt lat="62.634948121899" lon="17.974220288358">
        <ele>102.2</ele>
        <time>2017-12-17T13:22:56Z</time>
      </trkpt>
      <trkpt lat="62.634929178805" lon="17.974131691675">
        <ele>101.8</ele>
        <time>2017-12-17T13:22:57Z</time>
      </trkpt>
      <trkpt lat="62.634908978426" lon="17.974017614016">
        <ele>101.6</ele>
        <time>2017-12-17T13:22:58Z</time>
      </trkpt>
      <trkpt lat="62.634896237938" lon="17.973933878835">
        <ele>101.4</ele>
        <time>2017-12-17T13:22:59Z</time>
      </trkpt>
      <trkpt lat="62.634876205197" lon="17.97383874427">
        <ele>101.4</ele>
        <time>2017-12-17T13:23:00Z</time>
      </trkpt>
      <trkpt lat="62.634848125832" lon="17.973748806483">
        <ele>101.4</ele>
        <time>2017-12-17T13:23:01Z</time>
      </trkpt>
      <trkpt lat="62.634820800838" lon="17.973665490397">
        <ele>101.6</ele>
        <time>2017-12-17T13:23:02Z</time>
      </trkpt>
      <trkpt lat="62.6347954875" lon="17.973577731904">
        <ele>101.8</ele>
        <time>2017-12-17T13:23:03Z</time>
      </trkpt>
      <trkpt lat="62.634778388424" lon="17.973481256235">
        <ele>102</ele>
        <time>2017-12-17T13:23:04Z</time>
      </trkpt>
      <trkpt lat="62.634765564117" lon="17.973383355643">
        <ele>102</ele>
        <time>2017-12-17T13:23:05Z</time>
      </trkpt>
      <trkpt lat="62.634753326543" lon="17.97328553887">
        <ele>102.2</ele>
        <time>2017-12-17T13:23:06Z</time>
      </trkpt>
      <trkpt lat="62.634748213584" lon="17.973184620794">
        <ele>102</ele>
        <time>2017-12-17T13:23:07Z</time>
      </trkpt>
      <trkpt lat="62.63475525438" lon="17.973069118212">
        <ele>101.8</ele>
        <time>2017-12-17T13:23:08Z</time>
      </trkpt>
      <trkpt lat="62.634766653764" lon="17.97296367391">
        <ele>101.8</ele>
        <time>2017-12-17T13:23:09Z</time>
      </trkpt>
      <trkpt lat="62.634784926306" lon="17.972852362278">
        <ele>101.8</ele>
        <time>2017-12-17T13:23:10Z</time>
      </trkpt>
      <trkpt lat="62.634806803065" lon="17.972744403406">
        <ele>101.6</ele>
        <time>2017-12-17T13:23:11Z</time>
      </trkpt>
      <trkpt lat="62.634827590177" lon="17.972651699592">
        <ele>101.4</ele>
        <time>2017-12-17T13:23:12Z</time>
      </trkpt>
      <trkpt lat="62.634856759189" lon="17.972544746548">
        <ele>101.4</ele>
        <time>2017-12-17T13:23:13Z</time>
      </trkpt>
      <trkpt lat="62.6348793065" lon="17.972438464056">
        <ele>101.4</ele>
        <time>2017-12-17T13:23:14Z</time>
      </trkpt>
      <trkpt lat="62.634902943458" lon="17.97236017711">
        <ele>101</ele>
        <time>2017-12-17T13:23:15Z</time>
      </trkpt>
      <trkpt lat="62.634928592072" lon="17.97228893096">
        <ele>100.8</ele>
        <time>2017-12-17T13:23:16Z</time>
      </trkpt>
      <trkpt lat="62.63495725817" lon="17.972207542711">
        <ele>100.6</ele>
        <time>2017-12-17T13:23:17Z</time>
      </trkpt>
      <trkpt lat="62.634988355019" lon="17.972116599096">
        <ele>100.2</ele>
        <time>2017-12-17T13:23:18Z</time>
      </trkpt>
      <trkpt lat="62.635013333081" lon="17.972028756784">
        <ele>99.6</ele>
        <time>2017-12-17T13:23:19Z</time>
      </trkpt>
      <trkpt lat="62.635038394962" lon="17.971933286943">
        <ele>99.4</ele>
        <time>2017-12-17T13:23:20Z</time>
      </trkpt>
      <trkpt lat="62.635064881766" lon="17.971819963655">
        <ele>98.8</ele>
        <time>2017-12-17T13:23:21Z</time>
      </trkpt>
      <trkpt lat="62.635086758525" lon="17.971703958159">
        <ele>98.4</ele>
        <time>2017-12-17T13:23:22Z</time>
      </trkpt>
      <trkpt lat="62.63510645599" lon="17.971578648754">
        <ele>98.2</ele>
        <time>2017-12-17T13:23:23Z</time>
      </trkpt>
      <trkpt lat="62.635124812351" lon="17.971443532526">
        <ele>98.4</ele>
        <time>2017-12-17T13:23:24Z</time>
      </trkpt>
      <trkpt lat="62.635139564495" lon="17.971321492062">
        <ele>98.4</ele>
        <time>2017-12-17T13:23:25Z</time>
      </trkpt>
      <trkpt lat="62.635154651915" lon="17.97119425482">
        <ele>98.4</ele>
        <time>2017-12-17T13:23:26Z</time>
      </trkpt>
      <trkpt lat="62.63516848205" lon="17.971082440274">
        <ele>98.4</ele>
        <time>2017-12-17T13:23:27Z</time>
      </trkpt>
      <trkpt lat="62.635185664945" lon="17.970942127268">
        <ele>98.2</ele>
        <time>2017-12-17T13:23:28Z</time>
      </trkpt>
      <trkpt lat="62.635199914175" lon="17.970824026297">
        <ele>97.8</ele>
        <time>2017-12-17T13:23:29Z</time>
      </trkpt>
      <trkpt lat="62.635215253052" lon="17.97068882625">
        <ele>97.2</ele>
        <time>2017-12-17T13:23:30Z</time>
      </trkpt>
      <trkpt lat="62.635228328816" lon="17.970572988392">
        <ele>96.8</ele>
        <time>2017-12-17T13:23:31Z</time>
      </trkpt>
      <trkpt lat="62.635242075132" lon="17.970451031747">
        <ele>96.4</ele>
        <time>2017-12-17T13:23:32Z</time>
      </trkpt>
      <trkpt lat="62.635256743457" lon="17.97033008093">
        <ele>95.8</ele>
        <time>2017-12-17T13:23:33Z</time>
      </trkpt>
      <trkpt lat="62.635270657411" lon="17.970221535325">
        <ele>95.4</ele>
        <time>2017-12-17T13:23:34Z</time>
      </trkpt>
      <trkpt lat="62.635286080107" lon="17.970120198154">
        <ele>95</ele>
        <time>2017-12-17T13:23:35Z</time>
      </trkpt>
      <trkpt lat="62.635308543599" lon="17.970002683916">
        <ele>94.8</ele>
        <time>2017-12-17T13:23:36Z</time>
      </trkpt>
      <trkpt lat="62.635331342367" lon="17.96990260403">
        <ele>94.4</ele>
        <time>2017-12-17T13:23:37Z</time>
      </trkpt>
      <trkpt lat="62.635359673189" lon="17.969792382045">
        <ele>94</ele>
        <time>2017-12-17T13:23:38Z</time>
      </trkpt>
      <trkpt lat="62.635386746726" lon="17.969686518648">
        <ele>93.8</ele>
        <time>2017-12-17T13:23:39Z</time>
      </trkpt>
      <trkpt lat="62.6354157481" lon="17.969585600572">
        <ele>93.2</ele>
        <time>2017-12-17T13:23:40Z</time>
      </trkpt>
      <trkpt lat="62.635440642343" lon="17.969486275057">
        <ele>92.8</ele>
        <time>2017-12-17T13:23:41Z</time>
      </trkpt>
      <trkpt lat="62.635465117491" lon="17.96938795537">
        <ele>92.2</ele>
        <time>2017-12-17T13:23:42Z</time>
      </trkpt>
      <trkpt lat="62.635496046702" lon="17.969269602942">
        <ele>91.6</ele>
        <time>2017-12-17T13:23:43Z</time>
      </trkpt>
      <trkpt lat="62.635523706972" lon="17.969162398441">
        <ele>91.2</ele>
        <time>2017-12-17T13:23:44Z</time>
      </trkpt>
      <trkpt lat="62.635552205432" lon="17.969059971623">
        <ele>90.6</ele>
        <time>2017-12-17T13:23:45Z</time>
      </trkpt>
      <trkpt lat="62.635580117159" lon="17.968956455158">
        <ele>89.8</ele>
        <time>2017-12-17T13:23:46Z</time>
      </trkpt>
      <trkpt lat="62.635605933411" lon="17.968870708321">
        <ele>89</ele>
        <time>2017-12-17T13:23:47Z</time>
      </trkpt>
      <trkpt lat="62.63564122121" lon="17.968757385033">
        <ele>88.4</ele>
        <time>2017-12-17T13:23:48Z</time>
      </trkpt>
      <trkpt lat="62.635674581172" lon="17.968668453074">
        <ele>87.8</ele>
        <time>2017-12-17T13:23:49Z</time>
      </trkpt>
      <trkpt lat="62.635712299722" lon="17.968590669042">
        <ele>87.4</ele>
        <time>2017-12-17T13:23:50Z</time>
      </trkpt>
      <trkpt lat="62.635757142887" lon="17.968517159779">
        <ele>87</ele>
        <time>2017-12-17T13:23:51Z</time>
      </trkpt>
      <trkpt lat="62.635802908061" lon="17.968464018533">
        <ele>86.6</ele>
        <time>2017-12-17T13:23:52Z</time>
      </trkpt>
      <trkpt lat="62.635853199461" lon="17.96842068411">
        <ele>86</ele>
        <time>2017-12-17T13:23:53Z</time>
      </trkpt>
      <trkpt lat="62.635910112562" lon="17.968388497614">
        <ele>85.6</ele>
        <time>2017-12-17T13:23:54Z</time>
      </trkpt>
      <trkpt lat="62.635962499437" lon="17.968377014411">
        <ele>85.2</ele>
        <time>2017-12-17T13:23:55Z</time>
      </trkpt>
      <trkpt lat="62.636014467217" lon="17.968381875913">
        <ele>84.8</ele>
        <time>2017-12-17T13:23:56Z</time>
      </trkpt>
      <trkpt lat="62.636053359233" lon="17.968395957505">
        <ele>84.6</ele>
        <time>2017-12-17T13:23:57Z</time>
      </trkpt>
      <trkpt lat="62.636116642578" lon="17.968425042698">
        <ele>84.4</ele>
        <time>2017-12-17T13:23:59Z</time>
      </trkpt>
      <trkpt lat="62.636131227084" lon="17.968425880888">
        <ele>84.4</ele>
        <time>2017-12-17T13:24:00Z</time>
      </trkpt>
      <trkpt lat="62.636131143265" lon="17.968427724906">
        <ele>84.4</ele>
        <time>2017-12-17T13:24:01Z</time>
      </trkpt>
      <trkpt lat="62.636126449401" lon="17.968431077666">
        <ele>84.4</ele>
        <time>2017-12-17T13:24:02Z</time>
      </trkpt>
    </trkseg>
  </trk>
</gpx>